<?xml version="1.0" encoding="UTF-8" standalone="no" ?>
<gpx xmlns="http://www.topografix.com/GPX/1/1" xmlns:xsi="http://www.w3.org/2001/XMLSchema-instance" xsi:schemaLocation="http://www.topografix.com/GPX/1/1 http://www.topografix.com/GPX/1/1/gpx.xsd" version="1.1" creator="VisuGPX - https://www.visugpx.com">
  <metadata>
    <name>st leger sous cholet </name>
    <desc><![CDATA[sortie hebdo sections loisirs sur cholet]]></desc>
  </metadata>
  <trk>
    <name><![CDATA[foyer laique]]></name>
    <trkseg>
      <trkpt lat="47.14413" lon="-0.89522">
        <ele>102</ele>
        <time>2014-11-20T14:04:42Z</time>
      </trkpt>
      <trkpt lat="47.14436" lon="-0.89544">
        <ele>103</ele>
        <time>2014-11-20T14:05:06Z</time>
      </trkpt>
      <trkpt lat="47.14438" lon="-0.89545">
        <ele>103</ele>
        <time>2014-11-20T14:05:08Z</time>
      </trkpt>
      <trkpt lat="47.14441" lon="-0.89543">
        <ele>103</ele>
        <time>2014-11-20T14:05:10Z</time>
      </trkpt>
      <trkpt lat="47.14444" lon="-0.89543">
        <ele>103</ele>
        <time>2014-11-20T14:05:12Z</time>
      </trkpt>
      <trkpt lat="47.14447" lon="-0.89543">
        <ele>103</ele>
        <time>2014-11-20T14:05:14Z</time>
      </trkpt>
      <trkpt lat="47.14449" lon="-0.89544">
        <ele>103</ele>
        <time>2014-11-20T14:05:16Z</time>
      </trkpt>
      <trkpt lat="47.14452" lon="-0.89544">
        <ele>103</ele>
        <time>2014-11-20T14:05:18Z</time>
      </trkpt>
      <trkpt lat="47.14455" lon="-0.89544">
        <ele>103</ele>
        <time>2014-11-20T14:05:20Z</time>
      </trkpt>
      <trkpt lat="47.14458" lon="-0.89544">
        <ele>103</ele>
        <time>2014-11-20T14:05:23Z</time>
      </trkpt>
      <trkpt lat="47.1446" lon="-0.89544">
        <ele>103</ele>
        <time>2014-11-20T14:05:25Z</time>
      </trkpt>
      <trkpt lat="47.14463" lon="-0.89544">
        <ele>103</ele>
        <time>2014-11-20T14:05:27Z</time>
      </trkpt>
      <trkpt lat="47.14466" lon="-0.89544">
        <ele>103</ele>
        <time>2014-11-20T14:05:30Z</time>
      </trkpt>
      <trkpt lat="47.14469" lon="-0.89544">
        <ele>103</ele>
        <time>2014-11-20T14:05:32Z</time>
      </trkpt>
      <trkpt lat="47.14471" lon="-0.89544">
        <ele>103</ele>
        <time>2014-11-20T14:05:34Z</time>
      </trkpt>
      <trkpt lat="47.14473" lon="-0.89542">
        <ele>103</ele>
        <time>2014-11-20T14:05:36Z</time>
      </trkpt>
      <trkpt lat="47.14476" lon="-0.89542">
        <ele>103</ele>
        <time>2014-11-20T14:05:38Z</time>
      </trkpt>
      <trkpt lat="47.14479" lon="-0.89542">
        <ele>102</ele>
        <time>2014-11-20T14:05:40Z</time>
      </trkpt>
      <trkpt lat="47.14481" lon="-0.89543">
        <ele>102</ele>
        <time>2014-11-20T14:05:42Z</time>
      </trkpt>
      <trkpt lat="47.14484" lon="-0.89543">
        <ele>102</ele>
        <time>2014-11-20T14:05:44Z</time>
      </trkpt>
      <trkpt lat="47.14487" lon="-0.89544">
        <ele>102</ele>
        <time>2014-11-20T14:05:47Z</time>
      </trkpt>
      <trkpt lat="47.14489" lon="-0.89544">
        <ele>102</ele>
        <time>2014-11-20T14:05:49Z</time>
      </trkpt>
      <trkpt lat="47.1449" lon="-0.89544">
        <ele>102</ele>
        <time>2014-11-20T14:05:51Z</time>
      </trkpt>
      <trkpt lat="47.14492" lon="-0.89545">
        <ele>102</ele>
        <time>2014-11-20T14:05:59Z</time>
      </trkpt>
      <trkpt lat="47.14494" lon="-0.89545">
        <ele>102</ele>
        <time>2014-11-20T14:06:01Z</time>
      </trkpt>
      <trkpt lat="47.14497" lon="-0.89546">
        <ele>102</ele>
        <time>2014-11-20T14:06:03Z</time>
      </trkpt>
      <trkpt lat="47.14501" lon="-0.89547">
        <ele>102</ele>
        <time>2014-11-20T14:06:06Z</time>
      </trkpt>
      <trkpt lat="47.14504" lon="-0.89547">
        <ele>102</ele>
        <time>2014-11-20T14:06:08Z</time>
      </trkpt>
      <trkpt lat="47.14507" lon="-0.89548">
        <ele>102</ele>
        <time>2014-11-20T14:06:10Z</time>
      </trkpt>
      <trkpt lat="47.14509" lon="-0.8955">
        <ele>102</ele>
        <time>2014-11-20T14:06:12Z</time>
      </trkpt>
      <trkpt lat="47.14512" lon="-0.89551">
        <ele>102</ele>
        <time>2014-11-20T14:06:14Z</time>
      </trkpt>
      <trkpt lat="47.14514" lon="-0.89552">
        <ele>102</ele>
        <time>2014-11-20T14:06:16Z</time>
      </trkpt>
      <trkpt lat="47.14517" lon="-0.89553">
        <ele>102</ele>
        <time>2014-11-20T14:06:18Z</time>
      </trkpt>
      <trkpt lat="47.1452" lon="-0.89554">
        <ele>102</ele>
        <time>2014-11-20T14:06:20Z</time>
      </trkpt>
      <trkpt lat="47.14523" lon="-0.89555">
        <ele>102</ele>
        <time>2014-11-20T14:06:22Z</time>
      </trkpt>
      <trkpt lat="47.14526" lon="-0.89556">
        <ele>102</ele>
        <time>2014-11-20T14:06:24Z</time>
      </trkpt>
      <trkpt lat="47.14528" lon="-0.89557">
        <ele>102</ele>
        <time>2014-11-20T14:06:26Z</time>
      </trkpt>
      <trkpt lat="47.14531" lon="-0.89559">
        <ele>102</ele>
        <time>2014-11-20T14:06:28Z</time>
      </trkpt>
      <trkpt lat="47.14534" lon="-0.8956">
        <ele>102</ele>
        <time>2014-11-20T14:06:30Z</time>
      </trkpt>
      <trkpt lat="47.14537" lon="-0.89561">
        <ele>102</ele>
        <time>2014-11-20T14:06:33Z</time>
      </trkpt>
      <trkpt lat="47.1454" lon="-0.89562">
        <ele>102</ele>
        <time>2014-11-20T14:06:35Z</time>
      </trkpt>
      <trkpt lat="47.14542" lon="-0.89564">
        <ele>101</ele>
        <time>2014-11-20T14:06:37Z</time>
      </trkpt>
      <trkpt lat="47.14545" lon="-0.89565">
        <ele>101</ele>
        <time>2014-11-20T14:06:39Z</time>
      </trkpt>
      <trkpt lat="47.14547" lon="-0.89566">
        <ele>101</ele>
        <time>2014-11-20T14:06:41Z</time>
      </trkpt>
      <trkpt lat="47.1455" lon="-0.89567">
        <ele>101</ele>
        <time>2014-11-20T14:06:43Z</time>
      </trkpt>
      <trkpt lat="47.14552" lon="-0.89569">
        <ele>101</ele>
        <time>2014-11-20T14:06:45Z</time>
      </trkpt>
      <trkpt lat="47.14555" lon="-0.8957">
        <ele>101</ele>
        <time>2014-11-20T14:06:47Z</time>
      </trkpt>
      <trkpt lat="47.14558" lon="-0.89571">
        <ele>101</ele>
        <time>2014-11-20T14:06:50Z</time>
      </trkpt>
      <trkpt lat="47.1456" lon="-0.89572">
        <ele>101</ele>
        <time>2014-11-20T14:06:52Z</time>
      </trkpt>
      <trkpt lat="47.14563" lon="-0.89573">
        <ele>101</ele>
        <time>2014-11-20T14:06:54Z</time>
      </trkpt>
      <trkpt lat="47.14566" lon="-0.89574">
        <ele>101</ele>
        <time>2014-11-20T14:06:56Z</time>
      </trkpt>
      <trkpt lat="47.14568" lon="-0.89575">
        <ele>101</ele>
        <time>2014-11-20T14:06:58Z</time>
      </trkpt>
      <trkpt lat="47.1457" lon="-0.89576">
        <ele>101</ele>
        <time>2014-11-20T14:07:00Z</time>
      </trkpt>
      <trkpt lat="47.14573" lon="-0.89577">
        <ele>101</ele>
        <time>2014-11-20T14:07:02Z</time>
      </trkpt>
      <trkpt lat="47.14575" lon="-0.89578">
        <ele>101</ele>
        <time>2014-11-20T14:07:04Z</time>
      </trkpt>
      <trkpt lat="47.14577" lon="-0.89578">
        <ele>101</ele>
        <time>2014-11-20T14:07:06Z</time>
      </trkpt>
      <trkpt lat="47.1458" lon="-0.89579">
        <ele>101</ele>
        <time>2014-11-20T14:07:08Z</time>
      </trkpt>
      <trkpt lat="47.14583" lon="-0.8958">
        <ele>101</ele>
        <time>2014-11-20T14:07:11Z</time>
      </trkpt>
      <trkpt lat="47.14585" lon="-0.89581">
        <ele>101</ele>
        <time>2014-11-20T14:07:13Z</time>
      </trkpt>
      <trkpt lat="47.14588" lon="-0.89581">
        <ele>101</ele>
        <time>2014-11-20T14:07:15Z</time>
      </trkpt>
      <trkpt lat="47.14591" lon="-0.89582">
        <ele>100</ele>
        <time>2014-11-20T14:07:17Z</time>
      </trkpt>
      <trkpt lat="47.14593" lon="-0.89583">
        <ele>100</ele>
        <time>2014-11-20T14:07:19Z</time>
      </trkpt>
      <trkpt lat="47.14596" lon="-0.89583">
        <ele>99</ele>
        <time>2014-11-20T14:07:21Z</time>
      </trkpt>
      <trkpt lat="47.146" lon="-0.89584">
        <ele>98</ele>
        <time>2014-11-20T14:07:24Z</time>
      </trkpt>
      <trkpt lat="47.14602" lon="-0.89584">
        <ele>98</ele>
        <time>2014-11-20T14:07:26Z</time>
      </trkpt>
      <trkpt lat="47.14605" lon="-0.89583">
        <ele>97</ele>
        <time>2014-11-20T14:07:29Z</time>
      </trkpt>
      <trkpt lat="47.14608" lon="-0.89583">
        <ele>97</ele>
        <time>2014-11-20T14:07:31Z</time>
      </trkpt>
      <trkpt lat="47.14611" lon="-0.89583">
        <ele>96</ele>
        <time>2014-11-20T14:07:33Z</time>
      </trkpt>
      <trkpt lat="47.14613" lon="-0.89583">
        <ele>96</ele>
        <time>2014-11-20T14:07:35Z</time>
      </trkpt>
      <trkpt lat="47.14616" lon="-0.89583">
        <ele>96</ele>
        <time>2014-11-20T14:07:37Z</time>
      </trkpt>
      <trkpt lat="47.14619" lon="-0.89584">
        <ele>96</ele>
        <time>2014-11-20T14:07:39Z</time>
      </trkpt>
      <trkpt lat="47.14622" lon="-0.89586">
        <ele>96</ele>
        <time>2014-11-20T14:07:41Z</time>
      </trkpt>
      <trkpt lat="47.14626" lon="-0.89585">
        <ele>96</ele>
        <time>2014-11-20T14:07:44Z</time>
      </trkpt>
      <trkpt lat="47.14628" lon="-0.89585">
        <ele>96</ele>
        <time>2014-11-20T14:07:46Z</time>
      </trkpt>
      <trkpt lat="47.14631" lon="-0.89585">
        <ele>96</ele>
        <time>2014-11-20T14:07:48Z</time>
      </trkpt>
      <trkpt lat="47.14634" lon="-0.89585">
        <ele>96</ele>
        <time>2014-11-20T14:07:50Z</time>
      </trkpt>
      <trkpt lat="47.14637" lon="-0.89584">
        <ele>96</ele>
        <time>2014-11-20T14:07:52Z</time>
      </trkpt>
      <trkpt lat="47.14641" lon="-0.89583">
        <ele>96</ele>
        <time>2014-11-20T14:07:54Z</time>
      </trkpt>
      <trkpt lat="47.14643" lon="-0.89583">
        <ele>96</ele>
        <time>2014-11-20T14:07:56Z</time>
      </trkpt>
      <trkpt lat="47.14646" lon="-0.89582">
        <ele>96</ele>
        <time>2014-11-20T14:07:58Z</time>
      </trkpt>
      <trkpt lat="47.14649" lon="-0.89582">
        <ele>96</ele>
        <time>2014-11-20T14:08:00Z</time>
      </trkpt>
      <trkpt lat="47.14652" lon="-0.89582">
        <ele>96</ele>
        <time>2014-11-20T14:08:02Z</time>
      </trkpt>
      <trkpt lat="47.14655" lon="-0.89582">
        <ele>96</ele>
        <time>2014-11-20T14:08:04Z</time>
      </trkpt>
      <trkpt lat="47.14658" lon="-0.89581">
        <ele>96</ele>
        <time>2014-11-20T14:08:07Z</time>
      </trkpt>
      <trkpt lat="47.14661" lon="-0.89581">
        <ele>96</ele>
        <time>2014-11-20T14:08:09Z</time>
      </trkpt>
      <trkpt lat="47.14663" lon="-0.89579">
        <ele>96</ele>
        <time>2014-11-20T14:08:11Z</time>
      </trkpt>
      <trkpt lat="47.14666" lon="-0.89579">
        <ele>96</ele>
        <time>2014-11-20T14:08:13Z</time>
      </trkpt>
      <trkpt lat="47.14668" lon="-0.89579">
        <ele>96</ele>
        <time>2014-11-20T14:08:15Z</time>
      </trkpt>
      <trkpt lat="47.14671" lon="-0.89579">
        <ele>96</ele>
        <time>2014-11-20T14:08:17Z</time>
      </trkpt>
      <trkpt lat="47.14674" lon="-0.89579">
        <ele>96</ele>
        <time>2014-11-20T14:08:19Z</time>
      </trkpt>
      <trkpt lat="47.14677" lon="-0.89579">
        <ele>96</ele>
        <time>2014-11-20T14:08:21Z</time>
      </trkpt>
      <trkpt lat="47.14679" lon="-0.89579">
        <ele>96</ele>
        <time>2014-11-20T14:08:23Z</time>
      </trkpt>
      <trkpt lat="47.14682" lon="-0.89579">
        <ele>96</ele>
        <time>2014-11-20T14:08:25Z</time>
      </trkpt>
      <trkpt lat="47.14685" lon="-0.89579">
        <ele>96</ele>
        <time>2014-11-20T14:08:27Z</time>
      </trkpt>
      <trkpt lat="47.14688" lon="-0.89579">
        <ele>96</ele>
        <time>2014-11-20T14:08:29Z</time>
      </trkpt>
      <trkpt lat="47.14692" lon="-0.8958">
        <ele>96</ele>
        <time>2014-11-20T14:08:31Z</time>
      </trkpt>
      <trkpt lat="47.14694" lon="-0.89581">
        <ele>96</ele>
        <time>2014-11-20T14:08:33Z</time>
      </trkpt>
      <trkpt lat="47.14697" lon="-0.89582">
        <ele>96</ele>
        <time>2014-11-20T14:08:35Z</time>
      </trkpt>
      <trkpt lat="47.14699" lon="-0.89583">
        <ele>96</ele>
        <time>2014-11-20T14:08:37Z</time>
      </trkpt>
      <trkpt lat="47.14702" lon="-0.89584">
        <ele>96</ele>
        <time>2014-11-20T14:08:39Z</time>
      </trkpt>
      <trkpt lat="47.14705" lon="-0.89585">
        <ele>96</ele>
        <time>2014-11-20T14:08:41Z</time>
      </trkpt>
      <trkpt lat="47.14707" lon="-0.89586">
        <ele>96</ele>
        <time>2014-11-20T14:08:43Z</time>
      </trkpt>
      <trkpt lat="47.1471" lon="-0.89587">
        <ele>96</ele>
        <time>2014-11-20T14:08:45Z</time>
      </trkpt>
      <trkpt lat="47.14712" lon="-0.89588">
        <ele>96</ele>
        <time>2014-11-20T14:08:47Z</time>
      </trkpt>
      <trkpt lat="47.14715" lon="-0.89591">
        <ele>96</ele>
        <time>2014-11-20T14:08:49Z</time>
      </trkpt>
      <trkpt lat="47.14717" lon="-0.89592">
        <ele>96</ele>
        <time>2014-11-20T14:08:51Z</time>
      </trkpt>
      <trkpt lat="47.1472" lon="-0.89594">
        <ele>96</ele>
        <time>2014-11-20T14:08:53Z</time>
      </trkpt>
      <trkpt lat="47.14723" lon="-0.89596">
        <ele>96</ele>
        <time>2014-11-20T14:08:56Z</time>
      </trkpt>
      <trkpt lat="47.14726" lon="-0.89597">
        <ele>96</ele>
        <time>2014-11-20T14:08:58Z</time>
      </trkpt>
      <trkpt lat="47.14729" lon="-0.89598">
        <ele>96</ele>
        <time>2014-11-20T14:09:00Z</time>
      </trkpt>
      <trkpt lat="47.14731" lon="-0.896">
        <ele>96</ele>
        <time>2014-11-20T14:09:02Z</time>
      </trkpt>
      <trkpt lat="47.14734" lon="-0.896">
        <ele>97</ele>
        <time>2014-11-20T14:09:04Z</time>
      </trkpt>
      <trkpt lat="47.14736" lon="-0.89602">
        <ele>97</ele>
        <time>2014-11-20T14:09:06Z</time>
      </trkpt>
      <trkpt lat="47.1474" lon="-0.89604">
        <ele>97</ele>
        <time>2014-11-20T14:09:09Z</time>
      </trkpt>
      <trkpt lat="47.14742" lon="-0.89605">
        <ele>97</ele>
        <time>2014-11-20T14:09:11Z</time>
      </trkpt>
      <trkpt lat="47.14745" lon="-0.89606">
        <ele>97</ele>
        <time>2014-11-20T14:09:13Z</time>
      </trkpt>
      <trkpt lat="47.14747" lon="-0.89608">
        <ele>97</ele>
        <time>2014-11-20T14:09:15Z</time>
      </trkpt>
      <trkpt lat="47.1475" lon="-0.89609">
        <ele>97</ele>
        <time>2014-11-20T14:09:17Z</time>
      </trkpt>
      <trkpt lat="47.14753" lon="-0.89612">
        <ele>97</ele>
        <time>2014-11-20T14:09:20Z</time>
      </trkpt>
      <trkpt lat="47.14756" lon="-0.89613">
        <ele>97</ele>
        <time>2014-11-20T14:09:22Z</time>
      </trkpt>
      <trkpt lat="47.14758" lon="-0.89614">
        <ele>97</ele>
        <time>2014-11-20T14:09:24Z</time>
      </trkpt>
      <trkpt lat="47.1476" lon="-0.89616">
        <ele>97</ele>
        <time>2014-11-20T14:09:26Z</time>
      </trkpt>
      <trkpt lat="47.14763" lon="-0.89618">
        <ele>97</ele>
        <time>2014-11-20T14:09:28Z</time>
      </trkpt>
      <trkpt lat="47.14765" lon="-0.89619">
        <ele>97</ele>
        <time>2014-11-20T14:09:30Z</time>
      </trkpt>
      <trkpt lat="47.14767" lon="-0.89621">
        <ele>97</ele>
        <time>2014-11-20T14:09:32Z</time>
      </trkpt>
      <trkpt lat="47.1477" lon="-0.89622">
        <ele>97</ele>
        <time>2014-11-20T14:09:34Z</time>
      </trkpt>
      <trkpt lat="47.14772" lon="-0.89623">
        <ele>97</ele>
        <time>2014-11-20T14:09:36Z</time>
      </trkpt>
      <trkpt lat="47.14775" lon="-0.89626">
        <ele>97</ele>
        <time>2014-11-20T14:09:39Z</time>
      </trkpt>
      <trkpt lat="47.14777" lon="-0.89627">
        <ele>97</ele>
        <time>2014-11-20T14:09:41Z</time>
      </trkpt>
      <trkpt lat="47.1478" lon="-0.89628">
        <ele>97</ele>
        <time>2014-11-20T14:09:43Z</time>
      </trkpt>
      <trkpt lat="47.14783" lon="-0.8963">
        <ele>97</ele>
        <time>2014-11-20T14:09:45Z</time>
      </trkpt>
      <trkpt lat="47.14785" lon="-0.89631">
        <ele>97</ele>
        <time>2014-11-20T14:09:47Z</time>
      </trkpt>
      <trkpt lat="47.14787" lon="-0.89632">
        <ele>97</ele>
        <time>2014-11-20T14:09:49Z</time>
      </trkpt>
      <trkpt lat="47.1479" lon="-0.89633">
        <ele>97</ele>
        <time>2014-11-20T14:09:51Z</time>
      </trkpt>
      <trkpt lat="47.14795" lon="-0.89634">
        <ele>97</ele>
        <time>2014-11-20T14:09:53Z</time>
      </trkpt>
      <trkpt lat="47.14797" lon="-0.89635">
        <ele>97</ele>
        <time>2014-11-20T14:09:55Z</time>
      </trkpt>
      <trkpt lat="47.148" lon="-0.89636">
        <ele>97</ele>
        <time>2014-11-20T14:09:57Z</time>
      </trkpt>
      <trkpt lat="47.14802" lon="-0.89638">
        <ele>97</ele>
        <time>2014-11-20T14:09:59Z</time>
      </trkpt>
      <trkpt lat="47.14805" lon="-0.89639">
        <ele>97</ele>
        <time>2014-11-20T14:10:01Z</time>
      </trkpt>
      <trkpt lat="47.14808" lon="-0.8964">
        <ele>97</ele>
        <time>2014-11-20T14:10:03Z</time>
      </trkpt>
      <trkpt lat="47.14811" lon="-0.8964">
        <ele>97</ele>
        <time>2014-11-20T14:10:05Z</time>
      </trkpt>
      <trkpt lat="47.14814" lon="-0.89641">
        <ele>97</ele>
        <time>2014-11-20T14:10:07Z</time>
      </trkpt>
      <trkpt lat="47.14817" lon="-0.89642">
        <ele>97</ele>
        <time>2014-11-20T14:10:09Z</time>
      </trkpt>
      <trkpt lat="47.1482" lon="-0.89643">
        <ele>97</ele>
        <time>2014-11-20T14:10:11Z</time>
      </trkpt>
      <trkpt lat="47.14822" lon="-0.89644">
        <ele>97</ele>
        <time>2014-11-20T14:10:13Z</time>
      </trkpt>
      <trkpt lat="47.14825" lon="-0.89645">
        <ele>97</ele>
        <time>2014-11-20T14:10:15Z</time>
      </trkpt>
      <trkpt lat="47.14827" lon="-0.89645">
        <ele>97</ele>
        <time>2014-11-20T14:10:17Z</time>
      </trkpt>
      <trkpt lat="47.14829" lon="-0.89646">
        <ele>97</ele>
        <time>2014-11-20T14:10:19Z</time>
      </trkpt>
      <trkpt lat="47.14831" lon="-0.89647">
        <ele>97</ele>
        <time>2014-11-20T14:10:21Z</time>
      </trkpt>
      <trkpt lat="47.14833" lon="-0.89648">
        <ele>97</ele>
        <time>2014-11-20T14:10:23Z</time>
      </trkpt>
      <trkpt lat="47.14835" lon="-0.89648">
        <ele>97</ele>
        <time>2014-11-20T14:10:25Z</time>
      </trkpt>
      <trkpt lat="47.14838" lon="-0.89649">
        <ele>97</ele>
        <time>2014-11-20T14:10:27Z</time>
      </trkpt>
      <trkpt lat="47.1484" lon="-0.8965">
        <ele>97</ele>
        <time>2014-11-20T14:10:29Z</time>
      </trkpt>
      <trkpt lat="47.14843" lon="-0.8965">
        <ele>97</ele>
        <time>2014-11-20T14:10:31Z</time>
      </trkpt>
      <trkpt lat="47.14846" lon="-0.8965">
        <ele>97</ele>
        <time>2014-11-20T14:10:33Z</time>
      </trkpt>
      <trkpt lat="47.14849" lon="-0.8965">
        <ele>97</ele>
        <time>2014-11-20T14:10:35Z</time>
      </trkpt>
      <trkpt lat="47.14852" lon="-0.89651">
        <ele>97</ele>
        <time>2014-11-20T14:10:37Z</time>
      </trkpt>
      <trkpt lat="47.14855" lon="-0.8965">
        <ele>97</ele>
        <time>2014-11-20T14:10:39Z</time>
      </trkpt>
      <trkpt lat="47.14858" lon="-0.8965">
        <ele>97</ele>
        <time>2014-11-20T14:10:41Z</time>
      </trkpt>
      <trkpt lat="47.14862" lon="-0.89651">
        <ele>97</ele>
        <time>2014-11-20T14:10:43Z</time>
      </trkpt>
      <trkpt lat="47.14865" lon="-0.89651">
        <ele>97</ele>
        <time>2014-11-20T14:10:45Z</time>
      </trkpt>
      <trkpt lat="47.14867" lon="-0.89651">
        <ele>97</ele>
        <time>2014-11-20T14:10:47Z</time>
      </trkpt>
      <trkpt lat="47.1487" lon="-0.89651">
        <ele>97</ele>
        <time>2014-11-20T14:10:49Z</time>
      </trkpt>
      <trkpt lat="47.14873" lon="-0.89651">
        <ele>97</ele>
        <time>2014-11-20T14:10:51Z</time>
      </trkpt>
      <trkpt lat="47.14876" lon="-0.89651">
        <ele>97</ele>
        <time>2014-11-20T14:10:53Z</time>
      </trkpt>
      <trkpt lat="47.14878" lon="-0.89651">
        <ele>98</ele>
        <time>2014-11-20T14:10:55Z</time>
      </trkpt>
      <trkpt lat="47.14881" lon="-0.89652">
        <ele>98</ele>
        <time>2014-11-20T14:10:57Z</time>
      </trkpt>
      <trkpt lat="47.14883" lon="-0.89652">
        <ele>98</ele>
        <time>2014-11-20T14:10:59Z</time>
      </trkpt>
      <trkpt lat="47.14886" lon="-0.89653">
        <ele>98</ele>
        <time>2014-11-20T14:11:01Z</time>
      </trkpt>
      <trkpt lat="47.14889" lon="-0.89653">
        <ele>98</ele>
        <time>2014-11-20T14:11:04Z</time>
      </trkpt>
      <trkpt lat="47.14892" lon="-0.89654">
        <ele>98</ele>
        <time>2014-11-20T14:11:07Z</time>
      </trkpt>
      <trkpt lat="47.14894" lon="-0.89654">
        <ele>98</ele>
        <time>2014-11-20T14:11:09Z</time>
      </trkpt>
      <trkpt lat="47.14898" lon="-0.89653">
        <ele>98</ele>
        <time>2014-11-20T14:11:11Z</time>
      </trkpt>
      <trkpt lat="47.14901" lon="-0.89654">
        <ele>98</ele>
        <time>2014-11-20T14:11:14Z</time>
      </trkpt>
      <trkpt lat="47.14904" lon="-0.89654">
        <ele>98</ele>
        <time>2014-11-20T14:11:16Z</time>
      </trkpt>
      <trkpt lat="47.14908" lon="-0.89654">
        <ele>98</ele>
        <time>2014-11-20T14:11:18Z</time>
      </trkpt>
      <trkpt lat="47.14911" lon="-0.89655">
        <ele>98</ele>
        <time>2014-11-20T14:11:20Z</time>
      </trkpt>
      <trkpt lat="47.14914" lon="-0.89656">
        <ele>99</ele>
        <time>2014-11-20T14:11:22Z</time>
      </trkpt>
      <trkpt lat="47.14916" lon="-0.89657">
        <ele>99</ele>
        <time>2014-11-20T14:11:24Z</time>
      </trkpt>
      <trkpt lat="47.14918" lon="-0.89657">
        <ele>99</ele>
        <time>2014-11-20T14:11:26Z</time>
      </trkpt>
      <trkpt lat="47.1492" lon="-0.89657">
        <ele>99</ele>
        <time>2014-11-20T14:11:28Z</time>
      </trkpt>
      <trkpt lat="47.14923" lon="-0.89657">
        <ele>99</ele>
        <time>2014-11-20T14:11:30Z</time>
      </trkpt>
      <trkpt lat="47.14927" lon="-0.89658">
        <ele>99</ele>
        <time>2014-11-20T14:11:32Z</time>
      </trkpt>
      <trkpt lat="47.1493" lon="-0.89658">
        <ele>99</ele>
        <time>2014-11-20T14:11:34Z</time>
      </trkpt>
      <trkpt lat="47.14933" lon="-0.89659">
        <ele>99</ele>
        <time>2014-11-20T14:11:37Z</time>
      </trkpt>
      <trkpt lat="47.14935" lon="-0.89659">
        <ele>99</ele>
        <time>2014-11-20T14:11:39Z</time>
      </trkpt>
      <trkpt lat="47.14937" lon="-0.89658">
        <ele>99</ele>
        <time>2014-11-20T14:11:41Z</time>
      </trkpt>
      <trkpt lat="47.1494" lon="-0.8966">
        <ele>99</ele>
        <time>2014-11-20T14:11:43Z</time>
      </trkpt>
      <trkpt lat="47.14942" lon="-0.89661">
        <ele>99</ele>
        <time>2014-11-20T14:11:45Z</time>
      </trkpt>
      <trkpt lat="47.14945" lon="-0.89661">
        <ele>99</ele>
        <time>2014-11-20T14:11:47Z</time>
      </trkpt>
      <trkpt lat="47.14949" lon="-0.89661">
        <ele>99</ele>
        <time>2014-11-20T14:11:50Z</time>
      </trkpt>
      <trkpt lat="47.14953" lon="-0.89661">
        <ele>99</ele>
        <time>2014-11-20T14:11:52Z</time>
      </trkpt>
      <trkpt lat="47.14956" lon="-0.89661">
        <ele>99</ele>
        <time>2014-11-20T14:11:54Z</time>
      </trkpt>
      <trkpt lat="47.14959" lon="-0.8966">
        <ele>99</ele>
        <time>2014-11-20T14:11:56Z</time>
      </trkpt>
      <trkpt lat="47.14962" lon="-0.89659">
        <ele>99</ele>
        <time>2014-11-20T14:11:58Z</time>
      </trkpt>
      <trkpt lat="47.14964" lon="-0.89658">
        <ele>99</ele>
        <time>2014-11-20T14:12:00Z</time>
      </trkpt>
      <trkpt lat="47.14967" lon="-0.89658">
        <ele>99</ele>
        <time>2014-11-20T14:12:02Z</time>
      </trkpt>
      <trkpt lat="47.1497" lon="-0.89657">
        <ele>99</ele>
        <time>2014-11-20T14:12:04Z</time>
      </trkpt>
      <trkpt lat="47.14972" lon="-0.89656">
        <ele>99</ele>
        <time>2014-11-20T14:12:06Z</time>
      </trkpt>
      <trkpt lat="47.14975" lon="-0.89656">
        <ele>99</ele>
        <time>2014-11-20T14:12:08Z</time>
      </trkpt>
      <trkpt lat="47.14977" lon="-0.89655">
        <ele>99</ele>
        <time>2014-11-20T14:12:10Z</time>
      </trkpt>
      <trkpt lat="47.1498" lon="-0.89654">
        <ele>99</ele>
        <time>2014-11-20T14:12:12Z</time>
      </trkpt>
      <trkpt lat="47.14983" lon="-0.89653">
        <ele>99</ele>
        <time>2014-11-20T14:12:14Z</time>
      </trkpt>
      <trkpt lat="47.14985" lon="-0.89653">
        <ele>99</ele>
        <time>2014-11-20T14:12:16Z</time>
      </trkpt>
      <trkpt lat="47.14988" lon="-0.89653">
        <ele>99</ele>
        <time>2014-11-20T14:12:18Z</time>
      </trkpt>
      <trkpt lat="47.14991" lon="-0.89653">
        <ele>99</ele>
        <time>2014-11-20T14:12:20Z</time>
      </trkpt>
      <trkpt lat="47.14994" lon="-0.89653">
        <ele>99</ele>
        <time>2014-11-20T14:12:22Z</time>
      </trkpt>
      <trkpt lat="47.14996" lon="-0.89653">
        <ele>99</ele>
        <time>2014-11-20T14:12:24Z</time>
      </trkpt>
      <trkpt lat="47.14999" lon="-0.89652">
        <ele>99</ele>
        <time>2014-11-20T14:12:26Z</time>
      </trkpt>
      <trkpt lat="47.15003" lon="-0.89652">
        <ele>99</ele>
        <time>2014-11-20T14:12:28Z</time>
      </trkpt>
      <trkpt lat="47.15005" lon="-0.89652">
        <ele>99</ele>
        <time>2014-11-20T14:12:30Z</time>
      </trkpt>
      <trkpt lat="47.15008" lon="-0.89653">
        <ele>99</ele>
        <time>2014-11-20T14:12:32Z</time>
      </trkpt>
      <trkpt lat="47.15011" lon="-0.89653">
        <ele>99</ele>
        <time>2014-11-20T14:12:34Z</time>
      </trkpt>
      <trkpt lat="47.15013" lon="-0.89654">
        <ele>99</ele>
        <time>2014-11-20T14:12:36Z</time>
      </trkpt>
      <trkpt lat="47.15016" lon="-0.89655">
        <ele>99</ele>
        <time>2014-11-20T14:12:38Z</time>
      </trkpt>
      <trkpt lat="47.15019" lon="-0.89656">
        <ele>99</ele>
        <time>2014-11-20T14:12:40Z</time>
      </trkpt>
      <trkpt lat="47.15022" lon="-0.89656">
        <ele>99</ele>
        <time>2014-11-20T14:12:42Z</time>
      </trkpt>
      <trkpt lat="47.15025" lon="-0.89657">
        <ele>99</ele>
        <time>2014-11-20T14:12:44Z</time>
      </trkpt>
      <trkpt lat="47.15027" lon="-0.89657">
        <ele>99</ele>
        <time>2014-11-20T14:12:46Z</time>
      </trkpt>
      <trkpt lat="47.1503" lon="-0.89658">
        <ele>99</ele>
        <time>2014-11-20T14:12:48Z</time>
      </trkpt>
      <trkpt lat="47.15032" lon="-0.89658">
        <ele>99</ele>
        <time>2014-11-20T14:12:50Z</time>
      </trkpt>
      <trkpt lat="47.15036" lon="-0.89658">
        <ele>99</ele>
        <time>2014-11-20T14:12:53Z</time>
      </trkpt>
      <trkpt lat="47.15038" lon="-0.89657">
        <ele>99</ele>
        <time>2014-11-20T14:12:55Z</time>
      </trkpt>
      <trkpt lat="47.1504" lon="-0.89658">
        <ele>99</ele>
        <time>2014-11-20T14:12:57Z</time>
      </trkpt>
      <trkpt lat="47.15043" lon="-0.89657">
        <ele>99</ele>
        <time>2014-11-20T14:12:59Z</time>
      </trkpt>
      <trkpt lat="47.15046" lon="-0.89658">
        <ele>99</ele>
        <time>2014-11-20T14:13:01Z</time>
      </trkpt>
      <trkpt lat="47.15048" lon="-0.89658">
        <ele>99</ele>
        <time>2014-11-20T14:13:03Z</time>
      </trkpt>
      <trkpt lat="47.15052" lon="-0.89659">
        <ele>99</ele>
        <time>2014-11-20T14:13:05Z</time>
      </trkpt>
      <trkpt lat="47.15054" lon="-0.8966">
        <ele>99</ele>
        <time>2014-11-20T14:13:07Z</time>
      </trkpt>
      <trkpt lat="47.15057" lon="-0.89661">
        <ele>100</ele>
        <time>2014-11-20T14:13:09Z</time>
      </trkpt>
      <trkpt lat="47.15059" lon="-0.89661">
        <ele>100</ele>
        <time>2014-11-20T14:13:11Z</time>
      </trkpt>
      <trkpt lat="47.15062" lon="-0.89661">
        <ele>100</ele>
        <time>2014-11-20T14:13:13Z</time>
      </trkpt>
      <trkpt lat="47.15064" lon="-0.89662">
        <ele>101</ele>
        <time>2014-11-20T14:13:15Z</time>
      </trkpt>
      <trkpt lat="47.15067" lon="-0.89662">
        <ele>101</ele>
        <time>2014-11-20T14:13:17Z</time>
      </trkpt>
      <trkpt lat="47.15069" lon="-0.89662">
        <ele>101</ele>
        <time>2014-11-20T14:13:19Z</time>
      </trkpt>
      <trkpt lat="47.15072" lon="-0.89663">
        <ele>101</ele>
        <time>2014-11-20T14:13:21Z</time>
      </trkpt>
      <trkpt lat="47.15075" lon="-0.89663">
        <ele>101</ele>
        <time>2014-11-20T14:13:24Z</time>
      </trkpt>
      <trkpt lat="47.15078" lon="-0.89663">
        <ele>101</ele>
        <time>2014-11-20T14:13:26Z</time>
      </trkpt>
      <trkpt lat="47.15081" lon="-0.89662">
        <ele>101</ele>
        <time>2014-11-20T14:13:28Z</time>
      </trkpt>
      <trkpt lat="47.15084" lon="-0.89662">
        <ele>101</ele>
        <time>2014-11-20T14:13:30Z</time>
      </trkpt>
      <trkpt lat="47.15086" lon="-0.89663">
        <ele>101</ele>
        <time>2014-11-20T14:13:32Z</time>
      </trkpt>
      <trkpt lat="47.15089" lon="-0.89666">
        <ele>101</ele>
        <time>2014-11-20T14:13:35Z</time>
      </trkpt>
      <trkpt lat="47.15091" lon="-0.89668">
        <ele>101</ele>
        <time>2014-11-20T14:13:37Z</time>
      </trkpt>
      <trkpt lat="47.15094" lon="-0.8967">
        <ele>102</ele>
        <time>2014-11-20T14:13:40Z</time>
      </trkpt>
      <trkpt lat="47.15096" lon="-0.89672">
        <ele>102</ele>
        <time>2014-11-20T14:13:42Z</time>
      </trkpt>
      <trkpt lat="47.15099" lon="-0.89674">
        <ele>102</ele>
        <time>2014-11-20T14:13:44Z</time>
      </trkpt>
      <trkpt lat="47.15102" lon="-0.89674">
        <ele>102</ele>
        <time>2014-11-20T14:13:46Z</time>
      </trkpt>
      <trkpt lat="47.15105" lon="-0.89675">
        <ele>102</ele>
        <time>2014-11-20T14:13:48Z</time>
      </trkpt>
      <trkpt lat="47.15107" lon="-0.89676">
        <ele>102</ele>
        <time>2014-11-20T14:13:50Z</time>
      </trkpt>
      <trkpt lat="47.1511" lon="-0.89676">
        <ele>103</ele>
        <time>2014-11-20T14:13:52Z</time>
      </trkpt>
      <trkpt lat="47.15113" lon="-0.89677">
        <ele>103</ele>
        <time>2014-11-20T14:13:54Z</time>
      </trkpt>
      <trkpt lat="47.15115" lon="-0.89678">
        <ele>103</ele>
        <time>2014-11-20T14:13:56Z</time>
      </trkpt>
      <trkpt lat="47.15118" lon="-0.89679">
        <ele>103</ele>
        <time>2014-11-20T14:13:58Z</time>
      </trkpt>
      <trkpt lat="47.15121" lon="-0.8968">
        <ele>103</ele>
        <time>2014-11-20T14:14:00Z</time>
      </trkpt>
      <trkpt lat="47.15123" lon="-0.89681">
        <ele>103</ele>
        <time>2014-11-20T14:14:02Z</time>
      </trkpt>
      <trkpt lat="47.15126" lon="-0.89682">
        <ele>104</ele>
        <time>2014-11-20T14:14:04Z</time>
      </trkpt>
      <trkpt lat="47.15129" lon="-0.89683">
        <ele>104</ele>
        <time>2014-11-20T14:14:06Z</time>
      </trkpt>
      <trkpt lat="47.15131" lon="-0.89684">
        <ele>104</ele>
        <time>2014-11-20T14:14:08Z</time>
      </trkpt>
      <trkpt lat="47.15135" lon="-0.89686">
        <ele>104</ele>
        <time>2014-11-20T14:14:11Z</time>
      </trkpt>
      <trkpt lat="47.15137" lon="-0.89687">
        <ele>104</ele>
        <time>2014-11-20T14:14:13Z</time>
      </trkpt>
      <trkpt lat="47.1514" lon="-0.89688">
        <ele>104</ele>
        <time>2014-11-20T14:14:15Z</time>
      </trkpt>
      <trkpt lat="47.15142" lon="-0.8969">
        <ele>104</ele>
        <time>2014-11-20T14:14:17Z</time>
      </trkpt>
      <trkpt lat="47.15145" lon="-0.89691">
        <ele>104</ele>
        <time>2014-11-20T14:14:19Z</time>
      </trkpt>
      <trkpt lat="47.15147" lon="-0.89692">
        <ele>104</ele>
        <time>2014-11-20T14:14:21Z</time>
      </trkpt>
      <trkpt lat="47.1515" lon="-0.89693">
        <ele>104</ele>
        <time>2014-11-20T14:14:23Z</time>
      </trkpt>
      <trkpt lat="47.15152" lon="-0.89694">
        <ele>104</ele>
        <time>2014-11-20T14:14:25Z</time>
      </trkpt>
      <trkpt lat="47.15155" lon="-0.89696">
        <ele>104</ele>
        <time>2014-11-20T14:14:27Z</time>
      </trkpt>
      <trkpt lat="47.15158" lon="-0.89697">
        <ele>104</ele>
        <time>2014-11-20T14:14:30Z</time>
      </trkpt>
      <trkpt lat="47.15162" lon="-0.89699">
        <ele>104</ele>
        <time>2014-11-20T14:14:33Z</time>
      </trkpt>
      <trkpt lat="47.15164" lon="-0.89701">
        <ele>104</ele>
        <time>2014-11-20T14:14:35Z</time>
      </trkpt>
      <trkpt lat="47.15166" lon="-0.89701">
        <ele>104</ele>
        <time>2014-11-20T14:14:37Z</time>
      </trkpt>
      <trkpt lat="47.15169" lon="-0.89703">
        <ele>104</ele>
        <time>2014-11-20T14:14:39Z</time>
      </trkpt>
      <trkpt lat="47.15171" lon="-0.89704">
        <ele>104</ele>
        <time>2014-11-20T14:14:41Z</time>
      </trkpt>
      <trkpt lat="47.15174" lon="-0.89705">
        <ele>104</ele>
        <time>2014-11-20T14:14:43Z</time>
      </trkpt>
      <trkpt lat="47.15178" lon="-0.89707">
        <ele>104</ele>
        <time>2014-11-20T14:14:46Z</time>
      </trkpt>
      <trkpt lat="47.15181" lon="-0.89708">
        <ele>104</ele>
        <time>2014-11-20T14:14:48Z</time>
      </trkpt>
      <trkpt lat="47.15183" lon="-0.8971">
        <ele>104</ele>
        <time>2014-11-20T14:14:50Z</time>
      </trkpt>
      <trkpt lat="47.15186" lon="-0.89711">
        <ele>104</ele>
        <time>2014-11-20T14:14:52Z</time>
      </trkpt>
      <trkpt lat="47.15188" lon="-0.89712">
        <ele>104</ele>
        <time>2014-11-20T14:14:54Z</time>
      </trkpt>
      <trkpt lat="47.1519" lon="-0.89713">
        <ele>104</ele>
        <time>2014-11-20T14:14:56Z</time>
      </trkpt>
      <trkpt lat="47.15193" lon="-0.89714">
        <ele>104</ele>
        <time>2014-11-20T14:14:58Z</time>
      </trkpt>
      <trkpt lat="47.15197" lon="-0.89716">
        <ele>104</ele>
        <time>2014-11-20T14:15:00Z</time>
      </trkpt>
      <trkpt lat="47.15199" lon="-0.89717">
        <ele>104</ele>
        <time>2014-11-20T14:15:03Z</time>
      </trkpt>
      <trkpt lat="47.15202" lon="-0.89719">
        <ele>104</ele>
        <time>2014-11-20T14:15:06Z</time>
      </trkpt>
      <trkpt lat="47.15205" lon="-0.8972">
        <ele>104</ele>
        <time>2014-11-20T14:15:08Z</time>
      </trkpt>
      <trkpt lat="47.15208" lon="-0.89721">
        <ele>104</ele>
        <time>2014-11-20T14:15:10Z</time>
      </trkpt>
      <trkpt lat="47.1521" lon="-0.89722">
        <ele>104</ele>
        <time>2014-11-20T14:15:12Z</time>
      </trkpt>
      <trkpt lat="47.15213" lon="-0.89723">
        <ele>104</ele>
        <time>2014-11-20T14:15:15Z</time>
      </trkpt>
      <trkpt lat="47.15216" lon="-0.89725">
        <ele>104</ele>
        <time>2014-11-20T14:15:19Z</time>
      </trkpt>
      <trkpt lat="47.15219" lon="-0.89727">
        <ele>105</ele>
        <time>2014-11-20T14:15:23Z</time>
      </trkpt>
      <trkpt lat="47.15221" lon="-0.89727">
        <ele>105</ele>
        <time>2014-11-20T14:15:25Z</time>
      </trkpt>
      <trkpt lat="47.15222" lon="-0.89728">
        <ele>105</ele>
        <time>2014-11-20T14:15:27Z</time>
      </trkpt>
      <trkpt lat="47.15225" lon="-0.89732">
        <ele>106</ele>
        <time>2014-11-20T14:15:31Z</time>
      </trkpt>
      <trkpt lat="47.15225" lon="-0.89734">
        <ele>106</ele>
        <time>2014-11-20T14:15:34Z</time>
      </trkpt>
      <trkpt lat="47.15228" lon="-0.89736">
        <ele>106</ele>
        <time>2014-11-20T14:15:36Z</time>
      </trkpt>
      <trkpt lat="47.15231" lon="-0.89737">
        <ele>106</ele>
        <time>2014-11-20T14:15:38Z</time>
      </trkpt>
      <trkpt lat="47.15234" lon="-0.89738">
        <ele>106</ele>
        <time>2014-11-20T14:15:40Z</time>
      </trkpt>
      <trkpt lat="47.15235" lon="-0.8974">
        <ele>106</ele>
        <time>2014-11-20T14:15:42Z</time>
      </trkpt>
      <trkpt lat="47.15237" lon="-0.89742">
        <ele>106</ele>
        <time>2014-11-20T14:15:44Z</time>
      </trkpt>
      <trkpt lat="47.15239" lon="-0.89744">
        <ele>106</ele>
        <time>2014-11-20T14:15:46Z</time>
      </trkpt>
      <trkpt lat="47.15242" lon="-0.89745">
        <ele>106</ele>
        <time>2014-11-20T14:15:48Z</time>
      </trkpt>
      <trkpt lat="47.15245" lon="-0.89746">
        <ele>106</ele>
        <time>2014-11-20T14:15:50Z</time>
      </trkpt>
      <trkpt lat="47.15246" lon="-0.89749">
        <ele>106</ele>
        <time>2014-11-20T14:15:52Z</time>
      </trkpt>
      <trkpt lat="47.15248" lon="-0.89751">
        <ele>106</ele>
        <time>2014-11-20T14:15:54Z</time>
      </trkpt>
      <trkpt lat="47.1525" lon="-0.89754">
        <ele>106</ele>
        <time>2014-11-20T14:15:56Z</time>
      </trkpt>
      <trkpt lat="47.15253" lon="-0.89756">
        <ele>106</ele>
        <time>2014-11-20T14:15:58Z</time>
      </trkpt>
      <trkpt lat="47.15256" lon="-0.8976">
        <ele>106</ele>
        <time>2014-11-20T14:16:01Z</time>
      </trkpt>
      <trkpt lat="47.15258" lon="-0.89763">
        <ele>106</ele>
        <time>2014-11-20T14:16:03Z</time>
      </trkpt>
      <trkpt lat="47.15262" lon="-0.89766">
        <ele>106</ele>
        <time>2014-11-20T14:16:06Z</time>
      </trkpt>
      <trkpt lat="47.15266" lon="-0.89772">
        <ele>106</ele>
        <time>2014-11-20T14:16:10Z</time>
      </trkpt>
      <trkpt lat="47.15269" lon="-0.89776">
        <ele>106</ele>
        <time>2014-11-20T14:16:13Z</time>
      </trkpt>
      <trkpt lat="47.15271" lon="-0.89779">
        <ele>106</ele>
        <time>2014-11-20T14:16:15Z</time>
      </trkpt>
      <trkpt lat="47.15274" lon="-0.89783">
        <ele>106</ele>
        <time>2014-11-20T14:16:18Z</time>
      </trkpt>
      <trkpt lat="47.15277" lon="-0.89788">
        <ele>106</ele>
        <time>2014-11-20T14:16:22Z</time>
      </trkpt>
      <trkpt lat="47.15279" lon="-0.89792">
        <ele>106</ele>
        <time>2014-11-20T14:16:25Z</time>
      </trkpt>
      <trkpt lat="47.15282" lon="-0.89794">
        <ele>106</ele>
        <time>2014-11-20T14:16:28Z</time>
      </trkpt>
      <trkpt lat="47.15286" lon="-0.89796">
        <ele>106</ele>
        <time>2014-11-20T14:16:31Z</time>
      </trkpt>
      <trkpt lat="47.15287" lon="-0.89798">
        <ele>107</ele>
        <time>2014-11-20T14:16:34Z</time>
      </trkpt>
      <trkpt lat="47.1529" lon="-0.89802">
        <ele>107</ele>
        <time>2014-11-20T14:16:36Z</time>
      </trkpt>
      <trkpt lat="47.15292" lon="-0.89804">
        <ele>107</ele>
        <time>2014-11-20T14:16:39Z</time>
      </trkpt>
      <trkpt lat="47.15294" lon="-0.89807">
        <ele>107</ele>
        <time>2014-11-20T14:16:41Z</time>
      </trkpt>
      <trkpt lat="47.15297" lon="-0.89812">
        <ele>107</ele>
        <time>2014-11-20T14:16:43Z</time>
      </trkpt>
      <trkpt lat="47.15299" lon="-0.89815">
        <ele>107</ele>
        <time>2014-11-20T14:16:46Z</time>
      </trkpt>
      <trkpt lat="47.15303" lon="-0.89819">
        <ele>107</ele>
        <time>2014-11-20T14:16:48Z</time>
      </trkpt>
      <trkpt lat="47.15304" lon="-0.89822">
        <ele>107</ele>
        <time>2014-11-20T14:16:51Z</time>
      </trkpt>
      <trkpt lat="47.15306" lon="-0.89827">
        <ele>107</ele>
        <time>2014-11-20T14:16:53Z</time>
      </trkpt>
      <trkpt lat="47.15308" lon="-0.8983">
        <ele>107</ele>
        <time>2014-11-20T14:16:56Z</time>
      </trkpt>
      <trkpt lat="47.15312" lon="-0.89834">
        <ele>107</ele>
        <time>2014-11-20T14:16:59Z</time>
      </trkpt>
      <trkpt lat="47.15314" lon="-0.89837">
        <ele>107</ele>
        <time>2014-11-20T14:17:01Z</time>
      </trkpt>
      <trkpt lat="47.15318" lon="-0.89841">
        <ele>107</ele>
        <time>2014-11-20T14:17:03Z</time>
      </trkpt>
      <trkpt lat="47.1532" lon="-0.89843">
        <ele>107</ele>
        <time>2014-11-20T14:17:05Z</time>
      </trkpt>
      <trkpt lat="47.15322" lon="-0.89846">
        <ele>107</ele>
        <time>2014-11-20T14:17:08Z</time>
      </trkpt>
      <trkpt lat="47.15325" lon="-0.8985">
        <ele>107</ele>
        <time>2014-11-20T14:17:11Z</time>
      </trkpt>
      <trkpt lat="47.15327" lon="-0.89851">
        <ele>107</ele>
        <time>2014-11-20T14:17:13Z</time>
      </trkpt>
      <trkpt lat="47.1533" lon="-0.89856">
        <ele>107</ele>
        <time>2014-11-20T14:17:16Z</time>
      </trkpt>
      <trkpt lat="47.15334" lon="-0.8986">
        <ele>107</ele>
        <time>2014-11-20T14:17:19Z</time>
      </trkpt>
      <trkpt lat="47.15338" lon="-0.89865">
        <ele>107</ele>
        <time>2014-11-20T14:17:22Z</time>
      </trkpt>
      <trkpt lat="47.1534" lon="-0.89868">
        <ele>107</ele>
        <time>2014-11-20T14:17:24Z</time>
      </trkpt>
      <trkpt lat="47.15342" lon="-0.89871">
        <ele>107</ele>
        <time>2014-11-20T14:17:26Z</time>
      </trkpt>
      <trkpt lat="47.15344" lon="-0.89874">
        <ele>107</ele>
        <time>2014-11-20T14:17:29Z</time>
      </trkpt>
      <trkpt lat="47.15346" lon="-0.89877">
        <ele>107</ele>
        <time>2014-11-20T14:17:31Z</time>
      </trkpt>
      <trkpt lat="47.15349" lon="-0.89881">
        <ele>107</ele>
        <time>2014-11-20T14:17:34Z</time>
      </trkpt>
      <trkpt lat="47.15353" lon="-0.89885">
        <ele>107</ele>
        <time>2014-11-20T14:17:36Z</time>
      </trkpt>
      <trkpt lat="47.15356" lon="-0.89889">
        <ele>107</ele>
        <time>2014-11-20T14:17:40Z</time>
      </trkpt>
      <trkpt lat="47.15358" lon="-0.89892">
        <ele>107</ele>
        <time>2014-11-20T14:17:42Z</time>
      </trkpt>
      <trkpt lat="47.15361" lon="-0.89894">
        <ele>107</ele>
        <time>2014-11-20T14:17:45Z</time>
      </trkpt>
      <trkpt lat="47.15364" lon="-0.89898">
        <ele>107</ele>
        <time>2014-11-20T14:17:47Z</time>
      </trkpt>
      <trkpt lat="47.15366" lon="-0.899">
        <ele>107</ele>
        <time>2014-11-20T14:17:50Z</time>
      </trkpt>
      <trkpt lat="47.15369" lon="-0.89904">
        <ele>107</ele>
        <time>2014-11-20T14:17:52Z</time>
      </trkpt>
      <trkpt lat="47.15371" lon="-0.89907">
        <ele>107</ele>
        <time>2014-11-20T14:17:55Z</time>
      </trkpt>
      <trkpt lat="47.15376" lon="-0.89912">
        <ele>108</ele>
        <time>2014-11-20T14:17:58Z</time>
      </trkpt>
      <trkpt lat="47.15377" lon="-0.89914">
        <ele>108</ele>
        <time>2014-11-20T14:18:01Z</time>
      </trkpt>
      <trkpt lat="47.1538" lon="-0.89919">
        <ele>108</ele>
        <time>2014-11-20T14:18:03Z</time>
      </trkpt>
      <trkpt lat="47.15382" lon="-0.89921">
        <ele>108</ele>
        <time>2014-11-20T14:18:06Z</time>
      </trkpt>
      <trkpt lat="47.15386" lon="-0.89926">
        <ele>108</ele>
        <time>2014-11-20T14:18:09Z</time>
      </trkpt>
      <trkpt lat="47.15388" lon="-0.89928">
        <ele>108</ele>
        <time>2014-11-20T14:18:12Z</time>
      </trkpt>
      <trkpt lat="47.15391" lon="-0.89932">
        <ele>108</ele>
        <time>2014-11-20T14:18:14Z</time>
      </trkpt>
      <trkpt lat="47.15393" lon="-0.89935">
        <ele>108</ele>
        <time>2014-11-20T14:18:17Z</time>
      </trkpt>
      <trkpt lat="47.15395" lon="-0.89937">
        <ele>108</ele>
        <time>2014-11-20T14:18:19Z</time>
      </trkpt>
      <trkpt lat="47.15399" lon="-0.89942">
        <ele>108</ele>
        <time>2014-11-20T14:18:23Z</time>
      </trkpt>
      <trkpt lat="47.15402" lon="-0.89946">
        <ele>108</ele>
        <time>2014-11-20T14:18:25Z</time>
      </trkpt>
      <trkpt lat="47.15404" lon="-0.89948">
        <ele>108</ele>
        <time>2014-11-20T14:18:28Z</time>
      </trkpt>
      <trkpt lat="47.15408" lon="-0.89953">
        <ele>108</ele>
        <time>2014-11-20T14:18:31Z</time>
      </trkpt>
      <trkpt lat="47.1541" lon="-0.89956">
        <ele>108</ele>
        <time>2014-11-20T14:18:34Z</time>
      </trkpt>
      <trkpt lat="47.15413" lon="-0.8996">
        <ele>108</ele>
        <time>2014-11-20T14:18:36Z</time>
      </trkpt>
      <trkpt lat="47.15414" lon="-0.89962">
        <ele>108</ele>
        <time>2014-11-20T14:18:39Z</time>
      </trkpt>
      <trkpt lat="47.15418" lon="-0.89967">
        <ele>108</ele>
        <time>2014-11-20T14:18:43Z</time>
      </trkpt>
      <trkpt lat="47.1542" lon="-0.89969">
        <ele>108</ele>
        <time>2014-11-20T14:18:45Z</time>
      </trkpt>
      <trkpt lat="47.15424" lon="-0.89974">
        <ele>108</ele>
        <time>2014-11-20T14:18:49Z</time>
      </trkpt>
      <trkpt lat="47.15426" lon="-0.89976">
        <ele>108</ele>
        <time>2014-11-20T14:18:51Z</time>
      </trkpt>
      <trkpt lat="47.15429" lon="-0.89979">
        <ele>108</ele>
        <time>2014-11-20T14:18:53Z</time>
      </trkpt>
      <trkpt lat="47.15431" lon="-0.89982">
        <ele>108</ele>
        <time>2014-11-20T14:18:56Z</time>
      </trkpt>
      <trkpt lat="47.15435" lon="-0.89987">
        <ele>108</ele>
        <time>2014-11-20T14:18:59Z</time>
      </trkpt>
      <trkpt lat="47.15437" lon="-0.8999">
        <ele>108</ele>
        <time>2014-11-20T14:19:01Z</time>
      </trkpt>
      <trkpt lat="47.15439" lon="-0.89992">
        <ele>108</ele>
        <time>2014-11-20T14:19:03Z</time>
      </trkpt>
      <trkpt lat="47.15441" lon="-0.89995">
        <ele>108</ele>
        <time>2014-11-20T14:19:06Z</time>
      </trkpt>
      <trkpt lat="47.15444" lon="-0.9">
        <ele>108</ele>
        <time>2014-11-20T14:19:09Z</time>
      </trkpt>
      <trkpt lat="47.15446" lon="-0.90002">
        <ele>108</ele>
        <time>2014-11-20T14:19:12Z</time>
      </trkpt>
      <trkpt lat="47.1545" lon="-0.90005">
        <ele>108</ele>
        <time>2014-11-20T14:19:15Z</time>
      </trkpt>
      <trkpt lat="47.15451" lon="-0.90008">
        <ele>108</ele>
        <time>2014-11-20T14:19:18Z</time>
      </trkpt>
      <trkpt lat="47.15455" lon="-0.9001">
        <ele>108</ele>
        <time>2014-11-20T14:19:20Z</time>
      </trkpt>
      <trkpt lat="47.15457" lon="-0.90013">
        <ele>108</ele>
        <time>2014-11-20T14:19:23Z</time>
      </trkpt>
      <trkpt lat="47.15461" lon="-0.90016">
        <ele>108</ele>
        <time>2014-11-20T14:19:26Z</time>
      </trkpt>
      <trkpt lat="47.15462" lon="-0.90018">
        <ele>108</ele>
        <time>2014-11-20T14:19:29Z</time>
      </trkpt>
      <trkpt lat="47.15466" lon="-0.9002">
        <ele>108</ele>
        <time>2014-11-20T14:19:32Z</time>
      </trkpt>
      <trkpt lat="47.15467" lon="-0.90023">
        <ele>108</ele>
        <time>2014-11-20T14:19:35Z</time>
      </trkpt>
      <trkpt lat="47.15471" lon="-0.90026">
        <ele>108</ele>
        <time>2014-11-20T14:19:37Z</time>
      </trkpt>
      <trkpt lat="47.15473" lon="-0.90028">
        <ele>108</ele>
        <time>2014-11-20T14:19:40Z</time>
      </trkpt>
      <trkpt lat="47.15476" lon="-0.90031">
        <ele>108</ele>
        <time>2014-11-20T14:19:42Z</time>
      </trkpt>
      <trkpt lat="47.15478" lon="-0.90033">
        <ele>108</ele>
        <time>2014-11-20T14:19:45Z</time>
      </trkpt>
      <trkpt lat="47.15481" lon="-0.90036">
        <ele>108</ele>
        <time>2014-11-20T14:19:48Z</time>
      </trkpt>
      <trkpt lat="47.15482" lon="-0.90038">
        <ele>108</ele>
        <time>2014-11-20T14:19:51Z</time>
      </trkpt>
      <trkpt lat="47.15486" lon="-0.9004">
        <ele>108</ele>
        <time>2014-11-20T14:19:54Z</time>
      </trkpt>
      <trkpt lat="47.15487" lon="-0.90042">
        <ele>108</ele>
        <time>2014-11-20T14:19:57Z</time>
      </trkpt>
      <trkpt lat="47.15488" lon="-0.90044">
        <ele>108</ele>
        <time>2014-11-20T14:19:59Z</time>
      </trkpt>
      <trkpt lat="47.1549" lon="-0.90047">
        <ele>108</ele>
        <time>2014-11-20T14:20:01Z</time>
      </trkpt>
      <trkpt lat="47.15493" lon="-0.90049">
        <ele>108</ele>
        <time>2014-11-20T14:20:03Z</time>
      </trkpt>
      <trkpt lat="47.15496" lon="-0.90053">
        <ele>108</ele>
        <time>2014-11-20T14:20:06Z</time>
      </trkpt>
      <trkpt lat="47.15498" lon="-0.90056">
        <ele>108</ele>
        <time>2014-11-20T14:20:08Z</time>
      </trkpt>
      <trkpt lat="47.155" lon="-0.90058">
        <ele>108</ele>
        <time>2014-11-20T14:20:10Z</time>
      </trkpt>
      <trkpt lat="47.15503" lon="-0.9006">
        <ele>108</ele>
        <time>2014-11-20T14:20:12Z</time>
      </trkpt>
      <trkpt lat="47.15505" lon="-0.90062">
        <ele>108</ele>
        <time>2014-11-20T14:20:14Z</time>
      </trkpt>
      <trkpt lat="47.15508" lon="-0.90064">
        <ele>108</ele>
        <time>2014-11-20T14:20:16Z</time>
      </trkpt>
      <trkpt lat="47.1551" lon="-0.90066">
        <ele>108</ele>
        <time>2014-11-20T14:20:19Z</time>
      </trkpt>
      <trkpt lat="47.15514" lon="-0.90069">
        <ele>108</ele>
        <time>2014-11-20T14:20:21Z</time>
      </trkpt>
      <trkpt lat="47.15516" lon="-0.90072">
        <ele>108</ele>
        <time>2014-11-20T14:20:23Z</time>
      </trkpt>
      <trkpt lat="47.15518" lon="-0.90074">
        <ele>108</ele>
        <time>2014-11-20T14:20:25Z</time>
      </trkpt>
      <trkpt lat="47.1552" lon="-0.90075">
        <ele>108</ele>
        <time>2014-11-20T14:20:27Z</time>
      </trkpt>
      <trkpt lat="47.15523" lon="-0.90077">
        <ele>108</ele>
        <time>2014-11-20T14:20:29Z</time>
      </trkpt>
      <trkpt lat="47.15525" lon="-0.90079">
        <ele>108</ele>
        <time>2014-11-20T14:20:31Z</time>
      </trkpt>
      <trkpt lat="47.15527" lon="-0.90082">
        <ele>108</ele>
        <time>2014-11-20T14:20:33Z</time>
      </trkpt>
      <trkpt lat="47.1553" lon="-0.90084">
        <ele>108</ele>
        <time>2014-11-20T14:20:35Z</time>
      </trkpt>
      <trkpt lat="47.15532" lon="-0.90086">
        <ele>108</ele>
        <time>2014-11-20T14:20:37Z</time>
      </trkpt>
      <trkpt lat="47.15535" lon="-0.90089">
        <ele>108</ele>
        <time>2014-11-20T14:20:40Z</time>
      </trkpt>
      <trkpt lat="47.15538" lon="-0.90092">
        <ele>108</ele>
        <time>2014-11-20T14:20:43Z</time>
      </trkpt>
      <trkpt lat="47.15541" lon="-0.90095">
        <ele>108</ele>
        <time>2014-11-20T14:20:46Z</time>
      </trkpt>
      <trkpt lat="47.15544" lon="-0.90097">
        <ele>108</ele>
        <time>2014-11-20T14:20:49Z</time>
      </trkpt>
      <trkpt lat="47.15548" lon="-0.901">
        <ele>108</ele>
        <time>2014-11-20T14:20:51Z</time>
      </trkpt>
      <trkpt lat="47.1555" lon="-0.90102">
        <ele>108</ele>
        <time>2014-11-20T14:20:53Z</time>
      </trkpt>
      <trkpt lat="47.15552" lon="-0.90104">
        <ele>108</ele>
        <time>2014-11-20T14:20:55Z</time>
      </trkpt>
      <trkpt lat="47.15554" lon="-0.90106">
        <ele>108</ele>
        <time>2014-11-20T14:20:57Z</time>
      </trkpt>
      <trkpt lat="47.15555" lon="-0.90108">
        <ele>108</ele>
        <time>2014-11-20T14:21:00Z</time>
      </trkpt>
      <trkpt lat="47.15557" lon="-0.90111">
        <ele>108</ele>
        <time>2014-11-20T14:21:02Z</time>
      </trkpt>
      <trkpt lat="47.1556" lon="-0.90113">
        <ele>108</ele>
        <time>2014-11-20T14:21:04Z</time>
      </trkpt>
      <trkpt lat="47.15562" lon="-0.90115">
        <ele>108</ele>
        <time>2014-11-20T14:21:06Z</time>
      </trkpt>
      <trkpt lat="47.15565" lon="-0.90118">
        <ele>108</ele>
        <time>2014-11-20T14:21:10Z</time>
      </trkpt>
      <trkpt lat="47.15569" lon="-0.90122">
        <ele>108</ele>
        <time>2014-11-20T14:21:12Z</time>
      </trkpt>
      <trkpt lat="47.15572" lon="-0.90125">
        <ele>108</ele>
        <time>2014-11-20T14:21:15Z</time>
      </trkpt>
      <trkpt lat="47.15577" lon="-0.9013">
        <ele>108</ele>
        <time>2014-11-20T14:21:18Z</time>
      </trkpt>
      <trkpt lat="47.15578" lon="-0.90132">
        <ele>108</ele>
        <time>2014-11-20T14:21:21Z</time>
      </trkpt>
      <trkpt lat="47.15583" lon="-0.90137">
        <ele>108</ele>
        <time>2014-11-20T14:21:24Z</time>
      </trkpt>
      <trkpt lat="47.15585" lon="-0.90139">
        <ele>108</ele>
        <time>2014-11-20T14:21:27Z</time>
      </trkpt>
      <trkpt lat="47.15588" lon="-0.90143">
        <ele>108</ele>
        <time>2014-11-20T14:21:29Z</time>
      </trkpt>
      <trkpt lat="47.1559" lon="-0.90146">
        <ele>108</ele>
        <time>2014-11-20T14:21:31Z</time>
      </trkpt>
      <trkpt lat="47.15593" lon="-0.90149">
        <ele>108</ele>
        <time>2014-11-20T14:21:34Z</time>
      </trkpt>
      <trkpt lat="47.15596" lon="-0.90153">
        <ele>108</ele>
        <time>2014-11-20T14:21:38Z</time>
      </trkpt>
      <trkpt lat="47.15601" lon="-0.90157">
        <ele>108</ele>
        <time>2014-11-20T14:21:40Z</time>
      </trkpt>
      <trkpt lat="47.15603" lon="-0.90159">
        <ele>108</ele>
        <time>2014-11-20T14:21:43Z</time>
      </trkpt>
      <trkpt lat="47.15607" lon="-0.90162">
        <ele>108</ele>
        <time>2014-11-20T14:21:45Z</time>
      </trkpt>
      <trkpt lat="47.15609" lon="-0.90163">
        <ele>108</ele>
        <time>2014-11-20T14:21:47Z</time>
      </trkpt>
      <trkpt lat="47.15612" lon="-0.90166">
        <ele>108</ele>
        <time>2014-11-20T14:21:50Z</time>
      </trkpt>
      <trkpt lat="47.15614" lon="-0.90168">
        <ele>108</ele>
        <time>2014-11-20T14:21:52Z</time>
      </trkpt>
      <trkpt lat="47.15616" lon="-0.90171">
        <ele>108</ele>
        <time>2014-11-20T14:21:54Z</time>
      </trkpt>
      <trkpt lat="47.15617" lon="-0.90174">
        <ele>108</ele>
        <time>2014-11-20T14:21:56Z</time>
      </trkpt>
      <trkpt lat="47.15618" lon="-0.90178">
        <ele>108</ele>
        <time>2014-11-20T14:21:58Z</time>
      </trkpt>
      <trkpt lat="47.15619" lon="-0.9018">
        <ele>108</ele>
        <time>2014-11-20T14:22:00Z</time>
      </trkpt>
      <trkpt lat="47.1562" lon="-0.90184">
        <ele>108</ele>
        <time>2014-11-20T14:22:03Z</time>
      </trkpt>
      <trkpt lat="47.15622" lon="-0.90189">
        <ele>108</ele>
        <time>2014-11-20T14:22:05Z</time>
      </trkpt>
      <trkpt lat="47.15624" lon="-0.90192">
        <ele>108</ele>
        <time>2014-11-20T14:22:07Z</time>
      </trkpt>
      <trkpt lat="47.15626" lon="-0.90194">
        <ele>108</ele>
        <time>2014-11-20T14:22:09Z</time>
      </trkpt>
      <trkpt lat="47.15627" lon="-0.90197">
        <ele>108</ele>
        <time>2014-11-20T14:22:11Z</time>
      </trkpt>
      <trkpt lat="47.15628" lon="-0.90199">
        <ele>108</ele>
        <time>2014-11-20T14:22:13Z</time>
      </trkpt>
      <trkpt lat="47.15629" lon="-0.90201">
        <ele>108</ele>
        <time>2014-11-20T14:22:15Z</time>
      </trkpt>
      <trkpt lat="47.1563" lon="-0.90203">
        <ele>108</ele>
        <time>2014-11-20T14:22:17Z</time>
      </trkpt>
      <trkpt lat="47.15633" lon="-0.90207">
        <ele>108</ele>
        <time>2014-11-20T14:22:20Z</time>
      </trkpt>
      <trkpt lat="47.15634" lon="-0.90211">
        <ele>108</ele>
        <time>2014-11-20T14:22:22Z</time>
      </trkpt>
      <trkpt lat="47.15636" lon="-0.90215">
        <ele>108</ele>
        <time>2014-11-20T14:22:25Z</time>
      </trkpt>
      <trkpt lat="47.15638" lon="-0.90217">
        <ele>108</ele>
        <time>2014-11-20T14:22:27Z</time>
      </trkpt>
      <trkpt lat="47.15639" lon="-0.90219">
        <ele>108</ele>
        <time>2014-11-20T14:22:29Z</time>
      </trkpt>
      <trkpt lat="47.15641" lon="-0.90223">
        <ele>108</ele>
        <time>2014-11-20T14:22:31Z</time>
      </trkpt>
      <trkpt lat="47.15643" lon="-0.90227">
        <ele>108</ele>
        <time>2014-11-20T14:22:34Z</time>
      </trkpt>
      <trkpt lat="47.15644" lon="-0.9023">
        <ele>108</ele>
        <time>2014-11-20T14:22:36Z</time>
      </trkpt>
      <trkpt lat="47.15646" lon="-0.90234">
        <ele>108</ele>
        <time>2014-11-20T14:22:38Z</time>
      </trkpt>
      <trkpt lat="47.15648" lon="-0.90237">
        <ele>108</ele>
        <time>2014-11-20T14:22:40Z</time>
      </trkpt>
      <trkpt lat="47.15649" lon="-0.9024">
        <ele>108</ele>
        <time>2014-11-20T14:22:42Z</time>
      </trkpt>
      <trkpt lat="47.15652" lon="-0.90244">
        <ele>108</ele>
        <time>2014-11-20T14:22:45Z</time>
      </trkpt>
      <trkpt lat="47.15654" lon="-0.90247">
        <ele>108</ele>
        <time>2014-11-20T14:22:47Z</time>
      </trkpt>
      <trkpt lat="47.15656" lon="-0.9025">
        <ele>108</ele>
        <time>2014-11-20T14:22:50Z</time>
      </trkpt>
      <trkpt lat="47.15658" lon="-0.90252">
        <ele>108</ele>
        <time>2014-11-20T14:22:52Z</time>
      </trkpt>
      <trkpt lat="47.15659" lon="-0.90255">
        <ele>108</ele>
        <time>2014-11-20T14:22:55Z</time>
      </trkpt>
      <trkpt lat="47.15661" lon="-0.90259">
        <ele>108</ele>
        <time>2014-11-20T14:22:58Z</time>
      </trkpt>
      <trkpt lat="47.15664" lon="-0.90263">
        <ele>108</ele>
        <time>2014-11-20T14:23:01Z</time>
      </trkpt>
      <trkpt lat="47.15665" lon="-0.90266">
        <ele>108</ele>
        <time>2014-11-20T14:23:03Z</time>
      </trkpt>
      <trkpt lat="47.15667" lon="-0.90269">
        <ele>108</ele>
        <time>2014-11-20T14:23:05Z</time>
      </trkpt>
      <trkpt lat="47.1567" lon="-0.90272">
        <ele>108</ele>
        <time>2014-11-20T14:23:07Z</time>
      </trkpt>
      <trkpt lat="47.15671" lon="-0.90274">
        <ele>108</ele>
        <time>2014-11-20T14:23:09Z</time>
      </trkpt>
      <trkpt lat="47.15673" lon="-0.90276">
        <ele>108</ele>
        <time>2014-11-20T14:23:11Z</time>
      </trkpt>
      <trkpt lat="47.15675" lon="-0.9028">
        <ele>108</ele>
        <time>2014-11-20T14:23:13Z</time>
      </trkpt>
      <trkpt lat="47.15678" lon="-0.90284">
        <ele>108</ele>
        <time>2014-11-20T14:23:16Z</time>
      </trkpt>
      <trkpt lat="47.1568" lon="-0.90286">
        <ele>108</ele>
        <time>2014-11-20T14:23:18Z</time>
      </trkpt>
      <trkpt lat="47.15681" lon="-0.90289">
        <ele>108</ele>
        <time>2014-11-20T14:23:20Z</time>
      </trkpt>
      <trkpt lat="47.15684" lon="-0.90292">
        <ele>108</ele>
        <time>2014-11-20T14:23:22Z</time>
      </trkpt>
      <trkpt lat="47.15687" lon="-0.90295">
        <ele>108</ele>
        <time>2014-11-20T14:23:25Z</time>
      </trkpt>
      <trkpt lat="47.1569" lon="-0.90297">
        <ele>108</ele>
        <time>2014-11-20T14:23:28Z</time>
      </trkpt>
      <trkpt lat="47.15692" lon="-0.90299">
        <ele>108</ele>
        <time>2014-11-20T14:23:30Z</time>
      </trkpt>
      <trkpt lat="47.15694" lon="-0.90301">
        <ele>108</ele>
        <time>2014-11-20T14:23:32Z</time>
      </trkpt>
      <trkpt lat="47.15696" lon="-0.90303">
        <ele>108</ele>
        <time>2014-11-20T14:23:34Z</time>
      </trkpt>
      <trkpt lat="47.15698" lon="-0.90306">
        <ele>108</ele>
        <time>2014-11-20T14:23:36Z</time>
      </trkpt>
      <trkpt lat="47.157" lon="-0.90308">
        <ele>108</ele>
        <time>2014-11-20T14:23:38Z</time>
      </trkpt>
      <trkpt lat="47.15702" lon="-0.9031">
        <ele>108</ele>
        <time>2014-11-20T14:23:40Z</time>
      </trkpt>
      <trkpt lat="47.15704" lon="-0.90312">
        <ele>108</ele>
        <time>2014-11-20T14:23:43Z</time>
      </trkpt>
      <trkpt lat="47.15707" lon="-0.90316">
        <ele>108</ele>
        <time>2014-11-20T14:23:46Z</time>
      </trkpt>
      <trkpt lat="47.15708" lon="-0.90318">
        <ele>108</ele>
        <time>2014-11-20T14:23:48Z</time>
      </trkpt>
      <trkpt lat="47.1571" lon="-0.90319">
        <ele>108</ele>
        <time>2014-11-20T14:23:50Z</time>
      </trkpt>
      <trkpt lat="47.15711" lon="-0.9032">
        <ele>108</ele>
        <time>2014-11-20T14:23:53Z</time>
      </trkpt>
      <trkpt lat="47.15712" lon="-0.90321">
        <ele>108</ele>
        <time>2014-11-20T14:23:55Z</time>
      </trkpt>
      <trkpt lat="47.15715" lon="-0.90323">
        <ele>108</ele>
        <time>2014-11-20T14:23:57Z</time>
      </trkpt>
      <trkpt lat="47.15718" lon="-0.90327">
        <ele>108</ele>
        <time>2014-11-20T14:24:00Z</time>
      </trkpt>
      <trkpt lat="47.15721" lon="-0.90329">
        <ele>108</ele>
        <time>2014-11-20T14:24:02Z</time>
      </trkpt>
      <trkpt lat="47.15722" lon="-0.9033">
        <ele>108</ele>
        <time>2014-11-20T14:24:04Z</time>
      </trkpt>
      <trkpt lat="47.15723" lon="-0.90332">
        <ele>108</ele>
        <time>2014-11-20T14:24:11Z</time>
      </trkpt>
      <trkpt lat="47.15725" lon="-0.90333">
        <ele>108</ele>
        <time>2014-11-20T14:24:13Z</time>
      </trkpt>
      <trkpt lat="47.15726" lon="-0.90335">
        <ele>108</ele>
        <time>2014-11-20T14:24:16Z</time>
      </trkpt>
      <trkpt lat="47.15728" lon="-0.90337">
        <ele>108</ele>
        <time>2014-11-20T14:24:18Z</time>
      </trkpt>
      <trkpt lat="47.1573" lon="-0.90338">
        <ele>108</ele>
        <time>2014-11-20T14:24:21Z</time>
      </trkpt>
      <trkpt lat="47.15732" lon="-0.9034">
        <ele>108</ele>
        <time>2014-11-20T14:24:23Z</time>
      </trkpt>
      <trkpt lat="47.15734" lon="-0.90342">
        <ele>108</ele>
        <time>2014-11-20T14:24:25Z</time>
      </trkpt>
      <trkpt lat="47.15736" lon="-0.90346">
        <ele>108</ele>
        <time>2014-11-20T14:24:27Z</time>
      </trkpt>
      <trkpt lat="47.15738" lon="-0.90349">
        <ele>108</ele>
        <time>2014-11-20T14:24:29Z</time>
      </trkpt>
      <trkpt lat="47.15739" lon="-0.90353">
        <ele>108</ele>
        <time>2014-11-20T14:24:31Z</time>
      </trkpt>
      <trkpt lat="47.15741" lon="-0.90357">
        <ele>108</ele>
        <time>2014-11-20T14:24:33Z</time>
      </trkpt>
      <trkpt lat="47.15743" lon="-0.9036">
        <ele>108</ele>
        <time>2014-11-20T14:24:35Z</time>
      </trkpt>
      <trkpt lat="47.15745" lon="-0.90364">
        <ele>108</ele>
        <time>2014-11-20T14:24:37Z</time>
      </trkpt>
      <trkpt lat="47.15747" lon="-0.90367">
        <ele>108</ele>
        <time>2014-11-20T14:24:39Z</time>
      </trkpt>
      <trkpt lat="47.15749" lon="-0.90369">
        <ele>108</ele>
        <time>2014-11-20T14:24:41Z</time>
      </trkpt>
      <trkpt lat="47.15751" lon="-0.90371">
        <ele>108</ele>
        <time>2014-11-20T14:24:43Z</time>
      </trkpt>
      <trkpt lat="47.15752" lon="-0.90373">
        <ele>108</ele>
        <time>2014-11-20T14:24:45Z</time>
      </trkpt>
      <trkpt lat="47.15753" lon="-0.90376">
        <ele>108</ele>
        <time>2014-11-20T14:24:47Z</time>
      </trkpt>
      <trkpt lat="47.15755" lon="-0.9038">
        <ele>108</ele>
        <time>2014-11-20T14:24:49Z</time>
      </trkpt>
      <trkpt lat="47.15757" lon="-0.90383">
        <ele>108</ele>
        <time>2014-11-20T14:24:51Z</time>
      </trkpt>
      <trkpt lat="47.15758" lon="-0.90385">
        <ele>108</ele>
        <time>2014-11-20T14:24:53Z</time>
      </trkpt>
      <trkpt lat="47.15759" lon="-0.90388">
        <ele>108</ele>
        <time>2014-11-20T14:24:55Z</time>
      </trkpt>
      <trkpt lat="47.1576" lon="-0.90392">
        <ele>108</ele>
        <time>2014-11-20T14:24:57Z</time>
      </trkpt>
      <trkpt lat="47.15762" lon="-0.90395">
        <ele>108</ele>
        <time>2014-11-20T14:24:59Z</time>
      </trkpt>
      <trkpt lat="47.15763" lon="-0.90398">
        <ele>108</ele>
        <time>2014-11-20T14:25:01Z</time>
      </trkpt>
      <trkpt lat="47.15766" lon="-0.90402">
        <ele>108</ele>
        <time>2014-11-20T14:25:04Z</time>
      </trkpt>
      <trkpt lat="47.15768" lon="-0.90405">
        <ele>108</ele>
        <time>2014-11-20T14:25:06Z</time>
      </trkpt>
      <trkpt lat="47.1577" lon="-0.90409">
        <ele>108</ele>
        <time>2014-11-20T14:25:09Z</time>
      </trkpt>
      <trkpt lat="47.15772" lon="-0.90411">
        <ele>108</ele>
        <time>2014-11-20T14:25:11Z</time>
      </trkpt>
      <trkpt lat="47.15774" lon="-0.90414">
        <ele>108</ele>
        <time>2014-11-20T14:25:13Z</time>
      </trkpt>
      <trkpt lat="47.15777" lon="-0.90418">
        <ele>108</ele>
        <time>2014-11-20T14:25:16Z</time>
      </trkpt>
      <trkpt lat="47.15778" lon="-0.90421">
        <ele>108</ele>
        <time>2014-11-20T14:25:18Z</time>
      </trkpt>
      <trkpt lat="47.15778" lon="-0.90424">
        <ele>108</ele>
        <time>2014-11-20T14:25:20Z</time>
      </trkpt>
      <trkpt lat="47.15778" lon="-0.90426">
        <ele>108</ele>
        <time>2014-11-20T14:25:22Z</time>
      </trkpt>
      <trkpt lat="47.1578" lon="-0.9043">
        <ele>108</ele>
        <time>2014-11-20T14:25:25Z</time>
      </trkpt>
      <trkpt lat="47.15783" lon="-0.90435">
        <ele>108</ele>
        <time>2014-11-20T14:25:28Z</time>
      </trkpt>
      <trkpt lat="47.15784" lon="-0.90438">
        <ele>108</ele>
        <time>2014-11-20T14:25:30Z</time>
      </trkpt>
      <trkpt lat="47.15786" lon="-0.9044">
        <ele>108</ele>
        <time>2014-11-20T14:25:32Z</time>
      </trkpt>
      <trkpt lat="47.15788" lon="-0.90444">
        <ele>108</ele>
        <time>2014-11-20T14:25:34Z</time>
      </trkpt>
      <trkpt lat="47.1579" lon="-0.90448">
        <ele>108</ele>
        <time>2014-11-20T14:25:37Z</time>
      </trkpt>
      <trkpt lat="47.15792" lon="-0.90451">
        <ele>108</ele>
        <time>2014-11-20T14:25:39Z</time>
      </trkpt>
      <trkpt lat="47.15794" lon="-0.90453">
        <ele>108</ele>
        <time>2014-11-20T14:25:41Z</time>
      </trkpt>
      <trkpt lat="47.15797" lon="-0.90457">
        <ele>108</ele>
        <time>2014-11-20T14:25:44Z</time>
      </trkpt>
      <trkpt lat="47.15799" lon="-0.9046">
        <ele>108</ele>
        <time>2014-11-20T14:25:46Z</time>
      </trkpt>
      <trkpt lat="47.158" lon="-0.90463">
        <ele>108</ele>
        <time>2014-11-20T14:25:48Z</time>
      </trkpt>
      <trkpt lat="47.15802" lon="-0.90466">
        <ele>108</ele>
        <time>2014-11-20T14:25:50Z</time>
      </trkpt>
      <trkpt lat="47.15804" lon="-0.9047">
        <ele>108</ele>
        <time>2014-11-20T14:25:53Z</time>
      </trkpt>
      <trkpt lat="47.15806" lon="-0.90473">
        <ele>108</ele>
        <time>2014-11-20T14:25:55Z</time>
      </trkpt>
      <trkpt lat="47.15807" lon="-0.90475">
        <ele>108</ele>
        <time>2014-11-20T14:25:57Z</time>
      </trkpt>
      <trkpt lat="47.15809" lon="-0.90478">
        <ele>108</ele>
        <time>2014-11-20T14:25:59Z</time>
      </trkpt>
      <trkpt lat="47.15811" lon="-0.90481">
        <ele>108</ele>
        <time>2014-11-20T14:26:01Z</time>
      </trkpt>
      <trkpt lat="47.15812" lon="-0.90483">
        <ele>108</ele>
        <time>2014-11-20T14:26:03Z</time>
      </trkpt>
      <trkpt lat="47.15814" lon="-0.90486">
        <ele>108</ele>
        <time>2014-11-20T14:26:05Z</time>
      </trkpt>
      <trkpt lat="47.15817" lon="-0.9049">
        <ele>108</ele>
        <time>2014-11-20T14:26:08Z</time>
      </trkpt>
      <trkpt lat="47.15818" lon="-0.90492">
        <ele>108</ele>
        <time>2014-11-20T14:26:10Z</time>
      </trkpt>
      <trkpt lat="47.1582" lon="-0.90495">
        <ele>108</ele>
        <time>2014-11-20T14:26:12Z</time>
      </trkpt>
      <trkpt lat="47.15821" lon="-0.90496">
        <ele>108</ele>
        <time>2014-11-20T14:26:14Z</time>
      </trkpt>
      <trkpt lat="47.15823" lon="-0.90499">
        <ele>108</ele>
        <time>2014-11-20T14:26:16Z</time>
      </trkpt>
      <trkpt lat="47.15824" lon="-0.90501">
        <ele>108</ele>
        <time>2014-11-20T14:26:18Z</time>
      </trkpt>
      <trkpt lat="47.15825" lon="-0.90503">
        <ele>108</ele>
        <time>2014-11-20T14:26:20Z</time>
      </trkpt>
      <trkpt lat="47.15826" lon="-0.90505">
        <ele>108</ele>
        <time>2014-11-20T14:26:22Z</time>
      </trkpt>
      <trkpt lat="47.15828" lon="-0.90509">
        <ele>108</ele>
        <time>2014-11-20T14:26:25Z</time>
      </trkpt>
      <trkpt lat="47.15829" lon="-0.90512">
        <ele>108</ele>
        <time>2014-11-20T14:26:27Z</time>
      </trkpt>
      <trkpt lat="47.1583" lon="-0.90513">
        <ele>107</ele>
        <time>2014-11-20T14:26:29Z</time>
      </trkpt>
      <trkpt lat="47.15831" lon="-0.90516">
        <ele>107</ele>
        <time>2014-11-20T14:26:32Z</time>
      </trkpt>
      <trkpt lat="47.15833" lon="-0.90518">
        <ele>107</ele>
        <time>2014-11-20T14:26:34Z</time>
      </trkpt>
      <trkpt lat="47.15834" lon="-0.90521">
        <ele>107</ele>
        <time>2014-11-20T14:26:36Z</time>
      </trkpt>
      <trkpt lat="47.15836" lon="-0.90523">
        <ele>107</ele>
        <time>2014-11-20T14:26:38Z</time>
      </trkpt>
      <trkpt lat="47.15839" lon="-0.90527">
        <ele>107</ele>
        <time>2014-11-20T14:26:41Z</time>
      </trkpt>
      <trkpt lat="47.1584" lon="-0.9053">
        <ele>107</ele>
        <time>2014-11-20T14:26:43Z</time>
      </trkpt>
      <trkpt lat="47.15842" lon="-0.90533">
        <ele>107</ele>
        <time>2014-11-20T14:26:45Z</time>
      </trkpt>
      <trkpt lat="47.15843" lon="-0.90536">
        <ele>107</ele>
        <time>2014-11-20T14:26:47Z</time>
      </trkpt>
      <trkpt lat="47.15845" lon="-0.90538">
        <ele>107</ele>
        <time>2014-11-20T14:26:49Z</time>
      </trkpt>
      <trkpt lat="47.15846" lon="-0.90541">
        <ele>107</ele>
        <time>2014-11-20T14:26:51Z</time>
      </trkpt>
      <trkpt lat="47.15848" lon="-0.90543">
        <ele>107</ele>
        <time>2014-11-20T14:26:53Z</time>
      </trkpt>
      <trkpt lat="47.1585" lon="-0.90546">
        <ele>107</ele>
        <time>2014-11-20T14:26:55Z</time>
      </trkpt>
      <trkpt lat="47.15851" lon="-0.90548">
        <ele>107</ele>
        <time>2014-11-20T14:26:57Z</time>
      </trkpt>
      <trkpt lat="47.15853" lon="-0.90552">
        <ele>107</ele>
        <time>2014-11-20T14:26:59Z</time>
      </trkpt>
      <trkpt lat="47.15855" lon="-0.90555">
        <ele>107</ele>
        <time>2014-11-20T14:27:01Z</time>
      </trkpt>
      <trkpt lat="47.15857" lon="-0.90558">
        <ele>107</ele>
        <time>2014-11-20T14:27:03Z</time>
      </trkpt>
      <trkpt lat="47.1586" lon="-0.90563">
        <ele>107</ele>
        <time>2014-11-20T14:27:06Z</time>
      </trkpt>
      <trkpt lat="47.15862" lon="-0.90567">
        <ele>107</ele>
        <time>2014-11-20T14:27:09Z</time>
      </trkpt>
      <trkpt lat="47.15863" lon="-0.90572">
        <ele>106</ele>
        <time>2014-11-20T14:27:12Z</time>
      </trkpt>
      <trkpt lat="47.15865" lon="-0.90575">
        <ele>106</ele>
        <time>2014-11-20T14:27:14Z</time>
      </trkpt>
      <trkpt lat="47.15866" lon="-0.90577">
        <ele>106</ele>
        <time>2014-11-20T14:27:16Z</time>
      </trkpt>
      <trkpt lat="47.15868" lon="-0.9058">
        <ele>106</ele>
        <time>2014-11-20T14:27:18Z</time>
      </trkpt>
      <trkpt lat="47.15869" lon="-0.90582">
        <ele>105</ele>
        <time>2014-11-20T14:27:20Z</time>
      </trkpt>
      <trkpt lat="47.1587" lon="-0.90585">
        <ele>105</ele>
        <time>2014-11-20T14:27:22Z</time>
      </trkpt>
      <trkpt lat="47.15872" lon="-0.90588">
        <ele>104</ele>
        <time>2014-11-20T14:27:24Z</time>
      </trkpt>
      <trkpt lat="47.15873" lon="-0.90591">
        <ele>104</ele>
        <time>2014-11-20T14:27:26Z</time>
      </trkpt>
      <trkpt lat="47.15875" lon="-0.90594">
        <ele>104</ele>
        <time>2014-11-20T14:27:28Z</time>
      </trkpt>
      <trkpt lat="47.15876" lon="-0.90597">
        <ele>104</ele>
        <time>2014-11-20T14:27:30Z</time>
      </trkpt>
      <trkpt lat="47.15879" lon="-0.90601">
        <ele>104</ele>
        <time>2014-11-20T14:27:33Z</time>
      </trkpt>
      <trkpt lat="47.15881" lon="-0.90604">
        <ele>104</ele>
        <time>2014-11-20T14:27:35Z</time>
      </trkpt>
      <trkpt lat="47.15882" lon="-0.90606">
        <ele>104</ele>
        <time>2014-11-20T14:27:37Z</time>
      </trkpt>
      <trkpt lat="47.15884" lon="-0.90608">
        <ele>104</ele>
        <time>2014-11-20T14:27:39Z</time>
      </trkpt>
      <trkpt lat="47.15886" lon="-0.90611">
        <ele>104</ele>
        <time>2014-11-20T14:27:41Z</time>
      </trkpt>
      <trkpt lat="47.15888" lon="-0.90614">
        <ele>103</ele>
        <time>2014-11-20T14:27:43Z</time>
      </trkpt>
      <trkpt lat="47.1589" lon="-0.90616">
        <ele>103</ele>
        <time>2014-11-20T14:27:45Z</time>
      </trkpt>
      <trkpt lat="47.15892" lon="-0.90619">
        <ele>103</ele>
        <time>2014-11-20T14:27:47Z</time>
      </trkpt>
      <trkpt lat="47.15893" lon="-0.90622">
        <ele>103</ele>
        <time>2014-11-20T14:27:49Z</time>
      </trkpt>
      <trkpt lat="47.15896" lon="-0.90626">
        <ele>103</ele>
        <time>2014-11-20T14:27:52Z</time>
      </trkpt>
      <trkpt lat="47.15897" lon="-0.90627">
        <ele>103</ele>
        <time>2014-11-20T14:27:54Z</time>
      </trkpt>
      <trkpt lat="47.15898" lon="-0.9063">
        <ele>103</ele>
        <time>2014-11-20T14:27:56Z</time>
      </trkpt>
      <trkpt lat="47.15899" lon="-0.90632">
        <ele>103</ele>
        <time>2014-11-20T14:27:58Z</time>
      </trkpt>
      <trkpt lat="47.159" lon="-0.90633">
        <ele>103</ele>
        <time>2014-11-20T14:28:00Z</time>
      </trkpt>
      <trkpt lat="47.15901" lon="-0.90635">
        <ele>103</ele>
        <time>2014-11-20T14:28:02Z</time>
      </trkpt>
      <trkpt lat="47.15903" lon="-0.90638">
        <ele>103</ele>
        <time>2014-11-20T14:28:04Z</time>
      </trkpt>
      <trkpt lat="47.15905" lon="-0.90641">
        <ele>103</ele>
        <time>2014-11-20T14:28:06Z</time>
      </trkpt>
      <trkpt lat="47.15906" lon="-0.90643">
        <ele>103</ele>
        <time>2014-11-20T14:28:08Z</time>
      </trkpt>
      <trkpt lat="47.15907" lon="-0.90646">
        <ele>103</ele>
        <time>2014-11-20T14:28:10Z</time>
      </trkpt>
      <trkpt lat="47.15908" lon="-0.90649">
        <ele>103</ele>
        <time>2014-11-20T14:28:12Z</time>
      </trkpt>
      <trkpt lat="47.1591" lon="-0.90651">
        <ele>103</ele>
        <time>2014-11-20T14:28:14Z</time>
      </trkpt>
      <trkpt lat="47.15913" lon="-0.90655">
        <ele>103</ele>
        <time>2014-11-20T14:28:17Z</time>
      </trkpt>
      <trkpt lat="47.15914" lon="-0.90657">
        <ele>103</ele>
        <time>2014-11-20T14:28:19Z</time>
      </trkpt>
      <trkpt lat="47.15916" lon="-0.90659">
        <ele>103</ele>
        <time>2014-11-20T14:28:21Z</time>
      </trkpt>
      <trkpt lat="47.15917" lon="-0.90662">
        <ele>103</ele>
        <time>2014-11-20T14:28:23Z</time>
      </trkpt>
      <trkpt lat="47.1592" lon="-0.90666">
        <ele>103</ele>
        <time>2014-11-20T14:28:26Z</time>
      </trkpt>
      <trkpt lat="47.15921" lon="-0.9067">
        <ele>103</ele>
        <time>2014-11-20T14:28:28Z</time>
      </trkpt>
      <trkpt lat="47.15923" lon="-0.90674">
        <ele>103</ele>
        <time>2014-11-20T14:28:30Z</time>
      </trkpt>
      <trkpt lat="47.15926" lon="-0.90677">
        <ele>103</ele>
        <time>2014-11-20T14:28:32Z</time>
      </trkpt>
      <trkpt lat="47.15928" lon="-0.90682">
        <ele>103</ele>
        <time>2014-11-20T14:28:35Z</time>
      </trkpt>
      <trkpt lat="47.15929" lon="-0.90685">
        <ele>103</ele>
        <time>2014-11-20T14:28:37Z</time>
      </trkpt>
      <trkpt lat="47.15931" lon="-0.9069">
        <ele>103</ele>
        <time>2014-11-20T14:28:40Z</time>
      </trkpt>
      <trkpt lat="47.15933" lon="-0.90693">
        <ele>103</ele>
        <time>2014-11-20T14:28:42Z</time>
      </trkpt>
      <trkpt lat="47.15935" lon="-0.90698">
        <ele>103</ele>
        <time>2014-11-20T14:28:45Z</time>
      </trkpt>
      <trkpt lat="47.15936" lon="-0.90701">
        <ele>103</ele>
        <time>2014-11-20T14:28:47Z</time>
      </trkpt>
      <trkpt lat="47.15937" lon="-0.90703">
        <ele>103</ele>
        <time>2014-11-20T14:28:49Z</time>
      </trkpt>
      <trkpt lat="47.15937" lon="-0.90705">
        <ele>103</ele>
        <time>2014-11-20T14:28:53Z</time>
      </trkpt>
      <trkpt lat="47.15937" lon="-0.90706">
        <ele>103</ele>
        <time>2014-11-20T14:28:55Z</time>
      </trkpt>
      <trkpt lat="47.15937" lon="-0.90708">
        <ele>103</ele>
        <time>2014-11-20T14:29:00Z</time>
      </trkpt>
      <trkpt lat="47.15937" lon="-0.9071">
        <ele>103</ele>
        <time>2014-11-20T14:29:03Z</time>
      </trkpt>
      <trkpt lat="47.15937" lon="-0.90711">
        <ele>103</ele>
        <time>2014-11-20T14:29:07Z</time>
      </trkpt>
      <trkpt lat="47.15938" lon="-0.90713">
        <ele>103</ele>
        <time>2014-11-20T14:29:09Z</time>
      </trkpt>
      <trkpt lat="47.15938" lon="-0.90715">
        <ele>103</ele>
        <time>2014-11-20T14:29:12Z</time>
      </trkpt>
      <trkpt lat="47.15939" lon="-0.90716">
        <ele>103</ele>
        <time>2014-11-20T14:29:18Z</time>
      </trkpt>
      <trkpt lat="47.1594" lon="-0.90718">
        <ele>103</ele>
        <time>2014-11-20T14:29:21Z</time>
      </trkpt>
      <trkpt lat="47.15942" lon="-0.9072">
        <ele>104</ele>
        <time>2014-11-20T14:29:36Z</time>
      </trkpt>
      <trkpt lat="47.15942" lon="-0.90721">
        <ele>104</ele>
        <time>2014-11-20T14:29:38Z</time>
      </trkpt>
      <trkpt lat="47.15943" lon="-0.90724">
        <ele>104</ele>
        <time>2014-11-20T14:29:40Z</time>
      </trkpt>
      <trkpt lat="47.15944" lon="-0.90725">
        <ele>104</ele>
        <time>2014-11-20T14:29:42Z</time>
      </trkpt>
      <trkpt lat="47.15944" lon="-0.90727">
        <ele>104</ele>
        <time>2014-11-20T14:29:47Z</time>
      </trkpt>
      <trkpt lat="47.15945" lon="-0.90727">
        <ele>105</ele>
        <time>2014-11-20T14:29:57Z</time>
      </trkpt>
      <trkpt lat="47.15946" lon="-0.90728">
        <ele>105</ele>
        <time>2014-11-20T14:30:04Z</time>
      </trkpt>
      <trkpt lat="47.15947" lon="-0.9073">
        <ele>105</ele>
        <time>2014-11-20T14:30:06Z</time>
      </trkpt>
      <trkpt lat="47.15949" lon="-0.9073">
        <ele>105</ele>
        <time>2014-11-20T14:30:08Z</time>
      </trkpt>
      <trkpt lat="47.1595" lon="-0.90731">
        <ele>105</ele>
        <time>2014-11-20T14:30:10Z</time>
      </trkpt>
      <trkpt lat="47.15952" lon="-0.90733">
        <ele>105</ele>
        <time>2014-11-20T14:30:12Z</time>
      </trkpt>
      <trkpt lat="47.15953" lon="-0.90734">
        <ele>105</ele>
        <time>2014-11-20T14:30:14Z</time>
      </trkpt>
      <trkpt lat="47.15956" lon="-0.90738">
        <ele>105</ele>
        <time>2014-11-20T14:30:17Z</time>
      </trkpt>
      <trkpt lat="47.15957" lon="-0.9074">
        <ele>105</ele>
        <time>2014-11-20T14:30:19Z</time>
      </trkpt>
      <trkpt lat="47.15959" lon="-0.90742">
        <ele>105</ele>
        <time>2014-11-20T14:30:21Z</time>
      </trkpt>
      <trkpt lat="47.1596" lon="-0.90745">
        <ele>105</ele>
        <time>2014-11-20T14:30:23Z</time>
      </trkpt>
      <trkpt lat="47.15961" lon="-0.90748">
        <ele>105</ele>
        <time>2014-11-20T14:30:25Z</time>
      </trkpt>
      <trkpt lat="47.15963" lon="-0.90753">
        <ele>105</ele>
        <time>2014-11-20T14:30:28Z</time>
      </trkpt>
      <trkpt lat="47.15963" lon="-0.90756">
        <ele>105</ele>
        <time>2014-11-20T14:30:30Z</time>
      </trkpt>
      <trkpt lat="47.15964" lon="-0.90759">
        <ele>105</ele>
        <time>2014-11-20T14:30:32Z</time>
      </trkpt>
      <trkpt lat="47.15965" lon="-0.90763">
        <ele>105</ele>
        <time>2014-11-20T14:30:34Z</time>
      </trkpt>
      <trkpt lat="47.15966" lon="-0.90766">
        <ele>105</ele>
        <time>2014-11-20T14:30:36Z</time>
      </trkpt>
      <trkpt lat="47.15966" lon="-0.90768">
        <ele>105</ele>
        <time>2014-11-20T14:30:38Z</time>
      </trkpt>
      <trkpt lat="47.15967" lon="-0.90771">
        <ele>105</ele>
        <time>2014-11-20T14:30:40Z</time>
      </trkpt>
      <trkpt lat="47.15968" lon="-0.90773">
        <ele>105</ele>
        <time>2014-11-20T14:30:42Z</time>
      </trkpt>
      <trkpt lat="47.15969" lon="-0.90775">
        <ele>105</ele>
        <time>2014-11-20T14:30:44Z</time>
      </trkpt>
      <trkpt lat="47.15971" lon="-0.90778">
        <ele>105</ele>
        <time>2014-11-20T14:30:46Z</time>
      </trkpt>
      <trkpt lat="47.15971" lon="-0.90782">
        <ele>105</ele>
        <time>2014-11-20T14:30:49Z</time>
      </trkpt>
      <trkpt lat="47.15973" lon="-0.90786">
        <ele>105</ele>
        <time>2014-11-20T14:30:51Z</time>
      </trkpt>
      <trkpt lat="47.15974" lon="-0.90789">
        <ele>105</ele>
        <time>2014-11-20T14:30:53Z</time>
      </trkpt>
      <trkpt lat="47.15975" lon="-0.90791">
        <ele>105</ele>
        <time>2014-11-20T14:30:55Z</time>
      </trkpt>
      <trkpt lat="47.15977" lon="-0.90794">
        <ele>105</ele>
        <time>2014-11-20T14:30:57Z</time>
      </trkpt>
      <trkpt lat="47.15978" lon="-0.90797">
        <ele>105</ele>
        <time>2014-11-20T14:30:59Z</time>
      </trkpt>
      <trkpt lat="47.15979" lon="-0.90799">
        <ele>105</ele>
        <time>2014-11-20T14:31:01Z</time>
      </trkpt>
      <trkpt lat="47.15981" lon="-0.90801">
        <ele>105</ele>
        <time>2014-11-20T14:31:03Z</time>
      </trkpt>
      <trkpt lat="47.15982" lon="-0.90804">
        <ele>105</ele>
        <time>2014-11-20T14:31:05Z</time>
      </trkpt>
      <trkpt lat="47.15984" lon="-0.90806">
        <ele>105</ele>
        <time>2014-11-20T14:31:07Z</time>
      </trkpt>
      <trkpt lat="47.15985" lon="-0.90809">
        <ele>105</ele>
        <time>2014-11-20T14:31:09Z</time>
      </trkpt>
      <trkpt lat="47.15986" lon="-0.90811">
        <ele>105</ele>
        <time>2014-11-20T14:31:11Z</time>
      </trkpt>
      <trkpt lat="47.15987" lon="-0.90813">
        <ele>105</ele>
        <time>2014-11-20T14:31:13Z</time>
      </trkpt>
      <trkpt lat="47.15988" lon="-0.90816">
        <ele>105</ele>
        <time>2014-11-20T14:31:15Z</time>
      </trkpt>
      <trkpt lat="47.1599" lon="-0.9082">
        <ele>105</ele>
        <time>2014-11-20T14:31:18Z</time>
      </trkpt>
      <trkpt lat="47.15991" lon="-0.90823">
        <ele>105</ele>
        <time>2014-11-20T14:31:20Z</time>
      </trkpt>
      <trkpt lat="47.15993" lon="-0.90825">
        <ele>105</ele>
        <time>2014-11-20T14:31:22Z</time>
      </trkpt>
      <trkpt lat="47.15994" lon="-0.90828">
        <ele>105</ele>
        <time>2014-11-20T14:31:24Z</time>
      </trkpt>
      <trkpt lat="47.15995" lon="-0.90831">
        <ele>105</ele>
        <time>2014-11-20T14:31:26Z</time>
      </trkpt>
      <trkpt lat="47.15996" lon="-0.90834">
        <ele>105</ele>
        <time>2014-11-20T14:31:28Z</time>
      </trkpt>
      <trkpt lat="47.15997" lon="-0.90836">
        <ele>105</ele>
        <time>2014-11-20T14:31:30Z</time>
      </trkpt>
      <trkpt lat="47.15999" lon="-0.90838">
        <ele>105</ele>
        <time>2014-11-20T14:31:32Z</time>
      </trkpt>
      <trkpt lat="47.16" lon="-0.90839">
        <ele>105</ele>
        <time>2014-11-20T14:31:34Z</time>
      </trkpt>
      <trkpt lat="47.16001" lon="-0.90841">
        <ele>105</ele>
        <time>2014-11-20T14:31:36Z</time>
      </trkpt>
      <trkpt lat="47.16002" lon="-0.90844">
        <ele>105</ele>
        <time>2014-11-20T14:31:38Z</time>
      </trkpt>
      <trkpt lat="47.16003" lon="-0.90846">
        <ele>105</ele>
        <time>2014-11-20T14:31:40Z</time>
      </trkpt>
      <trkpt lat="47.16004" lon="-0.90849">
        <ele>105</ele>
        <time>2014-11-20T14:31:42Z</time>
      </trkpt>
      <trkpt lat="47.16005" lon="-0.90851">
        <ele>105</ele>
        <time>2014-11-20T14:31:44Z</time>
      </trkpt>
      <trkpt lat="47.16006" lon="-0.90852">
        <ele>105</ele>
        <time>2014-11-20T14:31:46Z</time>
      </trkpt>
      <trkpt lat="47.16006" lon="-0.90855">
        <ele>105</ele>
        <time>2014-11-20T14:31:48Z</time>
      </trkpt>
      <trkpt lat="47.16007" lon="-0.90857">
        <ele>105</ele>
        <time>2014-11-20T14:31:50Z</time>
      </trkpt>
      <trkpt lat="47.16008" lon="-0.90859">
        <ele>105</ele>
        <time>2014-11-20T14:31:52Z</time>
      </trkpt>
      <trkpt lat="47.16009" lon="-0.90861">
        <ele>105</ele>
        <time>2014-11-20T14:31:54Z</time>
      </trkpt>
      <trkpt lat="47.1601" lon="-0.90863">
        <ele>105</ele>
        <time>2014-11-20T14:31:56Z</time>
      </trkpt>
      <trkpt lat="47.16012" lon="-0.90866">
        <ele>105</ele>
        <time>2014-11-20T14:31:58Z</time>
      </trkpt>
      <trkpt lat="47.16015" lon="-0.90869">
        <ele>105</ele>
        <time>2014-11-20T14:32:01Z</time>
      </trkpt>
      <trkpt lat="47.16016" lon="-0.90871">
        <ele>105</ele>
        <time>2014-11-20T14:32:03Z</time>
      </trkpt>
      <trkpt lat="47.16018" lon="-0.90872">
        <ele>105</ele>
        <time>2014-11-20T14:32:05Z</time>
      </trkpt>
      <trkpt lat="47.16019" lon="-0.90873">
        <ele>105</ele>
        <time>2014-11-20T14:32:07Z</time>
      </trkpt>
      <trkpt lat="47.16019" lon="-0.90876">
        <ele>105</ele>
        <time>2014-11-20T14:32:09Z</time>
      </trkpt>
      <trkpt lat="47.16019" lon="-0.90877">
        <ele>105</ele>
        <time>2014-11-20T14:32:12Z</time>
      </trkpt>
      <trkpt lat="47.16018" lon="-0.90878">
        <ele>105</ele>
        <time>2014-11-20T14:32:22Z</time>
      </trkpt>
      <trkpt lat="47.16016" lon="-0.9088">
        <ele>105</ele>
        <time>2014-11-20T14:32:24Z</time>
      </trkpt>
      <trkpt lat="47.16013" lon="-0.90885">
        <ele>105</ele>
        <time>2014-11-20T14:32:27Z</time>
      </trkpt>
      <trkpt lat="47.16012" lon="-0.90887">
        <ele>105</ele>
        <time>2014-11-20T14:32:29Z</time>
      </trkpt>
      <trkpt lat="47.1601" lon="-0.90889">
        <ele>105</ele>
        <time>2014-11-20T14:32:31Z</time>
      </trkpt>
      <trkpt lat="47.16008" lon="-0.90892">
        <ele>105</ele>
        <time>2014-11-20T14:32:33Z</time>
      </trkpt>
      <trkpt lat="47.16007" lon="-0.90894">
        <ele>105</ele>
        <time>2014-11-20T14:32:35Z</time>
      </trkpt>
      <trkpt lat="47.16006" lon="-0.90898">
        <ele>105</ele>
        <time>2014-11-20T14:32:37Z</time>
      </trkpt>
      <trkpt lat="47.16004" lon="-0.90901">
        <ele>105</ele>
        <time>2014-11-20T14:32:39Z</time>
      </trkpt>
      <trkpt lat="47.16002" lon="-0.90905">
        <ele>105</ele>
        <time>2014-11-20T14:32:42Z</time>
      </trkpt>
      <trkpt lat="47.16001" lon="-0.90907">
        <ele>105</ele>
        <time>2014-11-20T14:32:44Z</time>
      </trkpt>
      <trkpt lat="47.15998" lon="-0.90911">
        <ele>105</ele>
        <time>2014-11-20T14:32:46Z</time>
      </trkpt>
      <trkpt lat="47.15997" lon="-0.90915">
        <ele>105</ele>
        <time>2014-11-20T14:32:48Z</time>
      </trkpt>
      <trkpt lat="47.15996" lon="-0.90917">
        <ele>105</ele>
        <time>2014-11-20T14:32:50Z</time>
      </trkpt>
      <trkpt lat="47.15995" lon="-0.9092">
        <ele>105</ele>
        <time>2014-11-20T14:32:52Z</time>
      </trkpt>
      <trkpt lat="47.15993" lon="-0.90924">
        <ele>105</ele>
        <time>2014-11-20T14:32:54Z</time>
      </trkpt>
      <trkpt lat="47.15992" lon="-0.90927">
        <ele>105</ele>
        <time>2014-11-20T14:32:56Z</time>
      </trkpt>
      <trkpt lat="47.1599" lon="-0.90931">
        <ele>105</ele>
        <time>2014-11-20T14:32:59Z</time>
      </trkpt>
      <trkpt lat="47.15989" lon="-0.90935">
        <ele>105</ele>
        <time>2014-11-20T14:33:01Z</time>
      </trkpt>
      <trkpt lat="47.15988" lon="-0.90939">
        <ele>105</ele>
        <time>2014-11-20T14:33:03Z</time>
      </trkpt>
      <trkpt lat="47.15986" lon="-0.90942">
        <ele>105</ele>
        <time>2014-11-20T14:33:05Z</time>
      </trkpt>
      <trkpt lat="47.15985" lon="-0.90946">
        <ele>105</ele>
        <time>2014-11-20T14:33:07Z</time>
      </trkpt>
      <trkpt lat="47.15984" lon="-0.90949">
        <ele>105</ele>
        <time>2014-11-20T14:33:09Z</time>
      </trkpt>
      <trkpt lat="47.15983" lon="-0.90952">
        <ele>105</ele>
        <time>2014-11-20T14:33:11Z</time>
      </trkpt>
      <trkpt lat="47.15982" lon="-0.90956">
        <ele>105</ele>
        <time>2014-11-20T14:33:13Z</time>
      </trkpt>
      <trkpt lat="47.15981" lon="-0.90959">
        <ele>105</ele>
        <time>2014-11-20T14:33:15Z</time>
      </trkpt>
      <trkpt lat="47.15979" lon="-0.90962">
        <ele>105</ele>
        <time>2014-11-20T14:33:17Z</time>
      </trkpt>
      <trkpt lat="47.15979" lon="-0.90966">
        <ele>105</ele>
        <time>2014-11-20T14:33:19Z</time>
      </trkpt>
      <trkpt lat="47.15978" lon="-0.90969">
        <ele>105</ele>
        <time>2014-11-20T14:33:21Z</time>
      </trkpt>
      <trkpt lat="47.15977" lon="-0.90973">
        <ele>105</ele>
        <time>2014-11-20T14:33:24Z</time>
      </trkpt>
      <trkpt lat="47.15976" lon="-0.90978">
        <ele>105</ele>
        <time>2014-11-20T14:33:27Z</time>
      </trkpt>
      <trkpt lat="47.15974" lon="-0.90982">
        <ele>105</ele>
        <time>2014-11-20T14:33:30Z</time>
      </trkpt>
      <trkpt lat="47.15974" lon="-0.90984">
        <ele>105</ele>
        <time>2014-11-20T14:33:32Z</time>
      </trkpt>
      <trkpt lat="47.15973" lon="-0.90986">
        <ele>105</ele>
        <time>2014-11-20T14:33:34Z</time>
      </trkpt>
      <trkpt lat="47.15973" lon="-0.90988">
        <ele>105</ele>
        <time>2014-11-20T14:33:36Z</time>
      </trkpt>
      <trkpt lat="47.15972" lon="-0.9099">
        <ele>105</ele>
        <time>2014-11-20T14:33:39Z</time>
      </trkpt>
      <trkpt lat="47.15972" lon="-0.90991">
        <ele>105</ele>
        <time>2014-11-20T14:33:41Z</time>
      </trkpt>
      <trkpt lat="47.1597" lon="-0.90993">
        <ele>105</ele>
        <time>2014-11-20T14:33:49Z</time>
      </trkpt>
      <trkpt lat="47.15969" lon="-0.90996">
        <ele>105</ele>
        <time>2014-11-20T14:33:51Z</time>
      </trkpt>
      <trkpt lat="47.15968" lon="-0.91">
        <ele>105</ele>
        <time>2014-11-20T14:33:54Z</time>
      </trkpt>
      <trkpt lat="47.15967" lon="-0.91004">
        <ele>105</ele>
        <time>2014-11-20T14:33:56Z</time>
      </trkpt>
      <trkpt lat="47.15967" lon="-0.91007">
        <ele>105</ele>
        <time>2014-11-20T14:33:58Z</time>
      </trkpt>
      <trkpt lat="47.15966" lon="-0.9101">
        <ele>105</ele>
        <time>2014-11-20T14:34:00Z</time>
      </trkpt>
      <trkpt lat="47.15966" lon="-0.91014">
        <ele>105</ele>
        <time>2014-11-20T14:34:03Z</time>
      </trkpt>
      <trkpt lat="47.15965" lon="-0.91017">
        <ele>105</ele>
        <time>2014-11-20T14:34:05Z</time>
      </trkpt>
      <trkpt lat="47.15964" lon="-0.9102">
        <ele>105</ele>
        <time>2014-11-20T14:34:07Z</time>
      </trkpt>
      <trkpt lat="47.15963" lon="-0.91023">
        <ele>105</ele>
        <time>2014-11-20T14:34:09Z</time>
      </trkpt>
      <trkpt lat="47.15962" lon="-0.91027">
        <ele>105</ele>
        <time>2014-11-20T14:34:12Z</time>
      </trkpt>
      <trkpt lat="47.15961" lon="-0.91029">
        <ele>105</ele>
        <time>2014-11-20T14:34:14Z</time>
      </trkpt>
      <trkpt lat="47.1596" lon="-0.91033">
        <ele>105</ele>
        <time>2014-11-20T14:34:17Z</time>
      </trkpt>
      <trkpt lat="47.1596" lon="-0.91035">
        <ele>105</ele>
        <time>2014-11-20T14:34:19Z</time>
      </trkpt>
      <trkpt lat="47.1596" lon="-0.91039">
        <ele>105</ele>
        <time>2014-11-20T14:34:21Z</time>
      </trkpt>
      <trkpt lat="47.15959" lon="-0.91042">
        <ele>105</ele>
        <time>2014-11-20T14:34:23Z</time>
      </trkpt>
      <trkpt lat="47.15958" lon="-0.91047">
        <ele>105</ele>
        <time>2014-11-20T14:34:26Z</time>
      </trkpt>
      <trkpt lat="47.15958" lon="-0.9105">
        <ele>105</ele>
        <time>2014-11-20T14:34:28Z</time>
      </trkpt>
      <trkpt lat="47.15957" lon="-0.91052">
        <ele>105</ele>
        <time>2014-11-20T14:34:30Z</time>
      </trkpt>
      <trkpt lat="47.15957" lon="-0.91055">
        <ele>105</ele>
        <time>2014-11-20T14:34:32Z</time>
      </trkpt>
      <trkpt lat="47.15957" lon="-0.91058">
        <ele>105</ele>
        <time>2014-11-20T14:34:34Z</time>
      </trkpt>
      <trkpt lat="47.15956" lon="-0.91061">
        <ele>105</ele>
        <time>2014-11-20T14:34:36Z</time>
      </trkpt>
      <trkpt lat="47.15955" lon="-0.91065">
        <ele>105</ele>
        <time>2014-11-20T14:34:38Z</time>
      </trkpt>
      <trkpt lat="47.15954" lon="-0.9107">
        <ele>105</ele>
        <time>2014-11-20T14:34:40Z</time>
      </trkpt>
      <trkpt lat="47.15952" lon="-0.91074">
        <ele>105</ele>
        <time>2014-11-20T14:34:42Z</time>
      </trkpt>
      <trkpt lat="47.15952" lon="-0.91077">
        <ele>105</ele>
        <time>2014-11-20T14:34:44Z</time>
      </trkpt>
      <trkpt lat="47.1595" lon="-0.91081">
        <ele>105</ele>
        <time>2014-11-20T14:34:46Z</time>
      </trkpt>
      <trkpt lat="47.15949" lon="-0.91086">
        <ele>105</ele>
        <time>2014-11-20T14:34:48Z</time>
      </trkpt>
      <trkpt lat="47.15948" lon="-0.91091">
        <ele>105</ele>
        <time>2014-11-20T14:34:50Z</time>
      </trkpt>
      <trkpt lat="47.15947" lon="-0.91096">
        <ele>105</ele>
        <time>2014-11-20T14:34:53Z</time>
      </trkpt>
      <trkpt lat="47.15947" lon="-0.91099">
        <ele>105</ele>
        <time>2014-11-20T14:34:55Z</time>
      </trkpt>
      <trkpt lat="47.15946" lon="-0.91102">
        <ele>105</ele>
        <time>2014-11-20T14:34:57Z</time>
      </trkpt>
      <trkpt lat="47.15945" lon="-0.91106">
        <ele>105</ele>
        <time>2014-11-20T14:34:59Z</time>
      </trkpt>
      <trkpt lat="47.15944" lon="-0.9111">
        <ele>105</ele>
        <time>2014-11-20T14:35:02Z</time>
      </trkpt>
      <trkpt lat="47.15943" lon="-0.91112">
        <ele>105</ele>
        <time>2014-11-20T14:35:04Z</time>
      </trkpt>
      <trkpt lat="47.15943" lon="-0.91115">
        <ele>105</ele>
        <time>2014-11-20T14:35:06Z</time>
      </trkpt>
      <trkpt lat="47.15944" lon="-0.91118">
        <ele>105</ele>
        <time>2014-11-20T14:35:08Z</time>
      </trkpt>
      <trkpt lat="47.15944" lon="-0.9112">
        <ele>105</ele>
        <time>2014-11-20T14:35:10Z</time>
      </trkpt>
      <trkpt lat="47.15943" lon="-0.91124">
        <ele>104</ele>
        <time>2014-11-20T14:35:12Z</time>
      </trkpt>
      <trkpt lat="47.15942" lon="-0.91127">
        <ele>103</ele>
        <time>2014-11-20T14:35:14Z</time>
      </trkpt>
      <trkpt lat="47.15942" lon="-0.9113">
        <ele>102</ele>
        <time>2014-11-20T14:35:16Z</time>
      </trkpt>
      <trkpt lat="47.15942" lon="-0.91133">
        <ele>102</ele>
        <time>2014-11-20T14:35:18Z</time>
      </trkpt>
      <trkpt lat="47.15939" lon="-0.91139">
        <ele>102</ele>
        <time>2014-11-20T14:35:20Z</time>
      </trkpt>
      <trkpt lat="47.15939" lon="-0.91143">
        <ele>102</ele>
        <time>2014-11-20T14:35:22Z</time>
      </trkpt>
      <trkpt lat="47.15938" lon="-0.91145">
        <ele>102</ele>
        <time>2014-11-20T14:35:24Z</time>
      </trkpt>
      <trkpt lat="47.15937" lon="-0.9115">
        <ele>102</ele>
        <time>2014-11-20T14:35:26Z</time>
      </trkpt>
      <trkpt lat="47.15936" lon="-0.91154">
        <ele>102</ele>
        <time>2014-11-20T14:35:28Z</time>
      </trkpt>
      <trkpt lat="47.15935" lon="-0.91158">
        <ele>102</ele>
        <time>2014-11-20T14:35:30Z</time>
      </trkpt>
      <trkpt lat="47.15935" lon="-0.91162">
        <ele>102</ele>
        <time>2014-11-20T14:35:32Z</time>
      </trkpt>
      <trkpt lat="47.15934" lon="-0.91166">
        <ele>102</ele>
        <time>2014-11-20T14:35:34Z</time>
      </trkpt>
      <trkpt lat="47.15934" lon="-0.9117">
        <ele>102</ele>
        <time>2014-11-20T14:35:36Z</time>
      </trkpt>
      <trkpt lat="47.15934" lon="-0.91173">
        <ele>102</ele>
        <time>2014-11-20T14:35:38Z</time>
      </trkpt>
      <trkpt lat="47.15934" lon="-0.91177">
        <ele>102</ele>
        <time>2014-11-20T14:35:40Z</time>
      </trkpt>
      <trkpt lat="47.15934" lon="-0.9119">
        <ele>102</ele>
        <time>2014-11-20T14:35:47Z</time>
      </trkpt>
      <trkpt lat="47.15932" lon="-0.91194">
        <ele>102</ele>
        <time>2014-11-20T14:35:49Z</time>
      </trkpt>
      <trkpt lat="47.15933" lon="-0.91198">
        <ele>102</ele>
        <time>2014-11-20T14:35:51Z</time>
      </trkpt>
      <trkpt lat="47.15934" lon="-0.91203">
        <ele>102</ele>
        <time>2014-11-20T14:35:54Z</time>
      </trkpt>
      <trkpt lat="47.15934" lon="-0.91206">
        <ele>102</ele>
        <time>2014-11-20T14:35:56Z</time>
      </trkpt>
      <trkpt lat="47.15935" lon="-0.9121">
        <ele>102</ele>
        <time>2014-11-20T14:35:58Z</time>
      </trkpt>
      <trkpt lat="47.15935" lon="-0.91214">
        <ele>102</ele>
        <time>2014-11-20T14:36:01Z</time>
      </trkpt>
      <trkpt lat="47.15935" lon="-0.91217">
        <ele>102</ele>
        <time>2014-11-20T14:36:03Z</time>
      </trkpt>
      <trkpt lat="47.15935" lon="-0.91222">
        <ele>102</ele>
        <time>2014-11-20T14:36:05Z</time>
      </trkpt>
      <trkpt lat="47.15934" lon="-0.91227">
        <ele>102</ele>
        <time>2014-11-20T14:36:08Z</time>
      </trkpt>
      <trkpt lat="47.15934" lon="-0.9123">
        <ele>102</ele>
        <time>2014-11-20T14:36:10Z</time>
      </trkpt>
      <trkpt lat="47.15933" lon="-0.91234">
        <ele>102</ele>
        <time>2014-11-20T14:36:12Z</time>
      </trkpt>
      <trkpt lat="47.15933" lon="-0.91237">
        <ele>102</ele>
        <time>2014-11-20T14:36:14Z</time>
      </trkpt>
      <trkpt lat="47.15931" lon="-0.9124">
        <ele>102</ele>
        <time>2014-11-20T14:36:16Z</time>
      </trkpt>
      <trkpt lat="47.15931" lon="-0.91244">
        <ele>102</ele>
        <time>2014-11-20T14:36:18Z</time>
      </trkpt>
      <trkpt lat="47.15932" lon="-0.91248">
        <ele>102</ele>
        <time>2014-11-20T14:36:20Z</time>
      </trkpt>
      <trkpt lat="47.15931" lon="-0.91253">
        <ele>102</ele>
        <time>2014-11-20T14:36:22Z</time>
      </trkpt>
      <trkpt lat="47.15931" lon="-0.91257">
        <ele>102</ele>
        <time>2014-11-20T14:36:24Z</time>
      </trkpt>
      <trkpt lat="47.15931" lon="-0.91261">
        <ele>102</ele>
        <time>2014-11-20T14:36:26Z</time>
      </trkpt>
      <trkpt lat="47.1593" lon="-0.91266">
        <ele>102</ele>
        <time>2014-11-20T14:36:28Z</time>
      </trkpt>
      <trkpt lat="47.15931" lon="-0.9127">
        <ele>102</ele>
        <time>2014-11-20T14:36:30Z</time>
      </trkpt>
      <trkpt lat="47.1593" lon="-0.91274">
        <ele>102</ele>
        <time>2014-11-20T14:36:32Z</time>
      </trkpt>
      <trkpt lat="47.15929" lon="-0.9128">
        <ele>102</ele>
        <time>2014-11-20T14:36:34Z</time>
      </trkpt>
      <trkpt lat="47.15927" lon="-0.91285">
        <ele>102</ele>
        <time>2014-11-20T14:36:36Z</time>
      </trkpt>
      <trkpt lat="47.15928" lon="-0.91288">
        <ele>102</ele>
        <time>2014-11-20T14:36:38Z</time>
      </trkpt>
      <trkpt lat="47.15928" lon="-0.91292">
        <ele>102</ele>
        <time>2014-11-20T14:36:40Z</time>
      </trkpt>
      <trkpt lat="47.15927" lon="-0.91295">
        <ele>102</ele>
        <time>2014-11-20T14:36:42Z</time>
      </trkpt>
      <trkpt lat="47.15928" lon="-0.91298">
        <ele>102</ele>
        <time>2014-11-20T14:36:44Z</time>
      </trkpt>
      <trkpt lat="47.15928" lon="-0.91302">
        <ele>102</ele>
        <time>2014-11-20T14:36:46Z</time>
      </trkpt>
      <trkpt lat="47.15928" lon="-0.91305">
        <ele>102</ele>
        <time>2014-11-20T14:36:48Z</time>
      </trkpt>
      <trkpt lat="47.15929" lon="-0.91309">
        <ele>101</ele>
        <time>2014-11-20T14:36:50Z</time>
      </trkpt>
      <trkpt lat="47.15929" lon="-0.91312">
        <ele>101</ele>
        <time>2014-11-20T14:36:52Z</time>
      </trkpt>
      <trkpt lat="47.15929" lon="-0.91315">
        <ele>100</ele>
        <time>2014-11-20T14:36:54Z</time>
      </trkpt>
      <trkpt lat="47.15929" lon="-0.91319">
        <ele>100</ele>
        <time>2014-11-20T14:36:56Z</time>
      </trkpt>
      <trkpt lat="47.15929" lon="-0.91323">
        <ele>100</ele>
        <time>2014-11-20T14:36:58Z</time>
      </trkpt>
      <trkpt lat="47.15929" lon="-0.91326">
        <ele>99</ele>
        <time>2014-11-20T14:37:00Z</time>
      </trkpt>
      <trkpt lat="47.15929" lon="-0.9133">
        <ele>99</ele>
        <time>2014-11-20T14:37:02Z</time>
      </trkpt>
      <trkpt lat="47.15929" lon="-0.91334">
        <ele>99</ele>
        <time>2014-11-20T14:37:04Z</time>
      </trkpt>
      <trkpt lat="47.15929" lon="-0.91337">
        <ele>99</ele>
        <time>2014-11-20T14:37:06Z</time>
      </trkpt>
      <trkpt lat="47.15927" lon="-0.91343">
        <ele>99</ele>
        <time>2014-11-20T14:37:08Z</time>
      </trkpt>
      <trkpt lat="47.15924" lon="-0.9135">
        <ele>99</ele>
        <time>2014-11-20T14:37:10Z</time>
      </trkpt>
      <trkpt lat="47.15924" lon="-0.91353">
        <ele>99</ele>
        <time>2014-11-20T14:37:12Z</time>
      </trkpt>
      <trkpt lat="47.15924" lon="-0.91357">
        <ele>99</ele>
        <time>2014-11-20T14:37:14Z</time>
      </trkpt>
      <trkpt lat="47.15923" lon="-0.91361">
        <ele>99</ele>
        <time>2014-11-20T14:37:16Z</time>
      </trkpt>
      <trkpt lat="47.15923" lon="-0.91366">
        <ele>99</ele>
        <time>2014-11-20T14:37:19Z</time>
      </trkpt>
      <trkpt lat="47.15922" lon="-0.9137">
        <ele>99</ele>
        <time>2014-11-20T14:37:21Z</time>
      </trkpt>
      <trkpt lat="47.15922" lon="-0.91374">
        <ele>99</ele>
        <time>2014-11-20T14:37:23Z</time>
      </trkpt>
      <trkpt lat="47.15921" lon="-0.91378">
        <ele>99</ele>
        <time>2014-11-20T14:37:25Z</time>
      </trkpt>
      <trkpt lat="47.15921" lon="-0.91382">
        <ele>99</ele>
        <time>2014-11-20T14:37:27Z</time>
      </trkpt>
      <trkpt lat="47.15921" lon="-0.91386">
        <ele>99</ele>
        <time>2014-11-20T14:37:29Z</time>
      </trkpt>
      <trkpt lat="47.1592" lon="-0.9139">
        <ele>99</ele>
        <time>2014-11-20T14:37:31Z</time>
      </trkpt>
      <trkpt lat="47.1592" lon="-0.91395">
        <ele>99</ele>
        <time>2014-11-20T14:37:33Z</time>
      </trkpt>
      <trkpt lat="47.15919" lon="-0.91399">
        <ele>100</ele>
        <time>2014-11-20T14:37:35Z</time>
      </trkpt>
      <trkpt lat="47.15919" lon="-0.91403">
        <ele>100</ele>
        <time>2014-11-20T14:37:38Z</time>
      </trkpt>
      <trkpt lat="47.15919" lon="-0.91406">
        <ele>100</ele>
        <time>2014-11-20T14:37:40Z</time>
      </trkpt>
      <trkpt lat="47.15919" lon="-0.91409">
        <ele>100</ele>
        <time>2014-11-20T14:37:42Z</time>
      </trkpt>
      <trkpt lat="47.15919" lon="-0.91412">
        <ele>100</ele>
        <time>2014-11-20T14:37:44Z</time>
      </trkpt>
      <trkpt lat="47.15919" lon="-0.91416">
        <ele>100</ele>
        <time>2014-11-20T14:37:46Z</time>
      </trkpt>
      <trkpt lat="47.15918" lon="-0.9142">
        <ele>100</ele>
        <time>2014-11-20T14:37:48Z</time>
      </trkpt>
      <trkpt lat="47.15918" lon="-0.91425">
        <ele>100</ele>
        <time>2014-11-20T14:37:51Z</time>
      </trkpt>
      <trkpt lat="47.15919" lon="-0.91428">
        <ele>100</ele>
        <time>2014-11-20T14:37:53Z</time>
      </trkpt>
      <trkpt lat="47.15918" lon="-0.91432">
        <ele>100</ele>
        <time>2014-11-20T14:37:55Z</time>
      </trkpt>
      <trkpt lat="47.15917" lon="-0.91437">
        <ele>100</ele>
        <time>2014-11-20T14:37:57Z</time>
      </trkpt>
      <trkpt lat="47.15917" lon="-0.91441">
        <ele>100</ele>
        <time>2014-11-20T14:37:59Z</time>
      </trkpt>
      <trkpt lat="47.15917" lon="-0.91444">
        <ele>100</ele>
        <time>2014-11-20T14:38:01Z</time>
      </trkpt>
      <trkpt lat="47.15918" lon="-0.91448">
        <ele>100</ele>
        <time>2014-11-20T14:38:03Z</time>
      </trkpt>
      <trkpt lat="47.15918" lon="-0.91451">
        <ele>100</ele>
        <time>2014-11-20T14:38:05Z</time>
      </trkpt>
      <trkpt lat="47.15918" lon="-0.91454">
        <ele>100</ele>
        <time>2014-11-20T14:38:07Z</time>
      </trkpt>
      <trkpt lat="47.15918" lon="-0.91459">
        <ele>100</ele>
        <time>2014-11-20T14:38:09Z</time>
      </trkpt>
      <trkpt lat="47.15919" lon="-0.91462">
        <ele>100</ele>
        <time>2014-11-20T14:38:11Z</time>
      </trkpt>
      <trkpt lat="47.15918" lon="-0.91466">
        <ele>100</ele>
        <time>2014-11-20T14:38:13Z</time>
      </trkpt>
      <trkpt lat="47.15916" lon="-0.91472">
        <ele>100</ele>
        <time>2014-11-20T14:38:15Z</time>
      </trkpt>
      <trkpt lat="47.15916" lon="-0.91477">
        <ele>100</ele>
        <time>2014-11-20T14:38:17Z</time>
      </trkpt>
      <trkpt lat="47.15918" lon="-0.91481">
        <ele>101</ele>
        <time>2014-11-20T14:38:20Z</time>
      </trkpt>
      <trkpt lat="47.15917" lon="-0.91485">
        <ele>101</ele>
        <time>2014-11-20T14:38:22Z</time>
      </trkpt>
      <trkpt lat="47.15917" lon="-0.91489">
        <ele>101</ele>
        <time>2014-11-20T14:38:24Z</time>
      </trkpt>
      <trkpt lat="47.15916" lon="-0.91494">
        <ele>101</ele>
        <time>2014-11-20T14:38:26Z</time>
      </trkpt>
      <trkpt lat="47.15916" lon="-0.91498">
        <ele>102</ele>
        <time>2014-11-20T14:38:28Z</time>
      </trkpt>
      <trkpt lat="47.15916" lon="-0.91502">
        <ele>103</ele>
        <time>2014-11-20T14:38:30Z</time>
      </trkpt>
      <trkpt lat="47.15915" lon="-0.91505">
        <ele>103</ele>
        <time>2014-11-20T14:38:32Z</time>
      </trkpt>
      <trkpt lat="47.15915" lon="-0.91509">
        <ele>103</ele>
        <time>2014-11-20T14:38:34Z</time>
      </trkpt>
      <trkpt lat="47.15915" lon="-0.91513">
        <ele>104</ele>
        <time>2014-11-20T14:38:36Z</time>
      </trkpt>
      <trkpt lat="47.15914" lon="-0.91516">
        <ele>104</ele>
        <time>2014-11-20T14:38:38Z</time>
      </trkpt>
      <trkpt lat="47.15914" lon="-0.91519">
        <ele>104</ele>
        <time>2014-11-20T14:38:40Z</time>
      </trkpt>
      <trkpt lat="47.15915" lon="-0.91522">
        <ele>104</ele>
        <time>2014-11-20T14:38:42Z</time>
      </trkpt>
      <trkpt lat="47.15915" lon="-0.91526">
        <ele>104</ele>
        <time>2014-11-20T14:38:44Z</time>
      </trkpt>
      <trkpt lat="47.15915" lon="-0.9153">
        <ele>104</ele>
        <time>2014-11-20T14:38:46Z</time>
      </trkpt>
      <trkpt lat="47.15915" lon="-0.91533">
        <ele>104</ele>
        <time>2014-11-20T14:38:48Z</time>
      </trkpt>
      <trkpt lat="47.15915" lon="-0.91536">
        <ele>104</ele>
        <time>2014-11-20T14:38:50Z</time>
      </trkpt>
      <trkpt lat="47.15915" lon="-0.9154">
        <ele>104</ele>
        <time>2014-11-20T14:38:52Z</time>
      </trkpt>
      <trkpt lat="47.15916" lon="-0.91543">
        <ele>104</ele>
        <time>2014-11-20T14:38:54Z</time>
      </trkpt>
      <trkpt lat="47.15916" lon="-0.91546">
        <ele>104</ele>
        <time>2014-11-20T14:38:56Z</time>
      </trkpt>
      <trkpt lat="47.15917" lon="-0.91549">
        <ele>104</ele>
        <time>2014-11-20T14:38:58Z</time>
      </trkpt>
      <trkpt lat="47.15916" lon="-0.91553">
        <ele>104</ele>
        <time>2014-11-20T14:39:00Z</time>
      </trkpt>
      <trkpt lat="47.15916" lon="-0.91559">
        <ele>104</ele>
        <time>2014-11-20T14:39:02Z</time>
      </trkpt>
      <trkpt lat="47.15917" lon="-0.91562">
        <ele>104</ele>
        <time>2014-11-20T14:39:04Z</time>
      </trkpt>
      <trkpt lat="47.15918" lon="-0.91567">
        <ele>104</ele>
        <time>2014-11-20T14:39:07Z</time>
      </trkpt>
      <trkpt lat="47.15919" lon="-0.9157">
        <ele>104</ele>
        <time>2014-11-20T14:39:09Z</time>
      </trkpt>
      <trkpt lat="47.15921" lon="-0.91573">
        <ele>103</ele>
        <time>2014-11-20T14:39:11Z</time>
      </trkpt>
      <trkpt lat="47.15922" lon="-0.91576">
        <ele>102</ele>
        <time>2014-11-20T14:39:13Z</time>
      </trkpt>
      <trkpt lat="47.15922" lon="-0.9158">
        <ele>101</ele>
        <time>2014-11-20T14:39:15Z</time>
      </trkpt>
      <trkpt lat="47.15921" lon="-0.91584">
        <ele>101</ele>
        <time>2014-11-20T14:39:17Z</time>
      </trkpt>
      <trkpt lat="47.15921" lon="-0.91588">
        <ele>101</ele>
        <time>2014-11-20T14:39:19Z</time>
      </trkpt>
      <trkpt lat="47.15921" lon="-0.91593">
        <ele>101</ele>
        <time>2014-11-20T14:39:21Z</time>
      </trkpt>
      <trkpt lat="47.15921" lon="-0.91596">
        <ele>101</ele>
        <time>2014-11-20T14:39:23Z</time>
      </trkpt>
      <trkpt lat="47.15921" lon="-0.916">
        <ele>101</ele>
        <time>2014-11-20T14:39:25Z</time>
      </trkpt>
      <trkpt lat="47.15921" lon="-0.91604">
        <ele>101</ele>
        <time>2014-11-20T14:39:27Z</time>
      </trkpt>
      <trkpt lat="47.15922" lon="-0.91607">
        <ele>101</ele>
        <time>2014-11-20T14:39:29Z</time>
      </trkpt>
      <trkpt lat="47.15923" lon="-0.91611">
        <ele>101</ele>
        <time>2014-11-20T14:39:31Z</time>
      </trkpt>
      <trkpt lat="47.15924" lon="-0.91614">
        <ele>101</ele>
        <time>2014-11-20T14:39:33Z</time>
      </trkpt>
      <trkpt lat="47.15924" lon="-0.91618">
        <ele>101</ele>
        <time>2014-11-20T14:39:35Z</time>
      </trkpt>
      <trkpt lat="47.15924" lon="-0.91621">
        <ele>101</ele>
        <time>2014-11-20T14:39:37Z</time>
      </trkpt>
      <trkpt lat="47.15924" lon="-0.91625">
        <ele>101</ele>
        <time>2014-11-20T14:39:39Z</time>
      </trkpt>
      <trkpt lat="47.15924" lon="-0.91629">
        <ele>101</ele>
        <time>2014-11-20T14:39:41Z</time>
      </trkpt>
      <trkpt lat="47.15925" lon="-0.91633">
        <ele>101</ele>
        <time>2014-11-20T14:39:43Z</time>
      </trkpt>
      <trkpt lat="47.15926" lon="-0.91636">
        <ele>101</ele>
        <time>2014-11-20T14:39:45Z</time>
      </trkpt>
      <trkpt lat="47.15926" lon="-0.9164">
        <ele>101</ele>
        <time>2014-11-20T14:39:47Z</time>
      </trkpt>
      <trkpt lat="47.15927" lon="-0.91643">
        <ele>101</ele>
        <time>2014-11-20T14:39:49Z</time>
      </trkpt>
      <trkpt lat="47.15925" lon="-0.91647">
        <ele>101</ele>
        <time>2014-11-20T14:39:51Z</time>
      </trkpt>
      <trkpt lat="47.15924" lon="-0.9165">
        <ele>101</ele>
        <time>2014-11-20T14:39:53Z</time>
      </trkpt>
      <trkpt lat="47.15923" lon="-0.91652">
        <ele>101</ele>
        <time>2014-11-20T14:39:55Z</time>
      </trkpt>
      <trkpt lat="47.15922" lon="-0.91653">
        <ele>101</ele>
        <time>2014-11-20T14:39:57Z</time>
      </trkpt>
      <trkpt lat="47.1592" lon="-0.91653">
        <ele>101</ele>
        <time>2014-11-20T14:39:59Z</time>
      </trkpt>
      <trkpt lat="47.15919" lon="-0.91654">
        <ele>101</ele>
        <time>2014-11-20T14:40:02Z</time>
      </trkpt>
      <trkpt lat="47.15918" lon="-0.91655">
        <ele>101</ele>
        <time>2014-11-20T14:40:04Z</time>
      </trkpt>
      <trkpt lat="47.15917" lon="-0.91655">
        <ele>101</ele>
        <time>2014-11-20T14:40:15Z</time>
      </trkpt>
      <trkpt lat="47.15915" lon="-0.91663">
        <ele>101</ele>
        <time>2014-11-20T14:40:20Z</time>
      </trkpt>
      <trkpt lat="47.15915" lon="-0.91667">
        <ele>101</ele>
        <time>2014-11-20T14:40:22Z</time>
      </trkpt>
      <trkpt lat="47.15916" lon="-0.91669">
        <ele>101</ele>
        <time>2014-11-20T14:40:24Z</time>
      </trkpt>
      <trkpt lat="47.15918" lon="-0.91673">
        <ele>101</ele>
        <time>2014-11-20T14:40:27Z</time>
      </trkpt>
      <trkpt lat="47.15919" lon="-0.91675">
        <ele>101</ele>
        <time>2014-11-20T14:40:29Z</time>
      </trkpt>
      <trkpt lat="47.15918" lon="-0.91677">
        <ele>101</ele>
        <time>2014-11-20T14:40:31Z</time>
      </trkpt>
      <trkpt lat="47.15918" lon="-0.91681">
        <ele>101</ele>
        <time>2014-11-20T14:40:33Z</time>
      </trkpt>
      <trkpt lat="47.15918" lon="-0.91685">
        <ele>101</ele>
        <time>2014-11-20T14:40:35Z</time>
      </trkpt>
      <trkpt lat="47.15918" lon="-0.91688">
        <ele>101</ele>
        <time>2014-11-20T14:40:37Z</time>
      </trkpt>
      <trkpt lat="47.15919" lon="-0.91693">
        <ele>101</ele>
        <time>2014-11-20T14:40:40Z</time>
      </trkpt>
      <trkpt lat="47.1592" lon="-0.91696">
        <ele>101</ele>
        <time>2014-11-20T14:40:42Z</time>
      </trkpt>
      <trkpt lat="47.15921" lon="-0.91701">
        <ele>101</ele>
        <time>2014-11-20T14:40:44Z</time>
      </trkpt>
      <trkpt lat="47.15921" lon="-0.91704">
        <ele>101</ele>
        <time>2014-11-20T14:40:46Z</time>
      </trkpt>
      <trkpt lat="47.15922" lon="-0.91708">
        <ele>101</ele>
        <time>2014-11-20T14:40:48Z</time>
      </trkpt>
      <trkpt lat="47.15923" lon="-0.91712">
        <ele>101</ele>
        <time>2014-11-20T14:40:50Z</time>
      </trkpt>
      <trkpt lat="47.15923" lon="-0.91715">
        <ele>101</ele>
        <time>2014-11-20T14:40:52Z</time>
      </trkpt>
      <trkpt lat="47.15924" lon="-0.9172">
        <ele>101</ele>
        <time>2014-11-20T14:40:55Z</time>
      </trkpt>
      <trkpt lat="47.15925" lon="-0.91722">
        <ele>101</ele>
        <time>2014-11-20T14:40:57Z</time>
      </trkpt>
      <trkpt lat="47.15925" lon="-0.91727">
        <ele>101</ele>
        <time>2014-11-20T14:40:59Z</time>
      </trkpt>
      <trkpt lat="47.15927" lon="-0.9173">
        <ele>101</ele>
        <time>2014-11-20T14:41:02Z</time>
      </trkpt>
      <trkpt lat="47.15927" lon="-0.91733">
        <ele>101</ele>
        <time>2014-11-20T14:41:04Z</time>
      </trkpt>
      <trkpt lat="47.15928" lon="-0.91736">
        <ele>101</ele>
        <time>2014-11-20T14:41:06Z</time>
      </trkpt>
      <trkpt lat="47.15929" lon="-0.91739">
        <ele>101</ele>
        <time>2014-11-20T14:41:08Z</time>
      </trkpt>
      <trkpt lat="47.1593" lon="-0.91742">
        <ele>101</ele>
        <time>2014-11-20T14:41:10Z</time>
      </trkpt>
      <trkpt lat="47.15931" lon="-0.91744">
        <ele>101</ele>
        <time>2014-11-20T14:41:12Z</time>
      </trkpt>
      <trkpt lat="47.15932" lon="-0.91747">
        <ele>101</ele>
        <time>2014-11-20T14:41:14Z</time>
      </trkpt>
      <trkpt lat="47.15934" lon="-0.91751">
        <ele>101</ele>
        <time>2014-11-20T14:41:17Z</time>
      </trkpt>
      <trkpt lat="47.15936" lon="-0.91755">
        <ele>101</ele>
        <time>2014-11-20T14:41:19Z</time>
      </trkpt>
      <trkpt lat="47.15937" lon="-0.91758">
        <ele>101</ele>
        <time>2014-11-20T14:41:23Z</time>
      </trkpt>
      <trkpt lat="47.15935" lon="-0.91759">
        <ele>101</ele>
        <time>2014-11-20T14:41:26Z</time>
      </trkpt>
      <trkpt lat="47.15936" lon="-0.9176">
        <ele>101</ele>
        <time>2014-11-20T14:41:29Z</time>
      </trkpt>
      <trkpt lat="47.15936" lon="-0.91763">
        <ele>101</ele>
        <time>2014-11-20T14:41:32Z</time>
      </trkpt>
      <trkpt lat="47.15937" lon="-0.91765">
        <ele>101</ele>
        <time>2014-11-20T14:41:34Z</time>
      </trkpt>
      <trkpt lat="47.15937" lon="-0.91768">
        <ele>101</ele>
        <time>2014-11-20T14:41:36Z</time>
      </trkpt>
      <trkpt lat="47.15938" lon="-0.91773">
        <ele>101</ele>
        <time>2014-11-20T14:41:38Z</time>
      </trkpt>
      <trkpt lat="47.15939" lon="-0.91777">
        <ele>101</ele>
        <time>2014-11-20T14:41:41Z</time>
      </trkpt>
      <trkpt lat="47.1594" lon="-0.9178">
        <ele>101</ele>
        <time>2014-11-20T14:41:43Z</time>
      </trkpt>
      <trkpt lat="47.15941" lon="-0.91783">
        <ele>101</ele>
        <time>2014-11-20T14:41:45Z</time>
      </trkpt>
      <trkpt lat="47.15941" lon="-0.91786">
        <ele>101</ele>
        <time>2014-11-20T14:41:47Z</time>
      </trkpt>
      <trkpt lat="47.15942" lon="-0.91789">
        <ele>101</ele>
        <time>2014-11-20T14:41:49Z</time>
      </trkpt>
      <trkpt lat="47.15943" lon="-0.91793">
        <ele>101</ele>
        <time>2014-11-20T14:41:51Z</time>
      </trkpt>
      <trkpt lat="47.15944" lon="-0.91796">
        <ele>101</ele>
        <time>2014-11-20T14:41:53Z</time>
      </trkpt>
      <trkpt lat="47.15945" lon="-0.918">
        <ele>101</ele>
        <time>2014-11-20T14:41:56Z</time>
      </trkpt>
      <trkpt lat="47.15946" lon="-0.91802">
        <ele>101</ele>
        <time>2014-11-20T14:41:59Z</time>
      </trkpt>
      <trkpt lat="47.15947" lon="-0.91806">
        <ele>101</ele>
        <time>2014-11-20T14:42:01Z</time>
      </trkpt>
      <trkpt lat="47.15948" lon="-0.9181">
        <ele>101</ele>
        <time>2014-11-20T14:42:03Z</time>
      </trkpt>
      <trkpt lat="47.15948" lon="-0.91814">
        <ele>101</ele>
        <time>2014-11-20T14:42:05Z</time>
      </trkpt>
      <trkpt lat="47.15949" lon="-0.91817">
        <ele>101</ele>
        <time>2014-11-20T14:42:07Z</time>
      </trkpt>
      <trkpt lat="47.1595" lon="-0.9182">
        <ele>101</ele>
        <time>2014-11-20T14:42:09Z</time>
      </trkpt>
      <trkpt lat="47.1595" lon="-0.91824">
        <ele>101</ele>
        <time>2014-11-20T14:42:11Z</time>
      </trkpt>
      <trkpt lat="47.15951" lon="-0.91827">
        <ele>101</ele>
        <time>2014-11-20T14:42:13Z</time>
      </trkpt>
      <trkpt lat="47.15952" lon="-0.91831">
        <ele>101</ele>
        <time>2014-11-20T14:42:15Z</time>
      </trkpt>
      <trkpt lat="47.15953" lon="-0.91835">
        <ele>101</ele>
        <time>2014-11-20T14:42:17Z</time>
      </trkpt>
      <trkpt lat="47.15953" lon="-0.91839">
        <ele>101</ele>
        <time>2014-11-20T14:42:19Z</time>
      </trkpt>
      <trkpt lat="47.15955" lon="-0.91842">
        <ele>101</ele>
        <time>2014-11-20T14:42:21Z</time>
      </trkpt>
      <trkpt lat="47.15956" lon="-0.91845">
        <ele>101</ele>
        <time>2014-11-20T14:42:23Z</time>
      </trkpt>
      <trkpt lat="47.15959" lon="-0.91848">
        <ele>101</ele>
        <time>2014-11-20T14:42:26Z</time>
      </trkpt>
      <trkpt lat="47.1596" lon="-0.91852">
        <ele>101</ele>
        <time>2014-11-20T14:42:28Z</time>
      </trkpt>
      <trkpt lat="47.15961" lon="-0.91855">
        <ele>101</ele>
        <time>2014-11-20T14:42:30Z</time>
      </trkpt>
      <trkpt lat="47.15961" lon="-0.91858">
        <ele>101</ele>
        <time>2014-11-20T14:42:32Z</time>
      </trkpt>
      <trkpt lat="47.15963" lon="-0.91861">
        <ele>101</ele>
        <time>2014-11-20T14:42:34Z</time>
      </trkpt>
      <trkpt lat="47.15964" lon="-0.91865">
        <ele>101</ele>
        <time>2014-11-20T14:42:36Z</time>
      </trkpt>
      <trkpt lat="47.15965" lon="-0.9187">
        <ele>100</ele>
        <time>2014-11-20T14:42:38Z</time>
      </trkpt>
      <trkpt lat="47.15966" lon="-0.91873">
        <ele>100</ele>
        <time>2014-11-20T14:42:40Z</time>
      </trkpt>
      <trkpt lat="47.15968" lon="-0.91878">
        <ele>100</ele>
        <time>2014-11-20T14:42:42Z</time>
      </trkpt>
      <trkpt lat="47.15969" lon="-0.91882">
        <ele>100</ele>
        <time>2014-11-20T14:42:44Z</time>
      </trkpt>
      <trkpt lat="47.15969" lon="-0.91886">
        <ele>100</ele>
        <time>2014-11-20T14:42:46Z</time>
      </trkpt>
      <trkpt lat="47.15972" lon="-0.91888">
        <ele>100</ele>
        <time>2014-11-20T14:42:48Z</time>
      </trkpt>
      <trkpt lat="47.15973" lon="-0.91891">
        <ele>100</ele>
        <time>2014-11-20T14:42:50Z</time>
      </trkpt>
      <trkpt lat="47.15974" lon="-0.91896">
        <ele>100</ele>
        <time>2014-11-20T14:42:52Z</time>
      </trkpt>
      <trkpt lat="47.15976" lon="-0.91898">
        <ele>100</ele>
        <time>2014-11-20T14:42:54Z</time>
      </trkpt>
      <trkpt lat="47.15976" lon="-0.91902">
        <ele>100</ele>
        <time>2014-11-20T14:42:56Z</time>
      </trkpt>
      <trkpt lat="47.15978" lon="-0.91905">
        <ele>100</ele>
        <time>2014-11-20T14:42:58Z</time>
      </trkpt>
      <trkpt lat="47.15979" lon="-0.91908">
        <ele>100</ele>
        <time>2014-11-20T14:43:00Z</time>
      </trkpt>
      <trkpt lat="47.1598" lon="-0.91912">
        <ele>100</ele>
        <time>2014-11-20T14:43:02Z</time>
      </trkpt>
      <trkpt lat="47.15981" lon="-0.91916">
        <ele>100</ele>
        <time>2014-11-20T14:43:04Z</time>
      </trkpt>
      <trkpt lat="47.15983" lon="-0.91919">
        <ele>100</ele>
        <time>2014-11-20T14:43:06Z</time>
      </trkpt>
      <trkpt lat="47.15985" lon="-0.91923">
        <ele>100</ele>
        <time>2014-11-20T14:43:09Z</time>
      </trkpt>
      <trkpt lat="47.15987" lon="-0.91926">
        <ele>100</ele>
        <time>2014-11-20T14:43:11Z</time>
      </trkpt>
      <trkpt lat="47.15989" lon="-0.91929">
        <ele>100</ele>
        <time>2014-11-20T14:43:13Z</time>
      </trkpt>
      <trkpt lat="47.1599" lon="-0.91931">
        <ele>100</ele>
        <time>2014-11-20T14:43:15Z</time>
      </trkpt>
      <trkpt lat="47.1599" lon="-0.91933">
        <ele>100</ele>
        <time>2014-11-20T14:43:18Z</time>
      </trkpt>
      <trkpt lat="47.15991" lon="-0.91936">
        <ele>100</ele>
        <time>2014-11-20T14:43:20Z</time>
      </trkpt>
      <trkpt lat="47.15992" lon="-0.91938">
        <ele>100</ele>
        <time>2014-11-20T14:43:22Z</time>
      </trkpt>
      <trkpt lat="47.15992" lon="-0.9194">
        <ele>100</ele>
        <time>2014-11-20T14:43:24Z</time>
      </trkpt>
      <trkpt lat="47.15994" lon="-0.91943">
        <ele>100</ele>
        <time>2014-11-20T14:43:26Z</time>
      </trkpt>
      <trkpt lat="47.15996" lon="-0.91947">
        <ele>100</ele>
        <time>2014-11-20T14:43:29Z</time>
      </trkpt>
      <trkpt lat="47.15997" lon="-0.91951">
        <ele>100</ele>
        <time>2014-11-20T14:43:31Z</time>
      </trkpt>
      <trkpt lat="47.15998" lon="-0.91954">
        <ele>100</ele>
        <time>2014-11-20T14:43:33Z</time>
      </trkpt>
      <trkpt lat="47.16" lon="-0.91955">
        <ele>100</ele>
        <time>2014-11-20T14:43:35Z</time>
      </trkpt>
      <trkpt lat="47.16002" lon="-0.91957">
        <ele>100</ele>
        <time>2014-11-20T14:43:37Z</time>
      </trkpt>
      <trkpt lat="47.16004" lon="-0.91959">
        <ele>100</ele>
        <time>2014-11-20T14:43:39Z</time>
      </trkpt>
      <trkpt lat="47.16005" lon="-0.91962">
        <ele>99</ele>
        <time>2014-11-20T14:43:41Z</time>
      </trkpt>
      <trkpt lat="47.16005" lon="-0.91966">
        <ele>99</ele>
        <time>2014-11-20T14:43:43Z</time>
      </trkpt>
      <trkpt lat="47.16005" lon="-0.9197">
        <ele>99</ele>
        <time>2014-11-20T14:43:46Z</time>
      </trkpt>
      <trkpt lat="47.16006" lon="-0.91971">
        <ele>99</ele>
        <time>2014-11-20T14:43:51Z</time>
      </trkpt>
      <trkpt lat="47.16007" lon="-0.91973">
        <ele>99</ele>
        <time>2014-11-20T14:43:54Z</time>
      </trkpt>
      <trkpt lat="47.16007" lon="-0.91975">
        <ele>99</ele>
        <time>2014-11-20T14:43:57Z</time>
      </trkpt>
      <trkpt lat="47.16008" lon="-0.91977">
        <ele>100</ele>
        <time>2014-11-20T14:44:00Z</time>
      </trkpt>
      <trkpt lat="47.16008" lon="-0.91979">
        <ele>101</ele>
        <time>2014-11-20T14:44:03Z</time>
      </trkpt>
      <trkpt lat="47.16007" lon="-0.91979">
        <ele>103</ele>
        <time>2014-11-20T14:44:11Z</time>
      </trkpt>
      <trkpt lat="47.16008" lon="-0.91982">
        <ele>107</ele>
        <time>2014-11-20T14:44:14Z</time>
      </trkpt>
      <trkpt lat="47.16009" lon="-0.91985">
        <ele>107</ele>
        <time>2014-11-20T14:44:16Z</time>
      </trkpt>
      <trkpt lat="47.1601" lon="-0.91987">
        <ele>107</ele>
        <time>2014-11-20T14:44:18Z</time>
      </trkpt>
      <trkpt lat="47.16011" lon="-0.91989">
        <ele>107</ele>
        <time>2014-11-20T14:44:20Z</time>
      </trkpt>
      <trkpt lat="47.16012" lon="-0.91991">
        <ele>107</ele>
        <time>2014-11-20T14:44:22Z</time>
      </trkpt>
      <trkpt lat="47.16014" lon="-0.91995">
        <ele>107</ele>
        <time>2014-11-20T14:44:25Z</time>
      </trkpt>
      <trkpt lat="47.16015" lon="-0.91997">
        <ele>107</ele>
        <time>2014-11-20T14:44:27Z</time>
      </trkpt>
      <trkpt lat="47.16016" lon="-0.91999">
        <ele>107</ele>
        <time>2014-11-20T14:44:29Z</time>
      </trkpt>
      <trkpt lat="47.16018" lon="-0.92002">
        <ele>107</ele>
        <time>2014-11-20T14:44:31Z</time>
      </trkpt>
      <trkpt lat="47.1602" lon="-0.92006">
        <ele>107</ele>
        <time>2014-11-20T14:44:33Z</time>
      </trkpt>
      <trkpt lat="47.16022" lon="-0.92009">
        <ele>107</ele>
        <time>2014-11-20T14:44:35Z</time>
      </trkpt>
      <trkpt lat="47.16024" lon="-0.92012">
        <ele>107</ele>
        <time>2014-11-20T14:44:37Z</time>
      </trkpt>
      <trkpt lat="47.16027" lon="-0.92015">
        <ele>107</ele>
        <time>2014-11-20T14:44:39Z</time>
      </trkpt>
      <trkpt lat="47.16028" lon="-0.92018">
        <ele>107</ele>
        <time>2014-11-20T14:44:41Z</time>
      </trkpt>
      <trkpt lat="47.1603" lon="-0.92023">
        <ele>107</ele>
        <time>2014-11-20T14:44:44Z</time>
      </trkpt>
      <trkpt lat="47.16031" lon="-0.92026">
        <ele>106</ele>
        <time>2014-11-20T14:44:46Z</time>
      </trkpt>
      <trkpt lat="47.16031" lon="-0.92029">
        <ele>106</ele>
        <time>2014-11-20T14:44:48Z</time>
      </trkpt>
      <trkpt lat="47.16031" lon="-0.92033">
        <ele>105</ele>
        <time>2014-11-20T14:44:50Z</time>
      </trkpt>
      <trkpt lat="47.16032" lon="-0.92036">
        <ele>105</ele>
        <time>2014-11-20T14:44:52Z</time>
      </trkpt>
      <trkpt lat="47.16035" lon="-0.92038">
        <ele>105</ele>
        <time>2014-11-20T14:44:54Z</time>
      </trkpt>
      <trkpt lat="47.16037" lon="-0.92041">
        <ele>105</ele>
        <time>2014-11-20T14:44:56Z</time>
      </trkpt>
      <trkpt lat="47.1604" lon="-0.92045">
        <ele>105</ele>
        <time>2014-11-20T14:44:59Z</time>
      </trkpt>
      <trkpt lat="47.16041" lon="-0.92048">
        <ele>105</ele>
        <time>2014-11-20T14:45:01Z</time>
      </trkpt>
      <trkpt lat="47.16043" lon="-0.92049">
        <ele>105</ele>
        <time>2014-11-20T14:45:03Z</time>
      </trkpt>
      <trkpt lat="47.16045" lon="-0.92053">
        <ele>105</ele>
        <time>2014-11-20T14:45:05Z</time>
      </trkpt>
      <trkpt lat="47.16047" lon="-0.92055">
        <ele>105</ele>
        <time>2014-11-20T14:45:07Z</time>
      </trkpt>
      <trkpt lat="47.16048" lon="-0.92059">
        <ele>105</ele>
        <time>2014-11-20T14:45:09Z</time>
      </trkpt>
      <trkpt lat="47.16049" lon="-0.92061">
        <ele>105</ele>
        <time>2014-11-20T14:45:11Z</time>
      </trkpt>
      <trkpt lat="47.1605" lon="-0.92065">
        <ele>105</ele>
        <time>2014-11-20T14:45:13Z</time>
      </trkpt>
      <trkpt lat="47.16052" lon="-0.92068">
        <ele>105</ele>
        <time>2014-11-20T14:45:15Z</time>
      </trkpt>
      <trkpt lat="47.16054" lon="-0.92073">
        <ele>105</ele>
        <time>2014-11-20T14:45:18Z</time>
      </trkpt>
      <trkpt lat="47.16057" lon="-0.92077">
        <ele>105</ele>
        <time>2014-11-20T14:45:21Z</time>
      </trkpt>
      <trkpt lat="47.16058" lon="-0.92081">
        <ele>105</ele>
        <time>2014-11-20T14:45:23Z</time>
      </trkpt>
      <trkpt lat="47.16061" lon="-0.92084">
        <ele>105</ele>
        <time>2014-11-20T14:45:25Z</time>
      </trkpt>
      <trkpt lat="47.16063" lon="-0.92087">
        <ele>105</ele>
        <time>2014-11-20T14:45:27Z</time>
      </trkpt>
      <trkpt lat="47.16064" lon="-0.9209">
        <ele>105</ele>
        <time>2014-11-20T14:45:29Z</time>
      </trkpt>
      <trkpt lat="47.16067" lon="-0.92093">
        <ele>105</ele>
        <time>2014-11-20T14:45:32Z</time>
      </trkpt>
      <trkpt lat="47.16069" lon="-0.92096">
        <ele>105</ele>
        <time>2014-11-20T14:45:34Z</time>
      </trkpt>
      <trkpt lat="47.16071" lon="-0.92099">
        <ele>105</ele>
        <time>2014-11-20T14:45:36Z</time>
      </trkpt>
      <trkpt lat="47.16072" lon="-0.92102">
        <ele>105</ele>
        <time>2014-11-20T14:45:38Z</time>
      </trkpt>
      <trkpt lat="47.16072" lon="-0.92105">
        <ele>105</ele>
        <time>2014-11-20T14:45:40Z</time>
      </trkpt>
      <trkpt lat="47.16073" lon="-0.92109">
        <ele>105</ele>
        <time>2014-11-20T14:45:42Z</time>
      </trkpt>
      <trkpt lat="47.16073" lon="-0.92113">
        <ele>105</ele>
        <time>2014-11-20T14:45:45Z</time>
      </trkpt>
      <trkpt lat="47.16073" lon="-0.92117">
        <ele>105</ele>
        <time>2014-11-20T14:45:47Z</time>
      </trkpt>
      <trkpt lat="47.16072" lon="-0.9212">
        <ele>105</ele>
        <time>2014-11-20T14:45:49Z</time>
      </trkpt>
      <trkpt lat="47.16071" lon="-0.92124">
        <ele>105</ele>
        <time>2014-11-20T14:45:51Z</time>
      </trkpt>
      <trkpt lat="47.1607" lon="-0.92127">
        <ele>105</ele>
        <time>2014-11-20T14:45:53Z</time>
      </trkpt>
      <trkpt lat="47.16069" lon="-0.9213">
        <ele>105</ele>
        <time>2014-11-20T14:45:55Z</time>
      </trkpt>
      <trkpt lat="47.16069" lon="-0.92134">
        <ele>105</ele>
        <time>2014-11-20T14:45:57Z</time>
      </trkpt>
      <trkpt lat="47.16069" lon="-0.92138">
        <ele>105</ele>
        <time>2014-11-20T14:45:59Z</time>
      </trkpt>
      <trkpt lat="47.16071" lon="-0.92141">
        <ele>105</ele>
        <time>2014-11-20T14:46:01Z</time>
      </trkpt>
      <trkpt lat="47.16074" lon="-0.92143">
        <ele>105</ele>
        <time>2014-11-20T14:46:03Z</time>
      </trkpt>
      <trkpt lat="47.16076" lon="-0.92146">
        <ele>105</ele>
        <time>2014-11-20T14:46:05Z</time>
      </trkpt>
      <trkpt lat="47.16077" lon="-0.92147">
        <ele>105</ele>
        <time>2014-11-20T14:46:07Z</time>
      </trkpt>
      <trkpt lat="47.16079" lon="-0.9215">
        <ele>105</ele>
        <time>2014-11-20T14:46:09Z</time>
      </trkpt>
      <trkpt lat="47.16081" lon="-0.92153">
        <ele>105</ele>
        <time>2014-11-20T14:46:11Z</time>
      </trkpt>
      <trkpt lat="47.16083" lon="-0.92156">
        <ele>105</ele>
        <time>2014-11-20T14:46:13Z</time>
      </trkpt>
      <trkpt lat="47.16085" lon="-0.9216">
        <ele>105</ele>
        <time>2014-11-20T14:46:16Z</time>
      </trkpt>
      <trkpt lat="47.16086" lon="-0.92162">
        <ele>105</ele>
        <time>2014-11-20T14:46:18Z</time>
      </trkpt>
      <trkpt lat="47.16087" lon="-0.92164">
        <ele>105</ele>
        <time>2014-11-20T14:46:20Z</time>
      </trkpt>
      <trkpt lat="47.16088" lon="-0.92167">
        <ele>105</ele>
        <time>2014-11-20T14:46:22Z</time>
      </trkpt>
      <trkpt lat="47.1609" lon="-0.92171">
        <ele>105</ele>
        <time>2014-11-20T14:46:24Z</time>
      </trkpt>
      <trkpt lat="47.16093" lon="-0.92173">
        <ele>105</ele>
        <time>2014-11-20T14:46:26Z</time>
      </trkpt>
      <trkpt lat="47.16095" lon="-0.92176">
        <ele>105</ele>
        <time>2014-11-20T14:46:28Z</time>
      </trkpt>
      <trkpt lat="47.16097" lon="-0.92179">
        <ele>105</ele>
        <time>2014-11-20T14:46:30Z</time>
      </trkpt>
      <trkpt lat="47.16099" lon="-0.92182">
        <ele>105</ele>
        <time>2014-11-20T14:46:32Z</time>
      </trkpt>
      <trkpt lat="47.16101" lon="-0.92185">
        <ele>105</ele>
        <time>2014-11-20T14:46:34Z</time>
      </trkpt>
      <trkpt lat="47.16103" lon="-0.92188">
        <ele>105</ele>
        <time>2014-11-20T14:46:36Z</time>
      </trkpt>
      <trkpt lat="47.16105" lon="-0.92192">
        <ele>105</ele>
        <time>2014-11-20T14:46:38Z</time>
      </trkpt>
      <trkpt lat="47.16106" lon="-0.92196">
        <ele>105</ele>
        <time>2014-11-20T14:46:40Z</time>
      </trkpt>
      <trkpt lat="47.16108" lon="-0.92199">
        <ele>105</ele>
        <time>2014-11-20T14:46:42Z</time>
      </trkpt>
      <trkpt lat="47.16109" lon="-0.92202">
        <ele>105</ele>
        <time>2014-11-20T14:46:44Z</time>
      </trkpt>
      <trkpt lat="47.16111" lon="-0.92205">
        <ele>105</ele>
        <time>2014-11-20T14:46:46Z</time>
      </trkpt>
      <trkpt lat="47.16113" lon="-0.92208">
        <ele>105</ele>
        <time>2014-11-20T14:46:48Z</time>
      </trkpt>
      <trkpt lat="47.16115" lon="-0.92212">
        <ele>105</ele>
        <time>2014-11-20T14:46:50Z</time>
      </trkpt>
      <trkpt lat="47.16117" lon="-0.92215">
        <ele>105</ele>
        <time>2014-11-20T14:46:52Z</time>
      </trkpt>
      <trkpt lat="47.16119" lon="-0.92218">
        <ele>105</ele>
        <time>2014-11-20T14:46:54Z</time>
      </trkpt>
      <trkpt lat="47.1612" lon="-0.92221">
        <ele>105</ele>
        <time>2014-11-20T14:46:56Z</time>
      </trkpt>
      <trkpt lat="47.16122" lon="-0.92225">
        <ele>106</ele>
        <time>2014-11-20T14:46:58Z</time>
      </trkpt>
      <trkpt lat="47.16124" lon="-0.92228">
        <ele>106</ele>
        <time>2014-11-20T14:47:00Z</time>
      </trkpt>
      <trkpt lat="47.16125" lon="-0.92231">
        <ele>106</ele>
        <time>2014-11-20T14:47:02Z</time>
      </trkpt>
      <trkpt lat="47.16128" lon="-0.92234">
        <ele>106</ele>
        <time>2014-11-20T14:47:04Z</time>
      </trkpt>
      <trkpt lat="47.1613" lon="-0.92237">
        <ele>106</ele>
        <time>2014-11-20T14:47:06Z</time>
      </trkpt>
      <trkpt lat="47.16132" lon="-0.9224">
        <ele>107</ele>
        <time>2014-11-20T14:47:08Z</time>
      </trkpt>
      <trkpt lat="47.16135" lon="-0.92245">
        <ele>107</ele>
        <time>2014-11-20T14:47:11Z</time>
      </trkpt>
      <trkpt lat="47.16137" lon="-0.92248">
        <ele>107</ele>
        <time>2014-11-20T14:47:13Z</time>
      </trkpt>
      <trkpt lat="47.16138" lon="-0.92251">
        <ele>107</ele>
        <time>2014-11-20T14:47:15Z</time>
      </trkpt>
      <trkpt lat="47.1614" lon="-0.92254">
        <ele>107</ele>
        <time>2014-11-20T14:47:17Z</time>
      </trkpt>
      <trkpt lat="47.16142" lon="-0.92257">
        <ele>107</ele>
        <time>2014-11-20T14:47:19Z</time>
      </trkpt>
      <trkpt lat="47.16143" lon="-0.9226">
        <ele>107</ele>
        <time>2014-11-20T14:47:21Z</time>
      </trkpt>
      <trkpt lat="47.16146" lon="-0.92264">
        <ele>107</ele>
        <time>2014-11-20T14:47:24Z</time>
      </trkpt>
      <trkpt lat="47.16148" lon="-0.92267">
        <ele>107</ele>
        <time>2014-11-20T14:47:26Z</time>
      </trkpt>
      <trkpt lat="47.16149" lon="-0.92269">
        <ele>107</ele>
        <time>2014-11-20T14:47:28Z</time>
      </trkpt>
      <trkpt lat="47.16151" lon="-0.92272">
        <ele>107</ele>
        <time>2014-11-20T14:47:30Z</time>
      </trkpt>
      <trkpt lat="47.16153" lon="-0.92275">
        <ele>107</ele>
        <time>2014-11-20T14:47:32Z</time>
      </trkpt>
      <trkpt lat="47.16155" lon="-0.92277">
        <ele>107</ele>
        <time>2014-11-20T14:47:34Z</time>
      </trkpt>
      <trkpt lat="47.16157" lon="-0.92279">
        <ele>107</ele>
        <time>2014-11-20T14:47:36Z</time>
      </trkpt>
      <trkpt lat="47.16159" lon="-0.92282">
        <ele>107</ele>
        <time>2014-11-20T14:47:38Z</time>
      </trkpt>
      <trkpt lat="47.1616" lon="-0.92284">
        <ele>107</ele>
        <time>2014-11-20T14:47:40Z</time>
      </trkpt>
      <trkpt lat="47.16163" lon="-0.92286">
        <ele>107</ele>
        <time>2014-11-20T14:47:42Z</time>
      </trkpt>
      <trkpt lat="47.16165" lon="-0.92288">
        <ele>107</ele>
        <time>2014-11-20T14:47:44Z</time>
      </trkpt>
      <trkpt lat="47.16167" lon="-0.9229">
        <ele>107</ele>
        <time>2014-11-20T14:47:46Z</time>
      </trkpt>
      <trkpt lat="47.16168" lon="-0.92292">
        <ele>107</ele>
        <time>2014-11-20T14:47:48Z</time>
      </trkpt>
      <trkpt lat="47.1617" lon="-0.92293">
        <ele>107</ele>
        <time>2014-11-20T14:47:50Z</time>
      </trkpt>
      <trkpt lat="47.16171" lon="-0.92293">
        <ele>107</ele>
        <time>2014-11-20T14:47:52Z</time>
      </trkpt>
      <trkpt lat="47.16174" lon="-0.92293">
        <ele>107</ele>
        <time>2014-11-20T14:47:54Z</time>
      </trkpt>
      <trkpt lat="47.16175" lon="-0.92294">
        <ele>107</ele>
        <time>2014-11-20T14:47:56Z</time>
      </trkpt>
      <trkpt lat="47.16177" lon="-0.92296">
        <ele>107</ele>
        <time>2014-11-20T14:47:58Z</time>
      </trkpt>
      <trkpt lat="47.16179" lon="-0.92298">
        <ele>107</ele>
        <time>2014-11-20T14:48:00Z</time>
      </trkpt>
      <trkpt lat="47.16181" lon="-0.92299">
        <ele>107</ele>
        <time>2014-11-20T14:48:02Z</time>
      </trkpt>
      <trkpt lat="47.16184" lon="-0.92303">
        <ele>107</ele>
        <time>2014-11-20T14:48:05Z</time>
      </trkpt>
      <trkpt lat="47.16185" lon="-0.92305">
        <ele>107</ele>
        <time>2014-11-20T14:48:07Z</time>
      </trkpt>
      <trkpt lat="47.16187" lon="-0.92308">
        <ele>107</ele>
        <time>2014-11-20T14:48:09Z</time>
      </trkpt>
      <trkpt lat="47.16189" lon="-0.92311">
        <ele>107</ele>
        <time>2014-11-20T14:48:11Z</time>
      </trkpt>
      <trkpt lat="47.16191" lon="-0.92314">
        <ele>107</ele>
        <time>2014-11-20T14:48:14Z</time>
      </trkpt>
      <trkpt lat="47.16193" lon="-0.92317">
        <ele>107</ele>
        <time>2014-11-20T14:48:16Z</time>
      </trkpt>
      <trkpt lat="47.16194" lon="-0.9232">
        <ele>107</ele>
        <time>2014-11-20T14:48:18Z</time>
      </trkpt>
      <trkpt lat="47.16196" lon="-0.92322">
        <ele>107</ele>
        <time>2014-11-20T14:48:20Z</time>
      </trkpt>
      <trkpt lat="47.16198" lon="-0.92325">
        <ele>107</ele>
        <time>2014-11-20T14:48:22Z</time>
      </trkpt>
      <trkpt lat="47.16199" lon="-0.92327">
        <ele>107</ele>
        <time>2014-11-20T14:48:24Z</time>
      </trkpt>
      <trkpt lat="47.16201" lon="-0.9233">
        <ele>107</ele>
        <time>2014-11-20T14:48:26Z</time>
      </trkpt>
      <trkpt lat="47.16202" lon="-0.92333">
        <ele>107</ele>
        <time>2014-11-20T14:48:28Z</time>
      </trkpt>
      <trkpt lat="47.16204" lon="-0.92335">
        <ele>107</ele>
        <time>2014-11-20T14:48:30Z</time>
      </trkpt>
      <trkpt lat="47.16205" lon="-0.92338">
        <ele>107</ele>
        <time>2014-11-20T14:48:32Z</time>
      </trkpt>
      <trkpt lat="47.16208" lon="-0.92342">
        <ele>107</ele>
        <time>2014-11-20T14:48:35Z</time>
      </trkpt>
      <trkpt lat="47.16209" lon="-0.92344">
        <ele>107</ele>
        <time>2014-11-20T14:48:37Z</time>
      </trkpt>
      <trkpt lat="47.16211" lon="-0.92347">
        <ele>107</ele>
        <time>2014-11-20T14:48:39Z</time>
      </trkpt>
      <trkpt lat="47.16212" lon="-0.92349">
        <ele>107</ele>
        <time>2014-11-20T14:48:41Z</time>
      </trkpt>
      <trkpt lat="47.16214" lon="-0.92352">
        <ele>107</ele>
        <time>2014-11-20T14:48:43Z</time>
      </trkpt>
      <trkpt lat="47.16216" lon="-0.92355">
        <ele>107</ele>
        <time>2014-11-20T14:48:45Z</time>
      </trkpt>
      <trkpt lat="47.16217" lon="-0.92358">
        <ele>107</ele>
        <time>2014-11-20T14:48:47Z</time>
      </trkpt>
      <trkpt lat="47.16219" lon="-0.92362">
        <ele>107</ele>
        <time>2014-11-20T14:48:50Z</time>
      </trkpt>
      <trkpt lat="47.16221" lon="-0.92364">
        <ele>107</ele>
        <time>2014-11-20T14:48:52Z</time>
      </trkpt>
      <trkpt lat="47.16223" lon="-0.92367">
        <ele>107</ele>
        <time>2014-11-20T14:48:54Z</time>
      </trkpt>
      <trkpt lat="47.16224" lon="-0.9237">
        <ele>107</ele>
        <time>2014-11-20T14:48:56Z</time>
      </trkpt>
      <trkpt lat="47.16225" lon="-0.92373">
        <ele>107</ele>
        <time>2014-11-20T14:48:58Z</time>
      </trkpt>
      <trkpt lat="47.16227" lon="-0.92376">
        <ele>107</ele>
        <time>2014-11-20T14:49:00Z</time>
      </trkpt>
      <trkpt lat="47.16228" lon="-0.92379">
        <ele>107</ele>
        <time>2014-11-20T14:49:02Z</time>
      </trkpt>
      <trkpt lat="47.1623" lon="-0.92381">
        <ele>107</ele>
        <time>2014-11-20T14:49:04Z</time>
      </trkpt>
      <trkpt lat="47.16232" lon="-0.92386">
        <ele>107</ele>
        <time>2014-11-20T14:49:07Z</time>
      </trkpt>
      <trkpt lat="47.16233" lon="-0.92388">
        <ele>107</ele>
        <time>2014-11-20T14:49:09Z</time>
      </trkpt>
      <trkpt lat="47.16235" lon="-0.92392">
        <ele>107</ele>
        <time>2014-11-20T14:49:11Z</time>
      </trkpt>
      <trkpt lat="47.16237" lon="-0.92395">
        <ele>107</ele>
        <time>2014-11-20T14:49:13Z</time>
      </trkpt>
      <trkpt lat="47.16238" lon="-0.92398">
        <ele>107</ele>
        <time>2014-11-20T14:49:15Z</time>
      </trkpt>
      <trkpt lat="47.1624" lon="-0.92401">
        <ele>107</ele>
        <time>2014-11-20T14:49:17Z</time>
      </trkpt>
      <trkpt lat="47.16242" lon="-0.92405">
        <ele>107</ele>
        <time>2014-11-20T14:49:19Z</time>
      </trkpt>
      <trkpt lat="47.16244" lon="-0.92409">
        <ele>107</ele>
        <time>2014-11-20T14:49:22Z</time>
      </trkpt>
      <trkpt lat="47.16246" lon="-0.92412">
        <ele>107</ele>
        <time>2014-11-20T14:49:24Z</time>
      </trkpt>
      <trkpt lat="47.16248" lon="-0.92415">
        <ele>107</ele>
        <time>2014-11-20T14:49:26Z</time>
      </trkpt>
      <trkpt lat="47.16249" lon="-0.92418">
        <ele>107</ele>
        <time>2014-11-20T14:49:28Z</time>
      </trkpt>
      <trkpt lat="47.16251" lon="-0.9242">
        <ele>107</ele>
        <time>2014-11-20T14:49:30Z</time>
      </trkpt>
      <trkpt lat="47.16252" lon="-0.92423">
        <ele>107</ele>
        <time>2014-11-20T14:49:32Z</time>
      </trkpt>
      <trkpt lat="47.16254" lon="-0.92426">
        <ele>107</ele>
        <time>2014-11-20T14:49:34Z</time>
      </trkpt>
      <trkpt lat="47.16255" lon="-0.92429">
        <ele>107</ele>
        <time>2014-11-20T14:49:36Z</time>
      </trkpt>
      <trkpt lat="47.16257" lon="-0.92432">
        <ele>107</ele>
        <time>2014-11-20T14:49:38Z</time>
      </trkpt>
      <trkpt lat="47.16259" lon="-0.92435">
        <ele>107</ele>
        <time>2014-11-20T14:49:40Z</time>
      </trkpt>
      <trkpt lat="47.1626" lon="-0.92439">
        <ele>107</ele>
        <time>2014-11-20T14:49:42Z</time>
      </trkpt>
      <trkpt lat="47.16262" lon="-0.92442">
        <ele>107</ele>
        <time>2014-11-20T14:49:44Z</time>
      </trkpt>
      <trkpt lat="47.16265" lon="-0.92446">
        <ele>107</ele>
        <time>2014-11-20T14:49:47Z</time>
      </trkpt>
      <trkpt lat="47.16266" lon="-0.92449">
        <ele>107</ele>
        <time>2014-11-20T14:49:49Z</time>
      </trkpt>
      <trkpt lat="47.16268" lon="-0.92451">
        <ele>107</ele>
        <time>2014-11-20T14:49:51Z</time>
      </trkpt>
      <trkpt lat="47.16269" lon="-0.92454">
        <ele>107</ele>
        <time>2014-11-20T14:49:53Z</time>
      </trkpt>
      <trkpt lat="47.16271" lon="-0.92458">
        <ele>107</ele>
        <time>2014-11-20T14:49:55Z</time>
      </trkpt>
      <trkpt lat="47.16273" lon="-0.92462">
        <ele>107</ele>
        <time>2014-11-20T14:49:58Z</time>
      </trkpt>
      <trkpt lat="47.16275" lon="-0.92465">
        <ele>107</ele>
        <time>2014-11-20T14:50:00Z</time>
      </trkpt>
      <trkpt lat="47.16278" lon="-0.9247">
        <ele>107</ele>
        <time>2014-11-20T14:50:03Z</time>
      </trkpt>
      <trkpt lat="47.16279" lon="-0.92472">
        <ele>107</ele>
        <time>2014-11-20T14:50:05Z</time>
      </trkpt>
      <trkpt lat="47.16281" lon="-0.92475">
        <ele>107</ele>
        <time>2014-11-20T14:50:07Z</time>
      </trkpt>
      <trkpt lat="47.16284" lon="-0.92479">
        <ele>107</ele>
        <time>2014-11-20T14:50:10Z</time>
      </trkpt>
      <trkpt lat="47.16286" lon="-0.92482">
        <ele>107</ele>
        <time>2014-11-20T14:50:12Z</time>
      </trkpt>
      <trkpt lat="47.16287" lon="-0.92484">
        <ele>107</ele>
        <time>2014-11-20T14:50:14Z</time>
      </trkpt>
      <trkpt lat="47.16289" lon="-0.92488">
        <ele>107</ele>
        <time>2014-11-20T14:50:16Z</time>
      </trkpt>
      <trkpt lat="47.16292" lon="-0.92492">
        <ele>107</ele>
        <time>2014-11-20T14:50:19Z</time>
      </trkpt>
      <trkpt lat="47.16293" lon="-0.92494">
        <ele>107</ele>
        <time>2014-11-20T14:50:21Z</time>
      </trkpt>
      <trkpt lat="47.16295" lon="-0.92497">
        <ele>107</ele>
        <time>2014-11-20T14:50:23Z</time>
      </trkpt>
      <trkpt lat="47.16297" lon="-0.925">
        <ele>107</ele>
        <time>2014-11-20T14:50:25Z</time>
      </trkpt>
      <trkpt lat="47.16299" lon="-0.92503">
        <ele>107</ele>
        <time>2014-11-20T14:50:27Z</time>
      </trkpt>
      <trkpt lat="47.163" lon="-0.92505">
        <ele>107</ele>
        <time>2014-11-20T14:50:29Z</time>
      </trkpt>
      <trkpt lat="47.16302" lon="-0.92508">
        <ele>107</ele>
        <time>2014-11-20T14:50:31Z</time>
      </trkpt>
      <trkpt lat="47.16305" lon="-0.92512">
        <ele>107</ele>
        <time>2014-11-20T14:50:34Z</time>
      </trkpt>
      <trkpt lat="47.16306" lon="-0.92514">
        <ele>107</ele>
        <time>2014-11-20T14:50:36Z</time>
      </trkpt>
      <trkpt lat="47.16309" lon="-0.92517">
        <ele>107</ele>
        <time>2014-11-20T14:50:38Z</time>
      </trkpt>
      <trkpt lat="47.16311" lon="-0.92519">
        <ele>107</ele>
        <time>2014-11-20T14:50:40Z</time>
      </trkpt>
      <trkpt lat="47.16312" lon="-0.92521">
        <ele>107</ele>
        <time>2014-11-20T14:50:42Z</time>
      </trkpt>
      <trkpt lat="47.16314" lon="-0.92524">
        <ele>107</ele>
        <time>2014-11-20T14:50:44Z</time>
      </trkpt>
      <trkpt lat="47.16317" lon="-0.92528">
        <ele>107</ele>
        <time>2014-11-20T14:50:47Z</time>
      </trkpt>
      <trkpt lat="47.16318" lon="-0.9253">
        <ele>107</ele>
        <time>2014-11-20T14:50:49Z</time>
      </trkpt>
      <trkpt lat="47.1632" lon="-0.92533">
        <ele>107</ele>
        <time>2014-11-20T14:50:51Z</time>
      </trkpt>
      <trkpt lat="47.16322" lon="-0.92536">
        <ele>107</ele>
        <time>2014-11-20T14:50:53Z</time>
      </trkpt>
      <trkpt lat="47.16324" lon="-0.92538">
        <ele>107</ele>
        <time>2014-11-20T14:50:55Z</time>
      </trkpt>
      <trkpt lat="47.16326" lon="-0.92541">
        <ele>107</ele>
        <time>2014-11-20T14:50:57Z</time>
      </trkpt>
      <trkpt lat="47.16328" lon="-0.92545">
        <ele>107</ele>
        <time>2014-11-20T14:50:59Z</time>
      </trkpt>
      <trkpt lat="47.1633" lon="-0.92548">
        <ele>107</ele>
        <time>2014-11-20T14:51:01Z</time>
      </trkpt>
      <trkpt lat="47.16331" lon="-0.9255">
        <ele>107</ele>
        <time>2014-11-20T14:51:03Z</time>
      </trkpt>
      <trkpt lat="47.16333" lon="-0.92552">
        <ele>107</ele>
        <time>2014-11-20T14:51:05Z</time>
      </trkpt>
      <trkpt lat="47.16336" lon="-0.92555">
        <ele>107</ele>
        <time>2014-11-20T14:51:07Z</time>
      </trkpt>
      <trkpt lat="47.16338" lon="-0.92557">
        <ele>107</ele>
        <time>2014-11-20T14:51:09Z</time>
      </trkpt>
      <trkpt lat="47.1634" lon="-0.9256">
        <ele>107</ele>
        <time>2014-11-20T14:51:11Z</time>
      </trkpt>
      <trkpt lat="47.16342" lon="-0.92564">
        <ele>107</ele>
        <time>2014-11-20T14:51:14Z</time>
      </trkpt>
      <trkpt lat="47.16344" lon="-0.92567">
        <ele>107</ele>
        <time>2014-11-20T14:51:16Z</time>
      </trkpt>
      <trkpt lat="47.16347" lon="-0.92571">
        <ele>107</ele>
        <time>2014-11-20T14:51:19Z</time>
      </trkpt>
      <trkpt lat="47.16349" lon="-0.92574">
        <ele>107</ele>
        <time>2014-11-20T14:51:21Z</time>
      </trkpt>
      <trkpt lat="47.16351" lon="-0.92577">
        <ele>107</ele>
        <time>2014-11-20T14:51:23Z</time>
      </trkpt>
      <trkpt lat="47.16353" lon="-0.92579">
        <ele>107</ele>
        <time>2014-11-20T14:51:25Z</time>
      </trkpt>
      <trkpt lat="47.16356" lon="-0.92584">
        <ele>107</ele>
        <time>2014-11-20T14:51:28Z</time>
      </trkpt>
      <trkpt lat="47.16357" lon="-0.92586">
        <ele>106</ele>
        <time>2014-11-20T14:51:30Z</time>
      </trkpt>
      <trkpt lat="47.16359" lon="-0.92589">
        <ele>106</ele>
        <time>2014-11-20T14:51:32Z</time>
      </trkpt>
      <trkpt lat="47.16361" lon="-0.92592">
        <ele>106</ele>
        <time>2014-11-20T14:51:34Z</time>
      </trkpt>
      <trkpt lat="47.16364" lon="-0.92596">
        <ele>106</ele>
        <time>2014-11-20T14:51:37Z</time>
      </trkpt>
      <trkpt lat="47.16365" lon="-0.92598">
        <ele>106</ele>
        <time>2014-11-20T14:51:39Z</time>
      </trkpt>
      <trkpt lat="47.16367" lon="-0.92601">
        <ele>106</ele>
        <time>2014-11-20T14:51:41Z</time>
      </trkpt>
      <trkpt lat="47.1637" lon="-0.92603">
        <ele>106</ele>
        <time>2014-11-20T14:51:43Z</time>
      </trkpt>
      <trkpt lat="47.16372" lon="-0.92606">
        <ele>105</ele>
        <time>2014-11-20T14:51:45Z</time>
      </trkpt>
      <trkpt lat="47.16374" lon="-0.92608">
        <ele>105</ele>
        <time>2014-11-20T14:51:47Z</time>
      </trkpt>
      <trkpt lat="47.16376" lon="-0.92611">
        <ele>104</ele>
        <time>2014-11-20T14:51:49Z</time>
      </trkpt>
      <trkpt lat="47.16378" lon="-0.92614">
        <ele>104</ele>
        <time>2014-11-20T14:51:51Z</time>
      </trkpt>
      <trkpt lat="47.16378" lon="-0.92618">
        <ele>104</ele>
        <time>2014-11-20T14:51:53Z</time>
      </trkpt>
      <trkpt lat="47.16379" lon="-0.92623">
        <ele>104</ele>
        <time>2014-11-20T14:51:55Z</time>
      </trkpt>
      <trkpt lat="47.16382" lon="-0.92628">
        <ele>104</ele>
        <time>2014-11-20T14:51:58Z</time>
      </trkpt>
      <trkpt lat="47.16383" lon="-0.92628">
        <ele>104</ele>
        <time>2014-11-20T14:52:00Z</time>
      </trkpt>
      <trkpt lat="47.16384" lon="-0.9263">
        <ele>104</ele>
        <time>2014-11-20T14:52:02Z</time>
      </trkpt>
      <trkpt lat="47.16386" lon="-0.92633">
        <ele>104</ele>
        <time>2014-11-20T14:52:04Z</time>
      </trkpt>
      <trkpt lat="47.16389" lon="-0.92637">
        <ele>104</ele>
        <time>2014-11-20T14:52:07Z</time>
      </trkpt>
      <trkpt lat="47.16391" lon="-0.92641">
        <ele>103</ele>
        <time>2014-11-20T14:52:09Z</time>
      </trkpt>
      <trkpt lat="47.16393" lon="-0.92643">
        <ele>103</ele>
        <time>2014-11-20T14:52:11Z</time>
      </trkpt>
      <trkpt lat="47.16394" lon="-0.92646">
        <ele>103</ele>
        <time>2014-11-20T14:52:13Z</time>
      </trkpt>
      <trkpt lat="47.16396" lon="-0.92647">
        <ele>103</ele>
        <time>2014-11-20T14:52:15Z</time>
      </trkpt>
      <trkpt lat="47.16398" lon="-0.9265">
        <ele>103</ele>
        <time>2014-11-20T14:52:17Z</time>
      </trkpt>
      <trkpt lat="47.164" lon="-0.92654">
        <ele>103</ele>
        <time>2014-11-20T14:52:20Z</time>
      </trkpt>
      <trkpt lat="47.16402" lon="-0.92656">
        <ele>103</ele>
        <time>2014-11-20T14:52:22Z</time>
      </trkpt>
      <trkpt lat="47.16404" lon="-0.92658">
        <ele>103</ele>
        <time>2014-11-20T14:52:24Z</time>
      </trkpt>
      <trkpt lat="47.16407" lon="-0.92661">
        <ele>103</ele>
        <time>2014-11-20T14:52:26Z</time>
      </trkpt>
      <trkpt lat="47.16409" lon="-0.92663">
        <ele>103</ele>
        <time>2014-11-20T14:52:28Z</time>
      </trkpt>
      <trkpt lat="47.1641" lon="-0.92665">
        <ele>103</ele>
        <time>2014-11-20T14:52:30Z</time>
      </trkpt>
      <trkpt lat="47.16412" lon="-0.92668">
        <ele>103</ele>
        <time>2014-11-20T14:52:32Z</time>
      </trkpt>
      <trkpt lat="47.16415" lon="-0.92671">
        <ele>103</ele>
        <time>2014-11-20T14:52:35Z</time>
      </trkpt>
      <trkpt lat="47.16417" lon="-0.92673">
        <ele>103</ele>
        <time>2014-11-20T14:52:37Z</time>
      </trkpt>
      <trkpt lat="47.1642" lon="-0.92675">
        <ele>103</ele>
        <time>2014-11-20T14:52:39Z</time>
      </trkpt>
      <trkpt lat="47.16422" lon="-0.92677">
        <ele>103</ele>
        <time>2014-11-20T14:52:41Z</time>
      </trkpt>
      <trkpt lat="47.16424" lon="-0.92679">
        <ele>103</ele>
        <time>2014-11-20T14:52:43Z</time>
      </trkpt>
      <trkpt lat="47.16426" lon="-0.92682">
        <ele>103</ele>
        <time>2014-11-20T14:52:45Z</time>
      </trkpt>
      <trkpt lat="47.16428" lon="-0.92684">
        <ele>103</ele>
        <time>2014-11-20T14:52:47Z</time>
      </trkpt>
      <trkpt lat="47.16429" lon="-0.92687">
        <ele>103</ele>
        <time>2014-11-20T14:52:49Z</time>
      </trkpt>
      <trkpt lat="47.16431" lon="-0.92691">
        <ele>103</ele>
        <time>2014-11-20T14:52:51Z</time>
      </trkpt>
      <trkpt lat="47.16433" lon="-0.92693">
        <ele>103</ele>
        <time>2014-11-20T14:52:53Z</time>
      </trkpt>
      <trkpt lat="47.16436" lon="-0.92695">
        <ele>103</ele>
        <time>2014-11-20T14:52:55Z</time>
      </trkpt>
      <trkpt lat="47.16438" lon="-0.92697">
        <ele>103</ele>
        <time>2014-11-20T14:52:57Z</time>
      </trkpt>
      <trkpt lat="47.1644" lon="-0.927">
        <ele>103</ele>
        <time>2014-11-20T14:52:59Z</time>
      </trkpt>
      <trkpt lat="47.16443" lon="-0.92702">
        <ele>103</ele>
        <time>2014-11-20T14:53:01Z</time>
      </trkpt>
      <trkpt lat="47.16445" lon="-0.92704">
        <ele>103</ele>
        <time>2014-11-20T14:53:03Z</time>
      </trkpt>
      <trkpt lat="47.16447" lon="-0.92707">
        <ele>103</ele>
        <time>2014-11-20T14:53:05Z</time>
      </trkpt>
      <trkpt lat="47.16449" lon="-0.92708">
        <ele>103</ele>
        <time>2014-11-20T14:53:07Z</time>
      </trkpt>
      <trkpt lat="47.16452" lon="-0.92711">
        <ele>103</ele>
        <time>2014-11-20T14:53:09Z</time>
      </trkpt>
      <trkpt lat="47.16454" lon="-0.92716">
        <ele>103</ele>
        <time>2014-11-20T14:53:12Z</time>
      </trkpt>
      <trkpt lat="47.16457" lon="-0.9272">
        <ele>103</ele>
        <time>2014-11-20T14:53:15Z</time>
      </trkpt>
      <trkpt lat="47.16459" lon="-0.92723">
        <ele>103</ele>
        <time>2014-11-20T14:53:17Z</time>
      </trkpt>
      <trkpt lat="47.16462" lon="-0.92727">
        <ele>103</ele>
        <time>2014-11-20T14:53:20Z</time>
      </trkpt>
      <trkpt lat="47.16464" lon="-0.9273">
        <ele>103</ele>
        <time>2014-11-20T14:53:22Z</time>
      </trkpt>
      <trkpt lat="47.16466" lon="-0.92732">
        <ele>103</ele>
        <time>2014-11-20T14:53:24Z</time>
      </trkpt>
      <trkpt lat="47.16468" lon="-0.92735">
        <ele>103</ele>
        <time>2014-11-20T14:53:26Z</time>
      </trkpt>
      <trkpt lat="47.1647" lon="-0.92738">
        <ele>103</ele>
        <time>2014-11-20T14:53:28Z</time>
      </trkpt>
      <trkpt lat="47.16471" lon="-0.92741">
        <ele>103</ele>
        <time>2014-11-20T14:53:30Z</time>
      </trkpt>
      <trkpt lat="47.16473" lon="-0.92746">
        <ele>103</ele>
        <time>2014-11-20T14:53:33Z</time>
      </trkpt>
      <trkpt lat="47.16475" lon="-0.92749">
        <ele>103</ele>
        <time>2014-11-20T14:53:35Z</time>
      </trkpt>
      <trkpt lat="47.16476" lon="-0.92751">
        <ele>103</ele>
        <time>2014-11-20T14:53:37Z</time>
      </trkpt>
      <trkpt lat="47.16479" lon="-0.92754">
        <ele>103</ele>
        <time>2014-11-20T14:53:39Z</time>
      </trkpt>
      <trkpt lat="47.16481" lon="-0.92759">
        <ele>103</ele>
        <time>2014-11-20T14:53:42Z</time>
      </trkpt>
      <trkpt lat="47.16483" lon="-0.92762">
        <ele>103</ele>
        <time>2014-11-20T14:53:44Z</time>
      </trkpt>
      <trkpt lat="47.16484" lon="-0.92765">
        <ele>103</ele>
        <time>2014-11-20T14:53:46Z</time>
      </trkpt>
      <trkpt lat="47.16486" lon="-0.92769">
        <ele>103</ele>
        <time>2014-11-20T14:53:48Z</time>
      </trkpt>
      <trkpt lat="47.16487" lon="-0.92771">
        <ele>103</ele>
        <time>2014-11-20T14:53:50Z</time>
      </trkpt>
      <trkpt lat="47.16488" lon="-0.92775">
        <ele>103</ele>
        <time>2014-11-20T14:53:52Z</time>
      </trkpt>
      <trkpt lat="47.16489" lon="-0.92778">
        <ele>103</ele>
        <time>2014-11-20T14:53:54Z</time>
      </trkpt>
      <trkpt lat="47.16491" lon="-0.92782">
        <ele>103</ele>
        <time>2014-11-20T14:53:56Z</time>
      </trkpt>
      <trkpt lat="47.16491" lon="-0.92786">
        <ele>103</ele>
        <time>2014-11-20T14:53:58Z</time>
      </trkpt>
      <trkpt lat="47.16493" lon="-0.92789">
        <ele>103</ele>
        <time>2014-11-20T14:54:00Z</time>
      </trkpt>
      <trkpt lat="47.16495" lon="-0.92792">
        <ele>103</ele>
        <time>2014-11-20T14:54:02Z</time>
      </trkpt>
      <trkpt lat="47.16496" lon="-0.92795">
        <ele>103</ele>
        <time>2014-11-20T14:54:04Z</time>
      </trkpt>
      <trkpt lat="47.16497" lon="-0.92799">
        <ele>103</ele>
        <time>2014-11-20T14:54:06Z</time>
      </trkpt>
      <trkpt lat="47.16498" lon="-0.92802">
        <ele>103</ele>
        <time>2014-11-20T14:54:08Z</time>
      </trkpt>
      <trkpt lat="47.16499" lon="-0.92806">
        <ele>103</ele>
        <time>2014-11-20T14:54:10Z</time>
      </trkpt>
      <trkpt lat="47.165" lon="-0.92809">
        <ele>103</ele>
        <time>2014-11-20T14:54:12Z</time>
      </trkpt>
      <trkpt lat="47.16501" lon="-0.92813">
        <ele>103</ele>
        <time>2014-11-20T14:54:14Z</time>
      </trkpt>
      <trkpt lat="47.16502" lon="-0.92816">
        <ele>103</ele>
        <time>2014-11-20T14:54:16Z</time>
      </trkpt>
      <trkpt lat="47.16504" lon="-0.9282">
        <ele>103</ele>
        <time>2014-11-20T14:54:18Z</time>
      </trkpt>
      <trkpt lat="47.16505" lon="-0.92823">
        <ele>103</ele>
        <time>2014-11-20T14:54:20Z</time>
      </trkpt>
      <trkpt lat="47.16506" lon="-0.92826">
        <ele>103</ele>
        <time>2014-11-20T14:54:22Z</time>
      </trkpt>
      <trkpt lat="47.16508" lon="-0.92829">
        <ele>103</ele>
        <time>2014-11-20T14:54:24Z</time>
      </trkpt>
      <trkpt lat="47.16509" lon="-0.92833">
        <ele>103</ele>
        <time>2014-11-20T14:54:26Z</time>
      </trkpt>
      <trkpt lat="47.1651" lon="-0.92836">
        <ele>103</ele>
        <time>2014-11-20T14:54:28Z</time>
      </trkpt>
      <trkpt lat="47.16511" lon="-0.9284">
        <ele>103</ele>
        <time>2014-11-20T14:54:30Z</time>
      </trkpt>
      <trkpt lat="47.16513" lon="-0.92843">
        <ele>103</ele>
        <time>2014-11-20T14:54:32Z</time>
      </trkpt>
      <trkpt lat="47.16514" lon="-0.92847">
        <ele>103</ele>
        <time>2014-11-20T14:54:34Z</time>
      </trkpt>
      <trkpt lat="47.16515" lon="-0.9285">
        <ele>103</ele>
        <time>2014-11-20T14:54:36Z</time>
      </trkpt>
      <trkpt lat="47.16516" lon="-0.92853">
        <ele>103</ele>
        <time>2014-11-20T14:54:38Z</time>
      </trkpt>
      <trkpt lat="47.16517" lon="-0.92857">
        <ele>103</ele>
        <time>2014-11-20T14:54:40Z</time>
      </trkpt>
      <trkpt lat="47.16518" lon="-0.92861">
        <ele>103</ele>
        <time>2014-11-20T14:54:42Z</time>
      </trkpt>
      <trkpt lat="47.16519" lon="-0.92864">
        <ele>103</ele>
        <time>2014-11-20T14:54:44Z</time>
      </trkpt>
      <trkpt lat="47.1652" lon="-0.92868">
        <ele>103</ele>
        <time>2014-11-20T14:54:46Z</time>
      </trkpt>
      <trkpt lat="47.16522" lon="-0.92871">
        <ele>103</ele>
        <time>2014-11-20T14:54:48Z</time>
      </trkpt>
      <trkpt lat="47.16523" lon="-0.92874">
        <ele>103</ele>
        <time>2014-11-20T14:54:50Z</time>
      </trkpt>
      <trkpt lat="47.16524" lon="-0.92878">
        <ele>103</ele>
        <time>2014-11-20T14:54:52Z</time>
      </trkpt>
      <trkpt lat="47.16525" lon="-0.92881">
        <ele>103</ele>
        <time>2014-11-20T14:54:54Z</time>
      </trkpt>
      <trkpt lat="47.16526" lon="-0.92884">
        <ele>103</ele>
        <time>2014-11-20T14:54:56Z</time>
      </trkpt>
      <trkpt lat="47.16527" lon="-0.92888">
        <ele>103</ele>
        <time>2014-11-20T14:54:58Z</time>
      </trkpt>
      <trkpt lat="47.16528" lon="-0.92891">
        <ele>103</ele>
        <time>2014-11-20T14:55:00Z</time>
      </trkpt>
      <trkpt lat="47.16529" lon="-0.92894">
        <ele>103</ele>
        <time>2014-11-20T14:55:02Z</time>
      </trkpt>
      <trkpt lat="47.16531" lon="-0.92897">
        <ele>103</ele>
        <time>2014-11-20T14:55:04Z</time>
      </trkpt>
      <trkpt lat="47.16532" lon="-0.92901">
        <ele>103</ele>
        <time>2014-11-20T14:55:06Z</time>
      </trkpt>
      <trkpt lat="47.16533" lon="-0.92904">
        <ele>103</ele>
        <time>2014-11-20T14:55:08Z</time>
      </trkpt>
      <trkpt lat="47.16534" lon="-0.92908">
        <ele>103</ele>
        <time>2014-11-20T14:55:10Z</time>
      </trkpt>
      <trkpt lat="47.16535" lon="-0.92911">
        <ele>103</ele>
        <time>2014-11-20T14:55:12Z</time>
      </trkpt>
      <trkpt lat="47.16536" lon="-0.92915">
        <ele>103</ele>
        <time>2014-11-20T14:55:14Z</time>
      </trkpt>
      <trkpt lat="47.16537" lon="-0.92918">
        <ele>103</ele>
        <time>2014-11-20T14:55:16Z</time>
      </trkpt>
      <trkpt lat="47.16538" lon="-0.92922">
        <ele>103</ele>
        <time>2014-11-20T14:55:18Z</time>
      </trkpt>
      <trkpt lat="47.16539" lon="-0.92926">
        <ele>103</ele>
        <time>2014-11-20T14:55:20Z</time>
      </trkpt>
      <trkpt lat="47.16539" lon="-0.92929">
        <ele>103</ele>
        <time>2014-11-20T14:55:22Z</time>
      </trkpt>
      <trkpt lat="47.1654" lon="-0.92933">
        <ele>103</ele>
        <time>2014-11-20T14:55:24Z</time>
      </trkpt>
      <trkpt lat="47.16541" lon="-0.92937">
        <ele>103</ele>
        <time>2014-11-20T14:55:26Z</time>
      </trkpt>
      <trkpt lat="47.16542" lon="-0.9294">
        <ele>103</ele>
        <time>2014-11-20T14:55:28Z</time>
      </trkpt>
      <trkpt lat="47.16543" lon="-0.92943">
        <ele>103</ele>
        <time>2014-11-20T14:55:30Z</time>
      </trkpt>
      <trkpt lat="47.16544" lon="-0.92947">
        <ele>103</ele>
        <time>2014-11-20T14:55:32Z</time>
      </trkpt>
      <trkpt lat="47.16545" lon="-0.9295">
        <ele>103</ele>
        <time>2014-11-20T14:55:34Z</time>
      </trkpt>
      <trkpt lat="47.16545" lon="-0.92954">
        <ele>103</ele>
        <time>2014-11-20T14:55:36Z</time>
      </trkpt>
      <trkpt lat="47.16546" lon="-0.92957">
        <ele>103</ele>
        <time>2014-11-20T14:55:38Z</time>
      </trkpt>
      <trkpt lat="47.16547" lon="-0.92961">
        <ele>103</ele>
        <time>2014-11-20T14:55:40Z</time>
      </trkpt>
      <trkpt lat="47.16549" lon="-0.92964">
        <ele>103</ele>
        <time>2014-11-20T14:55:42Z</time>
      </trkpt>
      <trkpt lat="47.16549" lon="-0.92967">
        <ele>103</ele>
        <time>2014-11-20T14:55:44Z</time>
      </trkpt>
      <trkpt lat="47.1655" lon="-0.92971">
        <ele>103</ele>
        <time>2014-11-20T14:55:46Z</time>
      </trkpt>
      <trkpt lat="47.16551" lon="-0.92975">
        <ele>103</ele>
        <time>2014-11-20T14:55:48Z</time>
      </trkpt>
      <trkpt lat="47.16552" lon="-0.92978">
        <ele>103</ele>
        <time>2014-11-20T14:55:50Z</time>
      </trkpt>
      <trkpt lat="47.16553" lon="-0.92981">
        <ele>103</ele>
        <time>2014-11-20T14:55:52Z</time>
      </trkpt>
      <trkpt lat="47.16554" lon="-0.92985">
        <ele>103</ele>
        <time>2014-11-20T14:55:54Z</time>
      </trkpt>
      <trkpt lat="47.16555" lon="-0.92989">
        <ele>103</ele>
        <time>2014-11-20T14:55:56Z</time>
      </trkpt>
      <trkpt lat="47.16555" lon="-0.92992">
        <ele>103</ele>
        <time>2014-11-20T14:55:58Z</time>
      </trkpt>
      <trkpt lat="47.16556" lon="-0.92996">
        <ele>103</ele>
        <time>2014-11-20T14:56:00Z</time>
      </trkpt>
      <trkpt lat="47.16557" lon="-0.93">
        <ele>103</ele>
        <time>2014-11-20T14:56:02Z</time>
      </trkpt>
      <trkpt lat="47.16558" lon="-0.93003">
        <ele>103</ele>
        <time>2014-11-20T14:56:04Z</time>
      </trkpt>
      <trkpt lat="47.16559" lon="-0.93007">
        <ele>103</ele>
        <time>2014-11-20T14:56:06Z</time>
      </trkpt>
      <trkpt lat="47.1656" lon="-0.9301">
        <ele>103</ele>
        <time>2014-11-20T14:56:08Z</time>
      </trkpt>
      <trkpt lat="47.16561" lon="-0.93014">
        <ele>103</ele>
        <time>2014-11-20T14:56:10Z</time>
      </trkpt>
      <trkpt lat="47.16562" lon="-0.93017">
        <ele>103</ele>
        <time>2014-11-20T14:56:12Z</time>
      </trkpt>
      <trkpt lat="47.16563" lon="-0.9302">
        <ele>103</ele>
        <time>2014-11-20T14:56:14Z</time>
      </trkpt>
      <trkpt lat="47.16564" lon="-0.93024">
        <ele>103</ele>
        <time>2014-11-20T14:56:16Z</time>
      </trkpt>
      <trkpt lat="47.16564" lon="-0.93028">
        <ele>103</ele>
        <time>2014-11-20T14:56:18Z</time>
      </trkpt>
      <trkpt lat="47.16565" lon="-0.93033">
        <ele>103</ele>
        <time>2014-11-20T14:56:21Z</time>
      </trkpt>
      <trkpt lat="47.16567" lon="-0.93036">
        <ele>103</ele>
        <time>2014-11-20T14:56:23Z</time>
      </trkpt>
      <trkpt lat="47.16568" lon="-0.9304">
        <ele>103</ele>
        <time>2014-11-20T14:56:25Z</time>
      </trkpt>
      <trkpt lat="47.16568" lon="-0.93043">
        <ele>103</ele>
        <time>2014-11-20T14:56:27Z</time>
      </trkpt>
      <trkpt lat="47.1657" lon="-0.93049">
        <ele>103</ele>
        <time>2014-11-20T14:56:30Z</time>
      </trkpt>
      <trkpt lat="47.16571" lon="-0.93053">
        <ele>103</ele>
        <time>2014-11-20T14:56:32Z</time>
      </trkpt>
      <trkpt lat="47.16572" lon="-0.93058">
        <ele>103</ele>
        <time>2014-11-20T14:56:35Z</time>
      </trkpt>
      <trkpt lat="47.16573" lon="-0.93062">
        <ele>103</ele>
        <time>2014-11-20T14:56:37Z</time>
      </trkpt>
      <trkpt lat="47.16574" lon="-0.93066">
        <ele>103</ele>
        <time>2014-11-20T14:56:39Z</time>
      </trkpt>
      <trkpt lat="47.16575" lon="-0.9307">
        <ele>103</ele>
        <time>2014-11-20T14:56:42Z</time>
      </trkpt>
      <trkpt lat="47.16577" lon="-0.93076">
        <ele>103</ele>
        <time>2014-11-20T14:56:45Z</time>
      </trkpt>
      <trkpt lat="47.16578" lon="-0.93079">
        <ele>103</ele>
        <time>2014-11-20T14:56:47Z</time>
      </trkpt>
      <trkpt lat="47.16578" lon="-0.93082">
        <ele>103</ele>
        <time>2014-11-20T14:56:49Z</time>
      </trkpt>
      <trkpt lat="47.16579" lon="-0.93086">
        <ele>103</ele>
        <time>2014-11-20T14:56:51Z</time>
      </trkpt>
      <trkpt lat="47.1658" lon="-0.93089">
        <ele>103</ele>
        <time>2014-11-20T14:56:53Z</time>
      </trkpt>
      <trkpt lat="47.16581" lon="-0.93094">
        <ele>102</ele>
        <time>2014-11-20T14:56:56Z</time>
      </trkpt>
      <trkpt lat="47.16582" lon="-0.93098">
        <ele>102</ele>
        <time>2014-11-20T14:56:58Z</time>
      </trkpt>
      <trkpt lat="47.16584" lon="-0.93103">
        <ele>102</ele>
        <time>2014-11-20T14:57:02Z</time>
      </trkpt>
      <trkpt lat="47.16585" lon="-0.93107">
        <ele>102</ele>
        <time>2014-11-20T14:57:04Z</time>
      </trkpt>
      <trkpt lat="47.16586" lon="-0.93111">
        <ele>102</ele>
        <time>2014-11-20T14:57:07Z</time>
      </trkpt>
      <trkpt lat="47.16587" lon="-0.93115">
        <ele>102</ele>
        <time>2014-11-20T14:57:09Z</time>
      </trkpt>
      <trkpt lat="47.16588" lon="-0.9312">
        <ele>102</ele>
        <time>2014-11-20T14:57:12Z</time>
      </trkpt>
      <trkpt lat="47.16589" lon="-0.93124">
        <ele>102</ele>
        <time>2014-11-20T14:57:14Z</time>
      </trkpt>
      <trkpt lat="47.1659" lon="-0.93129">
        <ele>102</ele>
        <time>2014-11-20T14:57:17Z</time>
      </trkpt>
      <trkpt lat="47.16591" lon="-0.93132">
        <ele>102</ele>
        <time>2014-11-20T14:57:19Z</time>
      </trkpt>
      <trkpt lat="47.16592" lon="-0.93135">
        <ele>102</ele>
        <time>2014-11-20T14:57:21Z</time>
      </trkpt>
      <trkpt lat="47.16592" lon="-0.93139">
        <ele>102</ele>
        <time>2014-11-20T14:57:23Z</time>
      </trkpt>
      <trkpt lat="47.16593" lon="-0.93141">
        <ele>102</ele>
        <time>2014-11-20T14:57:25Z</time>
      </trkpt>
      <trkpt lat="47.16594" lon="-0.93146">
        <ele>102</ele>
        <time>2014-11-20T14:57:28Z</time>
      </trkpt>
      <trkpt lat="47.16594" lon="-0.9315">
        <ele>102</ele>
        <time>2014-11-20T14:57:30Z</time>
      </trkpt>
      <trkpt lat="47.16596" lon="-0.93155">
        <ele>102</ele>
        <time>2014-11-20T14:57:33Z</time>
      </trkpt>
      <trkpt lat="47.16597" lon="-0.93159">
        <ele>102</ele>
        <time>2014-11-20T14:57:35Z</time>
      </trkpt>
      <trkpt lat="47.16597" lon="-0.93162">
        <ele>102</ele>
        <time>2014-11-20T14:57:37Z</time>
      </trkpt>
      <trkpt lat="47.16597" lon="-0.93166">
        <ele>102</ele>
        <time>2014-11-20T14:57:39Z</time>
      </trkpt>
      <trkpt lat="47.16598" lon="-0.93169">
        <ele>102</ele>
        <time>2014-11-20T14:57:41Z</time>
      </trkpt>
      <trkpt lat="47.16599" lon="-0.93175">
        <ele>102</ele>
        <time>2014-11-20T14:57:44Z</time>
      </trkpt>
      <trkpt lat="47.166" lon="-0.93179">
        <ele>102</ele>
        <time>2014-11-20T14:57:46Z</time>
      </trkpt>
      <trkpt lat="47.166" lon="-0.93184">
        <ele>102</ele>
        <time>2014-11-20T14:57:49Z</time>
      </trkpt>
      <trkpt lat="47.16601" lon="-0.93188">
        <ele>102</ele>
        <time>2014-11-20T14:57:51Z</time>
      </trkpt>
      <trkpt lat="47.16602" lon="-0.93192">
        <ele>102</ele>
        <time>2014-11-20T14:57:53Z</time>
      </trkpt>
      <trkpt lat="47.16602" lon="-0.93195">
        <ele>102</ele>
        <time>2014-11-20T14:57:55Z</time>
      </trkpt>
      <trkpt lat="47.16602" lon="-0.93199">
        <ele>102</ele>
        <time>2014-11-20T14:57:57Z</time>
      </trkpt>
      <trkpt lat="47.16603" lon="-0.93204">
        <ele>102</ele>
        <time>2014-11-20T14:58:00Z</time>
      </trkpt>
      <trkpt lat="47.16605" lon="-0.93208">
        <ele>102</ele>
        <time>2014-11-20T14:58:02Z</time>
      </trkpt>
      <trkpt lat="47.16605" lon="-0.93214">
        <ele>102</ele>
        <time>2014-11-20T14:58:05Z</time>
      </trkpt>
      <trkpt lat="47.16605" lon="-0.93217">
        <ele>102</ele>
        <time>2014-11-20T14:58:07Z</time>
      </trkpt>
      <trkpt lat="47.16605" lon="-0.93222">
        <ele>102</ele>
        <time>2014-11-20T14:58:10Z</time>
      </trkpt>
      <trkpt lat="47.16605" lon="-0.93225">
        <ele>102</ele>
        <time>2014-11-20T14:58:12Z</time>
      </trkpt>
      <trkpt lat="47.16606" lon="-0.93231">
        <ele>102</ele>
        <time>2014-11-20T14:58:15Z</time>
      </trkpt>
      <trkpt lat="47.16606" lon="-0.93235">
        <ele>102</ele>
        <time>2014-11-20T14:58:17Z</time>
      </trkpt>
      <trkpt lat="47.16607" lon="-0.9324">
        <ele>102</ele>
        <time>2014-11-20T14:58:20Z</time>
      </trkpt>
      <trkpt lat="47.16607" lon="-0.93244">
        <ele>102</ele>
        <time>2014-11-20T14:58:22Z</time>
      </trkpt>
      <trkpt lat="47.16608" lon="-0.93251">
        <ele>102</ele>
        <time>2014-11-20T14:58:25Z</time>
      </trkpt>
      <trkpt lat="47.16608" lon="-0.93255">
        <ele>102</ele>
        <time>2014-11-20T14:58:27Z</time>
      </trkpt>
      <trkpt lat="47.16608" lon="-0.93258">
        <ele>102</ele>
        <time>2014-11-20T14:58:29Z</time>
      </trkpt>
      <trkpt lat="47.16608" lon="-0.93262">
        <ele>102</ele>
        <time>2014-11-20T14:58:31Z</time>
      </trkpt>
      <trkpt lat="47.16609" lon="-0.93266">
        <ele>102</ele>
        <time>2014-11-20T14:58:33Z</time>
      </trkpt>
      <trkpt lat="47.16609" lon="-0.9327">
        <ele>102</ele>
        <time>2014-11-20T14:58:35Z</time>
      </trkpt>
      <trkpt lat="47.16609" lon="-0.93274">
        <ele>102</ele>
        <time>2014-11-20T14:58:37Z</time>
      </trkpt>
      <trkpt lat="47.1661" lon="-0.93277">
        <ele>102</ele>
        <time>2014-11-20T14:58:39Z</time>
      </trkpt>
      <trkpt lat="47.16611" lon="-0.93283">
        <ele>102</ele>
        <time>2014-11-20T14:58:42Z</time>
      </trkpt>
      <trkpt lat="47.1661" lon="-0.93287">
        <ele>102</ele>
        <time>2014-11-20T14:58:44Z</time>
      </trkpt>
      <trkpt lat="47.1661" lon="-0.93291">
        <ele>102</ele>
        <time>2014-11-20T14:58:46Z</time>
      </trkpt>
      <trkpt lat="47.16612" lon="-0.93296">
        <ele>102</ele>
        <time>2014-11-20T14:58:49Z</time>
      </trkpt>
      <trkpt lat="47.16612" lon="-0.93301">
        <ele>102</ele>
        <time>2014-11-20T14:58:53Z</time>
      </trkpt>
      <trkpt lat="47.16613" lon="-0.93304">
        <ele>102</ele>
        <time>2014-11-20T14:58:55Z</time>
      </trkpt>
      <trkpt lat="47.16613" lon="-0.93308">
        <ele>102</ele>
        <time>2014-11-20T14:58:57Z</time>
      </trkpt>
      <trkpt lat="47.16614" lon="-0.93312">
        <ele>102</ele>
        <time>2014-11-20T14:58:59Z</time>
      </trkpt>
      <trkpt lat="47.16615" lon="-0.93316">
        <ele>102</ele>
        <time>2014-11-20T14:59:02Z</time>
      </trkpt>
      <trkpt lat="47.16615" lon="-0.9332">
        <ele>102</ele>
        <time>2014-11-20T14:59:04Z</time>
      </trkpt>
      <trkpt lat="47.16616" lon="-0.93325">
        <ele>102</ele>
        <time>2014-11-20T14:59:07Z</time>
      </trkpt>
      <trkpt lat="47.16616" lon="-0.93329">
        <ele>102</ele>
        <time>2014-11-20T14:59:09Z</time>
      </trkpt>
      <trkpt lat="47.16617" lon="-0.93335">
        <ele>102</ele>
        <time>2014-11-20T14:59:12Z</time>
      </trkpt>
      <trkpt lat="47.16618" lon="-0.93338">
        <ele>102</ele>
        <time>2014-11-20T14:59:14Z</time>
      </trkpt>
      <trkpt lat="47.16618" lon="-0.93344">
        <ele>102</ele>
        <time>2014-11-20T14:59:17Z</time>
      </trkpt>
      <trkpt lat="47.16619" lon="-0.93348">
        <ele>102</ele>
        <time>2014-11-20T14:59:20Z</time>
      </trkpt>
      <trkpt lat="47.1662" lon="-0.93354">
        <ele>103</ele>
        <time>2014-11-20T14:59:23Z</time>
      </trkpt>
      <trkpt lat="47.1662" lon="-0.93358">
        <ele>103</ele>
        <time>2014-11-20T14:59:25Z</time>
      </trkpt>
      <trkpt lat="47.16621" lon="-0.93362">
        <ele>104</ele>
        <time>2014-11-20T14:59:27Z</time>
      </trkpt>
      <trkpt lat="47.16621" lon="-0.93366">
        <ele>104</ele>
        <time>2014-11-20T14:59:29Z</time>
      </trkpt>
      <trkpt lat="47.16622" lon="-0.9337">
        <ele>104</ele>
        <time>2014-11-20T14:59:31Z</time>
      </trkpt>
      <trkpt lat="47.16623" lon="-0.93377">
        <ele>104</ele>
        <time>2014-11-20T14:59:34Z</time>
      </trkpt>
      <trkpt lat="47.16624" lon="-0.93382">
        <ele>104</ele>
        <time>2014-11-20T14:59:36Z</time>
      </trkpt>
      <trkpt lat="47.16624" lon="-0.93388">
        <ele>104</ele>
        <time>2014-11-20T14:59:39Z</time>
      </trkpt>
      <trkpt lat="47.16624" lon="-0.93393">
        <ele>104</ele>
        <time>2014-11-20T14:59:41Z</time>
      </trkpt>
      <trkpt lat="47.16624" lon="-0.93399">
        <ele>104</ele>
        <time>2014-11-20T14:59:44Z</time>
      </trkpt>
      <trkpt lat="47.16624" lon="-0.93402">
        <ele>104</ele>
        <time>2014-11-20T14:59:46Z</time>
      </trkpt>
      <trkpt lat="47.16624" lon="-0.93409">
        <ele>104</ele>
        <time>2014-11-20T14:59:49Z</time>
      </trkpt>
      <trkpt lat="47.16624" lon="-0.93413">
        <ele>105</ele>
        <time>2014-11-20T14:59:51Z</time>
      </trkpt>
      <trkpt lat="47.16624" lon="-0.9342">
        <ele>106</ele>
        <time>2014-11-20T14:59:54Z</time>
      </trkpt>
      <trkpt lat="47.16624" lon="-0.93423">
        <ele>106</ele>
        <time>2014-11-20T14:59:56Z</time>
      </trkpt>
      <trkpt lat="47.16625" lon="-0.93429">
        <ele>107</ele>
        <time>2014-11-20T14:59:59Z</time>
      </trkpt>
      <trkpt lat="47.16626" lon="-0.93433">
        <ele>107</ele>
        <time>2014-11-20T15:00:01Z</time>
      </trkpt>
      <trkpt lat="47.16626" lon="-0.9344">
        <ele>108</ele>
        <time>2014-11-20T15:00:04Z</time>
      </trkpt>
      <trkpt lat="47.16626" lon="-0.93444">
        <ele>108</ele>
        <time>2014-11-20T15:00:06Z</time>
      </trkpt>
      <trkpt lat="47.16627" lon="-0.93449">
        <ele>108</ele>
        <time>2014-11-20T15:00:09Z</time>
      </trkpt>
      <trkpt lat="47.16628" lon="-0.93453">
        <ele>109</ele>
        <time>2014-11-20T15:00:11Z</time>
      </trkpt>
      <trkpt lat="47.16629" lon="-0.9346">
        <ele>109</ele>
        <time>2014-11-20T15:00:14Z</time>
      </trkpt>
      <trkpt lat="47.16629" lon="-0.93463">
        <ele>110</ele>
        <time>2014-11-20T15:00:16Z</time>
      </trkpt>
      <trkpt lat="47.1663" lon="-0.93468">
        <ele>110</ele>
        <time>2014-11-20T15:00:19Z</time>
      </trkpt>
      <trkpt lat="47.1663" lon="-0.93472">
        <ele>110</ele>
        <time>2014-11-20T15:00:21Z</time>
      </trkpt>
      <trkpt lat="47.16631" lon="-0.93477">
        <ele>110</ele>
        <time>2014-11-20T15:00:24Z</time>
      </trkpt>
      <trkpt lat="47.16631" lon="-0.93481">
        <ele>110</ele>
        <time>2014-11-20T15:00:26Z</time>
      </trkpt>
      <trkpt lat="47.16633" lon="-0.93486">
        <ele>110</ele>
        <time>2014-11-20T15:00:29Z</time>
      </trkpt>
      <trkpt lat="47.16634" lon="-0.9349">
        <ele>110</ele>
        <time>2014-11-20T15:00:31Z</time>
      </trkpt>
      <trkpt lat="47.16635" lon="-0.93495">
        <ele>110</ele>
        <time>2014-11-20T15:00:34Z</time>
      </trkpt>
      <trkpt lat="47.16635" lon="-0.93499">
        <ele>110</ele>
        <time>2014-11-20T15:00:36Z</time>
      </trkpt>
      <trkpt lat="47.16636" lon="-0.93505">
        <ele>110</ele>
        <time>2014-11-20T15:00:39Z</time>
      </trkpt>
      <trkpt lat="47.16637" lon="-0.93508">
        <ele>110</ele>
        <time>2014-11-20T15:00:41Z</time>
      </trkpt>
      <trkpt lat="47.16639" lon="-0.93514">
        <ele>110</ele>
        <time>2014-11-20T15:00:44Z</time>
      </trkpt>
      <trkpt lat="47.16639" lon="-0.93518">
        <ele>110</ele>
        <time>2014-11-20T15:00:46Z</time>
      </trkpt>
      <trkpt lat="47.16641" lon="-0.93523">
        <ele>110</ele>
        <time>2014-11-20T15:00:49Z</time>
      </trkpt>
      <trkpt lat="47.16642" lon="-0.93527">
        <ele>110</ele>
        <time>2014-11-20T15:00:51Z</time>
      </trkpt>
      <trkpt lat="47.16643" lon="-0.93533">
        <ele>110</ele>
        <time>2014-11-20T15:00:54Z</time>
      </trkpt>
      <trkpt lat="47.16643" lon="-0.93536">
        <ele>110</ele>
        <time>2014-11-20T15:00:56Z</time>
      </trkpt>
      <trkpt lat="47.16644" lon="-0.93539">
        <ele>110</ele>
        <time>2014-11-20T15:00:58Z</time>
      </trkpt>
      <trkpt lat="47.16646" lon="-0.93545">
        <ele>110</ele>
        <time>2014-11-20T15:01:01Z</time>
      </trkpt>
      <trkpt lat="47.16648" lon="-0.9355">
        <ele>110</ele>
        <time>2014-11-20T15:01:04Z</time>
      </trkpt>
      <trkpt lat="47.16649" lon="-0.93554">
        <ele>109</ele>
        <time>2014-11-20T15:01:06Z</time>
      </trkpt>
      <trkpt lat="47.1665" lon="-0.93559">
        <ele>109</ele>
        <time>2014-11-20T15:01:09Z</time>
      </trkpt>
      <trkpt lat="47.16653" lon="-0.93563">
        <ele>109</ele>
        <time>2014-11-20T15:01:12Z</time>
      </trkpt>
      <trkpt lat="47.16654" lon="-0.93568">
        <ele>109</ele>
        <time>2014-11-20T15:01:15Z</time>
      </trkpt>
      <trkpt lat="47.16655" lon="-0.93572">
        <ele>109</ele>
        <time>2014-11-20T15:01:17Z</time>
      </trkpt>
      <trkpt lat="47.16656" lon="-0.93577">
        <ele>109</ele>
        <time>2014-11-20T15:01:20Z</time>
      </trkpt>
      <trkpt lat="47.16657" lon="-0.93581">
        <ele>108</ele>
        <time>2014-11-20T15:01:22Z</time>
      </trkpt>
      <trkpt lat="47.16658" lon="-0.93586">
        <ele>108</ele>
        <time>2014-11-20T15:01:25Z</time>
      </trkpt>
      <trkpt lat="47.16658" lon="-0.9359">
        <ele>108</ele>
        <time>2014-11-20T15:01:27Z</time>
      </trkpt>
      <trkpt lat="47.16659" lon="-0.93594">
        <ele>108</ele>
        <time>2014-11-20T15:01:29Z</time>
      </trkpt>
      <trkpt lat="47.16659" lon="-0.93597">
        <ele>108</ele>
        <time>2014-11-20T15:01:31Z</time>
      </trkpt>
      <trkpt lat="47.16659" lon="-0.936">
        <ele>108</ele>
        <time>2014-11-20T15:01:33Z</time>
      </trkpt>
      <trkpt lat="47.1666" lon="-0.93606">
        <ele>108</ele>
        <time>2014-11-20T15:01:36Z</time>
      </trkpt>
      <trkpt lat="47.1666" lon="-0.9361">
        <ele>108</ele>
        <time>2014-11-20T15:01:38Z</time>
      </trkpt>
      <trkpt lat="47.16661" lon="-0.93615">
        <ele>107</ele>
        <time>2014-11-20T15:01:41Z</time>
      </trkpt>
      <trkpt lat="47.16661" lon="-0.93619">
        <ele>107</ele>
        <time>2014-11-20T15:01:43Z</time>
      </trkpt>
      <trkpt lat="47.1666" lon="-0.93624">
        <ele>107</ele>
        <time>2014-11-20T15:01:47Z</time>
      </trkpt>
      <trkpt lat="47.16659" lon="-0.93626">
        <ele>106</ele>
        <time>2014-11-20T15:01:49Z</time>
      </trkpt>
      <trkpt lat="47.16657" lon="-0.93626">
        <ele>106</ele>
        <time>2014-11-20T15:01:51Z</time>
      </trkpt>
      <trkpt lat="47.16654" lon="-0.93626">
        <ele>106</ele>
        <time>2014-11-20T15:01:53Z</time>
      </trkpt>
      <trkpt lat="47.16652" lon="-0.93625">
        <ele>105</ele>
        <time>2014-11-20T15:01:55Z</time>
      </trkpt>
      <trkpt lat="47.1665" lon="-0.93625">
        <ele>105</ele>
        <time>2014-11-20T15:01:57Z</time>
      </trkpt>
      <trkpt lat="47.16647" lon="-0.93625">
        <ele>104</ele>
        <time>2014-11-20T15:01:59Z</time>
      </trkpt>
      <trkpt lat="47.16645" lon="-0.93624">
        <ele>104</ele>
        <time>2014-11-20T15:02:01Z</time>
      </trkpt>
      <trkpt lat="47.16641" lon="-0.93624">
        <ele>104</ele>
        <time>2014-11-20T15:02:04Z</time>
      </trkpt>
      <trkpt lat="47.16638" lon="-0.93624">
        <ele>104</ele>
        <time>2014-11-20T15:02:06Z</time>
      </trkpt>
      <trkpt lat="47.16635" lon="-0.93624">
        <ele>104</ele>
        <time>2014-11-20T15:02:09Z</time>
      </trkpt>
      <trkpt lat="47.16632" lon="-0.93624">
        <ele>104</ele>
        <time>2014-11-20T15:02:11Z</time>
      </trkpt>
      <trkpt lat="47.1663" lon="-0.93624">
        <ele>104</ele>
        <time>2014-11-20T15:02:13Z</time>
      </trkpt>
      <trkpt lat="47.16627" lon="-0.93624">
        <ele>104</ele>
        <time>2014-11-20T15:02:15Z</time>
      </trkpt>
      <trkpt lat="47.16624" lon="-0.93623">
        <ele>104</ele>
        <time>2014-11-20T15:02:18Z</time>
      </trkpt>
      <trkpt lat="47.16621" lon="-0.93623">
        <ele>104</ele>
        <time>2014-11-20T15:02:20Z</time>
      </trkpt>
      <trkpt lat="47.16618" lon="-0.93622">
        <ele>103</ele>
        <time>2014-11-20T15:02:23Z</time>
      </trkpt>
      <trkpt lat="47.16615" lon="-0.93622">
        <ele>103</ele>
        <time>2014-11-20T15:02:25Z</time>
      </trkpt>
      <trkpt lat="47.16613" lon="-0.93623">
        <ele>103</ele>
        <time>2014-11-20T15:02:27Z</time>
      </trkpt>
      <trkpt lat="47.1661" lon="-0.93623">
        <ele>103</ele>
        <time>2014-11-20T15:02:29Z</time>
      </trkpt>
      <trkpt lat="47.16607" lon="-0.93623">
        <ele>103</ele>
        <time>2014-11-20T15:02:31Z</time>
      </trkpt>
      <trkpt lat="47.16603" lon="-0.93623">
        <ele>103</ele>
        <time>2014-11-20T15:02:34Z</time>
      </trkpt>
      <trkpt lat="47.16601" lon="-0.93623">
        <ele>102</ele>
        <time>2014-11-20T15:02:36Z</time>
      </trkpt>
      <trkpt lat="47.16597" lon="-0.93623">
        <ele>102</ele>
        <time>2014-11-20T15:02:39Z</time>
      </trkpt>
      <trkpt lat="47.16594" lon="-0.93623">
        <ele>102</ele>
        <time>2014-11-20T15:02:41Z</time>
      </trkpt>
      <trkpt lat="47.16591" lon="-0.93624">
        <ele>102</ele>
        <time>2014-11-20T15:02:43Z</time>
      </trkpt>
      <trkpt lat="47.16588" lon="-0.93624">
        <ele>102</ele>
        <time>2014-11-20T15:02:45Z</time>
      </trkpt>
      <trkpt lat="47.16585" lon="-0.93623">
        <ele>102</ele>
        <time>2014-11-20T15:02:47Z</time>
      </trkpt>
      <trkpt lat="47.16582" lon="-0.93624">
        <ele>102</ele>
        <time>2014-11-20T15:02:49Z</time>
      </trkpt>
      <trkpt lat="47.16579" lon="-0.93624">
        <ele>102</ele>
        <time>2014-11-20T15:02:51Z</time>
      </trkpt>
      <trkpt lat="47.16576" lon="-0.93625">
        <ele>102</ele>
        <time>2014-11-20T15:02:53Z</time>
      </trkpt>
      <trkpt lat="47.16574" lon="-0.93625">
        <ele>102</ele>
        <time>2014-11-20T15:02:55Z</time>
      </trkpt>
      <trkpt lat="47.16571" lon="-0.93626">
        <ele>102</ele>
        <time>2014-11-20T15:02:57Z</time>
      </trkpt>
      <trkpt lat="47.16568" lon="-0.93626">
        <ele>102</ele>
        <time>2014-11-20T15:02:59Z</time>
      </trkpt>
      <trkpt lat="47.16565" lon="-0.93626">
        <ele>102</ele>
        <time>2014-11-20T15:03:01Z</time>
      </trkpt>
      <trkpt lat="47.16563" lon="-0.93627">
        <ele>102</ele>
        <time>2014-11-20T15:03:03Z</time>
      </trkpt>
      <trkpt lat="47.1656" lon="-0.93627">
        <ele>102</ele>
        <time>2014-11-20T15:03:05Z</time>
      </trkpt>
      <trkpt lat="47.16557" lon="-0.93627">
        <ele>102</ele>
        <time>2014-11-20T15:03:07Z</time>
      </trkpt>
      <trkpt lat="47.16554" lon="-0.93629">
        <ele>102</ele>
        <time>2014-11-20T15:03:10Z</time>
      </trkpt>
      <trkpt lat="47.16551" lon="-0.93629">
        <ele>102</ele>
        <time>2014-11-20T15:03:13Z</time>
      </trkpt>
      <trkpt lat="47.16548" lon="-0.9363">
        <ele>102</ele>
        <time>2014-11-20T15:03:15Z</time>
      </trkpt>
      <trkpt lat="47.16545" lon="-0.93631">
        <ele>102</ele>
        <time>2014-11-20T15:03:17Z</time>
      </trkpt>
      <trkpt lat="47.16542" lon="-0.93632">
        <ele>102</ele>
        <time>2014-11-20T15:03:19Z</time>
      </trkpt>
      <trkpt lat="47.1654" lon="-0.93633">
        <ele>102</ele>
        <time>2014-11-20T15:03:21Z</time>
      </trkpt>
      <trkpt lat="47.16535" lon="-0.93634">
        <ele>102</ele>
        <time>2014-11-20T15:03:24Z</time>
      </trkpt>
      <trkpt lat="47.16533" lon="-0.93635">
        <ele>102</ele>
        <time>2014-11-20T15:03:26Z</time>
      </trkpt>
      <trkpt lat="47.16531" lon="-0.93636">
        <ele>102</ele>
        <time>2014-11-20T15:03:28Z</time>
      </trkpt>
      <trkpt lat="47.16528" lon="-0.93637">
        <ele>103</ele>
        <time>2014-11-20T15:03:30Z</time>
      </trkpt>
      <trkpt lat="47.16526" lon="-0.93638">
        <ele>103</ele>
        <time>2014-11-20T15:03:32Z</time>
      </trkpt>
      <trkpt lat="47.16523" lon="-0.93639">
        <ele>103</ele>
        <time>2014-11-20T15:03:34Z</time>
      </trkpt>
      <trkpt lat="47.16521" lon="-0.9364">
        <ele>103</ele>
        <time>2014-11-20T15:03:36Z</time>
      </trkpt>
      <trkpt lat="47.16518" lon="-0.93641">
        <ele>103</ele>
        <time>2014-11-20T15:03:38Z</time>
      </trkpt>
      <trkpt lat="47.16515" lon="-0.93642">
        <ele>103</ele>
        <time>2014-11-20T15:03:40Z</time>
      </trkpt>
      <trkpt lat="47.16513" lon="-0.93643">
        <ele>103</ele>
        <time>2014-11-20T15:03:42Z</time>
      </trkpt>
      <trkpt lat="47.16509" lon="-0.93644">
        <ele>103</ele>
        <time>2014-11-20T15:03:45Z</time>
      </trkpt>
      <trkpt lat="47.16507" lon="-0.93645">
        <ele>103</ele>
        <time>2014-11-20T15:03:47Z</time>
      </trkpt>
      <trkpt lat="47.16504" lon="-0.93646">
        <ele>103</ele>
        <time>2014-11-20T15:03:50Z</time>
      </trkpt>
      <trkpt lat="47.16501" lon="-0.93647">
        <ele>103</ele>
        <time>2014-11-20T15:03:52Z</time>
      </trkpt>
      <trkpt lat="47.16499" lon="-0.93647">
        <ele>103</ele>
        <time>2014-11-20T15:03:54Z</time>
      </trkpt>
      <trkpt lat="47.16497" lon="-0.93648">
        <ele>103</ele>
        <time>2014-11-20T15:03:56Z</time>
      </trkpt>
      <trkpt lat="47.16493" lon="-0.9365">
        <ele>103</ele>
        <time>2014-11-20T15:03:59Z</time>
      </trkpt>
      <trkpt lat="47.16491" lon="-0.93651">
        <ele>103</ele>
        <time>2014-11-20T15:04:01Z</time>
      </trkpt>
      <trkpt lat="47.16488" lon="-0.93651">
        <ele>103</ele>
        <time>2014-11-20T15:04:03Z</time>
      </trkpt>
      <trkpt lat="47.16486" lon="-0.93651">
        <ele>103</ele>
        <time>2014-11-20T15:04:05Z</time>
      </trkpt>
      <trkpt lat="47.16484" lon="-0.93652">
        <ele>103</ele>
        <time>2014-11-20T15:04:07Z</time>
      </trkpt>
      <trkpt lat="47.16481" lon="-0.93653">
        <ele>103</ele>
        <time>2014-11-20T15:04:09Z</time>
      </trkpt>
      <trkpt lat="47.16479" lon="-0.93653">
        <ele>103</ele>
        <time>2014-11-20T15:04:11Z</time>
      </trkpt>
      <trkpt lat="47.16476" lon="-0.93653">
        <ele>102</ele>
        <time>2014-11-20T15:04:13Z</time>
      </trkpt>
      <trkpt lat="47.16473" lon="-0.93654">
        <ele>102</ele>
        <time>2014-11-20T15:04:16Z</time>
      </trkpt>
      <trkpt lat="47.16471" lon="-0.93654">
        <ele>102</ele>
        <time>2014-11-20T15:04:18Z</time>
      </trkpt>
      <trkpt lat="47.16467" lon="-0.93655">
        <ele>101</ele>
        <time>2014-11-20T15:04:21Z</time>
      </trkpt>
      <trkpt lat="47.16464" lon="-0.93656">
        <ele>101</ele>
        <time>2014-11-20T15:04:23Z</time>
      </trkpt>
      <trkpt lat="47.16462" lon="-0.93657">
        <ele>101</ele>
        <time>2014-11-20T15:04:25Z</time>
      </trkpt>
      <trkpt lat="47.16459" lon="-0.93657">
        <ele>101</ele>
        <time>2014-11-20T15:04:27Z</time>
      </trkpt>
      <trkpt lat="47.16456" lon="-0.93657">
        <ele>101</ele>
        <time>2014-11-20T15:04:29Z</time>
      </trkpt>
      <trkpt lat="47.16454" lon="-0.93658">
        <ele>101</ele>
        <time>2014-11-20T15:04:31Z</time>
      </trkpt>
      <trkpt lat="47.16451" lon="-0.93659">
        <ele>101</ele>
        <time>2014-11-20T15:04:33Z</time>
      </trkpt>
      <trkpt lat="47.16449" lon="-0.93659">
        <ele>100</ele>
        <time>2014-11-20T15:04:35Z</time>
      </trkpt>
      <trkpt lat="47.16446" lon="-0.93659">
        <ele>100</ele>
        <time>2014-11-20T15:04:37Z</time>
      </trkpt>
      <trkpt lat="47.16444" lon="-0.93658">
        <ele>99</ele>
        <time>2014-11-20T15:04:39Z</time>
      </trkpt>
      <trkpt lat="47.16441" lon="-0.93658">
        <ele>99</ele>
        <time>2014-11-20T15:04:41Z</time>
      </trkpt>
      <trkpt lat="47.16439" lon="-0.93657">
        <ele>99</ele>
        <time>2014-11-20T15:04:43Z</time>
      </trkpt>
      <trkpt lat="47.16436" lon="-0.93656">
        <ele>98</ele>
        <time>2014-11-20T15:04:45Z</time>
      </trkpt>
      <trkpt lat="47.16434" lon="-0.93656">
        <ele>98</ele>
        <time>2014-11-20T15:04:47Z</time>
      </trkpt>
      <trkpt lat="47.16431" lon="-0.93655">
        <ele>97</ele>
        <time>2014-11-20T15:04:49Z</time>
      </trkpt>
      <trkpt lat="47.16429" lon="-0.93654">
        <ele>97</ele>
        <time>2014-11-20T15:04:51Z</time>
      </trkpt>
      <trkpt lat="47.16426" lon="-0.93654">
        <ele>97</ele>
        <time>2014-11-20T15:04:53Z</time>
      </trkpt>
      <trkpt lat="47.16424" lon="-0.93654">
        <ele>97</ele>
        <time>2014-11-20T15:04:55Z</time>
      </trkpt>
      <trkpt lat="47.16421" lon="-0.93654">
        <ele>96</ele>
        <time>2014-11-20T15:04:58Z</time>
      </trkpt>
      <trkpt lat="47.16418" lon="-0.93654">
        <ele>96</ele>
        <time>2014-11-20T15:05:00Z</time>
      </trkpt>
      <trkpt lat="47.16416" lon="-0.93655">
        <ele>96</ele>
        <time>2014-11-20T15:05:02Z</time>
      </trkpt>
      <trkpt lat="47.16414" lon="-0.93654">
        <ele>96</ele>
        <time>2014-11-20T15:05:04Z</time>
      </trkpt>
      <trkpt lat="47.1641" lon="-0.93654">
        <ele>96</ele>
        <time>2014-11-20T15:05:06Z</time>
      </trkpt>
      <trkpt lat="47.16407" lon="-0.93655">
        <ele>96</ele>
        <time>2014-11-20T15:05:08Z</time>
      </trkpt>
      <trkpt lat="47.16405" lon="-0.93656">
        <ele>96</ele>
        <time>2014-11-20T15:05:10Z</time>
      </trkpt>
      <trkpt lat="47.16402" lon="-0.93656">
        <ele>96</ele>
        <time>2014-11-20T15:05:13Z</time>
      </trkpt>
      <trkpt lat="47.164" lon="-0.93655">
        <ele>96</ele>
        <time>2014-11-20T15:05:15Z</time>
      </trkpt>
      <trkpt lat="47.16397" lon="-0.93655">
        <ele>96</ele>
        <time>2014-11-20T15:05:17Z</time>
      </trkpt>
      <trkpt lat="47.16395" lon="-0.93655">
        <ele>96</ele>
        <time>2014-11-20T15:05:19Z</time>
      </trkpt>
      <trkpt lat="47.16392" lon="-0.93655">
        <ele>96</ele>
        <time>2014-11-20T15:05:21Z</time>
      </trkpt>
      <trkpt lat="47.1639" lon="-0.93655">
        <ele>96</ele>
        <time>2014-11-20T15:05:23Z</time>
      </trkpt>
      <trkpt lat="47.16387" lon="-0.93656">
        <ele>96</ele>
        <time>2014-11-20T15:05:25Z</time>
      </trkpt>
      <trkpt lat="47.16385" lon="-0.93656">
        <ele>96</ele>
        <time>2014-11-20T15:05:27Z</time>
      </trkpt>
      <trkpt lat="47.16382" lon="-0.93656">
        <ele>96</ele>
        <time>2014-11-20T15:05:29Z</time>
      </trkpt>
      <trkpt lat="47.16379" lon="-0.93656">
        <ele>96</ele>
        <time>2014-11-20T15:05:31Z</time>
      </trkpt>
      <trkpt lat="47.16376" lon="-0.93656">
        <ele>96</ele>
        <time>2014-11-20T15:05:33Z</time>
      </trkpt>
      <trkpt lat="47.16374" lon="-0.93657">
        <ele>96</ele>
        <time>2014-11-20T15:05:35Z</time>
      </trkpt>
      <trkpt lat="47.16371" lon="-0.93657">
        <ele>96</ele>
        <time>2014-11-20T15:05:38Z</time>
      </trkpt>
      <trkpt lat="47.16368" lon="-0.93657">
        <ele>96</ele>
        <time>2014-11-20T15:05:40Z</time>
      </trkpt>
      <trkpt lat="47.16366" lon="-0.93657">
        <ele>96</ele>
        <time>2014-11-20T15:05:42Z</time>
      </trkpt>
      <trkpt lat="47.16362" lon="-0.93659">
        <ele>96</ele>
        <time>2014-11-20T15:05:45Z</time>
      </trkpt>
      <trkpt lat="47.1636" lon="-0.93659">
        <ele>96</ele>
        <time>2014-11-20T15:05:47Z</time>
      </trkpt>
      <trkpt lat="47.16358" lon="-0.93658">
        <ele>96</ele>
        <time>2014-11-20T15:05:49Z</time>
      </trkpt>
      <trkpt lat="47.16355" lon="-0.93658">
        <ele>96</ele>
        <time>2014-11-20T15:05:51Z</time>
      </trkpt>
      <trkpt lat="47.16353" lon="-0.93659">
        <ele>96</ele>
        <time>2014-11-20T15:05:53Z</time>
      </trkpt>
      <trkpt lat="47.16351" lon="-0.93658">
        <ele>96</ele>
        <time>2014-11-20T15:05:55Z</time>
      </trkpt>
      <trkpt lat="47.16349" lon="-0.93658">
        <ele>96</ele>
        <time>2014-11-20T15:05:57Z</time>
      </trkpt>
      <trkpt lat="47.16346" lon="-0.93659">
        <ele>96</ele>
        <time>2014-11-20T15:06:00Z</time>
      </trkpt>
      <trkpt lat="47.16344" lon="-0.93659">
        <ele>96</ele>
        <time>2014-11-20T15:06:02Z</time>
      </trkpt>
      <trkpt lat="47.16341" lon="-0.93659">
        <ele>96</ele>
        <time>2014-11-20T15:06:05Z</time>
      </trkpt>
      <trkpt lat="47.16339" lon="-0.93659">
        <ele>96</ele>
        <time>2014-11-20T15:06:07Z</time>
      </trkpt>
      <trkpt lat="47.16336" lon="-0.93659">
        <ele>96</ele>
        <time>2014-11-20T15:06:09Z</time>
      </trkpt>
      <trkpt lat="47.16333" lon="-0.9366">
        <ele>96</ele>
        <time>2014-11-20T15:06:11Z</time>
      </trkpt>
      <trkpt lat="47.1633" lon="-0.93661">
        <ele>96</ele>
        <time>2014-11-20T15:06:13Z</time>
      </trkpt>
      <trkpt lat="47.16328" lon="-0.93661">
        <ele>96</ele>
        <time>2014-11-20T15:06:15Z</time>
      </trkpt>
      <trkpt lat="47.16325" lon="-0.93662">
        <ele>96</ele>
        <time>2014-11-20T15:06:18Z</time>
      </trkpt>
      <trkpt lat="47.16322" lon="-0.93662">
        <ele>96</ele>
        <time>2014-11-20T15:06:20Z</time>
      </trkpt>
      <trkpt lat="47.16319" lon="-0.93661">
        <ele>96</ele>
        <time>2014-11-20T15:06:23Z</time>
      </trkpt>
      <trkpt lat="47.16317" lon="-0.93661">
        <ele>96</ele>
        <time>2014-11-20T15:06:25Z</time>
      </trkpt>
      <trkpt lat="47.16315" lon="-0.93662">
        <ele>96</ele>
        <time>2014-11-20T15:06:27Z</time>
      </trkpt>
      <trkpt lat="47.16312" lon="-0.93663">
        <ele>96</ele>
        <time>2014-11-20T15:06:29Z</time>
      </trkpt>
      <trkpt lat="47.16309" lon="-0.93663">
        <ele>96</ele>
        <time>2014-11-20T15:06:31Z</time>
      </trkpt>
      <trkpt lat="47.16307" lon="-0.93663">
        <ele>96</ele>
        <time>2014-11-20T15:06:33Z</time>
      </trkpt>
      <trkpt lat="47.16304" lon="-0.93663">
        <ele>96</ele>
        <time>2014-11-20T15:06:36Z</time>
      </trkpt>
      <trkpt lat="47.16301" lon="-0.93663">
        <ele>96</ele>
        <time>2014-11-20T15:06:38Z</time>
      </trkpt>
      <trkpt lat="47.16299" lon="-0.93662">
        <ele>96</ele>
        <time>2014-11-20T15:06:40Z</time>
      </trkpt>
      <trkpt lat="47.16296" lon="-0.93661">
        <ele>96</ele>
        <time>2014-11-20T15:06:42Z</time>
      </trkpt>
      <trkpt lat="47.16293" lon="-0.9366">
        <ele>96</ele>
        <time>2014-11-20T15:06:45Z</time>
      </trkpt>
      <trkpt lat="47.1629" lon="-0.93659">
        <ele>96</ele>
        <time>2014-11-20T15:06:48Z</time>
      </trkpt>
      <trkpt lat="47.16288" lon="-0.93658">
        <ele>96</ele>
        <time>2014-11-20T15:06:50Z</time>
      </trkpt>
      <trkpt lat="47.16285" lon="-0.93658">
        <ele>96</ele>
        <time>2014-11-20T15:06:52Z</time>
      </trkpt>
      <trkpt lat="47.16282" lon="-0.93656">
        <ele>96</ele>
        <time>2014-11-20T15:06:55Z</time>
      </trkpt>
      <trkpt lat="47.16279" lon="-0.93655">
        <ele>96</ele>
        <time>2014-11-20T15:06:57Z</time>
      </trkpt>
      <trkpt lat="47.16277" lon="-0.93654">
        <ele>96</ele>
        <time>2014-11-20T15:06:59Z</time>
      </trkpt>
      <trkpt lat="47.16274" lon="-0.93653">
        <ele>96</ele>
        <time>2014-11-20T15:07:01Z</time>
      </trkpt>
      <trkpt lat="47.16271" lon="-0.93652">
        <ele>96</ele>
        <time>2014-11-20T15:07:04Z</time>
      </trkpt>
      <trkpt lat="47.16268" lon="-0.93651">
        <ele>96</ele>
        <time>2014-11-20T15:07:06Z</time>
      </trkpt>
      <trkpt lat="47.16265" lon="-0.9365">
        <ele>96</ele>
        <time>2014-11-20T15:07:09Z</time>
      </trkpt>
      <trkpt lat="47.16263" lon="-0.93649">
        <ele>96</ele>
        <time>2014-11-20T15:07:11Z</time>
      </trkpt>
      <trkpt lat="47.1626" lon="-0.93648">
        <ele>96</ele>
        <time>2014-11-20T15:07:13Z</time>
      </trkpt>
      <trkpt lat="47.16258" lon="-0.93647">
        <ele>96</ele>
        <time>2014-11-20T15:07:15Z</time>
      </trkpt>
      <trkpt lat="47.16256" lon="-0.93647">
        <ele>96</ele>
        <time>2014-11-20T15:07:17Z</time>
      </trkpt>
      <trkpt lat="47.16253" lon="-0.93646">
        <ele>96</ele>
        <time>2014-11-20T15:07:19Z</time>
      </trkpt>
      <trkpt lat="47.16251" lon="-0.93644">
        <ele>96</ele>
        <time>2014-11-20T15:07:21Z</time>
      </trkpt>
      <trkpt lat="47.16249" lon="-0.93643">
        <ele>95</ele>
        <time>2014-11-20T15:07:23Z</time>
      </trkpt>
      <trkpt lat="47.16245" lon="-0.93642">
        <ele>95</ele>
        <time>2014-11-20T15:07:26Z</time>
      </trkpt>
      <trkpt lat="47.16243" lon="-0.93641">
        <ele>95</ele>
        <time>2014-11-20T15:07:28Z</time>
      </trkpt>
      <trkpt lat="47.16241" lon="-0.93639">
        <ele>95</ele>
        <time>2014-11-20T15:07:30Z</time>
      </trkpt>
      <trkpt lat="47.16238" lon="-0.93638">
        <ele>94</ele>
        <time>2014-11-20T15:07:33Z</time>
      </trkpt>
      <trkpt lat="47.16235" lon="-0.93637">
        <ele>94</ele>
        <time>2014-11-20T15:07:35Z</time>
      </trkpt>
      <trkpt lat="47.16233" lon="-0.93636">
        <ele>94</ele>
        <time>2014-11-20T15:07:37Z</time>
      </trkpt>
      <trkpt lat="47.16231" lon="-0.93635">
        <ele>93</ele>
        <time>2014-11-20T15:07:39Z</time>
      </trkpt>
      <trkpt lat="47.16228" lon="-0.93633">
        <ele>93</ele>
        <time>2014-11-20T15:07:41Z</time>
      </trkpt>
      <trkpt lat="47.16225" lon="-0.93632">
        <ele>93</ele>
        <time>2014-11-20T15:07:44Z</time>
      </trkpt>
      <trkpt lat="47.16223" lon="-0.93631">
        <ele>93</ele>
        <time>2014-11-20T15:07:46Z</time>
      </trkpt>
      <trkpt lat="47.1622" lon="-0.9363">
        <ele>93</ele>
        <time>2014-11-20T15:07:48Z</time>
      </trkpt>
      <trkpt lat="47.16218" lon="-0.93629">
        <ele>93</ele>
        <time>2014-11-20T15:07:50Z</time>
      </trkpt>
      <trkpt lat="47.16216" lon="-0.93629">
        <ele>93</ele>
        <time>2014-11-20T15:07:52Z</time>
      </trkpt>
      <trkpt lat="47.16213" lon="-0.93628">
        <ele>93</ele>
        <time>2014-11-20T15:07:54Z</time>
      </trkpt>
      <trkpt lat="47.16211" lon="-0.93627">
        <ele>93</ele>
        <time>2014-11-20T15:07:56Z</time>
      </trkpt>
      <trkpt lat="47.16209" lon="-0.93625">
        <ele>92</ele>
        <time>2014-11-20T15:07:58Z</time>
      </trkpt>
      <trkpt lat="47.16206" lon="-0.93625">
        <ele>92</ele>
        <time>2014-11-20T15:08:00Z</time>
      </trkpt>
      <trkpt lat="47.16204" lon="-0.93624">
        <ele>92</ele>
        <time>2014-11-20T15:08:02Z</time>
      </trkpt>
      <trkpt lat="47.16201" lon="-0.93623">
        <ele>92</ele>
        <time>2014-11-20T15:08:04Z</time>
      </trkpt>
      <trkpt lat="47.16199" lon="-0.93622">
        <ele>92</ele>
        <time>2014-11-20T15:08:06Z</time>
      </trkpt>
      <trkpt lat="47.16196" lon="-0.93621">
        <ele>92</ele>
        <time>2014-11-20T15:08:08Z</time>
      </trkpt>
      <trkpt lat="47.16193" lon="-0.93621">
        <ele>92</ele>
        <time>2014-11-20T15:08:10Z</time>
      </trkpt>
      <trkpt lat="47.16191" lon="-0.9362">
        <ele>92</ele>
        <time>2014-11-20T15:08:12Z</time>
      </trkpt>
      <trkpt lat="47.16188" lon="-0.93619">
        <ele>92</ele>
        <time>2014-11-20T15:08:14Z</time>
      </trkpt>
      <trkpt lat="47.16186" lon="-0.93619">
        <ele>92</ele>
        <time>2014-11-20T15:08:16Z</time>
      </trkpt>
      <trkpt lat="47.16184" lon="-0.93618">
        <ele>92</ele>
        <time>2014-11-20T15:08:18Z</time>
      </trkpt>
      <trkpt lat="47.16181" lon="-0.93617">
        <ele>92</ele>
        <time>2014-11-20T15:08:20Z</time>
      </trkpt>
      <trkpt lat="47.16179" lon="-0.93616">
        <ele>92</ele>
        <time>2014-11-20T15:08:22Z</time>
      </trkpt>
      <trkpt lat="47.16176" lon="-0.93616">
        <ele>92</ele>
        <time>2014-11-20T15:08:25Z</time>
      </trkpt>
      <trkpt lat="47.16174" lon="-0.93615">
        <ele>92</ele>
        <time>2014-11-20T15:08:27Z</time>
      </trkpt>
      <trkpt lat="47.16171" lon="-0.93615">
        <ele>92</ele>
        <time>2014-11-20T15:08:29Z</time>
      </trkpt>
      <trkpt lat="47.16169" lon="-0.93614">
        <ele>92</ele>
        <time>2014-11-20T15:08:31Z</time>
      </trkpt>
      <trkpt lat="47.16167" lon="-0.93613">
        <ele>92</ele>
        <time>2014-11-20T15:08:33Z</time>
      </trkpt>
      <trkpt lat="47.16164" lon="-0.93613">
        <ele>91</ele>
        <time>2014-11-20T15:08:35Z</time>
      </trkpt>
      <trkpt lat="47.16162" lon="-0.93612">
        <ele>91</ele>
        <time>2014-11-20T15:08:37Z</time>
      </trkpt>
      <trkpt lat="47.1616" lon="-0.93612">
        <ele>91</ele>
        <time>2014-11-20T15:08:39Z</time>
      </trkpt>
      <trkpt lat="47.16158" lon="-0.93612">
        <ele>91</ele>
        <time>2014-11-20T15:08:41Z</time>
      </trkpt>
      <trkpt lat="47.16155" lon="-0.93612">
        <ele>91</ele>
        <time>2014-11-20T15:08:43Z</time>
      </trkpt>
      <trkpt lat="47.16151" lon="-0.93612">
        <ele>91</ele>
        <time>2014-11-20T15:08:45Z</time>
      </trkpt>
      <trkpt lat="47.16149" lon="-0.93612">
        <ele>91</ele>
        <time>2014-11-20T15:08:47Z</time>
      </trkpt>
      <trkpt lat="47.16146" lon="-0.93612">
        <ele>91</ele>
        <time>2014-11-20T15:08:49Z</time>
      </trkpt>
      <trkpt lat="47.16144" lon="-0.93612">
        <ele>91</ele>
        <time>2014-11-20T15:08:51Z</time>
      </trkpt>
      <trkpt lat="47.16141" lon="-0.93612">
        <ele>91</ele>
        <time>2014-11-20T15:08:53Z</time>
      </trkpt>
      <trkpt lat="47.16139" lon="-0.93612">
        <ele>91</ele>
        <time>2014-11-20T15:08:55Z</time>
      </trkpt>
      <trkpt lat="47.16136" lon="-0.93612">
        <ele>91</ele>
        <time>2014-11-20T15:08:57Z</time>
      </trkpt>
      <trkpt lat="47.16134" lon="-0.93611">
        <ele>91</ele>
        <time>2014-11-20T15:08:59Z</time>
      </trkpt>
      <trkpt lat="47.1613" lon="-0.93611">
        <ele>91</ele>
        <time>2014-11-20T15:09:01Z</time>
      </trkpt>
      <trkpt lat="47.16128" lon="-0.93611">
        <ele>91</ele>
        <time>2014-11-20T15:09:03Z</time>
      </trkpt>
      <trkpt lat="47.16125" lon="-0.9361">
        <ele>91</ele>
        <time>2014-11-20T15:09:05Z</time>
      </trkpt>
      <trkpt lat="47.16123" lon="-0.9361">
        <ele>91</ele>
        <time>2014-11-20T15:09:07Z</time>
      </trkpt>
      <trkpt lat="47.1612" lon="-0.93611">
        <ele>91</ele>
        <time>2014-11-20T15:09:09Z</time>
      </trkpt>
      <trkpt lat="47.16118" lon="-0.93611">
        <ele>91</ele>
        <time>2014-11-20T15:09:11Z</time>
      </trkpt>
      <trkpt lat="47.16115" lon="-0.9361">
        <ele>91</ele>
        <time>2014-11-20T15:09:13Z</time>
      </trkpt>
      <trkpt lat="47.16112" lon="-0.93611">
        <ele>91</ele>
        <time>2014-11-20T15:09:15Z</time>
      </trkpt>
      <trkpt lat="47.16109" lon="-0.93611">
        <ele>91</ele>
        <time>2014-11-20T15:09:17Z</time>
      </trkpt>
      <trkpt lat="47.16107" lon="-0.93611">
        <ele>91</ele>
        <time>2014-11-20T15:09:19Z</time>
      </trkpt>
      <trkpt lat="47.16104" lon="-0.93612">
        <ele>91</ele>
        <time>2014-11-20T15:09:21Z</time>
      </trkpt>
      <trkpt lat="47.16101" lon="-0.93612">
        <ele>91</ele>
        <time>2014-11-20T15:09:23Z</time>
      </trkpt>
      <trkpt lat="47.16098" lon="-0.93613">
        <ele>91</ele>
        <time>2014-11-20T15:09:25Z</time>
      </trkpt>
      <trkpt lat="47.16096" lon="-0.93614">
        <ele>91</ele>
        <time>2014-11-20T15:09:27Z</time>
      </trkpt>
      <trkpt lat="47.16093" lon="-0.93615">
        <ele>92</ele>
        <time>2014-11-20T15:09:29Z</time>
      </trkpt>
      <trkpt lat="47.1609" lon="-0.93615">
        <ele>92</ele>
        <time>2014-11-20T15:09:31Z</time>
      </trkpt>
      <trkpt lat="47.16088" lon="-0.93615">
        <ele>92</ele>
        <time>2014-11-20T15:09:33Z</time>
      </trkpt>
      <trkpt lat="47.16085" lon="-0.93616">
        <ele>92</ele>
        <time>2014-11-20T15:09:35Z</time>
      </trkpt>
      <trkpt lat="47.16083" lon="-0.93616">
        <ele>92</ele>
        <time>2014-11-20T15:09:37Z</time>
      </trkpt>
      <trkpt lat="47.1608" lon="-0.93617">
        <ele>92</ele>
        <time>2014-11-20T15:09:39Z</time>
      </trkpt>
      <trkpt lat="47.16077" lon="-0.93618">
        <ele>92</ele>
        <time>2014-11-20T15:09:41Z</time>
      </trkpt>
      <trkpt lat="47.16075" lon="-0.93619">
        <ele>93</ele>
        <time>2014-11-20T15:09:43Z</time>
      </trkpt>
      <trkpt lat="47.16072" lon="-0.9362">
        <ele>93</ele>
        <time>2014-11-20T15:09:45Z</time>
      </trkpt>
      <trkpt lat="47.1607" lon="-0.93619">
        <ele>93</ele>
        <time>2014-11-20T15:09:47Z</time>
      </trkpt>
      <trkpt lat="47.16067" lon="-0.93617">
        <ele>93</ele>
        <time>2014-11-20T15:09:49Z</time>
      </trkpt>
      <trkpt lat="47.16065" lon="-0.93618">
        <ele>93</ele>
        <time>2014-11-20T15:09:51Z</time>
      </trkpt>
      <trkpt lat="47.16062" lon="-0.93618">
        <ele>93</ele>
        <time>2014-11-20T15:09:53Z</time>
      </trkpt>
      <trkpt lat="47.16059" lon="-0.93619">
        <ele>93</ele>
        <time>2014-11-20T15:09:55Z</time>
      </trkpt>
      <trkpt lat="47.16056" lon="-0.9362">
        <ele>93</ele>
        <time>2014-11-20T15:09:58Z</time>
      </trkpt>
      <trkpt lat="47.16054" lon="-0.93621">
        <ele>93</ele>
        <time>2014-11-20T15:10:00Z</time>
      </trkpt>
      <trkpt lat="47.16051" lon="-0.93621">
        <ele>93</ele>
        <time>2014-11-20T15:10:02Z</time>
      </trkpt>
      <trkpt lat="47.16049" lon="-0.93623">
        <ele>93</ele>
        <time>2014-11-20T15:10:04Z</time>
      </trkpt>
      <trkpt lat="47.16046" lon="-0.93623">
        <ele>93</ele>
        <time>2014-11-20T15:10:07Z</time>
      </trkpt>
      <trkpt lat="47.16043" lon="-0.93622">
        <ele>93</ele>
        <time>2014-11-20T15:10:09Z</time>
      </trkpt>
      <trkpt lat="47.1604" lon="-0.93623">
        <ele>93</ele>
        <time>2014-11-20T15:10:12Z</time>
      </trkpt>
      <trkpt lat="47.16038" lon="-0.93624">
        <ele>93</ele>
        <time>2014-11-20T15:10:14Z</time>
      </trkpt>
      <trkpt lat="47.16036" lon="-0.93624">
        <ele>93</ele>
        <time>2014-11-20T15:10:16Z</time>
      </trkpt>
      <trkpt lat="47.16034" lon="-0.93625">
        <ele>93</ele>
        <time>2014-11-20T15:10:18Z</time>
      </trkpt>
      <trkpt lat="47.1603" lon="-0.93626">
        <ele>92</ele>
        <time>2014-11-20T15:10:20Z</time>
      </trkpt>
      <trkpt lat="47.16028" lon="-0.93627">
        <ele>92</ele>
        <time>2014-11-20T15:10:22Z</time>
      </trkpt>
      <trkpt lat="47.16024" lon="-0.93627">
        <ele>92</ele>
        <time>2014-11-20T15:10:25Z</time>
      </trkpt>
      <trkpt lat="47.16022" lon="-0.93628">
        <ele>92</ele>
        <time>2014-11-20T15:10:27Z</time>
      </trkpt>
      <trkpt lat="47.16018" lon="-0.93629">
        <ele>92</ele>
        <time>2014-11-20T15:10:30Z</time>
      </trkpt>
      <trkpt lat="47.16015" lon="-0.9363">
        <ele>92</ele>
        <time>2014-11-20T15:10:32Z</time>
      </trkpt>
      <trkpt lat="47.16012" lon="-0.93629">
        <ele>92</ele>
        <time>2014-11-20T15:10:34Z</time>
      </trkpt>
      <trkpt lat="47.16009" lon="-0.9363">
        <ele>92</ele>
        <time>2014-11-20T15:10:36Z</time>
      </trkpt>
      <trkpt lat="47.16006" lon="-0.93629">
        <ele>92</ele>
        <time>2014-11-20T15:10:38Z</time>
      </trkpt>
      <trkpt lat="47.16004" lon="-0.93629">
        <ele>92</ele>
        <time>2014-11-20T15:10:40Z</time>
      </trkpt>
      <trkpt lat="47.16002" lon="-0.93629">
        <ele>92</ele>
        <time>2014-11-20T15:10:42Z</time>
      </trkpt>
      <trkpt lat="47.15999" lon="-0.9363">
        <ele>92</ele>
        <time>2014-11-20T15:10:44Z</time>
      </trkpt>
      <trkpt lat="47.15995" lon="-0.93629">
        <ele>92</ele>
        <time>2014-11-20T15:10:47Z</time>
      </trkpt>
      <trkpt lat="47.15993" lon="-0.93631">
        <ele>92</ele>
        <time>2014-11-20T15:10:49Z</time>
      </trkpt>
      <trkpt lat="47.1599" lon="-0.93632">
        <ele>92</ele>
        <time>2014-11-20T15:10:51Z</time>
      </trkpt>
      <trkpt lat="47.15988" lon="-0.93633">
        <ele>92</ele>
        <time>2014-11-20T15:10:53Z</time>
      </trkpt>
      <trkpt lat="47.15986" lon="-0.93634">
        <ele>92</ele>
        <time>2014-11-20T15:10:55Z</time>
      </trkpt>
      <trkpt lat="47.15984" lon="-0.93634">
        <ele>92</ele>
        <time>2014-11-20T15:10:57Z</time>
      </trkpt>
      <trkpt lat="47.15981" lon="-0.93635">
        <ele>92</ele>
        <time>2014-11-20T15:10:59Z</time>
      </trkpt>
      <trkpt lat="47.15977" lon="-0.93636">
        <ele>92</ele>
        <time>2014-11-20T15:11:01Z</time>
      </trkpt>
      <trkpt lat="47.15974" lon="-0.93636">
        <ele>91</ele>
        <time>2014-11-20T15:11:03Z</time>
      </trkpt>
      <trkpt lat="47.15971" lon="-0.93636">
        <ele>91</ele>
        <time>2014-11-20T15:11:06Z</time>
      </trkpt>
      <trkpt lat="47.15968" lon="-0.93637">
        <ele>91</ele>
        <time>2014-11-20T15:11:08Z</time>
      </trkpt>
      <trkpt lat="47.15965" lon="-0.93637">
        <ele>91</ele>
        <time>2014-11-20T15:11:10Z</time>
      </trkpt>
      <trkpt lat="47.15962" lon="-0.93638">
        <ele>90</ele>
        <time>2014-11-20T15:11:12Z</time>
      </trkpt>
      <trkpt lat="47.1596" lon="-0.93638">
        <ele>90</ele>
        <time>2014-11-20T15:11:14Z</time>
      </trkpt>
      <trkpt lat="47.15957" lon="-0.93638">
        <ele>90</ele>
        <time>2014-11-20T15:11:16Z</time>
      </trkpt>
      <trkpt lat="47.15955" lon="-0.93639">
        <ele>89</ele>
        <time>2014-11-20T15:11:18Z</time>
      </trkpt>
      <trkpt lat="47.15953" lon="-0.93639">
        <ele>89</ele>
        <time>2014-11-20T15:11:20Z</time>
      </trkpt>
      <trkpt lat="47.15949" lon="-0.9364">
        <ele>89</ele>
        <time>2014-11-20T15:11:23Z</time>
      </trkpt>
      <trkpt lat="47.15947" lon="-0.93641">
        <ele>88</ele>
        <time>2014-11-20T15:11:25Z</time>
      </trkpt>
      <trkpt lat="47.15944" lon="-0.93641">
        <ele>88</ele>
        <time>2014-11-20T15:11:28Z</time>
      </trkpt>
      <trkpt lat="47.15942" lon="-0.93642">
        <ele>88</ele>
        <time>2014-11-20T15:11:30Z</time>
      </trkpt>
      <trkpt lat="47.15939" lon="-0.93643">
        <ele>88</ele>
        <time>2014-11-20T15:11:32Z</time>
      </trkpt>
      <trkpt lat="47.15937" lon="-0.93644">
        <ele>88</ele>
        <time>2014-11-20T15:11:34Z</time>
      </trkpt>
      <trkpt lat="47.15935" lon="-0.93645">
        <ele>88</ele>
        <time>2014-11-20T15:11:36Z</time>
      </trkpt>
      <trkpt lat="47.15932" lon="-0.93645">
        <ele>88</ele>
        <time>2014-11-20T15:11:38Z</time>
      </trkpt>
      <trkpt lat="47.1593" lon="-0.93646">
        <ele>88</ele>
        <time>2014-11-20T15:11:40Z</time>
      </trkpt>
      <trkpt lat="47.15928" lon="-0.93646">
        <ele>88</ele>
        <time>2014-11-20T15:11:42Z</time>
      </trkpt>
      <trkpt lat="47.15926" lon="-0.93646">
        <ele>88</ele>
        <time>2014-11-20T15:11:44Z</time>
      </trkpt>
      <trkpt lat="47.15925" lon="-0.93646">
        <ele>87</ele>
        <time>2014-11-20T15:11:47Z</time>
      </trkpt>
      <trkpt lat="47.15923" lon="-0.93647">
        <ele>85</ele>
        <time>2014-11-20T15:11:50Z</time>
      </trkpt>
      <trkpt lat="47.15922" lon="-0.93648">
        <ele>84</ele>
        <time>2014-11-20T15:11:53Z</time>
      </trkpt>
      <trkpt lat="47.15921" lon="-0.93648">
        <ele>84</ele>
        <time>2014-11-20T15:11:55Z</time>
      </trkpt>
      <trkpt lat="47.15919" lon="-0.9365">
        <ele>84</ele>
        <time>2014-11-20T15:11:57Z</time>
      </trkpt>
      <trkpt lat="47.15918" lon="-0.93649">
        <ele>84</ele>
        <time>2014-11-20T15:11:59Z</time>
      </trkpt>
      <trkpt lat="47.15916" lon="-0.9365">
        <ele>83</ele>
        <time>2014-11-20T15:12:01Z</time>
      </trkpt>
      <trkpt lat="47.15914" lon="-0.9365">
        <ele>82</ele>
        <time>2014-11-20T15:12:03Z</time>
      </trkpt>
      <trkpt lat="47.15911" lon="-0.9365">
        <ele>82</ele>
        <time>2014-11-20T15:12:06Z</time>
      </trkpt>
      <trkpt lat="47.15909" lon="-0.9365">
        <ele>81</ele>
        <time>2014-11-20T15:12:08Z</time>
      </trkpt>
      <trkpt lat="47.15907" lon="-0.9365">
        <ele>80</ele>
        <time>2014-11-20T15:12:10Z</time>
      </trkpt>
      <trkpt lat="47.15904" lon="-0.9365">
        <ele>79</ele>
        <time>2014-11-20T15:12:12Z</time>
      </trkpt>
      <trkpt lat="47.15902" lon="-0.93651">
        <ele>79</ele>
        <time>2014-11-20T15:12:14Z</time>
      </trkpt>
      <trkpt lat="47.15901" lon="-0.93652">
        <ele>77</ele>
        <time>2014-11-20T15:12:16Z</time>
      </trkpt>
      <trkpt lat="47.15899" lon="-0.93653">
        <ele>76</ele>
        <time>2014-11-20T15:12:18Z</time>
      </trkpt>
      <trkpt lat="47.15896" lon="-0.93654">
        <ele>75</ele>
        <time>2014-11-20T15:12:20Z</time>
      </trkpt>
      <trkpt lat="47.15894" lon="-0.93656">
        <ele>74</ele>
        <time>2014-11-20T15:12:22Z</time>
      </trkpt>
      <trkpt lat="47.15892" lon="-0.93656">
        <ele>74</ele>
        <time>2014-11-20T15:12:24Z</time>
      </trkpt>
      <trkpt lat="47.15891" lon="-0.93656">
        <ele>74</ele>
        <time>2014-11-20T15:12:26Z</time>
      </trkpt>
      <trkpt lat="47.15887" lon="-0.93655">
        <ele>74</ele>
        <time>2014-11-20T15:12:29Z</time>
      </trkpt>
      <trkpt lat="47.15885" lon="-0.93655">
        <ele>74</ele>
        <time>2014-11-20T15:12:31Z</time>
      </trkpt>
      <trkpt lat="47.15884" lon="-0.93655">
        <ele>74</ele>
        <time>2014-11-20T15:12:33Z</time>
      </trkpt>
      <trkpt lat="47.15882" lon="-0.93655">
        <ele>72</ele>
        <time>2014-11-20T15:12:35Z</time>
      </trkpt>
      <trkpt lat="47.15881" lon="-0.93656">
        <ele>72</ele>
        <time>2014-11-20T15:12:37Z</time>
      </trkpt>
      <trkpt lat="47.1588" lon="-0.93656">
        <ele>72</ele>
        <time>2014-11-20T15:12:40Z</time>
      </trkpt>
      <trkpt lat="47.15879" lon="-0.93656">
        <ele>71</ele>
        <time>2014-11-20T15:12:43Z</time>
      </trkpt>
      <trkpt lat="47.15875" lon="-0.93657">
        <ele>71</ele>
        <time>2014-11-20T15:12:46Z</time>
      </trkpt>
      <trkpt lat="47.15873" lon="-0.93657">
        <ele>71</ele>
        <time>2014-11-20T15:12:48Z</time>
      </trkpt>
      <trkpt lat="47.15871" lon="-0.93658">
        <ele>71</ele>
        <time>2014-11-20T15:12:50Z</time>
      </trkpt>
      <trkpt lat="47.15868" lon="-0.93659">
        <ele>71</ele>
        <time>2014-11-20T15:12:52Z</time>
      </trkpt>
      <trkpt lat="47.15867" lon="-0.93659">
        <ele>71</ele>
        <time>2014-11-20T15:12:54Z</time>
      </trkpt>
      <trkpt lat="47.15865" lon="-0.93661">
        <ele>71</ele>
        <time>2014-11-20T15:12:56Z</time>
      </trkpt>
      <trkpt lat="47.15863" lon="-0.93661">
        <ele>72</ele>
        <time>2014-11-20T15:12:58Z</time>
      </trkpt>
      <trkpt lat="47.15862" lon="-0.93662">
        <ele>72</ele>
        <time>2014-11-20T15:13:00Z</time>
      </trkpt>
      <trkpt lat="47.1586" lon="-0.93662">
        <ele>72</ele>
        <time>2014-11-20T15:13:02Z</time>
      </trkpt>
      <trkpt lat="47.15859" lon="-0.93662">
        <ele>72</ele>
        <time>2014-11-20T15:13:04Z</time>
      </trkpt>
      <trkpt lat="47.15855" lon="-0.93663">
        <ele>72</ele>
        <time>2014-11-20T15:13:07Z</time>
      </trkpt>
      <trkpt lat="47.15854" lon="-0.93662">
        <ele>72</ele>
        <time>2014-11-20T15:13:09Z</time>
      </trkpt>
      <trkpt lat="47.15852" lon="-0.93663">
        <ele>72</ele>
        <time>2014-11-20T15:13:11Z</time>
      </trkpt>
      <trkpt lat="47.1585" lon="-0.93662">
        <ele>72</ele>
        <time>2014-11-20T15:13:13Z</time>
      </trkpt>
      <trkpt lat="47.15849" lon="-0.93661">
        <ele>72</ele>
        <time>2014-11-20T15:13:15Z</time>
      </trkpt>
      <trkpt lat="47.15847" lon="-0.93662">
        <ele>72</ele>
        <time>2014-11-20T15:13:17Z</time>
      </trkpt>
      <trkpt lat="47.15845" lon="-0.93663">
        <ele>72</ele>
        <time>2014-11-20T15:13:19Z</time>
      </trkpt>
      <trkpt lat="47.15844" lon="-0.93664">
        <ele>72</ele>
        <time>2014-11-20T15:13:21Z</time>
      </trkpt>
      <trkpt lat="47.15841" lon="-0.93663">
        <ele>71</ele>
        <time>2014-11-20T15:13:23Z</time>
      </trkpt>
      <trkpt lat="47.15838" lon="-0.93663">
        <ele>71</ele>
        <time>2014-11-20T15:13:25Z</time>
      </trkpt>
      <trkpt lat="47.15836" lon="-0.93663">
        <ele>70</ele>
        <time>2014-11-20T15:13:27Z</time>
      </trkpt>
      <trkpt lat="47.15833" lon="-0.93663">
        <ele>70</ele>
        <time>2014-11-20T15:13:29Z</time>
      </trkpt>
      <trkpt lat="47.1583" lon="-0.93664">
        <ele>70</ele>
        <time>2014-11-20T15:13:31Z</time>
      </trkpt>
      <trkpt lat="47.15827" lon="-0.93664">
        <ele>70</ele>
        <time>2014-11-20T15:13:33Z</time>
      </trkpt>
      <trkpt lat="47.15823" lon="-0.93666">
        <ele>70</ele>
        <time>2014-11-20T15:13:36Z</time>
      </trkpt>
      <trkpt lat="47.1582" lon="-0.93667">
        <ele>70</ele>
        <time>2014-11-20T15:13:39Z</time>
      </trkpt>
      <trkpt lat="47.15818" lon="-0.93666">
        <ele>70</ele>
        <time>2014-11-20T15:13:41Z</time>
      </trkpt>
      <trkpt lat="47.15816" lon="-0.93668">
        <ele>70</ele>
        <time>2014-11-20T15:13:43Z</time>
      </trkpt>
      <trkpt lat="47.15813" lon="-0.93669">
        <ele>70</ele>
        <time>2014-11-20T15:13:45Z</time>
      </trkpt>
      <trkpt lat="47.1581" lon="-0.93672">
        <ele>70</ele>
        <time>2014-11-20T15:13:48Z</time>
      </trkpt>
      <trkpt lat="47.15808" lon="-0.93672">
        <ele>70</ele>
        <time>2014-11-20T15:13:50Z</time>
      </trkpt>
      <trkpt lat="47.15805" lon="-0.93673">
        <ele>70</ele>
        <time>2014-11-20T15:13:52Z</time>
      </trkpt>
      <trkpt lat="47.15804" lon="-0.93673">
        <ele>70</ele>
        <time>2014-11-20T15:13:54Z</time>
      </trkpt>
      <trkpt lat="47.15801" lon="-0.93674">
        <ele>70</ele>
        <time>2014-11-20T15:13:56Z</time>
      </trkpt>
      <trkpt lat="47.15799" lon="-0.93675">
        <ele>70</ele>
        <time>2014-11-20T15:13:58Z</time>
      </trkpt>
      <trkpt lat="47.15797" lon="-0.93676">
        <ele>70</ele>
        <time>2014-11-20T15:14:00Z</time>
      </trkpt>
      <trkpt lat="47.15794" lon="-0.93677">
        <ele>70</ele>
        <time>2014-11-20T15:14:03Z</time>
      </trkpt>
      <trkpt lat="47.15792" lon="-0.93679">
        <ele>70</ele>
        <time>2014-11-20T15:14:05Z</time>
      </trkpt>
      <trkpt lat="47.1579" lon="-0.93681">
        <ele>69</ele>
        <time>2014-11-20T15:14:07Z</time>
      </trkpt>
      <trkpt lat="47.15789" lon="-0.93682">
        <ele>68</ele>
        <time>2014-11-20T15:14:09Z</time>
      </trkpt>
      <trkpt lat="47.15787" lon="-0.93683">
        <ele>67</ele>
        <time>2014-11-20T15:14:11Z</time>
      </trkpt>
      <trkpt lat="47.15784" lon="-0.93685">
        <ele>67</ele>
        <time>2014-11-20T15:14:13Z</time>
      </trkpt>
      <trkpt lat="47.15781" lon="-0.93689">
        <ele>67</ele>
        <time>2014-11-20T15:14:16Z</time>
      </trkpt>
      <trkpt lat="47.15779" lon="-0.93691">
        <ele>66</ele>
        <time>2014-11-20T15:14:18Z</time>
      </trkpt>
      <trkpt lat="47.15776" lon="-0.93694">
        <ele>66</ele>
        <time>2014-11-20T15:14:21Z</time>
      </trkpt>
      <trkpt lat="47.15773" lon="-0.93696">
        <ele>66</ele>
        <time>2014-11-20T15:14:24Z</time>
      </trkpt>
      <trkpt lat="47.1577" lon="-0.93697">
        <ele>66</ele>
        <time>2014-11-20T15:14:26Z</time>
      </trkpt>
      <trkpt lat="47.15768" lon="-0.93699">
        <ele>66</ele>
        <time>2014-11-20T15:14:28Z</time>
      </trkpt>
      <trkpt lat="47.15765" lon="-0.937">
        <ele>66</ele>
        <time>2014-11-20T15:14:31Z</time>
      </trkpt>
      <trkpt lat="47.15763" lon="-0.93702">
        <ele>66</ele>
        <time>2014-11-20T15:14:33Z</time>
      </trkpt>
      <trkpt lat="47.15761" lon="-0.93704">
        <ele>66</ele>
        <time>2014-11-20T15:14:35Z</time>
      </trkpt>
      <trkpt lat="47.15759" lon="-0.93704">
        <ele>66</ele>
        <time>2014-11-20T15:14:37Z</time>
      </trkpt>
      <trkpt lat="47.15756" lon="-0.93704">
        <ele>66</ele>
        <time>2014-11-20T15:14:40Z</time>
      </trkpt>
      <trkpt lat="47.15754" lon="-0.93706">
        <ele>66</ele>
        <time>2014-11-20T15:14:42Z</time>
      </trkpt>
      <trkpt lat="47.15751" lon="-0.93707">
        <ele>66</ele>
        <time>2014-11-20T15:14:44Z</time>
      </trkpt>
      <trkpt lat="47.15748" lon="-0.93709">
        <ele>66</ele>
        <time>2014-11-20T15:14:47Z</time>
      </trkpt>
      <trkpt lat="47.15746" lon="-0.93711">
        <ele>66</ele>
        <time>2014-11-20T15:14:49Z</time>
      </trkpt>
      <trkpt lat="47.15744" lon="-0.93714">
        <ele>65</ele>
        <time>2014-11-20T15:14:51Z</time>
      </trkpt>
      <trkpt lat="47.15744" lon="-0.93717">
        <ele>64</ele>
        <time>2014-11-20T15:14:53Z</time>
      </trkpt>
      <trkpt lat="47.15742" lon="-0.93719">
        <ele>63</ele>
        <time>2014-11-20T15:14:55Z</time>
      </trkpt>
      <trkpt lat="47.1574" lon="-0.93721">
        <ele>63</ele>
        <time>2014-11-20T15:14:57Z</time>
      </trkpt>
      <trkpt lat="47.15738" lon="-0.93724">
        <ele>63</ele>
        <time>2014-11-20T15:14:59Z</time>
      </trkpt>
      <trkpt lat="47.15734" lon="-0.93727">
        <ele>63</ele>
        <time>2014-11-20T15:15:02Z</time>
      </trkpt>
      <trkpt lat="47.15733" lon="-0.9373">
        <ele>63</ele>
        <time>2014-11-20T15:15:04Z</time>
      </trkpt>
      <trkpt lat="47.15733" lon="-0.93732">
        <ele>63</ele>
        <time>2014-11-20T15:15:06Z</time>
      </trkpt>
      <trkpt lat="47.15732" lon="-0.93734">
        <ele>63</ele>
        <time>2014-11-20T15:15:08Z</time>
      </trkpt>
      <trkpt lat="47.15732" lon="-0.93735">
        <ele>63</ele>
        <time>2014-11-20T15:15:10Z</time>
      </trkpt>
      <trkpt lat="47.15731" lon="-0.93738">
        <ele>63</ele>
        <time>2014-11-20T15:15:13Z</time>
      </trkpt>
      <trkpt lat="47.1573" lon="-0.9374">
        <ele>63</ele>
        <time>2014-11-20T15:15:16Z</time>
      </trkpt>
      <trkpt lat="47.15729" lon="-0.93741">
        <ele>63</ele>
        <time>2014-11-20T15:15:18Z</time>
      </trkpt>
      <trkpt lat="47.15728" lon="-0.93743">
        <ele>63</ele>
        <time>2014-11-20T15:15:20Z</time>
      </trkpt>
      <trkpt lat="47.15722" lon="-0.93741">
        <ele>74</ele>
        <time>2014-11-20T15:15:23Z</time>
      </trkpt>
      <trkpt lat="47.15721" lon="-0.93739">
        <ele>74</ele>
        <time>2014-11-20T15:15:25Z</time>
      </trkpt>
      <trkpt lat="47.15719" lon="-0.93738">
        <ele>74</ele>
        <time>2014-11-20T15:15:27Z</time>
      </trkpt>
      <trkpt lat="47.15718" lon="-0.93736">
        <ele>73</ele>
        <time>2014-11-20T15:15:29Z</time>
      </trkpt>
      <trkpt lat="47.15716" lon="-0.93734">
        <ele>73</ele>
        <time>2014-11-20T15:15:31Z</time>
      </trkpt>
      <trkpt lat="47.15715" lon="-0.93734">
        <ele>72</ele>
        <time>2014-11-20T15:15:33Z</time>
      </trkpt>
      <trkpt lat="47.15713" lon="-0.93734">
        <ele>72</ele>
        <time>2014-11-20T15:15:36Z</time>
      </trkpt>
      <trkpt lat="47.15712" lon="-0.93732">
        <ele>72</ele>
        <time>2014-11-20T15:15:38Z</time>
      </trkpt>
      <trkpt lat="47.15709" lon="-0.93731">
        <ele>72</ele>
        <time>2014-11-20T15:15:41Z</time>
      </trkpt>
      <trkpt lat="47.15707" lon="-0.9373">
        <ele>72</ele>
        <time>2014-11-20T15:15:43Z</time>
      </trkpt>
      <trkpt lat="47.15705" lon="-0.93729">
        <ele>72</ele>
        <time>2014-11-20T15:15:45Z</time>
      </trkpt>
      <trkpt lat="47.15703" lon="-0.93728">
        <ele>71</ele>
        <time>2014-11-20T15:15:47Z</time>
      </trkpt>
      <trkpt lat="47.157" lon="-0.93727">
        <ele>71</ele>
        <time>2014-11-20T15:15:49Z</time>
      </trkpt>
      <trkpt lat="47.15697" lon="-0.93727">
        <ele>71</ele>
        <time>2014-11-20T15:15:52Z</time>
      </trkpt>
      <trkpt lat="47.15695" lon="-0.93726">
        <ele>71</ele>
        <time>2014-11-20T15:15:54Z</time>
      </trkpt>
      <trkpt lat="47.15693" lon="-0.93725">
        <ele>70</ele>
        <time>2014-11-20T15:15:56Z</time>
      </trkpt>
      <trkpt lat="47.15691" lon="-0.93724">
        <ele>70</ele>
        <time>2014-11-20T15:15:58Z</time>
      </trkpt>
      <trkpt lat="47.15688" lon="-0.93724">
        <ele>70</ele>
        <time>2014-11-20T15:16:00Z</time>
      </trkpt>
      <trkpt lat="47.15686" lon="-0.93723">
        <ele>69</ele>
        <time>2014-11-20T15:16:02Z</time>
      </trkpt>
      <trkpt lat="47.15684" lon="-0.93721">
        <ele>69</ele>
        <time>2014-11-20T15:16:04Z</time>
      </trkpt>
      <trkpt lat="47.15683" lon="-0.93719">
        <ele>69</ele>
        <time>2014-11-20T15:16:06Z</time>
      </trkpt>
      <trkpt lat="47.15681" lon="-0.93719">
        <ele>69</ele>
        <time>2014-11-20T15:16:08Z</time>
      </trkpt>
      <trkpt lat="47.15678" lon="-0.93717">
        <ele>69</ele>
        <time>2014-11-20T15:16:10Z</time>
      </trkpt>
      <trkpt lat="47.15676" lon="-0.93716">
        <ele>69</ele>
        <time>2014-11-20T15:16:12Z</time>
      </trkpt>
      <trkpt lat="47.15674" lon="-0.93714">
        <ele>69</ele>
        <time>2014-11-20T15:16:14Z</time>
      </trkpt>
      <trkpt lat="47.15671" lon="-0.93712">
        <ele>68</ele>
        <time>2014-11-20T15:16:17Z</time>
      </trkpt>
      <trkpt lat="47.1567" lon="-0.9371">
        <ele>68</ele>
        <time>2014-11-20T15:16:19Z</time>
      </trkpt>
      <trkpt lat="47.15669" lon="-0.93708">
        <ele>68</ele>
        <time>2014-11-20T15:16:21Z</time>
      </trkpt>
      <trkpt lat="47.15667" lon="-0.93707">
        <ele>68</ele>
        <time>2014-11-20T15:16:23Z</time>
      </trkpt>
      <trkpt lat="47.15665" lon="-0.93706">
        <ele>67</ele>
        <time>2014-11-20T15:16:25Z</time>
      </trkpt>
      <trkpt lat="47.15664" lon="-0.93704">
        <ele>67</ele>
        <time>2014-11-20T15:16:27Z</time>
      </trkpt>
      <trkpt lat="47.15662" lon="-0.93703">
        <ele>67</ele>
        <time>2014-11-20T15:16:29Z</time>
      </trkpt>
      <trkpt lat="47.1566" lon="-0.93701">
        <ele>67</ele>
        <time>2014-11-20T15:16:31Z</time>
      </trkpt>
      <trkpt lat="47.15658" lon="-0.937">
        <ele>67</ele>
        <time>2014-11-20T15:16:33Z</time>
      </trkpt>
      <trkpt lat="47.15656" lon="-0.93698">
        <ele>67</ele>
        <time>2014-11-20T15:16:35Z</time>
      </trkpt>
      <trkpt lat="47.15652" lon="-0.93695">
        <ele>67</ele>
        <time>2014-11-20T15:16:38Z</time>
      </trkpt>
      <trkpt lat="47.15649" lon="-0.93692">
        <ele>67</ele>
        <time>2014-11-20T15:16:40Z</time>
      </trkpt>
      <trkpt lat="47.15647" lon="-0.93689">
        <ele>67</ele>
        <time>2014-11-20T15:16:42Z</time>
      </trkpt>
      <trkpt lat="47.15644" lon="-0.93686">
        <ele>67</ele>
        <time>2014-11-20T15:16:44Z</time>
      </trkpt>
      <trkpt lat="47.15642" lon="-0.93684">
        <ele>67</ele>
        <time>2014-11-20T15:16:46Z</time>
      </trkpt>
      <trkpt lat="47.15641" lon="-0.9368">
        <ele>67</ele>
        <time>2014-11-20T15:16:48Z</time>
      </trkpt>
      <trkpt lat="47.1564" lon="-0.93678">
        <ele>67</ele>
        <time>2014-11-20T15:16:50Z</time>
      </trkpt>
      <trkpt lat="47.15639" lon="-0.93674">
        <ele>67</ele>
        <time>2014-11-20T15:16:52Z</time>
      </trkpt>
      <trkpt lat="47.15636" lon="-0.93671">
        <ele>67</ele>
        <time>2014-11-20T15:16:55Z</time>
      </trkpt>
      <trkpt lat="47.15635" lon="-0.93669">
        <ele>67</ele>
        <time>2014-11-20T15:16:57Z</time>
      </trkpt>
      <trkpt lat="47.15632" lon="-0.93666">
        <ele>67</ele>
        <time>2014-11-20T15:16:59Z</time>
      </trkpt>
      <trkpt lat="47.1563" lon="-0.93664">
        <ele>67</ele>
        <time>2014-11-20T15:17:01Z</time>
      </trkpt>
      <trkpt lat="47.15627" lon="-0.93662">
        <ele>67</ele>
        <time>2014-11-20T15:17:03Z</time>
      </trkpt>
      <trkpt lat="47.15625" lon="-0.93661">
        <ele>67</ele>
        <time>2014-11-20T15:17:05Z</time>
      </trkpt>
      <trkpt lat="47.15622" lon="-0.93659">
        <ele>67</ele>
        <time>2014-11-20T15:17:07Z</time>
      </trkpt>
      <trkpt lat="47.15619" lon="-0.93658">
        <ele>67</ele>
        <time>2014-11-20T15:17:10Z</time>
      </trkpt>
      <trkpt lat="47.15617" lon="-0.93657">
        <ele>67</ele>
        <time>2014-11-20T15:17:12Z</time>
      </trkpt>
      <trkpt lat="47.15614" lon="-0.93655">
        <ele>67</ele>
        <time>2014-11-20T15:17:14Z</time>
      </trkpt>
      <trkpt lat="47.15612" lon="-0.93654">
        <ele>67</ele>
        <time>2014-11-20T15:17:16Z</time>
      </trkpt>
      <trkpt lat="47.15609" lon="-0.93652">
        <ele>67</ele>
        <time>2014-11-20T15:17:19Z</time>
      </trkpt>
      <trkpt lat="47.15606" lon="-0.93651">
        <ele>67</ele>
        <time>2014-11-20T15:17:21Z</time>
      </trkpt>
      <trkpt lat="47.15604" lon="-0.93651">
        <ele>67</ele>
        <time>2014-11-20T15:17:23Z</time>
      </trkpt>
      <trkpt lat="47.15601" lon="-0.9365">
        <ele>67</ele>
        <time>2014-11-20T15:17:25Z</time>
      </trkpt>
      <trkpt lat="47.15599" lon="-0.93649">
        <ele>68</ele>
        <time>2014-11-20T15:17:27Z</time>
      </trkpt>
      <trkpt lat="47.15597" lon="-0.93649">
        <ele>68</ele>
        <time>2014-11-20T15:17:29Z</time>
      </trkpt>
      <trkpt lat="47.15594" lon="-0.93648">
        <ele>68</ele>
        <time>2014-11-20T15:17:31Z</time>
      </trkpt>
      <trkpt lat="47.15592" lon="-0.93647">
        <ele>68</ele>
        <time>2014-11-20T15:17:33Z</time>
      </trkpt>
      <trkpt lat="47.1559" lon="-0.93647">
        <ele>68</ele>
        <time>2014-11-20T15:17:35Z</time>
      </trkpt>
      <trkpt lat="47.15588" lon="-0.93647">
        <ele>69</ele>
        <time>2014-11-20T15:17:37Z</time>
      </trkpt>
      <trkpt lat="47.15586" lon="-0.93647">
        <ele>69</ele>
        <time>2014-11-20T15:17:39Z</time>
      </trkpt>
      <trkpt lat="47.15585" lon="-0.93646">
        <ele>69</ele>
        <time>2014-11-20T15:17:41Z</time>
      </trkpt>
      <trkpt lat="47.15582" lon="-0.93646">
        <ele>69</ele>
        <time>2014-11-20T15:17:43Z</time>
      </trkpt>
      <trkpt lat="47.1558" lon="-0.93645">
        <ele>69</ele>
        <time>2014-11-20T15:17:45Z</time>
      </trkpt>
      <trkpt lat="47.15576" lon="-0.93644">
        <ele>69</ele>
        <time>2014-11-20T15:17:48Z</time>
      </trkpt>
      <trkpt lat="47.15574" lon="-0.93645">
        <ele>69</ele>
        <time>2014-11-20T15:17:50Z</time>
      </trkpt>
      <trkpt lat="47.15571" lon="-0.93644">
        <ele>69</ele>
        <time>2014-11-20T15:17:52Z</time>
      </trkpt>
      <trkpt lat="47.15569" lon="-0.93644">
        <ele>69</ele>
        <time>2014-11-20T15:17:54Z</time>
      </trkpt>
      <trkpt lat="47.15566" lon="-0.93644">
        <ele>69</ele>
        <time>2014-11-20T15:17:56Z</time>
      </trkpt>
      <trkpt lat="47.15563" lon="-0.93644">
        <ele>69</ele>
        <time>2014-11-20T15:17:58Z</time>
      </trkpt>
      <trkpt lat="47.15561" lon="-0.93645">
        <ele>69</ele>
        <time>2014-11-20T15:18:00Z</time>
      </trkpt>
      <trkpt lat="47.15558" lon="-0.93646">
        <ele>69</ele>
        <time>2014-11-20T15:18:02Z</time>
      </trkpt>
      <trkpt lat="47.15555" lon="-0.93646">
        <ele>69</ele>
        <time>2014-11-20T15:18:04Z</time>
      </trkpt>
      <trkpt lat="47.15552" lon="-0.93647">
        <ele>70</ele>
        <time>2014-11-20T15:18:06Z</time>
      </trkpt>
      <trkpt lat="47.15549" lon="-0.93647">
        <ele>71</ele>
        <time>2014-11-20T15:18:08Z</time>
      </trkpt>
      <trkpt lat="47.15545" lon="-0.93648">
        <ele>72</ele>
        <time>2014-11-20T15:18:11Z</time>
      </trkpt>
      <trkpt lat="47.15542" lon="-0.9365">
        <ele>72</ele>
        <time>2014-11-20T15:18:13Z</time>
      </trkpt>
      <trkpt lat="47.1554" lon="-0.93651">
        <ele>73</ele>
        <time>2014-11-20T15:18:15Z</time>
      </trkpt>
      <trkpt lat="47.15537" lon="-0.93652">
        <ele>73</ele>
        <time>2014-11-20T15:18:17Z</time>
      </trkpt>
      <trkpt lat="47.15535" lon="-0.93653">
        <ele>73</ele>
        <time>2014-11-20T15:18:19Z</time>
      </trkpt>
      <trkpt lat="47.15532" lon="-0.93655">
        <ele>74</ele>
        <time>2014-11-20T15:18:21Z</time>
      </trkpt>
      <trkpt lat="47.15529" lon="-0.93656">
        <ele>74</ele>
        <time>2014-11-20T15:18:24Z</time>
      </trkpt>
      <trkpt lat="47.15527" lon="-0.93658">
        <ele>75</ele>
        <time>2014-11-20T15:18:26Z</time>
      </trkpt>
      <trkpt lat="47.15524" lon="-0.9366">
        <ele>75</ele>
        <time>2014-11-20T15:18:28Z</time>
      </trkpt>
      <trkpt lat="47.15522" lon="-0.93661">
        <ele>75</ele>
        <time>2014-11-20T15:18:30Z</time>
      </trkpt>
      <trkpt lat="47.15518" lon="-0.93664">
        <ele>76</ele>
        <time>2014-11-20T15:18:33Z</time>
      </trkpt>
      <trkpt lat="47.15516" lon="-0.93665">
        <ele>76</ele>
        <time>2014-11-20T15:18:35Z</time>
      </trkpt>
      <trkpt lat="47.15514" lon="-0.93667">
        <ele>76</ele>
        <time>2014-11-20T15:18:37Z</time>
      </trkpt>
      <trkpt lat="47.15512" lon="-0.93669">
        <ele>77</ele>
        <time>2014-11-20T15:18:39Z</time>
      </trkpt>
      <trkpt lat="47.15508" lon="-0.93672">
        <ele>77</ele>
        <time>2014-11-20T15:18:42Z</time>
      </trkpt>
      <trkpt lat="47.15505" lon="-0.93675">
        <ele>77</ele>
        <time>2014-11-20T15:18:45Z</time>
      </trkpt>
      <trkpt lat="47.15503" lon="-0.93676">
        <ele>78</ele>
        <time>2014-11-20T15:18:47Z</time>
      </trkpt>
      <trkpt lat="47.15501" lon="-0.93678">
        <ele>78</ele>
        <time>2014-11-20T15:18:49Z</time>
      </trkpt>
      <trkpt lat="47.15498" lon="-0.9368">
        <ele>78</ele>
        <time>2014-11-20T15:18:51Z</time>
      </trkpt>
      <trkpt lat="47.15496" lon="-0.93682">
        <ele>78</ele>
        <time>2014-11-20T15:18:53Z</time>
      </trkpt>
      <trkpt lat="47.15493" lon="-0.93684">
        <ele>78</ele>
        <time>2014-11-20T15:18:56Z</time>
      </trkpt>
      <trkpt lat="47.15491" lon="-0.93686">
        <ele>78</ele>
        <time>2014-11-20T15:18:58Z</time>
      </trkpt>
      <trkpt lat="47.15489" lon="-0.93687">
        <ele>79</ele>
        <time>2014-11-20T15:19:00Z</time>
      </trkpt>
      <trkpt lat="47.15487" lon="-0.9369">
        <ele>79</ele>
        <time>2014-11-20T15:19:02Z</time>
      </trkpt>
      <trkpt lat="47.15485" lon="-0.93692">
        <ele>79</ele>
        <time>2014-11-20T15:19:04Z</time>
      </trkpt>
      <trkpt lat="47.15482" lon="-0.93695">
        <ele>79</ele>
        <time>2014-11-20T15:19:07Z</time>
      </trkpt>
      <trkpt lat="47.15479" lon="-0.93696">
        <ele>79</ele>
        <time>2014-11-20T15:19:09Z</time>
      </trkpt>
      <trkpt lat="47.15477" lon="-0.93698">
        <ele>79</ele>
        <time>2014-11-20T15:19:11Z</time>
      </trkpt>
      <trkpt lat="47.15474" lon="-0.93702">
        <ele>79</ele>
        <time>2014-11-20T15:19:14Z</time>
      </trkpt>
      <trkpt lat="47.15471" lon="-0.93705">
        <ele>79</ele>
        <time>2014-11-20T15:19:17Z</time>
      </trkpt>
      <trkpt lat="47.15469" lon="-0.93708">
        <ele>79</ele>
        <time>2014-11-20T15:19:19Z</time>
      </trkpt>
      <trkpt lat="47.15467" lon="-0.93711">
        <ele>79</ele>
        <time>2014-11-20T15:19:21Z</time>
      </trkpt>
      <trkpt lat="47.15463" lon="-0.93714">
        <ele>79</ele>
        <time>2014-11-20T15:19:24Z</time>
      </trkpt>
      <trkpt lat="47.15461" lon="-0.93717">
        <ele>79</ele>
        <time>2014-11-20T15:19:26Z</time>
      </trkpt>
      <trkpt lat="47.15459" lon="-0.93719">
        <ele>79</ele>
        <time>2014-11-20T15:19:28Z</time>
      </trkpt>
      <trkpt lat="47.15456" lon="-0.93722">
        <ele>79</ele>
        <time>2014-11-20T15:19:31Z</time>
      </trkpt>
      <trkpt lat="47.15453" lon="-0.93725">
        <ele>79</ele>
        <time>2014-11-20T15:19:33Z</time>
      </trkpt>
      <trkpt lat="47.15451" lon="-0.93727">
        <ele>79</ele>
        <time>2014-11-20T15:19:35Z</time>
      </trkpt>
      <trkpt lat="47.15449" lon="-0.93729">
        <ele>79</ele>
        <time>2014-11-20T15:19:37Z</time>
      </trkpt>
      <trkpt lat="47.15446" lon="-0.93731">
        <ele>79</ele>
        <time>2014-11-20T15:19:39Z</time>
      </trkpt>
      <trkpt lat="47.15443" lon="-0.93734">
        <ele>79</ele>
        <time>2014-11-20T15:19:42Z</time>
      </trkpt>
      <trkpt lat="47.15441" lon="-0.93736">
        <ele>79</ele>
        <time>2014-11-20T15:19:44Z</time>
      </trkpt>
      <trkpt lat="47.15439" lon="-0.93738">
        <ele>79</ele>
        <time>2014-11-20T15:19:46Z</time>
      </trkpt>
      <trkpt lat="47.15437" lon="-0.9374">
        <ele>79</ele>
        <time>2014-11-20T15:19:48Z</time>
      </trkpt>
      <trkpt lat="47.15435" lon="-0.93742">
        <ele>79</ele>
        <time>2014-11-20T15:19:50Z</time>
      </trkpt>
      <trkpt lat="47.15432" lon="-0.93746">
        <ele>79</ele>
        <time>2014-11-20T15:19:53Z</time>
      </trkpt>
      <trkpt lat="47.1543" lon="-0.93748">
        <ele>79</ele>
        <time>2014-11-20T15:19:55Z</time>
      </trkpt>
      <trkpt lat="47.15428" lon="-0.9375">
        <ele>79</ele>
        <time>2014-11-20T15:19:57Z</time>
      </trkpt>
      <trkpt lat="47.15426" lon="-0.93752">
        <ele>79</ele>
        <time>2014-11-20T15:19:59Z</time>
      </trkpt>
      <trkpt lat="47.15424" lon="-0.93755">
        <ele>79</ele>
        <time>2014-11-20T15:20:01Z</time>
      </trkpt>
      <trkpt lat="47.15423" lon="-0.93757">
        <ele>79</ele>
        <time>2014-11-20T15:20:03Z</time>
      </trkpt>
      <trkpt lat="47.15422" lon="-0.93758">
        <ele>79</ele>
        <time>2014-11-20T15:20:05Z</time>
      </trkpt>
      <trkpt lat="47.1542" lon="-0.93761">
        <ele>79</ele>
        <time>2014-11-20T15:20:07Z</time>
      </trkpt>
      <trkpt lat="47.15416" lon="-0.93764">
        <ele>79</ele>
        <time>2014-11-20T15:20:10Z</time>
      </trkpt>
      <trkpt lat="47.15414" lon="-0.93767">
        <ele>79</ele>
        <time>2014-11-20T15:20:13Z</time>
      </trkpt>
      <trkpt lat="47.15412" lon="-0.93769">
        <ele>79</ele>
        <time>2014-11-20T15:20:15Z</time>
      </trkpt>
      <trkpt lat="47.1541" lon="-0.93771">
        <ele>79</ele>
        <time>2014-11-20T15:20:17Z</time>
      </trkpt>
      <trkpt lat="47.15407" lon="-0.93774">
        <ele>79</ele>
        <time>2014-11-20T15:20:20Z</time>
      </trkpt>
      <trkpt lat="47.15406" lon="-0.93776">
        <ele>79</ele>
        <time>2014-11-20T15:20:22Z</time>
      </trkpt>
      <trkpt lat="47.15404" lon="-0.93778">
        <ele>78</ele>
        <time>2014-11-20T15:20:24Z</time>
      </trkpt>
      <trkpt lat="47.15401" lon="-0.9378">
        <ele>77</ele>
        <time>2014-11-20T15:20:26Z</time>
      </trkpt>
      <trkpt lat="47.15398" lon="-0.93783">
        <ele>77</ele>
        <time>2014-11-20T15:20:28Z</time>
      </trkpt>
      <trkpt lat="47.15395" lon="-0.93785">
        <ele>77</ele>
        <time>2014-11-20T15:20:30Z</time>
      </trkpt>
      <trkpt lat="47.15394" lon="-0.93787">
        <ele>76</ele>
        <time>2014-11-20T15:20:32Z</time>
      </trkpt>
      <trkpt lat="47.15392" lon="-0.93788">
        <ele>76</ele>
        <time>2014-11-20T15:20:34Z</time>
      </trkpt>
      <trkpt lat="47.1539" lon="-0.9379">
        <ele>75</ele>
        <time>2014-11-20T15:20:36Z</time>
      </trkpt>
      <trkpt lat="47.15388" lon="-0.93792">
        <ele>74</ele>
        <time>2014-11-20T15:20:38Z</time>
      </trkpt>
      <trkpt lat="47.15386" lon="-0.93794">
        <ele>73</ele>
        <time>2014-11-20T15:20:40Z</time>
      </trkpt>
      <trkpt lat="47.15384" lon="-0.93796">
        <ele>72</ele>
        <time>2014-11-20T15:20:42Z</time>
      </trkpt>
      <trkpt lat="47.15382" lon="-0.93798">
        <ele>72</ele>
        <time>2014-11-20T15:20:44Z</time>
      </trkpt>
      <trkpt lat="47.1538" lon="-0.938">
        <ele>71</ele>
        <time>2014-11-20T15:20:46Z</time>
      </trkpt>
      <trkpt lat="47.15378" lon="-0.93801">
        <ele>71</ele>
        <time>2014-11-20T15:20:48Z</time>
      </trkpt>
      <trkpt lat="47.15375" lon="-0.93802">
        <ele>71</ele>
        <time>2014-11-20T15:20:51Z</time>
      </trkpt>
      <trkpt lat="47.15373" lon="-0.93803">
        <ele>71</ele>
        <time>2014-11-20T15:20:53Z</time>
      </trkpt>
      <trkpt lat="47.15371" lon="-0.93803">
        <ele>71</ele>
        <time>2014-11-20T15:20:55Z</time>
      </trkpt>
      <trkpt lat="47.15368" lon="-0.93802">
        <ele>71</ele>
        <time>2014-11-20T15:20:57Z</time>
      </trkpt>
      <trkpt lat="47.15364" lon="-0.93801">
        <ele>71</ele>
        <time>2014-11-20T15:20:59Z</time>
      </trkpt>
      <trkpt lat="47.15362" lon="-0.938">
        <ele>71</ele>
        <time>2014-11-20T15:21:01Z</time>
      </trkpt>
      <trkpt lat="47.15359" lon="-0.93796">
        <ele>71</ele>
        <time>2014-11-20T15:21:04Z</time>
      </trkpt>
      <trkpt lat="47.15357" lon="-0.93794">
        <ele>71</ele>
        <time>2014-11-20T15:21:06Z</time>
      </trkpt>
      <trkpt lat="47.15355" lon="-0.93791">
        <ele>71</ele>
        <time>2014-11-20T15:21:08Z</time>
      </trkpt>
      <trkpt lat="47.15353" lon="-0.93789">
        <ele>71</ele>
        <time>2014-11-20T15:21:10Z</time>
      </trkpt>
      <trkpt lat="47.15351" lon="-0.93787">
        <ele>72</ele>
        <time>2014-11-20T15:21:12Z</time>
      </trkpt>
      <trkpt lat="47.15349" lon="-0.93784">
        <ele>72</ele>
        <time>2014-11-20T15:21:14Z</time>
      </trkpt>
      <trkpt lat="47.15347" lon="-0.93782">
        <ele>72</ele>
        <time>2014-11-20T15:21:16Z</time>
      </trkpt>
      <trkpt lat="47.15345" lon="-0.9378">
        <ele>72</ele>
        <time>2014-11-20T15:21:18Z</time>
      </trkpt>
      <trkpt lat="47.15343" lon="-0.93777">
        <ele>72</ele>
        <time>2014-11-20T15:21:20Z</time>
      </trkpt>
      <trkpt lat="47.15342" lon="-0.93774">
        <ele>72</ele>
        <time>2014-11-20T15:21:22Z</time>
      </trkpt>
      <trkpt lat="47.1534" lon="-0.93771">
        <ele>72</ele>
        <time>2014-11-20T15:21:24Z</time>
      </trkpt>
      <trkpt lat="47.15338" lon="-0.93769">
        <ele>72</ele>
        <time>2014-11-20T15:21:26Z</time>
      </trkpt>
      <trkpt lat="47.15335" lon="-0.93764">
        <ele>73</ele>
        <time>2014-11-20T15:21:29Z</time>
      </trkpt>
      <trkpt lat="47.15334" lon="-0.93761">
        <ele>73</ele>
        <time>2014-11-20T15:21:31Z</time>
      </trkpt>
      <trkpt lat="47.15331" lon="-0.93758">
        <ele>74</ele>
        <time>2014-11-20T15:21:34Z</time>
      </trkpt>
      <trkpt lat="47.15329" lon="-0.93755">
        <ele>74</ele>
        <time>2014-11-20T15:21:36Z</time>
      </trkpt>
      <trkpt lat="47.15328" lon="-0.93752">
        <ele>74</ele>
        <time>2014-11-20T15:21:38Z</time>
      </trkpt>
      <trkpt lat="47.15326" lon="-0.93749">
        <ele>74</ele>
        <time>2014-11-20T15:21:40Z</time>
      </trkpt>
      <trkpt lat="47.15324" lon="-0.93745">
        <ele>74</ele>
        <time>2014-11-20T15:21:43Z</time>
      </trkpt>
      <trkpt lat="47.15322" lon="-0.93743">
        <ele>75</ele>
        <time>2014-11-20T15:21:45Z</time>
      </trkpt>
      <trkpt lat="47.15307" lon="-0.93753">
        <ele>79</ele>
        <time>2014-11-20T15:21:48Z</time>
      </trkpt>
      <trkpt lat="47.15304" lon="-0.93754">
        <ele>79</ele>
        <time>2014-11-20T15:21:50Z</time>
      </trkpt>
      <trkpt lat="47.15302" lon="-0.93755">
        <ele>79</ele>
        <time>2014-11-20T15:21:52Z</time>
      </trkpt>
      <trkpt lat="47.15299" lon="-0.93757">
        <ele>79</ele>
        <time>2014-11-20T15:21:55Z</time>
      </trkpt>
      <trkpt lat="47.15297" lon="-0.93758">
        <ele>79</ele>
        <time>2014-11-20T15:21:57Z</time>
      </trkpt>
      <trkpt lat="47.15293" lon="-0.93759">
        <ele>80</ele>
        <time>2014-11-20T15:22:00Z</time>
      </trkpt>
      <trkpt lat="47.15292" lon="-0.9376">
        <ele>80</ele>
        <time>2014-11-20T15:22:02Z</time>
      </trkpt>
      <trkpt lat="47.1529" lon="-0.93759">
        <ele>80</ele>
        <time>2014-11-20T15:22:08Z</time>
      </trkpt>
      <trkpt lat="47.15288" lon="-0.9376">
        <ele>80</ele>
        <time>2014-11-20T15:22:10Z</time>
      </trkpt>
      <trkpt lat="47.15284" lon="-0.93759">
        <ele>81</ele>
        <time>2014-11-20T15:22:13Z</time>
      </trkpt>
      <trkpt lat="47.15282" lon="-0.93759">
        <ele>81</ele>
        <time>2014-11-20T15:22:15Z</time>
      </trkpt>
      <trkpt lat="47.15279" lon="-0.93758">
        <ele>81</ele>
        <time>2014-11-20T15:22:17Z</time>
      </trkpt>
      <trkpt lat="47.15277" lon="-0.93757">
        <ele>81</ele>
        <time>2014-11-20T15:22:19Z</time>
      </trkpt>
      <trkpt lat="47.15275" lon="-0.93755">
        <ele>81</ele>
        <time>2014-11-20T15:22:21Z</time>
      </trkpt>
      <trkpt lat="47.15273" lon="-0.93754">
        <ele>81</ele>
        <time>2014-11-20T15:22:23Z</time>
      </trkpt>
      <trkpt lat="47.15271" lon="-0.93752">
        <ele>81</ele>
        <time>2014-11-20T15:22:25Z</time>
      </trkpt>
      <trkpt lat="47.15268" lon="-0.93751">
        <ele>81</ele>
        <time>2014-11-20T15:22:27Z</time>
      </trkpt>
      <trkpt lat="47.15267" lon="-0.93748">
        <ele>82</ele>
        <time>2014-11-20T15:22:29Z</time>
      </trkpt>
      <trkpt lat="47.15265" lon="-0.93747">
        <ele>82</ele>
        <time>2014-11-20T15:22:31Z</time>
      </trkpt>
      <trkpt lat="47.15263" lon="-0.93745">
        <ele>82</ele>
        <time>2014-11-20T15:22:33Z</time>
      </trkpt>
      <trkpt lat="47.15261" lon="-0.93742">
        <ele>83</ele>
        <time>2014-11-20T15:22:35Z</time>
      </trkpt>
      <trkpt lat="47.15259" lon="-0.9374">
        <ele>83</ele>
        <time>2014-11-20T15:22:37Z</time>
      </trkpt>
      <trkpt lat="47.15257" lon="-0.93739">
        <ele>83</ele>
        <time>2014-11-20T15:22:39Z</time>
      </trkpt>
      <trkpt lat="47.15253" lon="-0.93737">
        <ele>83</ele>
        <time>2014-11-20T15:22:42Z</time>
      </trkpt>
      <trkpt lat="47.15251" lon="-0.93735">
        <ele>83</ele>
        <time>2014-11-20T15:22:44Z</time>
      </trkpt>
      <trkpt lat="47.15247" lon="-0.93732">
        <ele>84</ele>
        <time>2014-11-20T15:22:47Z</time>
      </trkpt>
      <trkpt lat="47.15245" lon="-0.9373">
        <ele>84</ele>
        <time>2014-11-20T15:22:49Z</time>
      </trkpt>
      <trkpt lat="47.15242" lon="-0.93727">
        <ele>84</ele>
        <time>2014-11-20T15:22:52Z</time>
      </trkpt>
      <trkpt lat="47.1524" lon="-0.93726">
        <ele>84</ele>
        <time>2014-11-20T15:22:54Z</time>
      </trkpt>
      <trkpt lat="47.15237" lon="-0.93724">
        <ele>84</ele>
        <time>2014-11-20T15:22:56Z</time>
      </trkpt>
      <trkpt lat="47.15236" lon="-0.93721">
        <ele>85</ele>
        <time>2014-11-20T15:22:58Z</time>
      </trkpt>
      <trkpt lat="47.15233" lon="-0.93719">
        <ele>85</ele>
        <time>2014-11-20T15:23:00Z</time>
      </trkpt>
      <trkpt lat="47.15231" lon="-0.93717">
        <ele>85</ele>
        <time>2014-11-20T15:23:02Z</time>
      </trkpt>
      <trkpt lat="47.15228" lon="-0.93716">
        <ele>85</ele>
        <time>2014-11-20T15:23:04Z</time>
      </trkpt>
      <trkpt lat="47.15226" lon="-0.93713">
        <ele>85</ele>
        <time>2014-11-20T15:23:06Z</time>
      </trkpt>
      <trkpt lat="47.15222" lon="-0.9371">
        <ele>85</ele>
        <time>2014-11-20T15:23:09Z</time>
      </trkpt>
      <trkpt lat="47.1522" lon="-0.93708">
        <ele>85</ele>
        <time>2014-11-20T15:23:11Z</time>
      </trkpt>
      <trkpt lat="47.15217" lon="-0.93707">
        <ele>86</ele>
        <time>2014-11-20T15:23:13Z</time>
      </trkpt>
      <trkpt lat="47.15213" lon="-0.93705">
        <ele>86</ele>
        <time>2014-11-20T15:23:16Z</time>
      </trkpt>
      <trkpt lat="47.15211" lon="-0.93703">
        <ele>86</ele>
        <time>2014-11-20T15:23:18Z</time>
      </trkpt>
      <trkpt lat="47.15209" lon="-0.937">
        <ele>86</ele>
        <time>2014-11-20T15:23:20Z</time>
      </trkpt>
      <trkpt lat="47.15205" lon="-0.93698">
        <ele>86</ele>
        <time>2014-11-20T15:23:23Z</time>
      </trkpt>
      <trkpt lat="47.15203" lon="-0.93696">
        <ele>86</ele>
        <time>2014-11-20T15:23:25Z</time>
      </trkpt>
      <trkpt lat="47.15201" lon="-0.93694">
        <ele>87</ele>
        <time>2014-11-20T15:23:27Z</time>
      </trkpt>
      <trkpt lat="47.15199" lon="-0.93692">
        <ele>87</ele>
        <time>2014-11-20T15:23:29Z</time>
      </trkpt>
      <trkpt lat="47.15197" lon="-0.93691">
        <ele>87</ele>
        <time>2014-11-20T15:23:31Z</time>
      </trkpt>
      <trkpt lat="47.15194" lon="-0.93689">
        <ele>87</ele>
        <time>2014-11-20T15:23:33Z</time>
      </trkpt>
      <trkpt lat="47.15192" lon="-0.93688">
        <ele>87</ele>
        <time>2014-11-20T15:23:35Z</time>
      </trkpt>
      <trkpt lat="47.15189" lon="-0.93685">
        <ele>88</ele>
        <time>2014-11-20T15:23:38Z</time>
      </trkpt>
      <trkpt lat="47.15187" lon="-0.93683">
        <ele>88</ele>
        <time>2014-11-20T15:23:40Z</time>
      </trkpt>
      <trkpt lat="47.15185" lon="-0.93681">
        <ele>88</ele>
        <time>2014-11-20T15:23:42Z</time>
      </trkpt>
      <trkpt lat="47.15183" lon="-0.93679">
        <ele>88</ele>
        <time>2014-11-20T15:23:44Z</time>
      </trkpt>
      <trkpt lat="47.15181" lon="-0.93677">
        <ele>88</ele>
        <time>2014-11-20T15:23:46Z</time>
      </trkpt>
      <trkpt lat="47.15178" lon="-0.93675">
        <ele>88</ele>
        <time>2014-11-20T15:23:48Z</time>
      </trkpt>
      <trkpt lat="47.15176" lon="-0.93673">
        <ele>88</ele>
        <time>2014-11-20T15:23:50Z</time>
      </trkpt>
      <trkpt lat="47.15174" lon="-0.93672">
        <ele>88</ele>
        <time>2014-11-20T15:23:52Z</time>
      </trkpt>
      <trkpt lat="47.15172" lon="-0.9367">
        <ele>88</ele>
        <time>2014-11-20T15:23:54Z</time>
      </trkpt>
      <trkpt lat="47.1517" lon="-0.93669">
        <ele>88</ele>
        <time>2014-11-20T15:23:56Z</time>
      </trkpt>
      <trkpt lat="47.15167" lon="-0.93667">
        <ele>88</ele>
        <time>2014-11-20T15:23:58Z</time>
      </trkpt>
      <trkpt lat="47.15164" lon="-0.93664">
        <ele>88</ele>
        <time>2014-11-20T15:24:01Z</time>
      </trkpt>
      <trkpt lat="47.15162" lon="-0.93663">
        <ele>88</ele>
        <time>2014-11-20T15:24:03Z</time>
      </trkpt>
      <trkpt lat="47.1516" lon="-0.9366">
        <ele>88</ele>
        <time>2014-11-20T15:24:05Z</time>
      </trkpt>
      <trkpt lat="47.15158" lon="-0.93659">
        <ele>89</ele>
        <time>2014-11-20T15:24:07Z</time>
      </trkpt>
      <trkpt lat="47.15156" lon="-0.93656">
        <ele>89</ele>
        <time>2014-11-20T15:24:09Z</time>
      </trkpt>
      <trkpt lat="47.15154" lon="-0.93654">
        <ele>89</ele>
        <time>2014-11-20T15:24:11Z</time>
      </trkpt>
      <trkpt lat="47.15152" lon="-0.93651">
        <ele>89</ele>
        <time>2014-11-20T15:24:13Z</time>
      </trkpt>
      <trkpt lat="47.1515" lon="-0.93649">
        <ele>89</ele>
        <time>2014-11-20T15:24:15Z</time>
      </trkpt>
      <trkpt lat="47.15147" lon="-0.93647">
        <ele>89</ele>
        <time>2014-11-20T15:24:17Z</time>
      </trkpt>
      <trkpt lat="47.15145" lon="-0.93645">
        <ele>89</ele>
        <time>2014-11-20T15:24:19Z</time>
      </trkpt>
      <trkpt lat="47.15143" lon="-0.93643">
        <ele>89</ele>
        <time>2014-11-20T15:24:21Z</time>
      </trkpt>
      <trkpt lat="47.15141" lon="-0.93641">
        <ele>89</ele>
        <time>2014-11-20T15:24:23Z</time>
      </trkpt>
      <trkpt lat="47.15137" lon="-0.93638">
        <ele>89</ele>
        <time>2014-11-20T15:24:26Z</time>
      </trkpt>
      <trkpt lat="47.15134" lon="-0.93635">
        <ele>89</ele>
        <time>2014-11-20T15:24:29Z</time>
      </trkpt>
      <trkpt lat="47.15132" lon="-0.93633">
        <ele>89</ele>
        <time>2014-11-20T15:24:31Z</time>
      </trkpt>
      <trkpt lat="47.1513" lon="-0.93631">
        <ele>90</ele>
        <time>2014-11-20T15:24:33Z</time>
      </trkpt>
      <trkpt lat="47.15127" lon="-0.93629">
        <ele>90</ele>
        <time>2014-11-20T15:24:35Z</time>
      </trkpt>
      <trkpt lat="47.15125" lon="-0.93627">
        <ele>90</ele>
        <time>2014-11-20T15:24:37Z</time>
      </trkpt>
      <trkpt lat="47.15123" lon="-0.93625">
        <ele>90</ele>
        <time>2014-11-20T15:24:39Z</time>
      </trkpt>
      <trkpt lat="47.15121" lon="-0.93623">
        <ele>90</ele>
        <time>2014-11-20T15:24:41Z</time>
      </trkpt>
      <trkpt lat="47.15119" lon="-0.93622">
        <ele>91</ele>
        <time>2014-11-20T15:24:43Z</time>
      </trkpt>
      <trkpt lat="47.15116" lon="-0.93619">
        <ele>91</ele>
        <time>2014-11-20T15:24:46Z</time>
      </trkpt>
      <trkpt lat="47.15114" lon="-0.93617">
        <ele>91</ele>
        <time>2014-11-20T15:24:48Z</time>
      </trkpt>
      <trkpt lat="47.15112" lon="-0.93616">
        <ele>91</ele>
        <time>2014-11-20T15:24:50Z</time>
      </trkpt>
      <trkpt lat="47.1511" lon="-0.93613">
        <ele>91</ele>
        <time>2014-11-20T15:24:52Z</time>
      </trkpt>
      <trkpt lat="47.15108" lon="-0.93612">
        <ele>91</ele>
        <time>2014-11-20T15:24:54Z</time>
      </trkpt>
      <trkpt lat="47.15106" lon="-0.93609">
        <ele>91</ele>
        <time>2014-11-20T15:24:56Z</time>
      </trkpt>
      <trkpt lat="47.15103" lon="-0.93607">
        <ele>91</ele>
        <time>2014-11-20T15:24:58Z</time>
      </trkpt>
      <trkpt lat="47.15101" lon="-0.93606">
        <ele>92</ele>
        <time>2014-11-20T15:25:00Z</time>
      </trkpt>
      <trkpt lat="47.15099" lon="-0.93604">
        <ele>92</ele>
        <time>2014-11-20T15:25:02Z</time>
      </trkpt>
      <trkpt lat="47.15097" lon="-0.93602">
        <ele>92</ele>
        <time>2014-11-20T15:25:04Z</time>
      </trkpt>
      <trkpt lat="47.15094" lon="-0.93601">
        <ele>92</ele>
        <time>2014-11-20T15:25:06Z</time>
      </trkpt>
      <trkpt lat="47.15092" lon="-0.93599">
        <ele>92</ele>
        <time>2014-11-20T15:25:08Z</time>
      </trkpt>
      <trkpt lat="47.15089" lon="-0.93597">
        <ele>93</ele>
        <time>2014-11-20T15:25:11Z</time>
      </trkpt>
      <trkpt lat="47.15087" lon="-0.93595">
        <ele>93</ele>
        <time>2014-11-20T15:25:13Z</time>
      </trkpt>
      <trkpt lat="47.15084" lon="-0.93593">
        <ele>93</ele>
        <time>2014-11-20T15:25:16Z</time>
      </trkpt>
      <trkpt lat="47.15081" lon="-0.9359">
        <ele>94</ele>
        <time>2014-11-20T15:25:19Z</time>
      </trkpt>
      <trkpt lat="47.15077" lon="-0.93588">
        <ele>94</ele>
        <time>2014-11-20T15:25:22Z</time>
      </trkpt>
      <trkpt lat="47.15075" lon="-0.93586">
        <ele>94</ele>
        <time>2014-11-20T15:25:24Z</time>
      </trkpt>
      <trkpt lat="47.15073" lon="-0.93584">
        <ele>94</ele>
        <time>2014-11-20T15:25:26Z</time>
      </trkpt>
      <trkpt lat="47.15071" lon="-0.93582">
        <ele>94</ele>
        <time>2014-11-20T15:25:28Z</time>
      </trkpt>
      <trkpt lat="47.15067" lon="-0.9358">
        <ele>94</ele>
        <time>2014-11-20T15:25:31Z</time>
      </trkpt>
      <trkpt lat="47.15065" lon="-0.93578">
        <ele>94</ele>
        <time>2014-11-20T15:25:33Z</time>
      </trkpt>
      <trkpt lat="47.15062" lon="-0.93575">
        <ele>95</ele>
        <time>2014-11-20T15:25:36Z</time>
      </trkpt>
      <trkpt lat="47.15059" lon="-0.93573">
        <ele>95</ele>
        <time>2014-11-20T15:25:38Z</time>
      </trkpt>
      <trkpt lat="47.15057" lon="-0.93571">
        <ele>95</ele>
        <time>2014-11-20T15:25:40Z</time>
      </trkpt>
      <trkpt lat="47.15055" lon="-0.93569">
        <ele>95</ele>
        <time>2014-11-20T15:25:42Z</time>
      </trkpt>
      <trkpt lat="47.15053" lon="-0.93568">
        <ele>95</ele>
        <time>2014-11-20T15:25:44Z</time>
      </trkpt>
      <trkpt lat="47.15051" lon="-0.93566">
        <ele>95</ele>
        <time>2014-11-20T15:25:46Z</time>
      </trkpt>
      <trkpt lat="47.15048" lon="-0.93564">
        <ele>95</ele>
        <time>2014-11-20T15:25:48Z</time>
      </trkpt>
      <trkpt lat="47.15045" lon="-0.93561">
        <ele>95</ele>
        <time>2014-11-20T15:25:51Z</time>
      </trkpt>
      <trkpt lat="47.15043" lon="-0.9356">
        <ele>95</ele>
        <time>2014-11-20T15:25:53Z</time>
      </trkpt>
      <trkpt lat="47.15039" lon="-0.93557">
        <ele>95</ele>
        <time>2014-11-20T15:25:56Z</time>
      </trkpt>
      <trkpt lat="47.15036" lon="-0.93554">
        <ele>95</ele>
        <time>2014-11-20T15:25:59Z</time>
      </trkpt>
      <trkpt lat="47.15034" lon="-0.93553">
        <ele>95</ele>
        <time>2014-11-20T15:26:01Z</time>
      </trkpt>
      <trkpt lat="47.15032" lon="-0.93551">
        <ele>95</ele>
        <time>2014-11-20T15:26:03Z</time>
      </trkpt>
      <trkpt lat="47.1503" lon="-0.9355">
        <ele>95</ele>
        <time>2014-11-20T15:26:05Z</time>
      </trkpt>
      <trkpt lat="47.15027" lon="-0.93548">
        <ele>95</ele>
        <time>2014-11-20T15:26:07Z</time>
      </trkpt>
      <trkpt lat="47.15024" lon="-0.93546">
        <ele>95</ele>
        <time>2014-11-20T15:26:10Z</time>
      </trkpt>
      <trkpt lat="47.15021" lon="-0.93542">
        <ele>95</ele>
        <time>2014-11-20T15:26:13Z</time>
      </trkpt>
      <trkpt lat="47.15018" lon="-0.93541">
        <ele>95</ele>
        <time>2014-11-20T15:26:15Z</time>
      </trkpt>
      <trkpt lat="47.15015" lon="-0.93538">
        <ele>95</ele>
        <time>2014-11-20T15:26:18Z</time>
      </trkpt>
      <trkpt lat="47.15013" lon="-0.93536">
        <ele>95</ele>
        <time>2014-11-20T15:26:20Z</time>
      </trkpt>
      <trkpt lat="47.15009" lon="-0.93533">
        <ele>95</ele>
        <time>2014-11-20T15:26:23Z</time>
      </trkpt>
      <trkpt lat="47.15007" lon="-0.93531">
        <ele>95</ele>
        <time>2014-11-20T15:26:25Z</time>
      </trkpt>
      <trkpt lat="47.15005" lon="-0.93529">
        <ele>95</ele>
        <time>2014-11-20T15:26:27Z</time>
      </trkpt>
      <trkpt lat="47.15002" lon="-0.93527">
        <ele>95</ele>
        <time>2014-11-20T15:26:29Z</time>
      </trkpt>
      <trkpt lat="47.15" lon="-0.93525">
        <ele>95</ele>
        <time>2014-11-20T15:26:31Z</time>
      </trkpt>
      <trkpt lat="47.14997" lon="-0.93523">
        <ele>95</ele>
        <time>2014-11-20T15:26:33Z</time>
      </trkpt>
      <trkpt lat="47.14995" lon="-0.93523">
        <ele>95</ele>
        <time>2014-11-20T15:26:35Z</time>
      </trkpt>
      <trkpt lat="47.14993" lon="-0.93524">
        <ele>95</ele>
        <time>2014-11-20T15:26:37Z</time>
      </trkpt>
      <trkpt lat="47.14991" lon="-0.93526">
        <ele>95</ele>
        <time>2014-11-20T15:26:39Z</time>
      </trkpt>
      <trkpt lat="47.14988" lon="-0.93528">
        <ele>95</ele>
        <time>2014-11-20T15:26:41Z</time>
      </trkpt>
      <trkpt lat="47.14986" lon="-0.9353">
        <ele>95</ele>
        <time>2014-11-20T15:26:43Z</time>
      </trkpt>
      <trkpt lat="47.14985" lon="-0.93532">
        <ele>95</ele>
        <time>2014-11-20T15:26:45Z</time>
      </trkpt>
      <trkpt lat="47.14983" lon="-0.93534">
        <ele>95</ele>
        <time>2014-11-20T15:26:47Z</time>
      </trkpt>
      <trkpt lat="47.14981" lon="-0.93537">
        <ele>95</ele>
        <time>2014-11-20T15:26:49Z</time>
      </trkpt>
      <trkpt lat="47.14979" lon="-0.93539">
        <ele>95</ele>
        <time>2014-11-20T15:26:51Z</time>
      </trkpt>
      <trkpt lat="47.14976" lon="-0.93541">
        <ele>95</ele>
        <time>2014-11-20T15:26:53Z</time>
      </trkpt>
      <trkpt lat="47.14974" lon="-0.93543">
        <ele>95</ele>
        <time>2014-11-20T15:26:55Z</time>
      </trkpt>
      <trkpt lat="47.14972" lon="-0.93545">
        <ele>95</ele>
        <time>2014-11-20T15:26:57Z</time>
      </trkpt>
      <trkpt lat="47.1497" lon="-0.93547">
        <ele>95</ele>
        <time>2014-11-20T15:26:59Z</time>
      </trkpt>
      <trkpt lat="47.14967" lon="-0.93549">
        <ele>95</ele>
        <time>2014-11-20T15:27:01Z</time>
      </trkpt>
      <trkpt lat="47.14964" lon="-0.93553">
        <ele>95</ele>
        <time>2014-11-20T15:27:04Z</time>
      </trkpt>
      <trkpt lat="47.1496" lon="-0.93555">
        <ele>95</ele>
        <time>2014-11-20T15:27:07Z</time>
      </trkpt>
      <trkpt lat="47.14958" lon="-0.93558">
        <ele>95</ele>
        <time>2014-11-20T15:27:09Z</time>
      </trkpt>
      <trkpt lat="47.14956" lon="-0.9356">
        <ele>95</ele>
        <time>2014-11-20T15:27:11Z</time>
      </trkpt>
      <trkpt lat="47.14953" lon="-0.93561">
        <ele>95</ele>
        <time>2014-11-20T15:27:13Z</time>
      </trkpt>
      <trkpt lat="47.14951" lon="-0.93563">
        <ele>95</ele>
        <time>2014-11-20T15:27:15Z</time>
      </trkpt>
      <trkpt lat="47.14948" lon="-0.93566">
        <ele>95</ele>
        <time>2014-11-20T15:27:18Z</time>
      </trkpt>
      <trkpt lat="47.14946" lon="-0.93568">
        <ele>95</ele>
        <time>2014-11-20T15:27:20Z</time>
      </trkpt>
      <trkpt lat="47.14942" lon="-0.93571">
        <ele>95</ele>
        <time>2014-11-20T15:27:23Z</time>
      </trkpt>
      <trkpt lat="47.14939" lon="-0.93573">
        <ele>95</ele>
        <time>2014-11-20T15:27:26Z</time>
      </trkpt>
      <trkpt lat="47.14937" lon="-0.93575">
        <ele>95</ele>
        <time>2014-11-20T15:27:28Z</time>
      </trkpt>
      <trkpt lat="47.14933" lon="-0.93578">
        <ele>95</ele>
        <time>2014-11-20T15:27:31Z</time>
      </trkpt>
      <trkpt lat="47.14931" lon="-0.9358">
        <ele>95</ele>
        <time>2014-11-20T15:27:33Z</time>
      </trkpt>
      <trkpt lat="47.14929" lon="-0.93582">
        <ele>95</ele>
        <time>2014-11-20T15:27:35Z</time>
      </trkpt>
      <trkpt lat="47.14926" lon="-0.93585">
        <ele>95</ele>
        <time>2014-11-20T15:27:38Z</time>
      </trkpt>
      <trkpt lat="47.14923" lon="-0.93586">
        <ele>95</ele>
        <time>2014-11-20T15:27:40Z</time>
      </trkpt>
      <trkpt lat="47.14921" lon="-0.93587">
        <ele>95</ele>
        <time>2014-11-20T15:27:42Z</time>
      </trkpt>
      <trkpt lat="47.14919" lon="-0.93589">
        <ele>95</ele>
        <time>2014-11-20T15:27:44Z</time>
      </trkpt>
      <trkpt lat="47.14916" lon="-0.93592">
        <ele>95</ele>
        <time>2014-11-20T15:27:47Z</time>
      </trkpt>
      <trkpt lat="47.14914" lon="-0.93594">
        <ele>95</ele>
        <time>2014-11-20T15:27:49Z</time>
      </trkpt>
      <trkpt lat="47.14911" lon="-0.93595">
        <ele>95</ele>
        <time>2014-11-20T15:27:51Z</time>
      </trkpt>
      <trkpt lat="47.14909" lon="-0.93598">
        <ele>95</ele>
        <time>2014-11-20T15:27:53Z</time>
      </trkpt>
      <trkpt lat="47.14906" lon="-0.93599">
        <ele>95</ele>
        <time>2014-11-20T15:27:55Z</time>
      </trkpt>
      <trkpt lat="47.14904" lon="-0.93603">
        <ele>95</ele>
        <time>2014-11-20T15:27:58Z</time>
      </trkpt>
      <trkpt lat="47.14901" lon="-0.93607">
        <ele>95</ele>
        <time>2014-11-20T15:28:01Z</time>
      </trkpt>
      <trkpt lat="47.14898" lon="-0.9361">
        <ele>95</ele>
        <time>2014-11-20T15:28:04Z</time>
      </trkpt>
      <trkpt lat="47.14896" lon="-0.93611">
        <ele>95</ele>
        <time>2014-11-20T15:28:06Z</time>
      </trkpt>
      <trkpt lat="47.14894" lon="-0.93609">
        <ele>95</ele>
        <time>2014-11-20T15:28:10Z</time>
      </trkpt>
      <trkpt lat="47.14893" lon="-0.93607">
        <ele>95</ele>
        <time>2014-11-20T15:28:12Z</time>
      </trkpt>
      <trkpt lat="47.14893" lon="-0.93606">
        <ele>95</ele>
        <time>2014-11-20T15:28:15Z</time>
      </trkpt>
      <trkpt lat="47.14892" lon="-0.93603">
        <ele>95</ele>
        <time>2014-11-20T15:28:17Z</time>
      </trkpt>
      <trkpt lat="47.14891" lon="-0.93601">
        <ele>95</ele>
        <time>2014-11-20T15:28:19Z</time>
      </trkpt>
      <trkpt lat="47.1489" lon="-0.93598">
        <ele>95</ele>
        <time>2014-11-20T15:28:21Z</time>
      </trkpt>
      <trkpt lat="47.14889" lon="-0.93595">
        <ele>95</ele>
        <time>2014-11-20T15:28:23Z</time>
      </trkpt>
      <trkpt lat="47.14887" lon="-0.93591">
        <ele>95</ele>
        <time>2014-11-20T15:28:25Z</time>
      </trkpt>
      <trkpt lat="47.14886" lon="-0.93588">
        <ele>95</ele>
        <time>2014-11-20T15:28:27Z</time>
      </trkpt>
      <trkpt lat="47.14885" lon="-0.93585">
        <ele>95</ele>
        <time>2014-11-20T15:28:29Z</time>
      </trkpt>
      <trkpt lat="47.14884" lon="-0.93581">
        <ele>95</ele>
        <time>2014-11-20T15:28:32Z</time>
      </trkpt>
      <trkpt lat="47.14883" lon="-0.93579">
        <ele>95</ele>
        <time>2014-11-20T15:28:34Z</time>
      </trkpt>
      <trkpt lat="47.14883" lon="-0.93575">
        <ele>95</ele>
        <time>2014-11-20T15:28:36Z</time>
      </trkpt>
      <trkpt lat="47.1488" lon="-0.9357">
        <ele>95</ele>
        <time>2014-11-20T15:28:39Z</time>
      </trkpt>
      <trkpt lat="47.1488" lon="-0.93568">
        <ele>95</ele>
        <time>2014-11-20T15:28:41Z</time>
      </trkpt>
      <trkpt lat="47.14879" lon="-0.93566">
        <ele>95</ele>
        <time>2014-11-20T15:28:43Z</time>
      </trkpt>
      <trkpt lat="47.14878" lon="-0.93563">
        <ele>95</ele>
        <time>2014-11-20T15:28:45Z</time>
      </trkpt>
      <trkpt lat="47.14877" lon="-0.93559">
        <ele>95</ele>
        <time>2014-11-20T15:28:47Z</time>
      </trkpt>
      <trkpt lat="47.14875" lon="-0.93555">
        <ele>95</ele>
        <time>2014-11-20T15:28:49Z</time>
      </trkpt>
      <trkpt lat="47.14874" lon="-0.93552">
        <ele>95</ele>
        <time>2014-11-20T15:28:51Z</time>
      </trkpt>
      <trkpt lat="47.14873" lon="-0.93549">
        <ele>95</ele>
        <time>2014-11-20T15:28:53Z</time>
      </trkpt>
      <trkpt lat="47.14871" lon="-0.93544">
        <ele>95</ele>
        <time>2014-11-20T15:28:56Z</time>
      </trkpt>
      <trkpt lat="47.1487" lon="-0.93541">
        <ele>95</ele>
        <time>2014-11-20T15:28:58Z</time>
      </trkpt>
      <trkpt lat="47.14869" lon="-0.93537">
        <ele>95</ele>
        <time>2014-11-20T15:29:00Z</time>
      </trkpt>
      <trkpt lat="47.14868" lon="-0.93534">
        <ele>95</ele>
        <time>2014-11-20T15:29:02Z</time>
      </trkpt>
      <trkpt lat="47.14867" lon="-0.9353">
        <ele>95</ele>
        <time>2014-11-20T15:29:04Z</time>
      </trkpt>
      <trkpt lat="47.14866" lon="-0.93527">
        <ele>95</ele>
        <time>2014-11-20T15:29:06Z</time>
      </trkpt>
      <trkpt lat="47.14864" lon="-0.93523">
        <ele>95</ele>
        <time>2014-11-20T15:29:08Z</time>
      </trkpt>
      <trkpt lat="47.14862" lon="-0.93519">
        <ele>95</ele>
        <time>2014-11-20T15:29:10Z</time>
      </trkpt>
      <trkpt lat="47.14861" lon="-0.93515">
        <ele>95</ele>
        <time>2014-11-20T15:29:12Z</time>
      </trkpt>
      <trkpt lat="47.14859" lon="-0.93511">
        <ele>95</ele>
        <time>2014-11-20T15:29:14Z</time>
      </trkpt>
      <trkpt lat="47.14858" lon="-0.93507">
        <ele>95</ele>
        <time>2014-11-20T15:29:16Z</time>
      </trkpt>
      <trkpt lat="47.14856" lon="-0.93505">
        <ele>95</ele>
        <time>2014-11-20T15:29:18Z</time>
      </trkpt>
      <trkpt lat="47.14854" lon="-0.93501">
        <ele>95</ele>
        <time>2014-11-20T15:29:21Z</time>
      </trkpt>
      <trkpt lat="47.14852" lon="-0.93498">
        <ele>95</ele>
        <time>2014-11-20T15:29:23Z</time>
      </trkpt>
      <trkpt lat="47.14851" lon="-0.93494">
        <ele>95</ele>
        <time>2014-11-20T15:29:25Z</time>
      </trkpt>
      <trkpt lat="47.14848" lon="-0.9349">
        <ele>95</ele>
        <time>2014-11-20T15:29:28Z</time>
      </trkpt>
      <trkpt lat="47.14846" lon="-0.93487">
        <ele>95</ele>
        <time>2014-11-20T15:29:30Z</time>
      </trkpt>
      <trkpt lat="47.14844" lon="-0.93484">
        <ele>95</ele>
        <time>2014-11-20T15:29:32Z</time>
      </trkpt>
      <trkpt lat="47.14843" lon="-0.93481">
        <ele>95</ele>
        <time>2014-11-20T15:29:34Z</time>
      </trkpt>
      <trkpt lat="47.14841" lon="-0.93479">
        <ele>95</ele>
        <time>2014-11-20T15:29:36Z</time>
      </trkpt>
      <trkpt lat="47.14839" lon="-0.93477">
        <ele>95</ele>
        <time>2014-11-20T15:29:38Z</time>
      </trkpt>
      <trkpt lat="47.14837" lon="-0.93475">
        <ele>95</ele>
        <time>2014-11-20T15:29:40Z</time>
      </trkpt>
      <trkpt lat="47.14834" lon="-0.93471">
        <ele>95</ele>
        <time>2014-11-20T15:29:43Z</time>
      </trkpt>
      <trkpt lat="47.14832" lon="-0.93469">
        <ele>94</ele>
        <time>2014-11-20T15:29:46Z</time>
      </trkpt>
      <trkpt lat="47.14828" lon="-0.93467">
        <ele>94</ele>
        <time>2014-11-20T15:29:49Z</time>
      </trkpt>
      <trkpt lat="47.14826" lon="-0.93465">
        <ele>93</ele>
        <time>2014-11-20T15:29:51Z</time>
      </trkpt>
      <trkpt lat="47.14825" lon="-0.93463">
        <ele>92</ele>
        <time>2014-11-20T15:29:53Z</time>
      </trkpt>
      <trkpt lat="47.14822" lon="-0.93461">
        <ele>92</ele>
        <time>2014-11-20T15:29:55Z</time>
      </trkpt>
      <trkpt lat="47.1482" lon="-0.93458">
        <ele>92</ele>
        <time>2014-11-20T15:29:57Z</time>
      </trkpt>
      <trkpt lat="47.14817" lon="-0.93454">
        <ele>92</ele>
        <time>2014-11-20T15:30:00Z</time>
      </trkpt>
      <trkpt lat="47.14816" lon="-0.93452">
        <ele>92</ele>
        <time>2014-11-20T15:30:02Z</time>
      </trkpt>
      <trkpt lat="47.14813" lon="-0.93449">
        <ele>92</ele>
        <time>2014-11-20T15:30:04Z</time>
      </trkpt>
      <trkpt lat="47.14811" lon="-0.93447">
        <ele>92</ele>
        <time>2014-11-20T15:30:06Z</time>
      </trkpt>
      <trkpt lat="47.14809" lon="-0.93445">
        <ele>92</ele>
        <time>2014-11-20T15:30:08Z</time>
      </trkpt>
      <trkpt lat="47.14808" lon="-0.93443">
        <ele>91</ele>
        <time>2014-11-20T15:30:10Z</time>
      </trkpt>
      <trkpt lat="47.14806" lon="-0.93441">
        <ele>90</ele>
        <time>2014-11-20T15:30:12Z</time>
      </trkpt>
      <trkpt lat="47.14805" lon="-0.93439">
        <ele>89</ele>
        <time>2014-11-20T15:30:14Z</time>
      </trkpt>
      <trkpt lat="47.14803" lon="-0.93436">
        <ele>89</ele>
        <time>2014-11-20T15:30:16Z</time>
      </trkpt>
      <trkpt lat="47.14802" lon="-0.93431">
        <ele>89</ele>
        <time>2014-11-20T15:30:18Z</time>
      </trkpt>
      <trkpt lat="47.148" lon="-0.93427">
        <ele>89</ele>
        <time>2014-11-20T15:30:20Z</time>
      </trkpt>
      <trkpt lat="47.14799" lon="-0.93424">
        <ele>89</ele>
        <time>2014-11-20T15:30:22Z</time>
      </trkpt>
      <trkpt lat="47.14798" lon="-0.93421">
        <ele>89</ele>
        <time>2014-11-20T15:30:24Z</time>
      </trkpt>
      <trkpt lat="47.14796" lon="-0.93417">
        <ele>89</ele>
        <time>2014-11-20T15:30:26Z</time>
      </trkpt>
      <trkpt lat="47.14796" lon="-0.93414">
        <ele>89</ele>
        <time>2014-11-20T15:30:28Z</time>
      </trkpt>
      <trkpt lat="47.14795" lon="-0.93411">
        <ele>89</ele>
        <time>2014-11-20T15:30:30Z</time>
      </trkpt>
      <trkpt lat="47.14793" lon="-0.93407">
        <ele>89</ele>
        <time>2014-11-20T15:30:32Z</time>
      </trkpt>
      <trkpt lat="47.14792" lon="-0.93403">
        <ele>89</ele>
        <time>2014-11-20T15:30:34Z</time>
      </trkpt>
      <trkpt lat="47.14791" lon="-0.93397">
        <ele>89</ele>
        <time>2014-11-20T15:30:36Z</time>
      </trkpt>
      <trkpt lat="47.1479" lon="-0.93393">
        <ele>89</ele>
        <time>2014-11-20T15:30:38Z</time>
      </trkpt>
      <trkpt lat="47.14789" lon="-0.93389">
        <ele>89</ele>
        <time>2014-11-20T15:30:40Z</time>
      </trkpt>
      <trkpt lat="47.14788" lon="-0.93384">
        <ele>89</ele>
        <time>2014-11-20T15:30:42Z</time>
      </trkpt>
      <trkpt lat="47.14787" lon="-0.93379">
        <ele>89</ele>
        <time>2014-11-20T15:30:44Z</time>
      </trkpt>
      <trkpt lat="47.14786" lon="-0.93375">
        <ele>89</ele>
        <time>2014-11-20T15:30:46Z</time>
      </trkpt>
      <trkpt lat="47.14785" lon="-0.93371">
        <ele>89</ele>
        <time>2014-11-20T15:30:48Z</time>
      </trkpt>
      <trkpt lat="47.14785" lon="-0.93367">
        <ele>89</ele>
        <time>2014-11-20T15:30:50Z</time>
      </trkpt>
      <trkpt lat="47.14784" lon="-0.93363">
        <ele>89</ele>
        <time>2014-11-20T15:30:52Z</time>
      </trkpt>
      <trkpt lat="47.14783" lon="-0.93359">
        <ele>89</ele>
        <time>2014-11-20T15:30:54Z</time>
      </trkpt>
      <trkpt lat="47.14783" lon="-0.93356">
        <ele>89</ele>
        <time>2014-11-20T15:30:56Z</time>
      </trkpt>
      <trkpt lat="47.14783" lon="-0.93352">
        <ele>89</ele>
        <time>2014-11-20T15:30:58Z</time>
      </trkpt>
      <trkpt lat="47.14783" lon="-0.93348">
        <ele>89</ele>
        <time>2014-11-20T15:31:00Z</time>
      </trkpt>
      <trkpt lat="47.14783" lon="-0.93344">
        <ele>89</ele>
        <time>2014-11-20T15:31:02Z</time>
      </trkpt>
      <trkpt lat="47.14782" lon="-0.9334">
        <ele>89</ele>
        <time>2014-11-20T15:31:04Z</time>
      </trkpt>
      <trkpt lat="47.14782" lon="-0.93336">
        <ele>89</ele>
        <time>2014-11-20T15:31:06Z</time>
      </trkpt>
      <trkpt lat="47.14781" lon="-0.93332">
        <ele>89</ele>
        <time>2014-11-20T15:31:08Z</time>
      </trkpt>
      <trkpt lat="47.1478" lon="-0.93328">
        <ele>89</ele>
        <time>2014-11-20T15:31:10Z</time>
      </trkpt>
      <trkpt lat="47.1478" lon="-0.93324">
        <ele>89</ele>
        <time>2014-11-20T15:31:12Z</time>
      </trkpt>
      <trkpt lat="47.1478" lon="-0.9332">
        <ele>89</ele>
        <time>2014-11-20T15:31:14Z</time>
      </trkpt>
      <trkpt lat="47.1478" lon="-0.93316">
        <ele>89</ele>
        <time>2014-11-20T15:31:16Z</time>
      </trkpt>
      <trkpt lat="47.14779" lon="-0.93312">
        <ele>89</ele>
        <time>2014-11-20T15:31:18Z</time>
      </trkpt>
      <trkpt lat="47.14779" lon="-0.93308">
        <ele>89</ele>
        <time>2014-11-20T15:31:20Z</time>
      </trkpt>
      <trkpt lat="47.14779" lon="-0.93304">
        <ele>89</ele>
        <time>2014-11-20T15:31:22Z</time>
      </trkpt>
      <trkpt lat="47.14779" lon="-0.933">
        <ele>89</ele>
        <time>2014-11-20T15:31:24Z</time>
      </trkpt>
      <trkpt lat="47.14779" lon="-0.93295">
        <ele>89</ele>
        <time>2014-11-20T15:31:26Z</time>
      </trkpt>
      <trkpt lat="47.14779" lon="-0.93291">
        <ele>89</ele>
        <time>2014-11-20T15:31:28Z</time>
      </trkpt>
      <trkpt lat="47.14779" lon="-0.93287">
        <ele>89</ele>
        <time>2014-11-20T15:31:30Z</time>
      </trkpt>
      <trkpt lat="47.14779" lon="-0.93284">
        <ele>89</ele>
        <time>2014-11-20T15:31:32Z</time>
      </trkpt>
      <trkpt lat="47.14779" lon="-0.93281">
        <ele>89</ele>
        <time>2014-11-20T15:31:34Z</time>
      </trkpt>
      <trkpt lat="47.14779" lon="-0.93278">
        <ele>89</ele>
        <time>2014-11-20T15:31:36Z</time>
      </trkpt>
      <trkpt lat="47.14779" lon="-0.93274">
        <ele>89</ele>
        <time>2014-11-20T15:31:38Z</time>
      </trkpt>
      <trkpt lat="47.14779" lon="-0.9327">
        <ele>89</ele>
        <time>2014-11-20T15:31:40Z</time>
      </trkpt>
      <trkpt lat="47.14779" lon="-0.93266">
        <ele>89</ele>
        <time>2014-11-20T15:31:42Z</time>
      </trkpt>
      <trkpt lat="47.1478" lon="-0.93262">
        <ele>89</ele>
        <time>2014-11-20T15:31:44Z</time>
      </trkpt>
      <trkpt lat="47.1478" lon="-0.93258">
        <ele>89</ele>
        <time>2014-11-20T15:31:46Z</time>
      </trkpt>
      <trkpt lat="47.1478" lon="-0.93254">
        <ele>89</ele>
        <time>2014-11-20T15:31:48Z</time>
      </trkpt>
      <trkpt lat="47.14781" lon="-0.9325">
        <ele>89</ele>
        <time>2014-11-20T15:31:50Z</time>
      </trkpt>
      <trkpt lat="47.14781" lon="-0.93246">
        <ele>89</ele>
        <time>2014-11-20T15:31:52Z</time>
      </trkpt>
      <trkpt lat="47.14782" lon="-0.93242">
        <ele>89</ele>
        <time>2014-11-20T15:31:54Z</time>
      </trkpt>
      <trkpt lat="47.14782" lon="-0.93238">
        <ele>89</ele>
        <time>2014-11-20T15:31:56Z</time>
      </trkpt>
      <trkpt lat="47.14782" lon="-0.93234">
        <ele>89</ele>
        <time>2014-11-20T15:31:58Z</time>
      </trkpt>
      <trkpt lat="47.14782" lon="-0.9323">
        <ele>89</ele>
        <time>2014-11-20T15:32:00Z</time>
      </trkpt>
      <trkpt lat="47.14783" lon="-0.93225">
        <ele>89</ele>
        <time>2014-11-20T15:32:02Z</time>
      </trkpt>
      <trkpt lat="47.14783" lon="-0.93221">
        <ele>89</ele>
        <time>2014-11-20T15:32:04Z</time>
      </trkpt>
      <trkpt lat="47.14784" lon="-0.93217">
        <ele>89</ele>
        <time>2014-11-20T15:32:06Z</time>
      </trkpt>
      <trkpt lat="47.14784" lon="-0.93213">
        <ele>89</ele>
        <time>2014-11-20T15:32:08Z</time>
      </trkpt>
      <trkpt lat="47.14785" lon="-0.93209">
        <ele>89</ele>
        <time>2014-11-20T15:32:10Z</time>
      </trkpt>
      <trkpt lat="47.14785" lon="-0.93205">
        <ele>89</ele>
        <time>2014-11-20T15:32:12Z</time>
      </trkpt>
      <trkpt lat="47.14785" lon="-0.93202">
        <ele>89</ele>
        <time>2014-11-20T15:32:14Z</time>
      </trkpt>
      <trkpt lat="47.14786" lon="-0.93198">
        <ele>89</ele>
        <time>2014-11-20T15:32:16Z</time>
      </trkpt>
      <trkpt lat="47.14786" lon="-0.93195">
        <ele>89</ele>
        <time>2014-11-20T15:32:18Z</time>
      </trkpt>
      <trkpt lat="47.14787" lon="-0.93191">
        <ele>89</ele>
        <time>2014-11-20T15:32:20Z</time>
      </trkpt>
      <trkpt lat="47.14787" lon="-0.93186">
        <ele>89</ele>
        <time>2014-11-20T15:32:22Z</time>
      </trkpt>
      <trkpt lat="47.14788" lon="-0.93182">
        <ele>89</ele>
        <time>2014-11-20T15:32:24Z</time>
      </trkpt>
      <trkpt lat="47.14789" lon="-0.93178">
        <ele>89</ele>
        <time>2014-11-20T15:32:26Z</time>
      </trkpt>
      <trkpt lat="47.14789" lon="-0.93174">
        <ele>89</ele>
        <time>2014-11-20T15:32:28Z</time>
      </trkpt>
      <trkpt lat="47.14789" lon="-0.9317">
        <ele>89</ele>
        <time>2014-11-20T15:32:30Z</time>
      </trkpt>
      <trkpt lat="47.1479" lon="-0.93166">
        <ele>89</ele>
        <time>2014-11-20T15:32:32Z</time>
      </trkpt>
      <trkpt lat="47.1479" lon="-0.93162">
        <ele>89</ele>
        <time>2014-11-20T15:32:34Z</time>
      </trkpt>
      <trkpt lat="47.1479" lon="-0.93158">
        <ele>89</ele>
        <time>2014-11-20T15:32:36Z</time>
      </trkpt>
      <trkpt lat="47.14791" lon="-0.93154">
        <ele>89</ele>
        <time>2014-11-20T15:32:38Z</time>
      </trkpt>
      <trkpt lat="47.14791" lon="-0.9315">
        <ele>89</ele>
        <time>2014-11-20T15:32:40Z</time>
      </trkpt>
      <trkpt lat="47.14792" lon="-0.93146">
        <ele>89</ele>
        <time>2014-11-20T15:32:42Z</time>
      </trkpt>
      <trkpt lat="47.14792" lon="-0.93142">
        <ele>89</ele>
        <time>2014-11-20T15:32:44Z</time>
      </trkpt>
      <trkpt lat="47.14793" lon="-0.93138">
        <ele>89</ele>
        <time>2014-11-20T15:32:46Z</time>
      </trkpt>
      <trkpt lat="47.14793" lon="-0.93134">
        <ele>89</ele>
        <time>2014-11-20T15:32:48Z</time>
      </trkpt>
      <trkpt lat="47.14793" lon="-0.9313">
        <ele>89</ele>
        <time>2014-11-20T15:32:50Z</time>
      </trkpt>
      <trkpt lat="47.14794" lon="-0.93126">
        <ele>89</ele>
        <time>2014-11-20T15:32:52Z</time>
      </trkpt>
      <trkpt lat="47.14794" lon="-0.93122">
        <ele>89</ele>
        <time>2014-11-20T15:32:54Z</time>
      </trkpt>
      <trkpt lat="47.14795" lon="-0.93118">
        <ele>89</ele>
        <time>2014-11-20T15:32:56Z</time>
      </trkpt>
      <trkpt lat="47.14795" lon="-0.93114">
        <ele>89</ele>
        <time>2014-11-20T15:32:58Z</time>
      </trkpt>
      <trkpt lat="47.14795" lon="-0.9311">
        <ele>89</ele>
        <time>2014-11-20T15:33:00Z</time>
      </trkpt>
      <trkpt lat="47.14795" lon="-0.93106">
        <ele>89</ele>
        <time>2014-11-20T15:33:02Z</time>
      </trkpt>
      <trkpt lat="47.14796" lon="-0.93102">
        <ele>89</ele>
        <time>2014-11-20T15:33:04Z</time>
      </trkpt>
      <trkpt lat="47.14796" lon="-0.93098">
        <ele>89</ele>
        <time>2014-11-20T15:33:06Z</time>
      </trkpt>
      <trkpt lat="47.14796" lon="-0.93094">
        <ele>89</ele>
        <time>2014-11-20T15:33:08Z</time>
      </trkpt>
      <trkpt lat="47.14796" lon="-0.9309">
        <ele>89</ele>
        <time>2014-11-20T15:33:10Z</time>
      </trkpt>
      <trkpt lat="47.14796" lon="-0.93086">
        <ele>89</ele>
        <time>2014-11-20T15:33:12Z</time>
      </trkpt>
      <trkpt lat="47.14796" lon="-0.93082">
        <ele>89</ele>
        <time>2014-11-20T15:33:14Z</time>
      </trkpt>
      <trkpt lat="47.14796" lon="-0.93078">
        <ele>89</ele>
        <time>2014-11-20T15:33:16Z</time>
      </trkpt>
      <trkpt lat="47.14796" lon="-0.93073">
        <ele>89</ele>
        <time>2014-11-20T15:33:18Z</time>
      </trkpt>
      <trkpt lat="47.14796" lon="-0.93069">
        <ele>89</ele>
        <time>2014-11-20T15:33:20Z</time>
      </trkpt>
      <trkpt lat="47.14795" lon="-0.93066">
        <ele>89</ele>
        <time>2014-11-20T15:33:22Z</time>
      </trkpt>
      <trkpt lat="47.14795" lon="-0.93061">
        <ele>89</ele>
        <time>2014-11-20T15:33:24Z</time>
      </trkpt>
      <trkpt lat="47.14795" lon="-0.93058">
        <ele>89</ele>
        <time>2014-11-20T15:33:26Z</time>
      </trkpt>
      <trkpt lat="47.14794" lon="-0.93053">
        <ele>89</ele>
        <time>2014-11-20T15:33:28Z</time>
      </trkpt>
      <trkpt lat="47.14793" lon="-0.93049">
        <ele>89</ele>
        <time>2014-11-20T15:33:30Z</time>
      </trkpt>
      <trkpt lat="47.14793" lon="-0.93045">
        <ele>89</ele>
        <time>2014-11-20T15:33:32Z</time>
      </trkpt>
      <trkpt lat="47.14792" lon="-0.93042">
        <ele>89</ele>
        <time>2014-11-20T15:33:34Z</time>
      </trkpt>
      <trkpt lat="47.14792" lon="-0.93038">
        <ele>89</ele>
        <time>2014-11-20T15:33:36Z</time>
      </trkpt>
      <trkpt lat="47.14791" lon="-0.93034">
        <ele>89</ele>
        <time>2014-11-20T15:33:38Z</time>
      </trkpt>
      <trkpt lat="47.1479" lon="-0.9303">
        <ele>89</ele>
        <time>2014-11-20T15:33:40Z</time>
      </trkpt>
      <trkpt lat="47.1479" lon="-0.93026">
        <ele>89</ele>
        <time>2014-11-20T15:33:42Z</time>
      </trkpt>
      <trkpt lat="47.14789" lon="-0.93022">
        <ele>89</ele>
        <time>2014-11-20T15:33:44Z</time>
      </trkpt>
      <trkpt lat="47.14788" lon="-0.93018">
        <ele>89</ele>
        <time>2014-11-20T15:33:46Z</time>
      </trkpt>
      <trkpt lat="47.14788" lon="-0.93014">
        <ele>89</ele>
        <time>2014-11-20T15:33:48Z</time>
      </trkpt>
      <trkpt lat="47.14787" lon="-0.93011">
        <ele>89</ele>
        <time>2014-11-20T15:33:50Z</time>
      </trkpt>
      <trkpt lat="47.14787" lon="-0.93007">
        <ele>89</ele>
        <time>2014-11-20T15:33:52Z</time>
      </trkpt>
      <trkpt lat="47.14786" lon="-0.93003">
        <ele>89</ele>
        <time>2014-11-20T15:33:54Z</time>
      </trkpt>
      <trkpt lat="47.14785" lon="-0.93">
        <ele>89</ele>
        <time>2014-11-20T15:33:56Z</time>
      </trkpt>
      <trkpt lat="47.14784" lon="-0.92996">
        <ele>89</ele>
        <time>2014-11-20T15:33:58Z</time>
      </trkpt>
      <trkpt lat="47.14783" lon="-0.92992">
        <ele>89</ele>
        <time>2014-11-20T15:34:00Z</time>
      </trkpt>
      <trkpt lat="47.14783" lon="-0.92989">
        <ele>89</ele>
        <time>2014-11-20T15:34:02Z</time>
      </trkpt>
      <trkpt lat="47.14782" lon="-0.92985">
        <ele>89</ele>
        <time>2014-11-20T15:34:04Z</time>
      </trkpt>
      <trkpt lat="47.14782" lon="-0.92981">
        <ele>89</ele>
        <time>2014-11-20T15:34:06Z</time>
      </trkpt>
      <trkpt lat="47.14781" lon="-0.92977">
        <ele>89</ele>
        <time>2014-11-20T15:34:08Z</time>
      </trkpt>
      <trkpt lat="47.1478" lon="-0.92974">
        <ele>89</ele>
        <time>2014-11-20T15:34:10Z</time>
      </trkpt>
      <trkpt lat="47.1478" lon="-0.9297">
        <ele>89</ele>
        <time>2014-11-20T15:34:12Z</time>
      </trkpt>
      <trkpt lat="47.14779" lon="-0.92966">
        <ele>89</ele>
        <time>2014-11-20T15:34:14Z</time>
      </trkpt>
      <trkpt lat="47.14778" lon="-0.92961">
        <ele>89</ele>
        <time>2014-11-20T15:34:16Z</time>
      </trkpt>
      <trkpt lat="47.14777" lon="-0.92957">
        <ele>89</ele>
        <time>2014-11-20T15:34:18Z</time>
      </trkpt>
      <trkpt lat="47.14777" lon="-0.92953">
        <ele>89</ele>
        <time>2014-11-20T15:34:20Z</time>
      </trkpt>
      <trkpt lat="47.14776" lon="-0.92949">
        <ele>89</ele>
        <time>2014-11-20T15:34:22Z</time>
      </trkpt>
      <trkpt lat="47.14775" lon="-0.92945">
        <ele>89</ele>
        <time>2014-11-20T15:34:24Z</time>
      </trkpt>
      <trkpt lat="47.14775" lon="-0.92941">
        <ele>89</ele>
        <time>2014-11-20T15:34:26Z</time>
      </trkpt>
      <trkpt lat="47.14774" lon="-0.92937">
        <ele>89</ele>
        <time>2014-11-20T15:34:28Z</time>
      </trkpt>
      <trkpt lat="47.14773" lon="-0.92933">
        <ele>89</ele>
        <time>2014-11-20T15:34:30Z</time>
      </trkpt>
      <trkpt lat="47.14772" lon="-0.92929">
        <ele>89</ele>
        <time>2014-11-20T15:34:32Z</time>
      </trkpt>
      <trkpt lat="47.14772" lon="-0.92925">
        <ele>89</ele>
        <time>2014-11-20T15:34:34Z</time>
      </trkpt>
      <trkpt lat="47.14771" lon="-0.92921">
        <ele>89</ele>
        <time>2014-11-20T15:34:36Z</time>
      </trkpt>
      <trkpt lat="47.14771" lon="-0.92918">
        <ele>89</ele>
        <time>2014-11-20T15:34:38Z</time>
      </trkpt>
      <trkpt lat="47.1477" lon="-0.92914">
        <ele>89</ele>
        <time>2014-11-20T15:34:40Z</time>
      </trkpt>
      <trkpt lat="47.1477" lon="-0.92911">
        <ele>89</ele>
        <time>2014-11-20T15:34:42Z</time>
      </trkpt>
      <trkpt lat="47.14769" lon="-0.92908">
        <ele>89</ele>
        <time>2014-11-20T15:34:44Z</time>
      </trkpt>
      <trkpt lat="47.14769" lon="-0.92906">
        <ele>89</ele>
        <time>2014-11-20T15:34:46Z</time>
      </trkpt>
      <trkpt lat="47.14769" lon="-0.92904">
        <ele>89</ele>
        <time>2014-11-20T15:34:50Z</time>
      </trkpt>
      <trkpt lat="47.14768" lon="-0.92902">
        <ele>89</ele>
        <time>2014-11-20T15:34:53Z</time>
      </trkpt>
      <trkpt lat="47.14768" lon="-0.929">
        <ele>89</ele>
        <time>2014-11-20T15:34:57Z</time>
      </trkpt>
      <trkpt lat="47.14767" lon="-0.92896">
        <ele>89</ele>
        <time>2014-11-20T15:34:59Z</time>
      </trkpt>
      <trkpt lat="47.14766" lon="-0.92892">
        <ele>89</ele>
        <time>2014-11-20T15:35:01Z</time>
      </trkpt>
      <trkpt lat="47.14765" lon="-0.92887">
        <ele>89</ele>
        <time>2014-11-20T15:35:03Z</time>
      </trkpt>
      <trkpt lat="47.14764" lon="-0.92881">
        <ele>89</ele>
        <time>2014-11-20T15:35:05Z</time>
      </trkpt>
      <trkpt lat="47.14762" lon="-0.92876">
        <ele>89</ele>
        <time>2014-11-20T15:35:07Z</time>
      </trkpt>
      <trkpt lat="47.14761" lon="-0.92872">
        <ele>89</ele>
        <time>2014-11-20T15:35:09Z</time>
      </trkpt>
      <trkpt lat="47.1476" lon="-0.92868">
        <ele>89</ele>
        <time>2014-11-20T15:35:11Z</time>
      </trkpt>
      <trkpt lat="47.14759" lon="-0.92863">
        <ele>89</ele>
        <time>2014-11-20T15:35:13Z</time>
      </trkpt>
      <trkpt lat="47.14759" lon="-0.92858">
        <ele>89</ele>
        <time>2014-11-20T15:35:15Z</time>
      </trkpt>
      <trkpt lat="47.14758" lon="-0.92854">
        <ele>89</ele>
        <time>2014-11-20T15:35:17Z</time>
      </trkpt>
      <trkpt lat="47.14757" lon="-0.92848">
        <ele>89</ele>
        <time>2014-11-20T15:35:19Z</time>
      </trkpt>
      <trkpt lat="47.14756" lon="-0.92844">
        <ele>89</ele>
        <time>2014-11-20T15:35:21Z</time>
      </trkpt>
      <trkpt lat="47.14755" lon="-0.92839">
        <ele>89</ele>
        <time>2014-11-20T15:35:23Z</time>
      </trkpt>
      <trkpt lat="47.14754" lon="-0.92835">
        <ele>89</ele>
        <time>2014-11-20T15:35:25Z</time>
      </trkpt>
      <trkpt lat="47.14754" lon="-0.92831">
        <ele>89</ele>
        <time>2014-11-20T15:35:27Z</time>
      </trkpt>
      <trkpt lat="47.14753" lon="-0.92827">
        <ele>89</ele>
        <time>2014-11-20T15:35:29Z</time>
      </trkpt>
      <trkpt lat="47.14752" lon="-0.92822">
        <ele>89</ele>
        <time>2014-11-20T15:35:31Z</time>
      </trkpt>
      <trkpt lat="47.14752" lon="-0.92817">
        <ele>89</ele>
        <time>2014-11-20T15:35:33Z</time>
      </trkpt>
      <trkpt lat="47.14751" lon="-0.92813">
        <ele>89</ele>
        <time>2014-11-20T15:35:35Z</time>
      </trkpt>
      <trkpt lat="47.1475" lon="-0.92809">
        <ele>89</ele>
        <time>2014-11-20T15:35:37Z</time>
      </trkpt>
      <trkpt lat="47.14749" lon="-0.92806">
        <ele>89</ele>
        <time>2014-11-20T15:35:39Z</time>
      </trkpt>
      <trkpt lat="47.14748" lon="-0.92802">
        <ele>89</ele>
        <time>2014-11-20T15:35:41Z</time>
      </trkpt>
      <trkpt lat="47.14747" lon="-0.92796">
        <ele>89</ele>
        <time>2014-11-20T15:35:44Z</time>
      </trkpt>
      <trkpt lat="47.14747" lon="-0.92792">
        <ele>89</ele>
        <time>2014-11-20T15:35:46Z</time>
      </trkpt>
      <trkpt lat="47.14746" lon="-0.92788">
        <ele>89</ele>
        <time>2014-11-20T15:35:48Z</time>
      </trkpt>
      <trkpt lat="47.14746" lon="-0.92785">
        <ele>89</ele>
        <time>2014-11-20T15:35:50Z</time>
      </trkpt>
      <trkpt lat="47.14745" lon="-0.92781">
        <ele>89</ele>
        <time>2014-11-20T15:35:52Z</time>
      </trkpt>
      <trkpt lat="47.14744" lon="-0.92778">
        <ele>89</ele>
        <time>2014-11-20T15:35:54Z</time>
      </trkpt>
      <trkpt lat="47.14744" lon="-0.92774">
        <ele>89</ele>
        <time>2014-11-20T15:35:56Z</time>
      </trkpt>
      <trkpt lat="47.14743" lon="-0.92771">
        <ele>89</ele>
        <time>2014-11-20T15:35:58Z</time>
      </trkpt>
      <trkpt lat="47.14743" lon="-0.92767">
        <ele>89</ele>
        <time>2014-11-20T15:36:00Z</time>
      </trkpt>
      <trkpt lat="47.14742" lon="-0.92763">
        <ele>89</ele>
        <time>2014-11-20T15:36:02Z</time>
      </trkpt>
      <trkpt lat="47.14741" lon="-0.9276">
        <ele>89</ele>
        <time>2014-11-20T15:36:04Z</time>
      </trkpt>
      <trkpt lat="47.1474" lon="-0.92756">
        <ele>89</ele>
        <time>2014-11-20T15:36:06Z</time>
      </trkpt>
      <trkpt lat="47.14739" lon="-0.92752">
        <ele>89</ele>
        <time>2014-11-20T15:36:08Z</time>
      </trkpt>
      <trkpt lat="47.14738" lon="-0.92747">
        <ele>89</ele>
        <time>2014-11-20T15:36:11Z</time>
      </trkpt>
      <trkpt lat="47.14737" lon="-0.92743">
        <ele>89</ele>
        <time>2014-11-20T15:36:13Z</time>
      </trkpt>
      <trkpt lat="47.14736" lon="-0.92737">
        <ele>89</ele>
        <time>2014-11-20T15:36:16Z</time>
      </trkpt>
      <trkpt lat="47.14735" lon="-0.92733">
        <ele>89</ele>
        <time>2014-11-20T15:36:18Z</time>
      </trkpt>
      <trkpt lat="47.14735" lon="-0.92729">
        <ele>89</ele>
        <time>2014-11-20T15:36:20Z</time>
      </trkpt>
      <trkpt lat="47.14735" lon="-0.92725">
        <ele>89</ele>
        <time>2014-11-20T15:36:22Z</time>
      </trkpt>
      <trkpt lat="47.14734" lon="-0.92722">
        <ele>89</ele>
        <time>2014-11-20T15:36:24Z</time>
      </trkpt>
      <trkpt lat="47.14732" lon="-0.92716">
        <ele>89</ele>
        <time>2014-11-20T15:36:27Z</time>
      </trkpt>
      <trkpt lat="47.14732" lon="-0.92713">
        <ele>89</ele>
        <time>2014-11-20T15:36:29Z</time>
      </trkpt>
      <trkpt lat="47.14731" lon="-0.9271">
        <ele>89</ele>
        <time>2014-11-20T15:36:31Z</time>
      </trkpt>
      <trkpt lat="47.1473" lon="-0.92706">
        <ele>89</ele>
        <time>2014-11-20T15:36:33Z</time>
      </trkpt>
      <trkpt lat="47.14729" lon="-0.92702">
        <ele>89</ele>
        <time>2014-11-20T15:36:35Z</time>
      </trkpt>
      <trkpt lat="47.14728" lon="-0.92697">
        <ele>89</ele>
        <time>2014-11-20T15:36:37Z</time>
      </trkpt>
      <trkpt lat="47.14727" lon="-0.92694">
        <ele>89</ele>
        <time>2014-11-20T15:36:39Z</time>
      </trkpt>
      <trkpt lat="47.14726" lon="-0.9269">
        <ele>89</ele>
        <time>2014-11-20T15:36:41Z</time>
      </trkpt>
      <trkpt lat="47.14725" lon="-0.92686">
        <ele>89</ele>
        <time>2014-11-20T15:36:43Z</time>
      </trkpt>
      <trkpt lat="47.14724" lon="-0.92682">
        <ele>89</ele>
        <time>2014-11-20T15:36:45Z</time>
      </trkpt>
      <trkpt lat="47.14722" lon="-0.92679">
        <ele>89</ele>
        <time>2014-11-20T15:36:47Z</time>
      </trkpt>
      <trkpt lat="47.14721" lon="-0.92675">
        <ele>89</ele>
        <time>2014-11-20T15:36:49Z</time>
      </trkpt>
      <trkpt lat="47.1472" lon="-0.92671">
        <ele>88</ele>
        <time>2014-11-20T15:36:51Z</time>
      </trkpt>
      <trkpt lat="47.14719" lon="-0.92666">
        <ele>88</ele>
        <time>2014-11-20T15:36:54Z</time>
      </trkpt>
      <trkpt lat="47.14718" lon="-0.92663">
        <ele>87</ele>
        <time>2014-11-20T15:36:56Z</time>
      </trkpt>
      <trkpt lat="47.14716" lon="-0.92656">
        <ele>87</ele>
        <time>2014-11-20T15:36:59Z</time>
      </trkpt>
      <trkpt lat="47.14715" lon="-0.92652">
        <ele>87</ele>
        <time>2014-11-20T15:37:01Z</time>
      </trkpt>
      <trkpt lat="47.14713" lon="-0.92647">
        <ele>87</ele>
        <time>2014-11-20T15:37:04Z</time>
      </trkpt>
      <trkpt lat="47.14712" lon="-0.92643">
        <ele>87</ele>
        <time>2014-11-20T15:37:06Z</time>
      </trkpt>
      <trkpt lat="47.14711" lon="-0.92638">
        <ele>87</ele>
        <time>2014-11-20T15:37:08Z</time>
      </trkpt>
      <trkpt lat="47.1471" lon="-0.92632">
        <ele>86</ele>
        <time>2014-11-20T15:37:11Z</time>
      </trkpt>
      <trkpt lat="47.14709" lon="-0.92628">
        <ele>86</ele>
        <time>2014-11-20T15:37:13Z</time>
      </trkpt>
      <trkpt lat="47.14708" lon="-0.92624">
        <ele>86</ele>
        <time>2014-11-20T15:37:15Z</time>
      </trkpt>
      <trkpt lat="47.14707" lon="-0.92621">
        <ele>86</ele>
        <time>2014-11-20T15:37:17Z</time>
      </trkpt>
      <trkpt lat="47.14706" lon="-0.92615">
        <ele>86</ele>
        <time>2014-11-20T15:37:20Z</time>
      </trkpt>
      <trkpt lat="47.14705" lon="-0.92609">
        <ele>86</ele>
        <time>2014-11-20T15:37:23Z</time>
      </trkpt>
      <trkpt lat="47.14705" lon="-0.92603">
        <ele>85</ele>
        <time>2014-11-20T15:37:26Z</time>
      </trkpt>
      <trkpt lat="47.14704" lon="-0.92599">
        <ele>85</ele>
        <time>2014-11-20T15:37:28Z</time>
      </trkpt>
      <trkpt lat="47.14703" lon="-0.92595">
        <ele>84</ele>
        <time>2014-11-20T15:37:30Z</time>
      </trkpt>
      <trkpt lat="47.14702" lon="-0.92592">
        <ele>84</ele>
        <time>2014-11-20T15:37:32Z</time>
      </trkpt>
      <trkpt lat="47.147" lon="-0.92586">
        <ele>82</ele>
        <time>2014-11-20T15:37:35Z</time>
      </trkpt>
      <trkpt lat="47.14698" lon="-0.92581">
        <ele>82</ele>
        <time>2014-11-20T15:37:37Z</time>
      </trkpt>
      <trkpt lat="47.14697" lon="-0.92576">
        <ele>81</ele>
        <time>2014-11-20T15:37:40Z</time>
      </trkpt>
      <trkpt lat="47.14695" lon="-0.92571">
        <ele>80</ele>
        <time>2014-11-20T15:37:43Z</time>
      </trkpt>
      <trkpt lat="47.14695" lon="-0.92567">
        <ele>79</ele>
        <time>2014-11-20T15:37:45Z</time>
      </trkpt>
      <trkpt lat="47.14694" lon="-0.92563">
        <ele>79</ele>
        <time>2014-11-20T15:37:47Z</time>
      </trkpt>
      <trkpt lat="47.14693" lon="-0.92558">
        <ele>78</ele>
        <time>2014-11-20T15:37:49Z</time>
      </trkpt>
      <trkpt lat="47.14693" lon="-0.92555">
        <ele>78</ele>
        <time>2014-11-20T15:37:51Z</time>
      </trkpt>
      <trkpt lat="47.14692" lon="-0.92551">
        <ele>77</ele>
        <time>2014-11-20T15:37:53Z</time>
      </trkpt>
      <trkpt lat="47.14692" lon="-0.92548">
        <ele>77</ele>
        <time>2014-11-20T15:37:55Z</time>
      </trkpt>
      <trkpt lat="47.14691" lon="-0.92544">
        <ele>77</ele>
        <time>2014-11-20T15:37:58Z</time>
      </trkpt>
      <trkpt lat="47.1469" lon="-0.9254">
        <ele>76</ele>
        <time>2014-11-20T15:38:00Z</time>
      </trkpt>
      <trkpt lat="47.14689" lon="-0.92533">
        <ele>76</ele>
        <time>2014-11-20T15:38:03Z</time>
      </trkpt>
      <trkpt lat="47.14688" lon="-0.92528">
        <ele>76</ele>
        <time>2014-11-20T15:38:06Z</time>
      </trkpt>
      <trkpt lat="47.14687" lon="-0.92524">
        <ele>76</ele>
        <time>2014-11-20T15:38:08Z</time>
      </trkpt>
      <trkpt lat="47.14686" lon="-0.92519">
        <ele>76</ele>
        <time>2014-11-20T15:38:10Z</time>
      </trkpt>
      <trkpt lat="47.14685" lon="-0.92514">
        <ele>76</ele>
        <time>2014-11-20T15:38:12Z</time>
      </trkpt>
      <trkpt lat="47.14684" lon="-0.9251">
        <ele>76</ele>
        <time>2014-11-20T15:38:14Z</time>
      </trkpt>
      <trkpt lat="47.14684" lon="-0.92505">
        <ele>76</ele>
        <time>2014-11-20T15:38:17Z</time>
      </trkpt>
      <trkpt lat="47.14683" lon="-0.92501">
        <ele>76</ele>
        <time>2014-11-20T15:38:19Z</time>
      </trkpt>
      <trkpt lat="47.14683" lon="-0.92496">
        <ele>76</ele>
        <time>2014-11-20T15:38:22Z</time>
      </trkpt>
      <trkpt lat="47.14682" lon="-0.92493">
        <ele>76</ele>
        <time>2014-11-20T15:38:24Z</time>
      </trkpt>
      <trkpt lat="47.14681" lon="-0.92488">
        <ele>76</ele>
        <time>2014-11-20T15:38:26Z</time>
      </trkpt>
      <trkpt lat="47.14681" lon="-0.92484">
        <ele>76</ele>
        <time>2014-11-20T15:38:28Z</time>
      </trkpt>
      <trkpt lat="47.1468" lon="-0.9248">
        <ele>76</ele>
        <time>2014-11-20T15:38:31Z</time>
      </trkpt>
      <trkpt lat="47.1468" lon="-0.92475">
        <ele>76</ele>
        <time>2014-11-20T15:38:34Z</time>
      </trkpt>
      <trkpt lat="47.14679" lon="-0.9247">
        <ele>76</ele>
        <time>2014-11-20T15:38:36Z</time>
      </trkpt>
      <trkpt lat="47.14679" lon="-0.92465">
        <ele>76</ele>
        <time>2014-11-20T15:38:39Z</time>
      </trkpt>
      <trkpt lat="47.14679" lon="-0.92462">
        <ele>76</ele>
        <time>2014-11-20T15:38:41Z</time>
      </trkpt>
      <trkpt lat="47.14678" lon="-0.92458">
        <ele>76</ele>
        <time>2014-11-20T15:38:43Z</time>
      </trkpt>
      <trkpt lat="47.14677" lon="-0.92454">
        <ele>76</ele>
        <time>2014-11-20T15:38:45Z</time>
      </trkpt>
      <trkpt lat="47.14676" lon="-0.92448">
        <ele>76</ele>
        <time>2014-11-20T15:38:48Z</time>
      </trkpt>
      <trkpt lat="47.14675" lon="-0.92443">
        <ele>75</ele>
        <time>2014-11-20T15:38:51Z</time>
      </trkpt>
      <trkpt lat="47.14675" lon="-0.92439">
        <ele>75</ele>
        <time>2014-11-20T15:38:53Z</time>
      </trkpt>
      <trkpt lat="47.14674" lon="-0.92432">
        <ele>75</ele>
        <time>2014-11-20T15:38:56Z</time>
      </trkpt>
      <trkpt lat="47.14673" lon="-0.92428">
        <ele>75</ele>
        <time>2014-11-20T15:38:58Z</time>
      </trkpt>
      <trkpt lat="47.14671" lon="-0.92423">
        <ele>75</ele>
        <time>2014-11-20T15:39:00Z</time>
      </trkpt>
      <trkpt lat="47.14671" lon="-0.92419">
        <ele>75</ele>
        <time>2014-11-20T15:39:02Z</time>
      </trkpt>
      <trkpt lat="47.14671" lon="-0.92414">
        <ele>75</ele>
        <time>2014-11-20T15:39:05Z</time>
      </trkpt>
      <trkpt lat="47.14669" lon="-0.92408">
        <ele>75</ele>
        <time>2014-11-20T15:39:08Z</time>
      </trkpt>
      <trkpt lat="47.14669" lon="-0.92405">
        <ele>75</ele>
        <time>2014-11-20T15:39:10Z</time>
      </trkpt>
      <trkpt lat="47.14668" lon="-0.924">
        <ele>75</ele>
        <time>2014-11-20T15:39:13Z</time>
      </trkpt>
      <trkpt lat="47.14667" lon="-0.92397">
        <ele>75</ele>
        <time>2014-11-20T15:39:15Z</time>
      </trkpt>
      <trkpt lat="47.14666" lon="-0.92392">
        <ele>75</ele>
        <time>2014-11-20T15:39:18Z</time>
      </trkpt>
      <trkpt lat="47.14666" lon="-0.92388">
        <ele>75</ele>
        <time>2014-11-20T15:39:20Z</time>
      </trkpt>
      <trkpt lat="47.14665" lon="-0.92385">
        <ele>75</ele>
        <time>2014-11-20T15:39:22Z</time>
      </trkpt>
      <trkpt lat="47.14665" lon="-0.92381">
        <ele>75</ele>
        <time>2014-11-20T15:39:24Z</time>
      </trkpt>
      <trkpt lat="47.14664" lon="-0.92377">
        <ele>75</ele>
        <time>2014-11-20T15:39:26Z</time>
      </trkpt>
      <trkpt lat="47.14663" lon="-0.92371">
        <ele>75</ele>
        <time>2014-11-20T15:39:29Z</time>
      </trkpt>
      <trkpt lat="47.14663" lon="-0.92368">
        <ele>75</ele>
        <time>2014-11-20T15:39:31Z</time>
      </trkpt>
      <trkpt lat="47.14661" lon="-0.92362">
        <ele>75</ele>
        <time>2014-11-20T15:39:34Z</time>
      </trkpt>
      <trkpt lat="47.14661" lon="-0.92359">
        <ele>75</ele>
        <time>2014-11-20T15:39:36Z</time>
      </trkpt>
      <trkpt lat="47.1466" lon="-0.92353">
        <ele>75</ele>
        <time>2014-11-20T15:39:39Z</time>
      </trkpt>
      <trkpt lat="47.14659" lon="-0.92349">
        <ele>75</ele>
        <time>2014-11-20T15:39:41Z</time>
      </trkpt>
      <trkpt lat="47.14659" lon="-0.92346">
        <ele>75</ele>
        <time>2014-11-20T15:39:43Z</time>
      </trkpt>
      <trkpt lat="47.14658" lon="-0.92342">
        <ele>76</ele>
        <time>2014-11-20T15:39:45Z</time>
      </trkpt>
      <trkpt lat="47.14658" lon="-0.92338">
        <ele>76</ele>
        <time>2014-11-20T15:39:47Z</time>
      </trkpt>
      <trkpt lat="47.14657" lon="-0.92332">
        <ele>76</ele>
        <time>2014-11-20T15:39:50Z</time>
      </trkpt>
      <trkpt lat="47.14656" lon="-0.92329">
        <ele>76</ele>
        <time>2014-11-20T15:39:52Z</time>
      </trkpt>
      <trkpt lat="47.14656" lon="-0.92323">
        <ele>77</ele>
        <time>2014-11-20T15:39:55Z</time>
      </trkpt>
      <trkpt lat="47.14655" lon="-0.92319">
        <ele>77</ele>
        <time>2014-11-20T15:39:57Z</time>
      </trkpt>
      <trkpt lat="47.14654" lon="-0.92313">
        <ele>78</ele>
        <time>2014-11-20T15:40:00Z</time>
      </trkpt>
      <trkpt lat="47.14653" lon="-0.92308">
        <ele>78</ele>
        <time>2014-11-20T15:40:02Z</time>
      </trkpt>
      <trkpt lat="47.14653" lon="-0.92302">
        <ele>78</ele>
        <time>2014-11-20T15:40:05Z</time>
      </trkpt>
      <trkpt lat="47.14652" lon="-0.92298">
        <ele>79</ele>
        <time>2014-11-20T15:40:07Z</time>
      </trkpt>
      <trkpt lat="47.14651" lon="-0.92292">
        <ele>79</ele>
        <time>2014-11-20T15:40:10Z</time>
      </trkpt>
      <trkpt lat="47.1465" lon="-0.92289">
        <ele>79</ele>
        <time>2014-11-20T15:40:12Z</time>
      </trkpt>
      <trkpt lat="47.14649" lon="-0.92283">
        <ele>79</ele>
        <time>2014-11-20T15:40:15Z</time>
      </trkpt>
      <trkpt lat="47.14648" lon="-0.9228">
        <ele>80</ele>
        <time>2014-11-20T15:40:17Z</time>
      </trkpt>
      <trkpt lat="47.14648" lon="-0.92277">
        <ele>80</ele>
        <time>2014-11-20T15:40:19Z</time>
      </trkpt>
      <trkpt lat="47.14647" lon="-0.92273">
        <ele>81</ele>
        <time>2014-11-20T15:40:21Z</time>
      </trkpt>
      <trkpt lat="47.14646" lon="-0.92269">
        <ele>81</ele>
        <time>2014-11-20T15:40:23Z</time>
      </trkpt>
      <trkpt lat="47.14644" lon="-0.92264">
        <ele>81</ele>
        <time>2014-11-20T15:40:26Z</time>
      </trkpt>
      <trkpt lat="47.14643" lon="-0.92261">
        <ele>81</ele>
        <time>2014-11-20T15:40:28Z</time>
      </trkpt>
      <trkpt lat="47.14642" lon="-0.92256">
        <ele>82</ele>
        <time>2014-11-20T15:40:31Z</time>
      </trkpt>
      <trkpt lat="47.14641" lon="-0.92253">
        <ele>82</ele>
        <time>2014-11-20T15:40:33Z</time>
      </trkpt>
      <trkpt lat="47.14639" lon="-0.92247">
        <ele>82</ele>
        <time>2014-11-20T15:40:36Z</time>
      </trkpt>
      <trkpt lat="47.14638" lon="-0.92244">
        <ele>82</ele>
        <time>2014-11-20T15:40:38Z</time>
      </trkpt>
      <trkpt lat="47.14637" lon="-0.92239">
        <ele>83</ele>
        <time>2014-11-20T15:40:41Z</time>
      </trkpt>
      <trkpt lat="47.14635" lon="-0.92232">
        <ele>83</ele>
        <time>2014-11-20T15:40:44Z</time>
      </trkpt>
      <trkpt lat="47.14634" lon="-0.92228">
        <ele>83</ele>
        <time>2014-11-20T15:40:46Z</time>
      </trkpt>
      <trkpt lat="47.14633" lon="-0.92223">
        <ele>84</ele>
        <time>2014-11-20T15:40:49Z</time>
      </trkpt>
      <trkpt lat="47.14632" lon="-0.9222">
        <ele>84</ele>
        <time>2014-11-20T15:40:51Z</time>
      </trkpt>
      <trkpt lat="47.14631" lon="-0.92216">
        <ele>84</ele>
        <time>2014-11-20T15:40:53Z</time>
      </trkpt>
      <trkpt lat="47.14629" lon="-0.92213">
        <ele>84</ele>
        <time>2014-11-20T15:40:55Z</time>
      </trkpt>
      <trkpt lat="47.14629" lon="-0.92209">
        <ele>84</ele>
        <time>2014-11-20T15:40:57Z</time>
      </trkpt>
      <trkpt lat="47.14627" lon="-0.92205">
        <ele>84</ele>
        <time>2014-11-20T15:40:59Z</time>
      </trkpt>
      <trkpt lat="47.14625" lon="-0.922">
        <ele>84</ele>
        <time>2014-11-20T15:41:02Z</time>
      </trkpt>
      <trkpt lat="47.14624" lon="-0.92197">
        <ele>84</ele>
        <time>2014-11-20T15:41:04Z</time>
      </trkpt>
      <trkpt lat="47.14622" lon="-0.92192">
        <ele>84</ele>
        <time>2014-11-20T15:41:07Z</time>
      </trkpt>
      <trkpt lat="47.14621" lon="-0.92189">
        <ele>84</ele>
        <time>2014-11-20T15:41:09Z</time>
      </trkpt>
      <trkpt lat="47.1462" lon="-0.92186">
        <ele>84</ele>
        <time>2014-11-20T15:41:11Z</time>
      </trkpt>
      <trkpt lat="47.14619" lon="-0.92182">
        <ele>84</ele>
        <time>2014-11-20T15:41:13Z</time>
      </trkpt>
      <trkpt lat="47.14618" lon="-0.92178">
        <ele>84</ele>
        <time>2014-11-20T15:41:15Z</time>
      </trkpt>
      <trkpt lat="47.14617" lon="-0.92175">
        <ele>84</ele>
        <time>2014-11-20T15:41:17Z</time>
      </trkpt>
      <trkpt lat="47.14616" lon="-0.92172">
        <ele>84</ele>
        <time>2014-11-20T15:41:19Z</time>
      </trkpt>
      <trkpt lat="47.14615" lon="-0.92168">
        <ele>84</ele>
        <time>2014-11-20T15:41:21Z</time>
      </trkpt>
      <trkpt lat="47.14614" lon="-0.92163">
        <ele>85</ele>
        <time>2014-11-20T15:41:24Z</time>
      </trkpt>
      <trkpt lat="47.14613" lon="-0.9216">
        <ele>85</ele>
        <time>2014-11-20T15:41:26Z</time>
      </trkpt>
      <trkpt lat="47.14612" lon="-0.92156">
        <ele>85</ele>
        <time>2014-11-20T15:41:28Z</time>
      </trkpt>
      <trkpt lat="47.14611" lon="-0.92152">
        <ele>85</ele>
        <time>2014-11-20T15:41:30Z</time>
      </trkpt>
      <trkpt lat="47.1461" lon="-0.92147">
        <ele>85</ele>
        <time>2014-11-20T15:41:33Z</time>
      </trkpt>
      <trkpt lat="47.1461" lon="-0.92143">
        <ele>85</ele>
        <time>2014-11-20T15:41:35Z</time>
      </trkpt>
      <trkpt lat="47.1461" lon="-0.9214">
        <ele>85</ele>
        <time>2014-11-20T15:41:37Z</time>
      </trkpt>
      <trkpt lat="47.1461" lon="-0.92134">
        <ele>85</ele>
        <time>2014-11-20T15:41:39Z</time>
      </trkpt>
      <trkpt lat="47.1461" lon="-0.9213">
        <ele>85</ele>
        <time>2014-11-20T15:41:41Z</time>
      </trkpt>
      <trkpt lat="47.14611" lon="-0.92125">
        <ele>85</ele>
        <time>2014-11-20T15:41:44Z</time>
      </trkpt>
      <trkpt lat="47.14611" lon="-0.92119">
        <ele>85</ele>
        <time>2014-11-20T15:41:47Z</time>
      </trkpt>
      <trkpt lat="47.14611" lon="-0.92115">
        <ele>85</ele>
        <time>2014-11-20T15:41:49Z</time>
      </trkpt>
      <trkpt lat="47.14611" lon="-0.92112">
        <ele>86</ele>
        <time>2014-11-20T15:41:51Z</time>
      </trkpt>
      <trkpt lat="47.14612" lon="-0.92108">
        <ele>86</ele>
        <time>2014-11-20T15:41:53Z</time>
      </trkpt>
      <trkpt lat="47.14613" lon="-0.92104">
        <ele>86</ele>
        <time>2014-11-20T15:41:55Z</time>
      </trkpt>
      <trkpt lat="47.14615" lon="-0.92098">
        <ele>86</ele>
        <time>2014-11-20T15:41:58Z</time>
      </trkpt>
      <trkpt lat="47.14616" lon="-0.92095">
        <ele>86</ele>
        <time>2014-11-20T15:42:00Z</time>
      </trkpt>
      <trkpt lat="47.14618" lon="-0.92089">
        <ele>86</ele>
        <time>2014-11-20T15:42:03Z</time>
      </trkpt>
      <trkpt lat="47.14619" lon="-0.92085">
        <ele>86</ele>
        <time>2014-11-20T15:42:05Z</time>
      </trkpt>
      <trkpt lat="47.14619" lon="-0.92082">
        <ele>86</ele>
        <time>2014-11-20T15:42:07Z</time>
      </trkpt>
      <trkpt lat="47.14621" lon="-0.92079">
        <ele>86</ele>
        <time>2014-11-20T15:42:09Z</time>
      </trkpt>
      <trkpt lat="47.14621" lon="-0.92075">
        <ele>86</ele>
        <time>2014-11-20T15:42:11Z</time>
      </trkpt>
      <trkpt lat="47.14622" lon="-0.92071">
        <ele>86</ele>
        <time>2014-11-20T15:42:13Z</time>
      </trkpt>
      <trkpt lat="47.14623" lon="-0.92067">
        <ele>86</ele>
        <time>2014-11-20T15:42:15Z</time>
      </trkpt>
      <trkpt lat="47.14623" lon="-0.92064">
        <ele>86</ele>
        <time>2014-11-20T15:42:17Z</time>
      </trkpt>
      <trkpt lat="47.14624" lon="-0.9206">
        <ele>86</ele>
        <time>2014-11-20T15:42:19Z</time>
      </trkpt>
      <trkpt lat="47.14626" lon="-0.92055">
        <ele>86</ele>
        <time>2014-11-20T15:42:22Z</time>
      </trkpt>
      <trkpt lat="47.14626" lon="-0.92051">
        <ele>86</ele>
        <time>2014-11-20T15:42:24Z</time>
      </trkpt>
      <trkpt lat="47.14627" lon="-0.92048">
        <ele>86</ele>
        <time>2014-11-20T15:42:26Z</time>
      </trkpt>
      <trkpt lat="47.14629" lon="-0.92046">
        <ele>86</ele>
        <time>2014-11-20T15:42:28Z</time>
      </trkpt>
      <trkpt lat="47.1463" lon="-0.92043">
        <ele>86</ele>
        <time>2014-11-20T15:42:30Z</time>
      </trkpt>
      <trkpt lat="47.14633" lon="-0.92039">
        <ele>86</ele>
        <time>2014-11-20T15:42:33Z</time>
      </trkpt>
      <trkpt lat="47.14635" lon="-0.92036">
        <ele>86</ele>
        <time>2014-11-20T15:42:36Z</time>
      </trkpt>
      <trkpt lat="47.14638" lon="-0.92032">
        <ele>86</ele>
        <time>2014-11-20T15:42:40Z</time>
      </trkpt>
      <trkpt lat="47.14639" lon="-0.9203">
        <ele>86</ele>
        <time>2014-11-20T15:42:42Z</time>
      </trkpt>
      <trkpt lat="47.14639" lon="-0.92028">
        <ele>86</ele>
        <time>2014-11-20T15:42:45Z</time>
      </trkpt>
      <trkpt lat="47.14639" lon="-0.92025">
        <ele>86</ele>
        <time>2014-11-20T15:42:48Z</time>
      </trkpt>
      <trkpt lat="47.1464" lon="-0.92021">
        <ele>86</ele>
        <time>2014-11-20T15:42:51Z</time>
      </trkpt>
      <trkpt lat="47.14641" lon="-0.92018">
        <ele>86</ele>
        <time>2014-11-20T15:42:53Z</time>
      </trkpt>
      <trkpt lat="47.14642" lon="-0.92015">
        <ele>86</ele>
        <time>2014-11-20T15:42:55Z</time>
      </trkpt>
      <trkpt lat="47.14643" lon="-0.92012">
        <ele>86</ele>
        <time>2014-11-20T15:42:57Z</time>
      </trkpt>
      <trkpt lat="47.14643" lon="-0.92009">
        <ele>86</ele>
        <time>2014-11-20T15:42:59Z</time>
      </trkpt>
      <trkpt lat="47.14645" lon="-0.92005">
        <ele>86</ele>
        <time>2014-11-20T15:43:02Z</time>
      </trkpt>
      <trkpt lat="47.14646" lon="-0.92002">
        <ele>86</ele>
        <time>2014-11-20T15:43:04Z</time>
      </trkpt>
      <trkpt lat="47.14648" lon="-0.91999">
        <ele>86</ele>
        <time>2014-11-20T15:43:06Z</time>
      </trkpt>
      <trkpt lat="47.14649" lon="-0.91996">
        <ele>86</ele>
        <time>2014-11-20T15:43:08Z</time>
      </trkpt>
      <trkpt lat="47.14651" lon="-0.91993">
        <ele>85</ele>
        <time>2014-11-20T15:43:10Z</time>
      </trkpt>
      <trkpt lat="47.14653" lon="-0.91991">
        <ele>84</ele>
        <time>2014-11-20T15:43:12Z</time>
      </trkpt>
      <trkpt lat="47.14653" lon="-0.91988">
        <ele>83</ele>
        <time>2014-11-20T15:43:14Z</time>
      </trkpt>
      <trkpt lat="47.14654" lon="-0.91985">
        <ele>83</ele>
        <time>2014-11-20T15:43:16Z</time>
      </trkpt>
      <trkpt lat="47.14656" lon="-0.91982">
        <ele>82</ele>
        <time>2014-11-20T15:43:18Z</time>
      </trkpt>
      <trkpt lat="47.14657" lon="-0.91977">
        <ele>82</ele>
        <time>2014-11-20T15:43:20Z</time>
      </trkpt>
      <trkpt lat="47.14657" lon="-0.91974">
        <ele>81</ele>
        <time>2014-11-20T15:43:22Z</time>
      </trkpt>
      <trkpt lat="47.14658" lon="-0.9197">
        <ele>81</ele>
        <time>2014-11-20T15:43:24Z</time>
      </trkpt>
      <trkpt lat="47.1466" lon="-0.91967">
        <ele>81</ele>
        <time>2014-11-20T15:43:26Z</time>
      </trkpt>
      <trkpt lat="47.1466" lon="-0.91964">
        <ele>81</ele>
        <time>2014-11-20T15:43:28Z</time>
      </trkpt>
      <trkpt lat="47.1466" lon="-0.91961">
        <ele>81</ele>
        <time>2014-11-20T15:43:30Z</time>
      </trkpt>
      <trkpt lat="47.14661" lon="-0.91957">
        <ele>80</ele>
        <time>2014-11-20T15:43:32Z</time>
      </trkpt>
      <trkpt lat="47.14662" lon="-0.91954">
        <ele>80</ele>
        <time>2014-11-20T15:43:34Z</time>
      </trkpt>
      <trkpt lat="47.14662" lon="-0.91951">
        <ele>79</ele>
        <time>2014-11-20T15:43:36Z</time>
      </trkpt>
      <trkpt lat="47.14663" lon="-0.91947">
        <ele>79</ele>
        <time>2014-11-20T15:43:38Z</time>
      </trkpt>
      <trkpt lat="47.14663" lon="-0.91943">
        <ele>78</ele>
        <time>2014-11-20T15:43:40Z</time>
      </trkpt>
      <trkpt lat="47.14664" lon="-0.91939">
        <ele>78</ele>
        <time>2014-11-20T15:43:42Z</time>
      </trkpt>
      <trkpt lat="47.14665" lon="-0.91935">
        <ele>78</ele>
        <time>2014-11-20T15:43:44Z</time>
      </trkpt>
      <trkpt lat="47.14665" lon="-0.9193">
        <ele>78</ele>
        <time>2014-11-20T15:43:47Z</time>
      </trkpt>
      <trkpt lat="47.14666" lon="-0.91926">
        <ele>78</ele>
        <time>2014-11-20T15:43:49Z</time>
      </trkpt>
      <trkpt lat="47.14665" lon="-0.91923">
        <ele>78</ele>
        <time>2014-11-20T15:43:51Z</time>
      </trkpt>
      <trkpt lat="47.14666" lon="-0.91919">
        <ele>78</ele>
        <time>2014-11-20T15:43:53Z</time>
      </trkpt>
      <trkpt lat="47.14666" lon="-0.91916">
        <ele>78</ele>
        <time>2014-11-20T15:43:55Z</time>
      </trkpt>
      <trkpt lat="47.14666" lon="-0.91913">
        <ele>78</ele>
        <time>2014-11-20T15:43:57Z</time>
      </trkpt>
      <trkpt lat="47.14668" lon="-0.91909">
        <ele>78</ele>
        <time>2014-11-20T15:44:00Z</time>
      </trkpt>
      <trkpt lat="47.14669" lon="-0.91908">
        <ele>78</ele>
        <time>2014-11-20T15:44:02Z</time>
      </trkpt>
      <trkpt lat="47.14669" lon="-0.91904">
        <ele>78</ele>
        <time>2014-11-20T15:44:04Z</time>
      </trkpt>
      <trkpt lat="47.1467" lon="-0.919">
        <ele>78</ele>
        <time>2014-11-20T15:44:06Z</time>
      </trkpt>
      <trkpt lat="47.14669" lon="-0.91896">
        <ele>78</ele>
        <time>2014-11-20T15:44:08Z</time>
      </trkpt>
      <trkpt lat="47.14669" lon="-0.91892">
        <ele>78</ele>
        <time>2014-11-20T15:44:10Z</time>
      </trkpt>
      <trkpt lat="47.14669" lon="-0.91887">
        <ele>78</ele>
        <time>2014-11-20T15:44:12Z</time>
      </trkpt>
      <trkpt lat="47.1467" lon="-0.91884">
        <ele>78</ele>
        <time>2014-11-20T15:44:14Z</time>
      </trkpt>
      <trkpt lat="47.14673" lon="-0.9188">
        <ele>78</ele>
        <time>2014-11-20T15:44:17Z</time>
      </trkpt>
      <trkpt lat="47.14675" lon="-0.91877">
        <ele>78</ele>
        <time>2014-11-20T15:44:19Z</time>
      </trkpt>
      <trkpt lat="47.14677" lon="-0.91876">
        <ele>78</ele>
        <time>2014-11-20T15:44:21Z</time>
      </trkpt>
      <trkpt lat="47.14681" lon="-0.91873">
        <ele>78</ele>
        <time>2014-11-20T15:44:24Z</time>
      </trkpt>
      <trkpt lat="47.14683" lon="-0.91871">
        <ele>78</ele>
        <time>2014-11-20T15:44:26Z</time>
      </trkpt>
      <trkpt lat="47.14686" lon="-0.9187">
        <ele>77</ele>
        <time>2014-11-20T15:44:28Z</time>
      </trkpt>
      <trkpt lat="47.14688" lon="-0.91868">
        <ele>77</ele>
        <time>2014-11-20T15:44:30Z</time>
      </trkpt>
      <trkpt lat="47.1469" lon="-0.91865">
        <ele>77</ele>
        <time>2014-11-20T15:44:32Z</time>
      </trkpt>
      <trkpt lat="47.14691" lon="-0.91861">
        <ele>76</ele>
        <time>2014-11-20T15:44:34Z</time>
      </trkpt>
      <trkpt lat="47.14693" lon="-0.91859">
        <ele>75</ele>
        <time>2014-11-20T15:44:36Z</time>
      </trkpt>
      <trkpt lat="47.14695" lon="-0.91858">
        <ele>75</ele>
        <time>2014-11-20T15:44:38Z</time>
      </trkpt>
      <trkpt lat="47.14698" lon="-0.91855">
        <ele>73</ele>
        <time>2014-11-20T15:44:41Z</time>
      </trkpt>
      <trkpt lat="47.147" lon="-0.91853">
        <ele>73</ele>
        <time>2014-11-20T15:44:43Z</time>
      </trkpt>
      <trkpt lat="47.14702" lon="-0.91852">
        <ele>73</ele>
        <time>2014-11-20T15:44:45Z</time>
      </trkpt>
      <trkpt lat="47.14704" lon="-0.9185">
        <ele>72</ele>
        <time>2014-11-20T15:44:47Z</time>
      </trkpt>
      <trkpt lat="47.14707" lon="-0.91848">
        <ele>72</ele>
        <time>2014-11-20T15:44:49Z</time>
      </trkpt>
      <trkpt lat="47.14708" lon="-0.91845">
        <ele>72</ele>
        <time>2014-11-20T15:44:51Z</time>
      </trkpt>
      <trkpt lat="47.14709" lon="-0.91843">
        <ele>72</ele>
        <time>2014-11-20T15:44:53Z</time>
      </trkpt>
      <trkpt lat="47.1471" lon="-0.9184">
        <ele>71</ele>
        <time>2014-11-20T15:44:55Z</time>
      </trkpt>
      <trkpt lat="47.1471" lon="-0.91837">
        <ele>71</ele>
        <time>2014-11-20T15:44:57Z</time>
      </trkpt>
      <trkpt lat="47.1471" lon="-0.91833">
        <ele>71</ele>
        <time>2014-11-20T15:44:59Z</time>
      </trkpt>
      <trkpt lat="47.14708" lon="-0.91828">
        <ele>71</ele>
        <time>2014-11-20T15:45:02Z</time>
      </trkpt>
      <trkpt lat="47.14706" lon="-0.91826">
        <ele>71</ele>
        <time>2014-11-20T15:45:04Z</time>
      </trkpt>
      <trkpt lat="47.14703" lon="-0.91825">
        <ele>71</ele>
        <time>2014-11-20T15:45:06Z</time>
      </trkpt>
      <trkpt lat="47.14699" lon="-0.91822">
        <ele>71</ele>
        <time>2014-11-20T15:45:08Z</time>
      </trkpt>
      <trkpt lat="47.14697" lon="-0.91821">
        <ele>71</ele>
        <time>2014-11-20T15:45:10Z</time>
      </trkpt>
      <trkpt lat="47.14694" lon="-0.91819">
        <ele>71</ele>
        <time>2014-11-20T15:45:12Z</time>
      </trkpt>
      <trkpt lat="47.14692" lon="-0.91818">
        <ele>71</ele>
        <time>2014-11-20T15:45:14Z</time>
      </trkpt>
      <trkpt lat="47.14689" lon="-0.91817">
        <ele>71</ele>
        <time>2014-11-20T15:45:16Z</time>
      </trkpt>
      <trkpt lat="47.14687" lon="-0.91815">
        <ele>71</ele>
        <time>2014-11-20T15:45:18Z</time>
      </trkpt>
      <trkpt lat="47.14684" lon="-0.91813">
        <ele>71</ele>
        <time>2014-11-20T15:45:21Z</time>
      </trkpt>
      <trkpt lat="47.14681" lon="-0.91812">
        <ele>71</ele>
        <time>2014-11-20T15:45:23Z</time>
      </trkpt>
      <trkpt lat="47.14678" lon="-0.9181">
        <ele>71</ele>
        <time>2014-11-20T15:45:26Z</time>
      </trkpt>
      <trkpt lat="47.14675" lon="-0.91809">
        <ele>71</ele>
        <time>2014-11-20T15:45:28Z</time>
      </trkpt>
      <trkpt lat="47.14673" lon="-0.91808">
        <ele>71</ele>
        <time>2014-11-20T15:45:30Z</time>
      </trkpt>
      <trkpt lat="47.1467" lon="-0.91807">
        <ele>71</ele>
        <time>2014-11-20T15:45:32Z</time>
      </trkpt>
      <trkpt lat="47.14668" lon="-0.91805">
        <ele>71</ele>
        <time>2014-11-20T15:45:34Z</time>
      </trkpt>
      <trkpt lat="47.14665" lon="-0.91804">
        <ele>71</ele>
        <time>2014-11-20T15:45:36Z</time>
      </trkpt>
      <trkpt lat="47.14663" lon="-0.91803">
        <ele>71</ele>
        <time>2014-11-20T15:45:38Z</time>
      </trkpt>
      <trkpt lat="47.1466" lon="-0.91802">
        <ele>71</ele>
        <time>2014-11-20T15:45:40Z</time>
      </trkpt>
      <trkpt lat="47.14657" lon="-0.918">
        <ele>71</ele>
        <time>2014-11-20T15:45:43Z</time>
      </trkpt>
      <trkpt lat="47.14654" lon="-0.91799">
        <ele>71</ele>
        <time>2014-11-20T15:45:45Z</time>
      </trkpt>
      <trkpt lat="47.14651" lon="-0.91799">
        <ele>71</ele>
        <time>2014-11-20T15:45:47Z</time>
      </trkpt>
      <trkpt lat="47.14648" lon="-0.91797">
        <ele>71</ele>
        <time>2014-11-20T15:45:50Z</time>
      </trkpt>
      <trkpt lat="47.14645" lon="-0.91796">
        <ele>71</ele>
        <time>2014-11-20T15:45:52Z</time>
      </trkpt>
      <trkpt lat="47.14643" lon="-0.91795">
        <ele>71</ele>
        <time>2014-11-20T15:45:54Z</time>
      </trkpt>
      <trkpt lat="47.14641" lon="-0.91794">
        <ele>71</ele>
        <time>2014-11-20T15:45:56Z</time>
      </trkpt>
      <trkpt lat="47.1464" lon="-0.91794">
        <ele>71</ele>
        <time>2014-11-20T15:45:58Z</time>
      </trkpt>
      <trkpt lat="47.14637" lon="-0.91792">
        <ele>71</ele>
        <time>2014-11-20T15:46:00Z</time>
      </trkpt>
      <trkpt lat="47.14634" lon="-0.9179">
        <ele>71</ele>
        <time>2014-11-20T15:46:02Z</time>
      </trkpt>
      <trkpt lat="47.14632" lon="-0.91789">
        <ele>71</ele>
        <time>2014-11-20T15:46:04Z</time>
      </trkpt>
      <trkpt lat="47.14629" lon="-0.91787">
        <ele>71</ele>
        <time>2014-11-20T15:46:07Z</time>
      </trkpt>
      <trkpt lat="47.14627" lon="-0.91786">
        <ele>71</ele>
        <time>2014-11-20T15:46:09Z</time>
      </trkpt>
      <trkpt lat="47.14626" lon="-0.91785">
        <ele>71</ele>
        <time>2014-11-20T15:46:11Z</time>
      </trkpt>
      <trkpt lat="47.14626" lon="-0.91782">
        <ele>71</ele>
        <time>2014-11-20T15:46:21Z</time>
      </trkpt>
      <trkpt lat="47.14625" lon="-0.91781">
        <ele>71</ele>
        <time>2014-11-20T15:46:25Z</time>
      </trkpt>
      <trkpt lat="47.14626" lon="-0.91779">
        <ele>71</ele>
        <time>2014-11-20T15:46:31Z</time>
      </trkpt>
      <trkpt lat="47.14626" lon="-0.91777">
        <ele>71</ele>
        <time>2014-11-20T15:46:38Z</time>
      </trkpt>
      <trkpt lat="47.14626" lon="-0.91776">
        <ele>71</ele>
        <time>2014-11-20T15:46:42Z</time>
      </trkpt>
      <trkpt lat="47.14625" lon="-0.91775">
        <ele>71</ele>
        <time>2014-11-20T15:46:45Z</time>
      </trkpt>
      <trkpt lat="47.14624" lon="-0.91774">
        <ele>71</ele>
        <time>2014-11-20T15:46:47Z</time>
      </trkpt>
      <trkpt lat="47.14623" lon="-0.91773">
        <ele>71</ele>
        <time>2014-11-20T15:46:49Z</time>
      </trkpt>
      <trkpt lat="47.14621" lon="-0.91772">
        <ele>71</ele>
        <time>2014-11-20T15:46:51Z</time>
      </trkpt>
      <trkpt lat="47.14619" lon="-0.91767">
        <ele>71</ele>
        <time>2014-11-20T15:46:54Z</time>
      </trkpt>
      <trkpt lat="47.14619" lon="-0.91765">
        <ele>71</ele>
        <time>2014-11-20T15:46:57Z</time>
      </trkpt>
      <trkpt lat="47.14618" lon="-0.91763">
        <ele>71</ele>
        <time>2014-11-20T15:46:59Z</time>
      </trkpt>
      <trkpt lat="47.14616" lon="-0.91762">
        <ele>71</ele>
        <time>2014-11-20T15:47:01Z</time>
      </trkpt>
      <trkpt lat="47.14614" lon="-0.9176">
        <ele>71</ele>
        <time>2014-11-20T15:47:03Z</time>
      </trkpt>
      <trkpt lat="47.14613" lon="-0.91759">
        <ele>71</ele>
        <time>2014-11-20T15:47:05Z</time>
      </trkpt>
      <trkpt lat="47.14612" lon="-0.91758">
        <ele>71</ele>
        <time>2014-11-20T15:47:07Z</time>
      </trkpt>
      <trkpt lat="47.14611" lon="-0.91756">
        <ele>71</ele>
        <time>2014-11-20T15:47:09Z</time>
      </trkpt>
      <trkpt lat="47.1461" lon="-0.91754">
        <ele>71</ele>
        <time>2014-11-20T15:47:11Z</time>
      </trkpt>
      <trkpt lat="47.14608" lon="-0.91751">
        <ele>71</ele>
        <time>2014-11-20T15:47:13Z</time>
      </trkpt>
      <trkpt lat="47.14606" lon="-0.91749">
        <ele>71</ele>
        <time>2014-11-20T15:47:15Z</time>
      </trkpt>
      <trkpt lat="47.14605" lon="-0.91747">
        <ele>71</ele>
        <time>2014-11-20T15:47:17Z</time>
      </trkpt>
      <trkpt lat="47.14604" lon="-0.91744">
        <ele>71</ele>
        <time>2014-11-20T15:47:19Z</time>
      </trkpt>
      <trkpt lat="47.14603" lon="-0.91741">
        <ele>71</ele>
        <time>2014-11-20T15:47:21Z</time>
      </trkpt>
      <trkpt lat="47.14602" lon="-0.91737">
        <ele>71</ele>
        <time>2014-11-20T15:47:24Z</time>
      </trkpt>
      <trkpt lat="47.146" lon="-0.91733">
        <ele>71</ele>
        <time>2014-11-20T15:47:26Z</time>
      </trkpt>
      <trkpt lat="47.14599" lon="-0.91728">
        <ele>71</ele>
        <time>2014-11-20T15:47:29Z</time>
      </trkpt>
      <trkpt lat="47.14597" lon="-0.91726">
        <ele>71</ele>
        <time>2014-11-20T15:47:31Z</time>
      </trkpt>
      <trkpt lat="47.14596" lon="-0.91724">
        <ele>71</ele>
        <time>2014-11-20T15:47:33Z</time>
      </trkpt>
      <trkpt lat="47.14595" lon="-0.91722">
        <ele>71</ele>
        <time>2014-11-20T15:47:35Z</time>
      </trkpt>
      <trkpt lat="47.14594" lon="-0.9172">
        <ele>71</ele>
        <time>2014-11-20T15:47:37Z</time>
      </trkpt>
      <trkpt lat="47.14593" lon="-0.91717">
        <ele>71</ele>
        <time>2014-11-20T15:47:39Z</time>
      </trkpt>
      <trkpt lat="47.14592" lon="-0.91715">
        <ele>71</ele>
        <time>2014-11-20T15:47:41Z</time>
      </trkpt>
      <trkpt lat="47.1459" lon="-0.91711">
        <ele>71</ele>
        <time>2014-11-20T15:47:44Z</time>
      </trkpt>
      <trkpt lat="47.14588" lon="-0.91708">
        <ele>71</ele>
        <time>2014-11-20T15:47:47Z</time>
      </trkpt>
      <trkpt lat="47.14587" lon="-0.91705">
        <ele>71</ele>
        <time>2014-11-20T15:47:49Z</time>
      </trkpt>
      <trkpt lat="47.14584" lon="-0.91701">
        <ele>71</ele>
        <time>2014-11-20T15:47:51Z</time>
      </trkpt>
      <trkpt lat="47.14582" lon="-0.91698">
        <ele>71</ele>
        <time>2014-11-20T15:47:53Z</time>
      </trkpt>
      <trkpt lat="47.14581" lon="-0.91695">
        <ele>71</ele>
        <time>2014-11-20T15:47:55Z</time>
      </trkpt>
      <trkpt lat="47.14579" lon="-0.91693">
        <ele>71</ele>
        <time>2014-11-20T15:47:57Z</time>
      </trkpt>
      <trkpt lat="47.14577" lon="-0.9169">
        <ele>71</ele>
        <time>2014-11-20T15:47:59Z</time>
      </trkpt>
      <trkpt lat="47.14576" lon="-0.91688">
        <ele>71</ele>
        <time>2014-11-20T15:48:01Z</time>
      </trkpt>
      <trkpt lat="47.14574" lon="-0.91686">
        <ele>71</ele>
        <time>2014-11-20T15:48:03Z</time>
      </trkpt>
      <trkpt lat="47.14573" lon="-0.91684">
        <ele>71</ele>
        <time>2014-11-20T15:48:05Z</time>
      </trkpt>
      <trkpt lat="47.14571" lon="-0.91681">
        <ele>71</ele>
        <time>2014-11-20T15:48:07Z</time>
      </trkpt>
      <trkpt lat="47.1457" lon="-0.91679">
        <ele>71</ele>
        <time>2014-11-20T15:48:09Z</time>
      </trkpt>
      <trkpt lat="47.14569" lon="-0.91677">
        <ele>71</ele>
        <time>2014-11-20T15:48:11Z</time>
      </trkpt>
      <trkpt lat="47.14569" lon="-0.91675">
        <ele>71</ele>
        <time>2014-11-20T15:48:13Z</time>
      </trkpt>
      <trkpt lat="47.14566" lon="-0.91671">
        <ele>72</ele>
        <time>2014-11-20T15:48:16Z</time>
      </trkpt>
      <trkpt lat="47.14565" lon="-0.91668">
        <ele>73</ele>
        <time>2014-11-20T15:48:18Z</time>
      </trkpt>
      <trkpt lat="47.14563" lon="-0.91666">
        <ele>73</ele>
        <time>2014-11-20T15:48:20Z</time>
      </trkpt>
      <trkpt lat="47.14562" lon="-0.91663">
        <ele>73</ele>
        <time>2014-11-20T15:48:22Z</time>
      </trkpt>
      <trkpt lat="47.1456" lon="-0.91661">
        <ele>73</ele>
        <time>2014-11-20T15:48:24Z</time>
      </trkpt>
      <trkpt lat="47.14558" lon="-0.91659">
        <ele>73</ele>
        <time>2014-11-20T15:48:26Z</time>
      </trkpt>
      <trkpt lat="47.14558" lon="-0.91657">
        <ele>73</ele>
        <time>2014-11-20T15:48:28Z</time>
      </trkpt>
      <trkpt lat="47.14557" lon="-0.91655">
        <ele>74</ele>
        <time>2014-11-20T15:48:30Z</time>
      </trkpt>
      <trkpt lat="47.14555" lon="-0.91653">
        <ele>74</ele>
        <time>2014-11-20T15:48:32Z</time>
      </trkpt>
      <trkpt lat="47.14554" lon="-0.91651">
        <ele>74</ele>
        <time>2014-11-20T15:48:34Z</time>
      </trkpt>
      <trkpt lat="47.14552" lon="-0.91649">
        <ele>74</ele>
        <time>2014-11-20T15:48:36Z</time>
      </trkpt>
      <trkpt lat="47.14551" lon="-0.91647">
        <ele>74</ele>
        <time>2014-11-20T15:48:38Z</time>
      </trkpt>
      <trkpt lat="47.1455" lon="-0.91645">
        <ele>74</ele>
        <time>2014-11-20T15:48:40Z</time>
      </trkpt>
      <trkpt lat="47.14548" lon="-0.91643">
        <ele>74</ele>
        <time>2014-11-20T15:48:42Z</time>
      </trkpt>
      <trkpt lat="47.14547" lon="-0.9164">
        <ele>74</ele>
        <time>2014-11-20T15:48:44Z</time>
      </trkpt>
      <trkpt lat="47.14545" lon="-0.91638">
        <ele>74</ele>
        <time>2014-11-20T15:48:46Z</time>
      </trkpt>
      <trkpt lat="47.14544" lon="-0.91636">
        <ele>74</ele>
        <time>2014-11-20T15:48:48Z</time>
      </trkpt>
      <trkpt lat="47.14543" lon="-0.91633">
        <ele>74</ele>
        <time>2014-11-20T15:48:50Z</time>
      </trkpt>
      <trkpt lat="47.14542" lon="-0.91632">
        <ele>74</ele>
        <time>2014-11-20T15:48:52Z</time>
      </trkpt>
      <trkpt lat="47.1454" lon="-0.9163">
        <ele>74</ele>
        <time>2014-11-20T15:48:54Z</time>
      </trkpt>
      <trkpt lat="47.1454" lon="-0.91628">
        <ele>74</ele>
        <time>2014-11-20T15:48:56Z</time>
      </trkpt>
      <trkpt lat="47.14539" lon="-0.91626">
        <ele>74</ele>
        <time>2014-11-20T15:48:58Z</time>
      </trkpt>
      <trkpt lat="47.14538" lon="-0.91623">
        <ele>74</ele>
        <time>2014-11-20T15:49:00Z</time>
      </trkpt>
      <trkpt lat="47.14536" lon="-0.91619">
        <ele>74</ele>
        <time>2014-11-20T15:49:03Z</time>
      </trkpt>
      <trkpt lat="47.14534" lon="-0.91616">
        <ele>74</ele>
        <time>2014-11-20T15:49:05Z</time>
      </trkpt>
      <trkpt lat="47.14532" lon="-0.91614">
        <ele>75</ele>
        <time>2014-11-20T15:49:07Z</time>
      </trkpt>
      <trkpt lat="47.14529" lon="-0.91611">
        <ele>75</ele>
        <time>2014-11-20T15:49:10Z</time>
      </trkpt>
      <trkpt lat="47.14527" lon="-0.9161">
        <ele>76</ele>
        <time>2014-11-20T15:49:12Z</time>
      </trkpt>
      <trkpt lat="47.14526" lon="-0.91608">
        <ele>76</ele>
        <time>2014-11-20T15:49:14Z</time>
      </trkpt>
      <trkpt lat="47.14524" lon="-0.91607">
        <ele>76</ele>
        <time>2014-11-20T15:49:16Z</time>
      </trkpt>
      <trkpt lat="47.14522" lon="-0.91605">
        <ele>76</ele>
        <time>2014-11-20T15:49:18Z</time>
      </trkpt>
      <trkpt lat="47.1452" lon="-0.91603">
        <ele>76</ele>
        <time>2014-11-20T15:49:20Z</time>
      </trkpt>
      <trkpt lat="47.14518" lon="-0.91602">
        <ele>76</ele>
        <time>2014-11-20T15:49:22Z</time>
      </trkpt>
      <trkpt lat="47.14516" lon="-0.91601">
        <ele>76</ele>
        <time>2014-11-20T15:49:24Z</time>
      </trkpt>
      <trkpt lat="47.14514" lon="-0.91599">
        <ele>76</ele>
        <time>2014-11-20T15:49:26Z</time>
      </trkpt>
      <trkpt lat="47.14512" lon="-0.91598">
        <ele>76</ele>
        <time>2014-11-20T15:49:28Z</time>
      </trkpt>
      <trkpt lat="47.14509" lon="-0.91595">
        <ele>76</ele>
        <time>2014-11-20T15:49:31Z</time>
      </trkpt>
      <trkpt lat="47.14505" lon="-0.91593">
        <ele>76</ele>
        <time>2014-11-20T15:49:34Z</time>
      </trkpt>
      <trkpt lat="47.14503" lon="-0.91591">
        <ele>76</ele>
        <time>2014-11-20T15:49:36Z</time>
      </trkpt>
      <trkpt lat="47.14501" lon="-0.91589">
        <ele>76</ele>
        <time>2014-11-20T15:49:38Z</time>
      </trkpt>
      <trkpt lat="47.14498" lon="-0.91587">
        <ele>76</ele>
        <time>2014-11-20T15:49:41Z</time>
      </trkpt>
      <trkpt lat="47.14496" lon="-0.91585">
        <ele>76</ele>
        <time>2014-11-20T15:49:43Z</time>
      </trkpt>
      <trkpt lat="47.14494" lon="-0.91584">
        <ele>76</ele>
        <time>2014-11-20T15:49:45Z</time>
      </trkpt>
      <trkpt lat="47.14492" lon="-0.91582">
        <ele>76</ele>
        <time>2014-11-20T15:49:47Z</time>
      </trkpt>
      <trkpt lat="47.1449" lon="-0.91581">
        <ele>76</ele>
        <time>2014-11-20T15:49:49Z</time>
      </trkpt>
      <trkpt lat="47.14488" lon="-0.91579">
        <ele>76</ele>
        <time>2014-11-20T15:49:51Z</time>
      </trkpt>
      <trkpt lat="47.14486" lon="-0.91578">
        <ele>77</ele>
        <time>2014-11-20T15:49:53Z</time>
      </trkpt>
      <trkpt lat="47.14482" lon="-0.91576">
        <ele>77</ele>
        <time>2014-11-20T15:49:56Z</time>
      </trkpt>
      <trkpt lat="47.1448" lon="-0.91574">
        <ele>77</ele>
        <time>2014-11-20T15:49:58Z</time>
      </trkpt>
      <trkpt lat="47.14477" lon="-0.91572">
        <ele>77</ele>
        <time>2014-11-20T15:50:01Z</time>
      </trkpt>
      <trkpt lat="47.14473" lon="-0.9157">
        <ele>77</ele>
        <time>2014-11-20T15:50:04Z</time>
      </trkpt>
      <trkpt lat="47.1447" lon="-0.91567">
        <ele>77</ele>
        <time>2014-11-20T15:50:07Z</time>
      </trkpt>
      <trkpt lat="47.14468" lon="-0.91566">
        <ele>77</ele>
        <time>2014-11-20T15:50:09Z</time>
      </trkpt>
      <trkpt lat="47.14465" lon="-0.91564">
        <ele>77</ele>
        <time>2014-11-20T15:50:12Z</time>
      </trkpt>
      <trkpt lat="47.14463" lon="-0.91562">
        <ele>77</ele>
        <time>2014-11-20T15:50:14Z</time>
      </trkpt>
      <trkpt lat="47.14459" lon="-0.91559">
        <ele>77</ele>
        <time>2014-11-20T15:50:17Z</time>
      </trkpt>
      <trkpt lat="47.14456" lon="-0.91557">
        <ele>78</ele>
        <time>2014-11-20T15:50:20Z</time>
      </trkpt>
      <trkpt lat="47.14453" lon="-0.91555">
        <ele>78</ele>
        <time>2014-11-20T15:50:22Z</time>
      </trkpt>
      <trkpt lat="47.14451" lon="-0.91553">
        <ele>78</ele>
        <time>2014-11-20T15:50:24Z</time>
      </trkpt>
      <trkpt lat="47.14448" lon="-0.9155">
        <ele>78</ele>
        <time>2014-11-20T15:50:27Z</time>
      </trkpt>
      <trkpt lat="47.14445" lon="-0.91549">
        <ele>78</ele>
        <time>2014-11-20T15:50:29Z</time>
      </trkpt>
      <trkpt lat="47.14442" lon="-0.91546">
        <ele>78</ele>
        <time>2014-11-20T15:50:32Z</time>
      </trkpt>
      <trkpt lat="47.1444" lon="-0.91544">
        <ele>78</ele>
        <time>2014-11-20T15:50:34Z</time>
      </trkpt>
      <trkpt lat="47.14437" lon="-0.91543">
        <ele>78</ele>
        <time>2014-11-20T15:50:36Z</time>
      </trkpt>
      <trkpt lat="47.14435" lon="-0.91541">
        <ele>78</ele>
        <time>2014-11-20T15:50:38Z</time>
      </trkpt>
      <trkpt lat="47.14433" lon="-0.9154">
        <ele>78</ele>
        <time>2014-11-20T15:50:40Z</time>
      </trkpt>
      <trkpt lat="47.14431" lon="-0.91537">
        <ele>78</ele>
        <time>2014-11-20T15:50:42Z</time>
      </trkpt>
      <trkpt lat="47.14429" lon="-0.91535">
        <ele>78</ele>
        <time>2014-11-20T15:50:44Z</time>
      </trkpt>
      <trkpt lat="47.14429" lon="-0.91532">
        <ele>78</ele>
        <time>2014-11-20T15:50:46Z</time>
      </trkpt>
      <trkpt lat="47.1443" lon="-0.91528">
        <ele>78</ele>
        <time>2014-11-20T15:50:48Z</time>
      </trkpt>
      <trkpt lat="47.14431" lon="-0.91525">
        <ele>78</ele>
        <time>2014-11-20T15:50:50Z</time>
      </trkpt>
      <trkpt lat="47.14433" lon="-0.91522">
        <ele>78</ele>
        <time>2014-11-20T15:50:52Z</time>
      </trkpt>
      <trkpt lat="47.14434" lon="-0.91519">
        <ele>78</ele>
        <time>2014-11-20T15:50:54Z</time>
      </trkpt>
      <trkpt lat="47.14435" lon="-0.91515">
        <ele>78</ele>
        <time>2014-11-20T15:50:56Z</time>
      </trkpt>
      <trkpt lat="47.14436" lon="-0.91513">
        <ele>78</ele>
        <time>2014-11-20T15:50:58Z</time>
      </trkpt>
      <trkpt lat="47.14437" lon="-0.91509">
        <ele>78</ele>
        <time>2014-11-20T15:51:00Z</time>
      </trkpt>
      <trkpt lat="47.14439" lon="-0.91505">
        <ele>78</ele>
        <time>2014-11-20T15:51:03Z</time>
      </trkpt>
      <trkpt lat="47.1444" lon="-0.91501">
        <ele>78</ele>
        <time>2014-11-20T15:51:05Z</time>
      </trkpt>
      <trkpt lat="47.14441" lon="-0.91498">
        <ele>78</ele>
        <time>2014-11-20T15:51:07Z</time>
      </trkpt>
      <trkpt lat="47.14442" lon="-0.91495">
        <ele>78</ele>
        <time>2014-11-20T15:51:09Z</time>
      </trkpt>
      <trkpt lat="47.14443" lon="-0.91491">
        <ele>78</ele>
        <time>2014-11-20T15:51:11Z</time>
      </trkpt>
      <trkpt lat="47.14444" lon="-0.91488">
        <ele>78</ele>
        <time>2014-11-20T15:51:13Z</time>
      </trkpt>
      <trkpt lat="47.14445" lon="-0.91485">
        <ele>78</ele>
        <time>2014-11-20T15:51:15Z</time>
      </trkpt>
      <trkpt lat="47.14446" lon="-0.91482">
        <ele>78</ele>
        <time>2014-11-20T15:51:17Z</time>
      </trkpt>
      <trkpt lat="47.14447" lon="-0.91477">
        <ele>78</ele>
        <time>2014-11-20T15:51:20Z</time>
      </trkpt>
      <trkpt lat="47.14448" lon="-0.91474">
        <ele>78</ele>
        <time>2014-11-20T15:51:22Z</time>
      </trkpt>
      <trkpt lat="47.14449" lon="-0.9147">
        <ele>79</ele>
        <time>2014-11-20T15:51:24Z</time>
      </trkpt>
      <trkpt lat="47.1445" lon="-0.91467">
        <ele>79</ele>
        <time>2014-11-20T15:51:26Z</time>
      </trkpt>
      <trkpt lat="47.14451" lon="-0.91464">
        <ele>79</ele>
        <time>2014-11-20T15:51:28Z</time>
      </trkpt>
      <trkpt lat="47.14452" lon="-0.91461">
        <ele>79</ele>
        <time>2014-11-20T15:51:30Z</time>
      </trkpt>
      <trkpt lat="47.14453" lon="-0.91458">
        <ele>79</ele>
        <time>2014-11-20T15:51:32Z</time>
      </trkpt>
      <trkpt lat="47.14454" lon="-0.91454">
        <ele>80</ele>
        <time>2014-11-20T15:51:34Z</time>
      </trkpt>
      <trkpt lat="47.14454" lon="-0.91451">
        <ele>80</ele>
        <time>2014-11-20T15:51:36Z</time>
      </trkpt>
      <trkpt lat="47.14455" lon="-0.91448">
        <ele>80</ele>
        <time>2014-11-20T15:51:38Z</time>
      </trkpt>
      <trkpt lat="47.14456" lon="-0.91445">
        <ele>80</ele>
        <time>2014-11-20T15:51:40Z</time>
      </trkpt>
      <trkpt lat="47.14457" lon="-0.91442">
        <ele>80</ele>
        <time>2014-11-20T15:51:42Z</time>
      </trkpt>
      <trkpt lat="47.14457" lon="-0.91439">
        <ele>80</ele>
        <time>2014-11-20T15:51:44Z</time>
      </trkpt>
      <trkpt lat="47.14458" lon="-0.91435">
        <ele>80</ele>
        <time>2014-11-20T15:51:46Z</time>
      </trkpt>
      <trkpt lat="47.14459" lon="-0.91432">
        <ele>80</ele>
        <time>2014-11-20T15:51:48Z</time>
      </trkpt>
      <trkpt lat="47.1446" lon="-0.91429">
        <ele>80</ele>
        <time>2014-11-20T15:51:50Z</time>
      </trkpt>
      <trkpt lat="47.14461" lon="-0.91426">
        <ele>80</ele>
        <time>2014-11-20T15:51:52Z</time>
      </trkpt>
      <trkpt lat="47.14462" lon="-0.91422">
        <ele>80</ele>
        <time>2014-11-20T15:51:54Z</time>
      </trkpt>
      <trkpt lat="47.14462" lon="-0.91419">
        <ele>80</ele>
        <time>2014-11-20T15:51:56Z</time>
      </trkpt>
      <trkpt lat="47.14463" lon="-0.91416">
        <ele>80</ele>
        <time>2014-11-20T15:51:58Z</time>
      </trkpt>
      <trkpt lat="47.14464" lon="-0.91412">
        <ele>80</ele>
        <time>2014-11-20T15:52:00Z</time>
      </trkpt>
      <trkpt lat="47.14465" lon="-0.91409">
        <ele>80</ele>
        <time>2014-11-20T15:52:02Z</time>
      </trkpt>
      <trkpt lat="47.14466" lon="-0.91404">
        <ele>80</ele>
        <time>2014-11-20T15:52:05Z</time>
      </trkpt>
      <trkpt lat="47.14466" lon="-0.914">
        <ele>80</ele>
        <time>2014-11-20T15:52:07Z</time>
      </trkpt>
      <trkpt lat="47.14468" lon="-0.91396">
        <ele>81</ele>
        <time>2014-11-20T15:52:10Z</time>
      </trkpt>
      <trkpt lat="47.14468" lon="-0.91392">
        <ele>81</ele>
        <time>2014-11-20T15:52:12Z</time>
      </trkpt>
      <trkpt lat="47.14469" lon="-0.91389">
        <ele>81</ele>
        <time>2014-11-20T15:52:14Z</time>
      </trkpt>
      <trkpt lat="47.1447" lon="-0.91386">
        <ele>81</ele>
        <time>2014-11-20T15:52:16Z</time>
      </trkpt>
      <trkpt lat="47.14471" lon="-0.91382">
        <ele>81</ele>
        <time>2014-11-20T15:52:18Z</time>
      </trkpt>
      <trkpt lat="47.14471" lon="-0.91379">
        <ele>81</ele>
        <time>2014-11-20T15:52:20Z</time>
      </trkpt>
      <trkpt lat="47.14471" lon="-0.91375">
        <ele>81</ele>
        <time>2014-11-20T15:52:22Z</time>
      </trkpt>
      <trkpt lat="47.14472" lon="-0.91372">
        <ele>81</ele>
        <time>2014-11-20T15:52:24Z</time>
      </trkpt>
      <trkpt lat="47.14473" lon="-0.91369">
        <ele>81</ele>
        <time>2014-11-20T15:52:26Z</time>
      </trkpt>
      <trkpt lat="47.14474" lon="-0.91366">
        <ele>81</ele>
        <time>2014-11-20T15:52:28Z</time>
      </trkpt>
      <trkpt lat="47.14475" lon="-0.91362">
        <ele>81</ele>
        <time>2014-11-20T15:52:30Z</time>
      </trkpt>
      <trkpt lat="47.14476" lon="-0.91359">
        <ele>81</ele>
        <time>2014-11-20T15:52:33Z</time>
      </trkpt>
      <trkpt lat="47.14476" lon="-0.91357">
        <ele>82</ele>
        <time>2014-11-20T15:52:41Z</time>
      </trkpt>
      <trkpt lat="47.14477" lon="-0.91356">
        <ele>82</ele>
        <time>2014-11-20T15:52:44Z</time>
      </trkpt>
      <trkpt lat="47.14478" lon="-0.91354">
        <ele>82</ele>
        <time>2014-11-20T15:52:46Z</time>
      </trkpt>
      <trkpt lat="47.14477" lon="-0.91352">
        <ele>82</ele>
        <time>2014-11-20T15:52:49Z</time>
      </trkpt>
      <trkpt lat="47.14478" lon="-0.91351">
        <ele>82</ele>
        <time>2014-11-20T15:52:53Z</time>
      </trkpt>
      <trkpt lat="47.14477" lon="-0.91344">
        <ele>84</ele>
        <time>2014-11-20T15:53:05Z</time>
      </trkpt>
      <trkpt lat="47.14477" lon="-0.91343">
        <ele>84</ele>
        <time>2014-11-20T15:53:07Z</time>
      </trkpt>
      <trkpt lat="47.14476" lon="-0.9134">
        <ele>84</ele>
        <time>2014-11-20T15:53:10Z</time>
      </trkpt>
      <trkpt lat="47.14474" lon="-0.91338">
        <ele>84</ele>
        <time>2014-11-20T15:53:12Z</time>
      </trkpt>
      <trkpt lat="47.14474" lon="-0.91337">
        <ele>84</ele>
        <time>2014-11-20T15:53:14Z</time>
      </trkpt>
      <trkpt lat="47.14473" lon="-0.91335">
        <ele>84</ele>
        <time>2014-11-20T15:53:18Z</time>
      </trkpt>
      <trkpt lat="47.14473" lon="-0.91333">
        <ele>84</ele>
        <time>2014-11-20T15:53:23Z</time>
      </trkpt>
      <trkpt lat="47.14473" lon="-0.91331">
        <ele>84</ele>
        <time>2014-11-20T15:53:25Z</time>
      </trkpt>
      <trkpt lat="47.14473" lon="-0.91328">
        <ele>84</ele>
        <time>2014-11-20T15:53:27Z</time>
      </trkpt>
      <trkpt lat="47.14473" lon="-0.91324">
        <ele>84</ele>
        <time>2014-11-20T15:53:29Z</time>
      </trkpt>
      <trkpt lat="47.14472" lon="-0.91321">
        <ele>84</ele>
        <time>2014-11-20T15:53:31Z</time>
      </trkpt>
      <trkpt lat="47.14471" lon="-0.91317">
        <ele>84</ele>
        <time>2014-11-20T15:53:33Z</time>
      </trkpt>
      <trkpt lat="47.1447" lon="-0.91313">
        <ele>84</ele>
        <time>2014-11-20T15:53:36Z</time>
      </trkpt>
      <trkpt lat="47.14469" lon="-0.91311">
        <ele>84</ele>
        <time>2014-11-20T15:53:38Z</time>
      </trkpt>
      <trkpt lat="47.14469" lon="-0.91307">
        <ele>84</ele>
        <time>2014-11-20T15:53:40Z</time>
      </trkpt>
      <trkpt lat="47.14468" lon="-0.91304">
        <ele>84</ele>
        <time>2014-11-20T15:53:42Z</time>
      </trkpt>
      <trkpt lat="47.14467" lon="-0.91301">
        <ele>84</ele>
        <time>2014-11-20T15:53:44Z</time>
      </trkpt>
      <trkpt lat="47.14466" lon="-0.91296">
        <ele>85</ele>
        <time>2014-11-20T15:53:47Z</time>
      </trkpt>
      <trkpt lat="47.14465" lon="-0.91294">
        <ele>85</ele>
        <time>2014-11-20T15:53:49Z</time>
      </trkpt>
      <trkpt lat="47.14465" lon="-0.91291">
        <ele>85</ele>
        <time>2014-11-20T15:53:51Z</time>
      </trkpt>
      <trkpt lat="47.14464" lon="-0.91288">
        <ele>85</ele>
        <time>2014-11-20T15:53:53Z</time>
      </trkpt>
      <trkpt lat="47.14462" lon="-0.91285">
        <ele>85</ele>
        <time>2014-11-20T15:53:55Z</time>
      </trkpt>
      <trkpt lat="47.14462" lon="-0.91281">
        <ele>85</ele>
        <time>2014-11-20T15:53:57Z</time>
      </trkpt>
      <trkpt lat="47.14461" lon="-0.91277">
        <ele>85</ele>
        <time>2014-11-20T15:53:59Z</time>
      </trkpt>
      <trkpt lat="47.1446" lon="-0.91274">
        <ele>85</ele>
        <time>2014-11-20T15:54:01Z</time>
      </trkpt>
      <trkpt lat="47.14459" lon="-0.9127">
        <ele>85</ele>
        <time>2014-11-20T15:54:03Z</time>
      </trkpt>
      <trkpt lat="47.14458" lon="-0.91266">
        <ele>85</ele>
        <time>2014-11-20T15:54:05Z</time>
      </trkpt>
      <trkpt lat="47.14458" lon="-0.91263">
        <ele>85</ele>
        <time>2014-11-20T15:54:07Z</time>
      </trkpt>
      <trkpt lat="47.14457" lon="-0.91259">
        <ele>86</ele>
        <time>2014-11-20T15:54:09Z</time>
      </trkpt>
      <trkpt lat="47.14456" lon="-0.91256">
        <ele>86</ele>
        <time>2014-11-20T15:54:11Z</time>
      </trkpt>
      <trkpt lat="47.14455" lon="-0.91253">
        <ele>86</ele>
        <time>2014-11-20T15:54:13Z</time>
      </trkpt>
      <trkpt lat="47.14454" lon="-0.9125">
        <ele>86</ele>
        <time>2014-11-20T15:54:15Z</time>
      </trkpt>
      <trkpt lat="47.14453" lon="-0.91246">
        <ele>86</ele>
        <time>2014-11-20T15:54:17Z</time>
      </trkpt>
      <trkpt lat="47.14452" lon="-0.91243">
        <ele>86</ele>
        <time>2014-11-20T15:54:19Z</time>
      </trkpt>
      <trkpt lat="47.14452" lon="-0.9124">
        <ele>86</ele>
        <time>2014-11-20T15:54:21Z</time>
      </trkpt>
      <trkpt lat="47.14451" lon="-0.91237">
        <ele>86</ele>
        <time>2014-11-20T15:54:23Z</time>
      </trkpt>
      <trkpt lat="47.1445" lon="-0.91233">
        <ele>86</ele>
        <time>2014-11-20T15:54:25Z</time>
      </trkpt>
      <trkpt lat="47.14449" lon="-0.9123">
        <ele>86</ele>
        <time>2014-11-20T15:54:27Z</time>
      </trkpt>
      <trkpt lat="47.14449" lon="-0.91227">
        <ele>86</ele>
        <time>2014-11-20T15:54:29Z</time>
      </trkpt>
      <trkpt lat="47.14448" lon="-0.91224">
        <ele>86</ele>
        <time>2014-11-20T15:54:31Z</time>
      </trkpt>
      <trkpt lat="47.14447" lon="-0.9122">
        <ele>86</ele>
        <time>2014-11-20T15:54:33Z</time>
      </trkpt>
      <trkpt lat="47.14446" lon="-0.91217">
        <ele>86</ele>
        <time>2014-11-20T15:54:35Z</time>
      </trkpt>
      <trkpt lat="47.14445" lon="-0.91214">
        <ele>86</ele>
        <time>2014-11-20T15:54:37Z</time>
      </trkpt>
      <trkpt lat="47.14444" lon="-0.91211">
        <ele>86</ele>
        <time>2014-11-20T15:54:39Z</time>
      </trkpt>
      <trkpt lat="47.14444" lon="-0.91208">
        <ele>86</ele>
        <time>2014-11-20T15:54:41Z</time>
      </trkpt>
      <trkpt lat="47.14443" lon="-0.91205">
        <ele>86</ele>
        <time>2014-11-20T15:54:43Z</time>
      </trkpt>
      <trkpt lat="47.14442" lon="-0.91201">
        <ele>86</ele>
        <time>2014-11-20T15:54:45Z</time>
      </trkpt>
      <trkpt lat="47.14441" lon="-0.91198">
        <ele>86</ele>
        <time>2014-11-20T15:54:47Z</time>
      </trkpt>
      <trkpt lat="47.1444" lon="-0.91194">
        <ele>86</ele>
        <time>2014-11-20T15:54:49Z</time>
      </trkpt>
      <trkpt lat="47.14439" lon="-0.9119">
        <ele>86</ele>
        <time>2014-11-20T15:54:51Z</time>
      </trkpt>
      <trkpt lat="47.14438" lon="-0.91187">
        <ele>86</ele>
        <time>2014-11-20T15:54:53Z</time>
      </trkpt>
      <trkpt lat="47.14437" lon="-0.91183">
        <ele>86</ele>
        <time>2014-11-20T15:54:55Z</time>
      </trkpt>
      <trkpt lat="47.14436" lon="-0.9118">
        <ele>86</ele>
        <time>2014-11-20T15:54:57Z</time>
      </trkpt>
      <trkpt lat="47.14436" lon="-0.91177">
        <ele>86</ele>
        <time>2014-11-20T15:54:59Z</time>
      </trkpt>
      <trkpt lat="47.14435" lon="-0.91173">
        <ele>86</ele>
        <time>2014-11-20T15:55:01Z</time>
      </trkpt>
      <trkpt lat="47.14434" lon="-0.91169">
        <ele>86</ele>
        <time>2014-11-20T15:55:03Z</time>
      </trkpt>
      <trkpt lat="47.14434" lon="-0.91166">
        <ele>86</ele>
        <time>2014-11-20T15:55:05Z</time>
      </trkpt>
      <trkpt lat="47.14433" lon="-0.91162">
        <ele>86</ele>
        <time>2014-11-20T15:55:07Z</time>
      </trkpt>
      <trkpt lat="47.14432" lon="-0.91158">
        <ele>86</ele>
        <time>2014-11-20T15:55:09Z</time>
      </trkpt>
      <trkpt lat="47.14431" lon="-0.91154">
        <ele>86</ele>
        <time>2014-11-20T15:55:11Z</time>
      </trkpt>
      <trkpt lat="47.1443" lon="-0.91151">
        <ele>86</ele>
        <time>2014-11-20T15:55:13Z</time>
      </trkpt>
      <trkpt lat="47.14429" lon="-0.91147">
        <ele>86</ele>
        <time>2014-11-20T15:55:15Z</time>
      </trkpt>
      <trkpt lat="47.14428" lon="-0.91144">
        <ele>86</ele>
        <time>2014-11-20T15:55:17Z</time>
      </trkpt>
      <trkpt lat="47.14428" lon="-0.9114">
        <ele>86</ele>
        <time>2014-11-20T15:55:19Z</time>
      </trkpt>
      <trkpt lat="47.14427" lon="-0.91137">
        <ele>86</ele>
        <time>2014-11-20T15:55:21Z</time>
      </trkpt>
      <trkpt lat="47.14426" lon="-0.91133">
        <ele>86</ele>
        <time>2014-11-20T15:55:23Z</time>
      </trkpt>
      <trkpt lat="47.14426" lon="-0.91129">
        <ele>86</ele>
        <time>2014-11-20T15:55:25Z</time>
      </trkpt>
      <trkpt lat="47.14425" lon="-0.91126">
        <ele>86</ele>
        <time>2014-11-20T15:55:27Z</time>
      </trkpt>
      <trkpt lat="47.14424" lon="-0.91123">
        <ele>86</ele>
        <time>2014-11-20T15:55:29Z</time>
      </trkpt>
      <trkpt lat="47.14423" lon="-0.91119">
        <ele>86</ele>
        <time>2014-11-20T15:55:31Z</time>
      </trkpt>
      <trkpt lat="47.14422" lon="-0.91115">
        <ele>86</ele>
        <time>2014-11-20T15:55:33Z</time>
      </trkpt>
      <trkpt lat="47.14422" lon="-0.91112">
        <ele>86</ele>
        <time>2014-11-20T15:55:35Z</time>
      </trkpt>
      <trkpt lat="47.14421" lon="-0.91108">
        <ele>86</ele>
        <time>2014-11-20T15:55:37Z</time>
      </trkpt>
      <trkpt lat="47.1442" lon="-0.91104">
        <ele>86</ele>
        <time>2014-11-20T15:55:39Z</time>
      </trkpt>
      <trkpt lat="47.14419" lon="-0.91101">
        <ele>86</ele>
        <time>2014-11-20T15:55:41Z</time>
      </trkpt>
      <trkpt lat="47.14418" lon="-0.91097">
        <ele>86</ele>
        <time>2014-11-20T15:55:43Z</time>
      </trkpt>
      <trkpt lat="47.14418" lon="-0.91093">
        <ele>86</ele>
        <time>2014-11-20T15:55:45Z</time>
      </trkpt>
      <trkpt lat="47.14416" lon="-0.9109">
        <ele>86</ele>
        <time>2014-11-20T15:55:47Z</time>
      </trkpt>
      <trkpt lat="47.14415" lon="-0.91086">
        <ele>86</ele>
        <time>2014-11-20T15:55:49Z</time>
      </trkpt>
      <trkpt lat="47.14414" lon="-0.91082">
        <ele>86</ele>
        <time>2014-11-20T15:55:51Z</time>
      </trkpt>
      <trkpt lat="47.14413" lon="-0.91078">
        <ele>86</ele>
        <time>2014-11-20T15:55:53Z</time>
      </trkpt>
      <trkpt lat="47.14412" lon="-0.91075">
        <ele>86</ele>
        <time>2014-11-20T15:55:55Z</time>
      </trkpt>
      <trkpt lat="47.14411" lon="-0.91071">
        <ele>86</ele>
        <time>2014-11-20T15:55:57Z</time>
      </trkpt>
      <trkpt lat="47.1441" lon="-0.91067">
        <ele>86</ele>
        <time>2014-11-20T15:55:59Z</time>
      </trkpt>
      <trkpt lat="47.14409" lon="-0.91062">
        <ele>86</ele>
        <time>2014-11-20T15:56:02Z</time>
      </trkpt>
      <trkpt lat="47.14408" lon="-0.91059">
        <ele>86</ele>
        <time>2014-11-20T15:56:04Z</time>
      </trkpt>
      <trkpt lat="47.14407" lon="-0.91055">
        <ele>86</ele>
        <time>2014-11-20T15:56:06Z</time>
      </trkpt>
      <trkpt lat="47.14406" lon="-0.91051">
        <ele>86</ele>
        <time>2014-11-20T15:56:08Z</time>
      </trkpt>
      <trkpt lat="47.14405" lon="-0.91048">
        <ele>86</ele>
        <time>2014-11-20T15:56:10Z</time>
      </trkpt>
      <trkpt lat="47.14404" lon="-0.91044">
        <ele>86</ele>
        <time>2014-11-20T15:56:12Z</time>
      </trkpt>
      <trkpt lat="47.14403" lon="-0.91041">
        <ele>86</ele>
        <time>2014-11-20T15:56:14Z</time>
      </trkpt>
      <trkpt lat="47.14402" lon="-0.91037">
        <ele>86</ele>
        <time>2014-11-20T15:56:16Z</time>
      </trkpt>
      <trkpt lat="47.144" lon="-0.91034">
        <ele>86</ele>
        <time>2014-11-20T15:56:18Z</time>
      </trkpt>
      <trkpt lat="47.14399" lon="-0.91031">
        <ele>86</ele>
        <time>2014-11-20T15:56:20Z</time>
      </trkpt>
      <trkpt lat="47.14398" lon="-0.91027">
        <ele>86</ele>
        <time>2014-11-20T15:56:22Z</time>
      </trkpt>
      <trkpt lat="47.14397" lon="-0.91024">
        <ele>86</ele>
        <time>2014-11-20T15:56:24Z</time>
      </trkpt>
      <trkpt lat="47.14395" lon="-0.9102">
        <ele>86</ele>
        <time>2014-11-20T15:56:26Z</time>
      </trkpt>
      <trkpt lat="47.14394" lon="-0.91017">
        <ele>86</ele>
        <time>2014-11-20T15:56:28Z</time>
      </trkpt>
      <trkpt lat="47.14392" lon="-0.91013">
        <ele>86</ele>
        <time>2014-11-20T15:56:30Z</time>
      </trkpt>
      <trkpt lat="47.14391" lon="-0.9101">
        <ele>86</ele>
        <time>2014-11-20T15:56:32Z</time>
      </trkpt>
      <trkpt lat="47.14389" lon="-0.91007">
        <ele>86</ele>
        <time>2014-11-20T15:56:34Z</time>
      </trkpt>
      <trkpt lat="47.14388" lon="-0.91004">
        <ele>86</ele>
        <time>2014-11-20T15:56:36Z</time>
      </trkpt>
      <trkpt lat="47.14386" lon="-0.91001">
        <ele>86</ele>
        <time>2014-11-20T15:56:38Z</time>
      </trkpt>
      <trkpt lat="47.14385" lon="-0.90998">
        <ele>86</ele>
        <time>2014-11-20T15:56:40Z</time>
      </trkpt>
      <trkpt lat="47.14383" lon="-0.90994">
        <ele>86</ele>
        <time>2014-11-20T15:56:42Z</time>
      </trkpt>
      <trkpt lat="47.14382" lon="-0.90991">
        <ele>86</ele>
        <time>2014-11-20T15:56:44Z</time>
      </trkpt>
      <trkpt lat="47.14381" lon="-0.90988">
        <ele>86</ele>
        <time>2014-11-20T15:56:46Z</time>
      </trkpt>
      <trkpt lat="47.14379" lon="-0.90985">
        <ele>86</ele>
        <time>2014-11-20T15:56:48Z</time>
      </trkpt>
      <trkpt lat="47.14378" lon="-0.90981">
        <ele>86</ele>
        <time>2014-11-20T15:56:50Z</time>
      </trkpt>
      <trkpt lat="47.14376" lon="-0.90978">
        <ele>86</ele>
        <time>2014-11-20T15:56:52Z</time>
      </trkpt>
      <trkpt lat="47.14375" lon="-0.90974">
        <ele>86</ele>
        <time>2014-11-20T15:56:54Z</time>
      </trkpt>
      <trkpt lat="47.14373" lon="-0.90971">
        <ele>86</ele>
        <time>2014-11-20T15:56:56Z</time>
      </trkpt>
      <trkpt lat="47.14372" lon="-0.90968">
        <ele>86</ele>
        <time>2014-11-20T15:56:58Z</time>
      </trkpt>
      <trkpt lat="47.14371" lon="-0.90965">
        <ele>86</ele>
        <time>2014-11-20T15:57:00Z</time>
      </trkpt>
      <trkpt lat="47.14371" lon="-0.90961">
        <ele>86</ele>
        <time>2014-11-20T15:57:02Z</time>
      </trkpt>
      <trkpt lat="47.1437" lon="-0.90957">
        <ele>86</ele>
        <time>2014-11-20T15:57:04Z</time>
      </trkpt>
      <trkpt lat="47.14369" lon="-0.90953">
        <ele>86</ele>
        <time>2014-11-20T15:57:06Z</time>
      </trkpt>
      <trkpt lat="47.14368" lon="-0.90948">
        <ele>86</ele>
        <time>2014-11-20T15:57:09Z</time>
      </trkpt>
      <trkpt lat="47.14368" lon="-0.90944">
        <ele>86</ele>
        <time>2014-11-20T15:57:11Z</time>
      </trkpt>
      <trkpt lat="47.14367" lon="-0.9094">
        <ele>86</ele>
        <time>2014-11-20T15:57:13Z</time>
      </trkpt>
      <trkpt lat="47.14366" lon="-0.90938">
        <ele>86</ele>
        <time>2014-11-20T15:57:15Z</time>
      </trkpt>
      <trkpt lat="47.14366" lon="-0.90934">
        <ele>86</ele>
        <time>2014-11-20T15:57:17Z</time>
      </trkpt>
      <trkpt lat="47.14365" lon="-0.9093">
        <ele>86</ele>
        <time>2014-11-20T15:57:19Z</time>
      </trkpt>
      <trkpt lat="47.14364" lon="-0.90926">
        <ele>86</ele>
        <time>2014-11-20T15:57:21Z</time>
      </trkpt>
      <trkpt lat="47.14363" lon="-0.90923">
        <ele>86</ele>
        <time>2014-11-20T15:57:23Z</time>
      </trkpt>
      <trkpt lat="47.14362" lon="-0.90919">
        <ele>86</ele>
        <time>2014-11-20T15:57:25Z</time>
      </trkpt>
      <trkpt lat="47.14361" lon="-0.90916">
        <ele>86</ele>
        <time>2014-11-20T15:57:27Z</time>
      </trkpt>
      <trkpt lat="47.1436" lon="-0.90912">
        <ele>86</ele>
        <time>2014-11-20T15:57:29Z</time>
      </trkpt>
      <trkpt lat="47.1436" lon="-0.90909">
        <ele>86</ele>
        <time>2014-11-20T15:57:31Z</time>
      </trkpt>
      <trkpt lat="47.14359" lon="-0.90905">
        <ele>86</ele>
        <time>2014-11-20T15:57:33Z</time>
      </trkpt>
      <trkpt lat="47.14358" lon="-0.90902">
        <ele>86</ele>
        <time>2014-11-20T15:57:35Z</time>
      </trkpt>
      <trkpt lat="47.14358" lon="-0.90898">
        <ele>86</ele>
        <time>2014-11-20T15:57:37Z</time>
      </trkpt>
      <trkpt lat="47.14357" lon="-0.90893">
        <ele>86</ele>
        <time>2014-11-20T15:57:40Z</time>
      </trkpt>
      <trkpt lat="47.14356" lon="-0.9089">
        <ele>86</ele>
        <time>2014-11-20T15:57:42Z</time>
      </trkpt>
      <trkpt lat="47.14355" lon="-0.90886">
        <ele>86</ele>
        <time>2014-11-20T15:57:44Z</time>
      </trkpt>
      <trkpt lat="47.14354" lon="-0.90881">
        <ele>86</ele>
        <time>2014-11-20T15:57:46Z</time>
      </trkpt>
      <trkpt lat="47.14353" lon="-0.90877">
        <ele>86</ele>
        <time>2014-11-20T15:57:48Z</time>
      </trkpt>
      <trkpt lat="47.14353" lon="-0.90874">
        <ele>86</ele>
        <time>2014-11-20T15:57:50Z</time>
      </trkpt>
      <trkpt lat="47.14352" lon="-0.9087">
        <ele>86</ele>
        <time>2014-11-20T15:57:52Z</time>
      </trkpt>
      <trkpt lat="47.14351" lon="-0.90866">
        <ele>86</ele>
        <time>2014-11-20T15:57:54Z</time>
      </trkpt>
      <trkpt lat="47.1435" lon="-0.90862">
        <ele>86</ele>
        <time>2014-11-20T15:57:56Z</time>
      </trkpt>
      <trkpt lat="47.1435" lon="-0.90858">
        <ele>86</ele>
        <time>2014-11-20T15:57:58Z</time>
      </trkpt>
      <trkpt lat="47.14349" lon="-0.90854">
        <ele>86</ele>
        <time>2014-11-20T15:58:00Z</time>
      </trkpt>
      <trkpt lat="47.14348" lon="-0.9085">
        <ele>86</ele>
        <time>2014-11-20T15:58:02Z</time>
      </trkpt>
      <trkpt lat="47.14347" lon="-0.90847">
        <ele>86</ele>
        <time>2014-11-20T15:58:04Z</time>
      </trkpt>
      <trkpt lat="47.14347" lon="-0.90843">
        <ele>86</ele>
        <time>2014-11-20T15:58:06Z</time>
      </trkpt>
      <trkpt lat="47.14346" lon="-0.90839">
        <ele>86</ele>
        <time>2014-11-20T15:58:08Z</time>
      </trkpt>
      <trkpt lat="47.14345" lon="-0.90835">
        <ele>86</ele>
        <time>2014-11-20T15:58:10Z</time>
      </trkpt>
      <trkpt lat="47.14344" lon="-0.90831">
        <ele>86</ele>
        <time>2014-11-20T15:58:12Z</time>
      </trkpt>
      <trkpt lat="47.14344" lon="-0.90828">
        <ele>86</ele>
        <time>2014-11-20T15:58:14Z</time>
      </trkpt>
      <trkpt lat="47.14343" lon="-0.90824">
        <ele>86</ele>
        <time>2014-11-20T15:58:16Z</time>
      </trkpt>
      <trkpt lat="47.14342" lon="-0.9082">
        <ele>86</ele>
        <time>2014-11-20T15:58:18Z</time>
      </trkpt>
      <trkpt lat="47.14342" lon="-0.90816">
        <ele>86</ele>
        <time>2014-11-20T15:58:20Z</time>
      </trkpt>
      <trkpt lat="47.14341" lon="-0.90814">
        <ele>86</ele>
        <time>2014-11-20T15:58:22Z</time>
      </trkpt>
      <trkpt lat="47.1434" lon="-0.90811">
        <ele>86</ele>
        <time>2014-11-20T15:58:24Z</time>
      </trkpt>
      <trkpt lat="47.1434" lon="-0.90807">
        <ele>86</ele>
        <time>2014-11-20T15:58:26Z</time>
      </trkpt>
      <trkpt lat="47.14339" lon="-0.90803">
        <ele>86</ele>
        <time>2014-11-20T15:58:28Z</time>
      </trkpt>
      <trkpt lat="47.14339" lon="-0.90799">
        <ele>86</ele>
        <time>2014-11-20T15:58:30Z</time>
      </trkpt>
      <trkpt lat="47.14338" lon="-0.90795">
        <ele>86</ele>
        <time>2014-11-20T15:58:32Z</time>
      </trkpt>
      <trkpt lat="47.14337" lon="-0.90791">
        <ele>86</ele>
        <time>2014-11-20T15:58:34Z</time>
      </trkpt>
      <trkpt lat="47.14337" lon="-0.90787">
        <ele>86</ele>
        <time>2014-11-20T15:58:36Z</time>
      </trkpt>
      <trkpt lat="47.14336" lon="-0.90783">
        <ele>86</ele>
        <time>2014-11-20T15:58:38Z</time>
      </trkpt>
      <trkpt lat="47.14335" lon="-0.9078">
        <ele>86</ele>
        <time>2014-11-20T15:58:40Z</time>
      </trkpt>
      <trkpt lat="47.14335" lon="-0.90776">
        <ele>86</ele>
        <time>2014-11-20T15:58:42Z</time>
      </trkpt>
      <trkpt lat="47.14334" lon="-0.90772">
        <ele>86</ele>
        <time>2014-11-20T15:58:44Z</time>
      </trkpt>
      <trkpt lat="47.14333" lon="-0.90768">
        <ele>86</ele>
        <time>2014-11-20T15:58:46Z</time>
      </trkpt>
      <trkpt lat="47.14333" lon="-0.90764">
        <ele>86</ele>
        <time>2014-11-20T15:58:48Z</time>
      </trkpt>
      <trkpt lat="47.14332" lon="-0.90761">
        <ele>86</ele>
        <time>2014-11-20T15:58:50Z</time>
      </trkpt>
      <trkpt lat="47.14331" lon="-0.90757">
        <ele>86</ele>
        <time>2014-11-20T15:58:52Z</time>
      </trkpt>
      <trkpt lat="47.14331" lon="-0.90753">
        <ele>86</ele>
        <time>2014-11-20T15:58:54Z</time>
      </trkpt>
      <trkpt lat="47.1433" lon="-0.90749">
        <ele>86</ele>
        <time>2014-11-20T15:58:56Z</time>
      </trkpt>
      <trkpt lat="47.14329" lon="-0.90745">
        <ele>86</ele>
        <time>2014-11-20T15:58:58Z</time>
      </trkpt>
      <trkpt lat="47.14328" lon="-0.90741">
        <ele>86</ele>
        <time>2014-11-20T15:59:00Z</time>
      </trkpt>
      <trkpt lat="47.14327" lon="-0.90737">
        <ele>86</ele>
        <time>2014-11-20T15:59:02Z</time>
      </trkpt>
      <trkpt lat="47.14326" lon="-0.90733">
        <ele>86</ele>
        <time>2014-11-20T15:59:04Z</time>
      </trkpt>
      <trkpt lat="47.14325" lon="-0.9073">
        <ele>86</ele>
        <time>2014-11-20T15:59:06Z</time>
      </trkpt>
      <trkpt lat="47.14325" lon="-0.90727">
        <ele>86</ele>
        <time>2014-11-20T15:59:08Z</time>
      </trkpt>
      <trkpt lat="47.14324" lon="-0.90723">
        <ele>86</ele>
        <time>2014-11-20T15:59:10Z</time>
      </trkpt>
      <trkpt lat="47.14323" lon="-0.90719">
        <ele>86</ele>
        <time>2014-11-20T15:59:12Z</time>
      </trkpt>
      <trkpt lat="47.14323" lon="-0.90715">
        <ele>86</ele>
        <time>2014-11-20T15:59:14Z</time>
      </trkpt>
      <trkpt lat="47.14322" lon="-0.90711">
        <ele>86</ele>
        <time>2014-11-20T15:59:16Z</time>
      </trkpt>
      <trkpt lat="47.14321" lon="-0.90707">
        <ele>86</ele>
        <time>2014-11-20T15:59:18Z</time>
      </trkpt>
      <trkpt lat="47.14321" lon="-0.90703">
        <ele>86</ele>
        <time>2014-11-20T15:59:20Z</time>
      </trkpt>
      <trkpt lat="47.1432" lon="-0.90699">
        <ele>86</ele>
        <time>2014-11-20T15:59:23Z</time>
      </trkpt>
      <trkpt lat="47.1432" lon="-0.90695">
        <ele>86</ele>
        <time>2014-11-20T15:59:25Z</time>
      </trkpt>
      <trkpt lat="47.14319" lon="-0.90692">
        <ele>86</ele>
        <time>2014-11-20T15:59:27Z</time>
      </trkpt>
      <trkpt lat="47.14317" lon="-0.90689">
        <ele>86</ele>
        <time>2014-11-20T15:59:29Z</time>
      </trkpt>
      <trkpt lat="47.14316" lon="-0.90686">
        <ele>86</ele>
        <time>2014-11-20T15:59:31Z</time>
      </trkpt>
      <trkpt lat="47.14315" lon="-0.90683">
        <ele>86</ele>
        <time>2014-11-20T15:59:33Z</time>
      </trkpt>
      <trkpt lat="47.14313" lon="-0.9068">
        <ele>86</ele>
        <time>2014-11-20T15:59:35Z</time>
      </trkpt>
      <trkpt lat="47.14312" lon="-0.90676">
        <ele>86</ele>
        <time>2014-11-20T15:59:37Z</time>
      </trkpt>
      <trkpt lat="47.1431" lon="-0.90673">
        <ele>86</ele>
        <time>2014-11-20T15:59:39Z</time>
      </trkpt>
      <trkpt lat="47.14308" lon="-0.9067">
        <ele>86</ele>
        <time>2014-11-20T15:59:41Z</time>
      </trkpt>
      <trkpt lat="47.14307" lon="-0.90667">
        <ele>86</ele>
        <time>2014-11-20T15:59:43Z</time>
      </trkpt>
      <trkpt lat="47.14305" lon="-0.90664">
        <ele>86</ele>
        <time>2014-11-20T15:59:45Z</time>
      </trkpt>
      <trkpt lat="47.14303" lon="-0.90659">
        <ele>86</ele>
        <time>2014-11-20T15:59:48Z</time>
      </trkpt>
      <trkpt lat="47.14301" lon="-0.90656">
        <ele>86</ele>
        <time>2014-11-20T15:59:50Z</time>
      </trkpt>
      <trkpt lat="47.143" lon="-0.90653">
        <ele>86</ele>
        <time>2014-11-20T15:59:52Z</time>
      </trkpt>
      <trkpt lat="47.14298" lon="-0.9065">
        <ele>86</ele>
        <time>2014-11-20T15:59:54Z</time>
      </trkpt>
      <trkpt lat="47.14297" lon="-0.90647">
        <ele>86</ele>
        <time>2014-11-20T15:59:56Z</time>
      </trkpt>
      <trkpt lat="47.14294" lon="-0.90642">
        <ele>86</ele>
        <time>2014-11-20T15:59:59Z</time>
      </trkpt>
      <trkpt lat="47.14293" lon="-0.90639">
        <ele>86</ele>
        <time>2014-11-20T16:00:01Z</time>
      </trkpt>
      <trkpt lat="47.14291" lon="-0.90636">
        <ele>86</ele>
        <time>2014-11-20T16:00:03Z</time>
      </trkpt>
      <trkpt lat="47.1429" lon="-0.90633">
        <ele>86</ele>
        <time>2014-11-20T16:00:05Z</time>
      </trkpt>
      <trkpt lat="47.14288" lon="-0.9063">
        <ele>86</ele>
        <time>2014-11-20T16:00:07Z</time>
      </trkpt>
      <trkpt lat="47.14287" lon="-0.90627">
        <ele>86</ele>
        <time>2014-11-20T16:00:09Z</time>
      </trkpt>
      <trkpt lat="47.14285" lon="-0.90624">
        <ele>86</ele>
        <time>2014-11-20T16:00:11Z</time>
      </trkpt>
      <trkpt lat="47.14284" lon="-0.90621">
        <ele>86</ele>
        <time>2014-11-20T16:00:13Z</time>
      </trkpt>
      <trkpt lat="47.14282" lon="-0.90618">
        <ele>86</ele>
        <time>2014-11-20T16:00:15Z</time>
      </trkpt>
      <trkpt lat="47.1428" lon="-0.90614">
        <ele>86</ele>
        <time>2014-11-20T16:00:18Z</time>
      </trkpt>
      <trkpt lat="47.14279" lon="-0.9061">
        <ele>86</ele>
        <time>2014-11-20T16:00:20Z</time>
      </trkpt>
      <trkpt lat="47.14278" lon="-0.90607">
        <ele>86</ele>
        <time>2014-11-20T16:00:22Z</time>
      </trkpt>
      <trkpt lat="47.14276" lon="-0.90604">
        <ele>86</ele>
        <time>2014-11-20T16:00:24Z</time>
      </trkpt>
      <trkpt lat="47.14275" lon="-0.90601">
        <ele>86</ele>
        <time>2014-11-20T16:00:26Z</time>
      </trkpt>
      <trkpt lat="47.14273" lon="-0.90598">
        <ele>86</ele>
        <time>2014-11-20T16:00:28Z</time>
      </trkpt>
      <trkpt lat="47.14272" lon="-0.90595">
        <ele>86</ele>
        <time>2014-11-20T16:00:30Z</time>
      </trkpt>
      <trkpt lat="47.1427" lon="-0.90592">
        <ele>86</ele>
        <time>2014-11-20T16:00:32Z</time>
      </trkpt>
      <trkpt lat="47.14269" lon="-0.90589">
        <ele>86</ele>
        <time>2014-11-20T16:00:34Z</time>
      </trkpt>
      <trkpt lat="47.14266" lon="-0.90584">
        <ele>86</ele>
        <time>2014-11-20T16:00:37Z</time>
      </trkpt>
      <trkpt lat="47.14265" lon="-0.90581">
        <ele>86</ele>
        <time>2014-11-20T16:00:39Z</time>
      </trkpt>
      <trkpt lat="47.14264" lon="-0.90578">
        <ele>86</ele>
        <time>2014-11-20T16:00:41Z</time>
      </trkpt>
      <trkpt lat="47.14262" lon="-0.90575">
        <ele>86</ele>
        <time>2014-11-20T16:00:43Z</time>
      </trkpt>
      <trkpt lat="47.14261" lon="-0.90571">
        <ele>86</ele>
        <time>2014-11-20T16:00:45Z</time>
      </trkpt>
      <trkpt lat="47.1426" lon="-0.90568">
        <ele>86</ele>
        <time>2014-11-20T16:00:47Z</time>
      </trkpt>
      <trkpt lat="47.14258" lon="-0.90565">
        <ele>86</ele>
        <time>2014-11-20T16:00:49Z</time>
      </trkpt>
      <trkpt lat="47.14257" lon="-0.90562">
        <ele>86</ele>
        <time>2014-11-20T16:00:51Z</time>
      </trkpt>
      <trkpt lat="47.14255" lon="-0.90558">
        <ele>86</ele>
        <time>2014-11-20T16:00:53Z</time>
      </trkpt>
      <trkpt lat="47.14254" lon="-0.90555">
        <ele>86</ele>
        <time>2014-11-20T16:00:55Z</time>
      </trkpt>
      <trkpt lat="47.14252" lon="-0.90552">
        <ele>86</ele>
        <time>2014-11-20T16:00:57Z</time>
      </trkpt>
      <trkpt lat="47.14251" lon="-0.90547">
        <ele>86</ele>
        <time>2014-11-20T16:01:00Z</time>
      </trkpt>
      <trkpt lat="47.1425" lon="-0.90544">
        <ele>86</ele>
        <time>2014-11-20T16:01:02Z</time>
      </trkpt>
      <trkpt lat="47.14248" lon="-0.9054">
        <ele>86</ele>
        <time>2014-11-20T16:01:05Z</time>
      </trkpt>
      <trkpt lat="47.14246" lon="-0.90537">
        <ele>86</ele>
        <time>2014-11-20T16:01:07Z</time>
      </trkpt>
      <trkpt lat="47.14245" lon="-0.90533">
        <ele>86</ele>
        <time>2014-11-20T16:01:09Z</time>
      </trkpt>
      <trkpt lat="47.14244" lon="-0.9053">
        <ele>86</ele>
        <time>2014-11-20T16:01:11Z</time>
      </trkpt>
      <trkpt lat="47.14243" lon="-0.90526">
        <ele>86</ele>
        <time>2014-11-20T16:01:14Z</time>
      </trkpt>
      <trkpt lat="47.14242" lon="-0.90523">
        <ele>86</ele>
        <time>2014-11-20T16:01:16Z</time>
      </trkpt>
      <trkpt lat="47.14241" lon="-0.90519">
        <ele>86</ele>
        <time>2014-11-20T16:01:18Z</time>
      </trkpt>
      <trkpt lat="47.1424" lon="-0.90516">
        <ele>86</ele>
        <time>2014-11-20T16:01:20Z</time>
      </trkpt>
      <trkpt lat="47.1424" lon="-0.90513">
        <ele>86</ele>
        <time>2014-11-20T16:01:22Z</time>
      </trkpt>
      <trkpt lat="47.14239" lon="-0.9051">
        <ele>86</ele>
        <time>2014-11-20T16:01:24Z</time>
      </trkpt>
      <trkpt lat="47.14239" lon="-0.90507">
        <ele>86</ele>
        <time>2014-11-20T16:01:26Z</time>
      </trkpt>
      <trkpt lat="47.14238" lon="-0.90504">
        <ele>86</ele>
        <time>2014-11-20T16:01:28Z</time>
      </trkpt>
      <trkpt lat="47.14238" lon="-0.90499">
        <ele>86</ele>
        <time>2014-11-20T16:01:31Z</time>
      </trkpt>
      <trkpt lat="47.14236" lon="-0.90496">
        <ele>86</ele>
        <time>2014-11-20T16:01:33Z</time>
      </trkpt>
      <trkpt lat="47.14234" lon="-0.90491">
        <ele>86</ele>
        <time>2014-11-20T16:01:36Z</time>
      </trkpt>
      <trkpt lat="47.14232" lon="-0.90488">
        <ele>86</ele>
        <time>2014-11-20T16:01:38Z</time>
      </trkpt>
      <trkpt lat="47.14231" lon="-0.90484">
        <ele>86</ele>
        <time>2014-11-20T16:01:40Z</time>
      </trkpt>
      <trkpt lat="47.1423" lon="-0.90481">
        <ele>86</ele>
        <time>2014-11-20T16:01:42Z</time>
      </trkpt>
      <trkpt lat="47.14228" lon="-0.90478">
        <ele>86</ele>
        <time>2014-11-20T16:01:44Z</time>
      </trkpt>
      <trkpt lat="47.14228" lon="-0.90474">
        <ele>86</ele>
        <time>2014-11-20T16:01:46Z</time>
      </trkpt>
      <trkpt lat="47.14227" lon="-0.9047">
        <ele>86</ele>
        <time>2014-11-20T16:01:48Z</time>
      </trkpt>
      <trkpt lat="47.14226" lon="-0.90466">
        <ele>86</ele>
        <time>2014-11-20T16:01:50Z</time>
      </trkpt>
      <trkpt lat="47.14225" lon="-0.90463">
        <ele>86</ele>
        <time>2014-11-20T16:01:52Z</time>
      </trkpt>
      <trkpt lat="47.14224" lon="-0.9046">
        <ele>86</ele>
        <time>2014-11-20T16:01:54Z</time>
      </trkpt>
      <trkpt lat="47.14223" lon="-0.90457">
        <ele>86</ele>
        <time>2014-11-20T16:01:56Z</time>
      </trkpt>
      <trkpt lat="47.14222" lon="-0.90454">
        <ele>86</ele>
        <time>2014-11-20T16:01:58Z</time>
      </trkpt>
      <trkpt lat="47.14222" lon="-0.9045">
        <ele>86</ele>
        <time>2014-11-20T16:02:00Z</time>
      </trkpt>
      <trkpt lat="47.1422" lon="-0.90447">
        <ele>86</ele>
        <time>2014-11-20T16:02:02Z</time>
      </trkpt>
      <trkpt lat="47.1422" lon="-0.90443">
        <ele>86</ele>
        <time>2014-11-20T16:02:04Z</time>
      </trkpt>
      <trkpt lat="47.14219" lon="-0.9044">
        <ele>86</ele>
        <time>2014-11-20T16:02:06Z</time>
      </trkpt>
      <trkpt lat="47.14219" lon="-0.90436">
        <ele>86</ele>
        <time>2014-11-20T16:02:08Z</time>
      </trkpt>
      <trkpt lat="47.14218" lon="-0.90433">
        <ele>86</ele>
        <time>2014-11-20T16:02:10Z</time>
      </trkpt>
      <trkpt lat="47.14218" lon="-0.90429">
        <ele>86</ele>
        <time>2014-11-20T16:02:12Z</time>
      </trkpt>
      <trkpt lat="47.14217" lon="-0.90425">
        <ele>86</ele>
        <time>2014-11-20T16:02:14Z</time>
      </trkpt>
      <trkpt lat="47.14218" lon="-0.90421">
        <ele>86</ele>
        <time>2014-11-20T16:02:16Z</time>
      </trkpt>
      <trkpt lat="47.14218" lon="-0.90418">
        <ele>86</ele>
        <time>2014-11-20T16:02:18Z</time>
      </trkpt>
      <trkpt lat="47.14217" lon="-0.90413">
        <ele>86</ele>
        <time>2014-11-20T16:02:21Z</time>
      </trkpt>
      <trkpt lat="47.14217" lon="-0.90411">
        <ele>86</ele>
        <time>2014-11-20T16:02:23Z</time>
      </trkpt>
      <trkpt lat="47.14216" lon="-0.90409">
        <ele>86</ele>
        <time>2014-11-20T16:02:25Z</time>
      </trkpt>
      <trkpt lat="47.14215" lon="-0.90406">
        <ele>86</ele>
        <time>2014-11-20T16:02:27Z</time>
      </trkpt>
      <trkpt lat="47.14214" lon="-0.90403">
        <ele>86</ele>
        <time>2014-11-20T16:02:29Z</time>
      </trkpt>
      <trkpt lat="47.14212" lon="-0.90401">
        <ele>86</ele>
        <time>2014-11-20T16:02:31Z</time>
      </trkpt>
      <trkpt lat="47.14211" lon="-0.90399">
        <ele>86</ele>
        <time>2014-11-20T16:02:33Z</time>
      </trkpt>
      <trkpt lat="47.1421" lon="-0.90396">
        <ele>86</ele>
        <time>2014-11-20T16:02:35Z</time>
      </trkpt>
      <trkpt lat="47.14209" lon="-0.90395">
        <ele>86</ele>
        <time>2014-11-20T16:02:37Z</time>
      </trkpt>
      <trkpt lat="47.14207" lon="-0.90393">
        <ele>86</ele>
        <time>2014-11-20T16:02:39Z</time>
      </trkpt>
      <trkpt lat="47.14206" lon="-0.9039">
        <ele>86</ele>
        <time>2014-11-20T16:02:41Z</time>
      </trkpt>
      <trkpt lat="47.14205" lon="-0.90388">
        <ele>86</ele>
        <time>2014-11-20T16:02:43Z</time>
      </trkpt>
      <trkpt lat="47.14204" lon="-0.90385">
        <ele>86</ele>
        <time>2014-11-20T16:02:45Z</time>
      </trkpt>
      <trkpt lat="47.14203" lon="-0.90383">
        <ele>86</ele>
        <time>2014-11-20T16:02:47Z</time>
      </trkpt>
      <trkpt lat="47.14201" lon="-0.90379">
        <ele>86</ele>
        <time>2014-11-20T16:02:50Z</time>
      </trkpt>
      <trkpt lat="47.14199" lon="-0.90376">
        <ele>86</ele>
        <time>2014-11-20T16:02:52Z</time>
      </trkpt>
      <trkpt lat="47.14198" lon="-0.90374">
        <ele>86</ele>
        <time>2014-11-20T16:02:54Z</time>
      </trkpt>
      <trkpt lat="47.14196" lon="-0.90371">
        <ele>86</ele>
        <time>2014-11-20T16:02:56Z</time>
      </trkpt>
      <trkpt lat="47.14195" lon="-0.90369">
        <ele>86</ele>
        <time>2014-11-20T16:02:58Z</time>
      </trkpt>
      <trkpt lat="47.14193" lon="-0.90366">
        <ele>86</ele>
        <time>2014-11-20T16:03:00Z</time>
      </trkpt>
      <trkpt lat="47.14192" lon="-0.90363">
        <ele>86</ele>
        <time>2014-11-20T16:03:02Z</time>
      </trkpt>
      <trkpt lat="47.14191" lon="-0.9036">
        <ele>86</ele>
        <time>2014-11-20T16:03:04Z</time>
      </trkpt>
      <trkpt lat="47.14189" lon="-0.90357">
        <ele>86</ele>
        <time>2014-11-20T16:03:06Z</time>
      </trkpt>
      <trkpt lat="47.14187" lon="-0.90354">
        <ele>86</ele>
        <time>2014-11-20T16:03:08Z</time>
      </trkpt>
      <trkpt lat="47.14186" lon="-0.90351">
        <ele>86</ele>
        <time>2014-11-20T16:03:10Z</time>
      </trkpt>
      <trkpt lat="47.14183" lon="-0.90346">
        <ele>86</ele>
        <time>2014-11-20T16:03:13Z</time>
      </trkpt>
      <trkpt lat="47.14182" lon="-0.90343">
        <ele>86</ele>
        <time>2014-11-20T16:03:15Z</time>
      </trkpt>
      <trkpt lat="47.14181" lon="-0.90341">
        <ele>86</ele>
        <time>2014-11-20T16:03:17Z</time>
      </trkpt>
      <trkpt lat="47.14179" lon="-0.90338">
        <ele>86</ele>
        <time>2014-11-20T16:03:19Z</time>
      </trkpt>
      <trkpt lat="47.14178" lon="-0.90335">
        <ele>86</ele>
        <time>2014-11-20T16:03:21Z</time>
      </trkpt>
      <trkpt lat="47.14177" lon="-0.90332">
        <ele>86</ele>
        <time>2014-11-20T16:03:23Z</time>
      </trkpt>
      <trkpt lat="47.14175" lon="-0.90328">
        <ele>86</ele>
        <time>2014-11-20T16:03:26Z</time>
      </trkpt>
      <trkpt lat="47.14172" lon="-0.90324">
        <ele>86</ele>
        <time>2014-11-20T16:03:29Z</time>
      </trkpt>
      <trkpt lat="47.14171" lon="-0.90321">
        <ele>86</ele>
        <time>2014-11-20T16:03:31Z</time>
      </trkpt>
      <trkpt lat="47.14169" lon="-0.90317">
        <ele>86</ele>
        <time>2014-11-20T16:03:34Z</time>
      </trkpt>
      <trkpt lat="47.14168" lon="-0.90315">
        <ele>86</ele>
        <time>2014-11-20T16:03:36Z</time>
      </trkpt>
      <trkpt lat="47.14167" lon="-0.90311">
        <ele>86</ele>
        <time>2014-11-20T16:03:39Z</time>
      </trkpt>
      <trkpt lat="47.14165" lon="-0.90306">
        <ele>86</ele>
        <time>2014-11-20T16:03:42Z</time>
      </trkpt>
      <trkpt lat="47.14164" lon="-0.90303">
        <ele>86</ele>
        <time>2014-11-20T16:03:44Z</time>
      </trkpt>
      <trkpt lat="47.14163" lon="-0.903">
        <ele>86</ele>
        <time>2014-11-20T16:03:46Z</time>
      </trkpt>
      <trkpt lat="47.14162" lon="-0.90297">
        <ele>86</ele>
        <time>2014-11-20T16:03:48Z</time>
      </trkpt>
      <trkpt lat="47.14161" lon="-0.90294">
        <ele>86</ele>
        <time>2014-11-20T16:03:50Z</time>
      </trkpt>
      <trkpt lat="47.1416" lon="-0.9029">
        <ele>86</ele>
        <time>2014-11-20T16:03:52Z</time>
      </trkpt>
      <trkpt lat="47.14157" lon="-0.90285">
        <ele>86</ele>
        <time>2014-11-20T16:03:56Z</time>
      </trkpt>
      <trkpt lat="47.14156" lon="-0.90281">
        <ele>86</ele>
        <time>2014-11-20T16:03:58Z</time>
      </trkpt>
      <trkpt lat="47.14157" lon="-0.90276">
        <ele>86</ele>
        <time>2014-11-20T16:04:00Z</time>
      </trkpt>
      <trkpt lat="47.14156" lon="-0.90272">
        <ele>86</ele>
        <time>2014-11-20T16:04:02Z</time>
      </trkpt>
      <trkpt lat="47.14156" lon="-0.90268">
        <ele>86</ele>
        <time>2014-11-20T16:04:04Z</time>
      </trkpt>
      <trkpt lat="47.14156" lon="-0.90265">
        <ele>86</ele>
        <time>2014-11-20T16:04:06Z</time>
      </trkpt>
      <trkpt lat="47.14156" lon="-0.90262">
        <ele>86</ele>
        <time>2014-11-20T16:04:08Z</time>
      </trkpt>
      <trkpt lat="47.14155" lon="-0.90258">
        <ele>86</ele>
        <time>2014-11-20T16:04:10Z</time>
      </trkpt>
      <trkpt lat="47.14155" lon="-0.90254">
        <ele>86</ele>
        <time>2014-11-20T16:04:12Z</time>
      </trkpt>
      <trkpt lat="47.14155" lon="-0.90251">
        <ele>86</ele>
        <time>2014-11-20T16:04:14Z</time>
      </trkpt>
      <trkpt lat="47.14154" lon="-0.90247">
        <ele>86</ele>
        <time>2014-11-20T16:04:16Z</time>
      </trkpt>
      <trkpt lat="47.14154" lon="-0.90244">
        <ele>86</ele>
        <time>2014-11-20T16:04:18Z</time>
      </trkpt>
      <trkpt lat="47.14155" lon="-0.90241">
        <ele>86</ele>
        <time>2014-11-20T16:04:20Z</time>
      </trkpt>
      <trkpt lat="47.14155" lon="-0.90237">
        <ele>86</ele>
        <time>2014-11-20T16:04:22Z</time>
      </trkpt>
      <trkpt lat="47.14155" lon="-0.90233">
        <ele>86</ele>
        <time>2014-11-20T16:04:24Z</time>
      </trkpt>
      <trkpt lat="47.14155" lon="-0.9023">
        <ele>86</ele>
        <time>2014-11-20T16:04:26Z</time>
      </trkpt>
      <trkpt lat="47.14156" lon="-0.90227">
        <ele>86</ele>
        <time>2014-11-20T16:04:28Z</time>
      </trkpt>
      <trkpt lat="47.14156" lon="-0.90224">
        <ele>86</ele>
        <time>2014-11-20T16:04:30Z</time>
      </trkpt>
      <trkpt lat="47.14156" lon="-0.90221">
        <ele>86</ele>
        <time>2014-11-20T16:04:32Z</time>
      </trkpt>
      <trkpt lat="47.14156" lon="-0.90217">
        <ele>86</ele>
        <time>2014-11-20T16:04:34Z</time>
      </trkpt>
      <trkpt lat="47.14157" lon="-0.90214">
        <ele>86</ele>
        <time>2014-11-20T16:04:36Z</time>
      </trkpt>
      <trkpt lat="47.14157" lon="-0.90211">
        <ele>86</ele>
        <time>2014-11-20T16:04:38Z</time>
      </trkpt>
      <trkpt lat="47.14158" lon="-0.90207">
        <ele>86</ele>
        <time>2014-11-20T16:04:40Z</time>
      </trkpt>
      <trkpt lat="47.14158" lon="-0.90204">
        <ele>86</ele>
        <time>2014-11-20T16:04:42Z</time>
      </trkpt>
      <trkpt lat="47.14159" lon="-0.90201">
        <ele>86</ele>
        <time>2014-11-20T16:04:44Z</time>
      </trkpt>
      <trkpt lat="47.14159" lon="-0.90197">
        <ele>86</ele>
        <time>2014-11-20T16:04:46Z</time>
      </trkpt>
      <trkpt lat="47.14159" lon="-0.90193">
        <ele>86</ele>
        <time>2014-11-20T16:04:48Z</time>
      </trkpt>
      <trkpt lat="47.14159" lon="-0.90189">
        <ele>86</ele>
        <time>2014-11-20T16:04:50Z</time>
      </trkpt>
      <trkpt lat="47.14159" lon="-0.90185">
        <ele>86</ele>
        <time>2014-11-20T16:04:53Z</time>
      </trkpt>
      <trkpt lat="47.1416" lon="-0.90182">
        <ele>86</ele>
        <time>2014-11-20T16:04:55Z</time>
      </trkpt>
      <trkpt lat="47.1416" lon="-0.90179">
        <ele>86</ele>
        <time>2014-11-20T16:04:57Z</time>
      </trkpt>
      <trkpt lat="47.14161" lon="-0.90176">
        <ele>86</ele>
        <time>2014-11-20T16:04:59Z</time>
      </trkpt>
      <trkpt lat="47.14161" lon="-0.90173">
        <ele>86</ele>
        <time>2014-11-20T16:05:01Z</time>
      </trkpt>
      <trkpt lat="47.14162" lon="-0.90171">
        <ele>86</ele>
        <time>2014-11-20T16:05:03Z</time>
      </trkpt>
      <trkpt lat="47.14162" lon="-0.90168">
        <ele>86</ele>
        <time>2014-11-20T16:05:05Z</time>
      </trkpt>
      <trkpt lat="47.14163" lon="-0.90164">
        <ele>86</ele>
        <time>2014-11-20T16:05:08Z</time>
      </trkpt>
      <trkpt lat="47.14164" lon="-0.90162">
        <ele>87</ele>
        <time>2014-11-20T16:05:10Z</time>
      </trkpt>
      <trkpt lat="47.14163" lon="-0.90157">
        <ele>87</ele>
        <time>2014-11-20T16:05:12Z</time>
      </trkpt>
      <trkpt lat="47.14164" lon="-0.90153">
        <ele>87</ele>
        <time>2014-11-20T16:05:14Z</time>
      </trkpt>
      <trkpt lat="47.14164" lon="-0.90149">
        <ele>87</ele>
        <time>2014-11-20T16:05:16Z</time>
      </trkpt>
      <trkpt lat="47.14164" lon="-0.90145">
        <ele>88</ele>
        <time>2014-11-20T16:05:18Z</time>
      </trkpt>
      <trkpt lat="47.14165" lon="-0.90142">
        <ele>88</ele>
        <time>2014-11-20T16:05:20Z</time>
      </trkpt>
      <trkpt lat="47.14167" lon="-0.90137">
        <ele>88</ele>
        <time>2014-11-20T16:05:22Z</time>
      </trkpt>
      <trkpt lat="47.14167" lon="-0.90134">
        <ele>88</ele>
        <time>2014-11-20T16:05:24Z</time>
      </trkpt>
      <trkpt lat="47.14168" lon="-0.9013">
        <ele>88</ele>
        <time>2014-11-20T16:05:26Z</time>
      </trkpt>
      <trkpt lat="47.14168" lon="-0.90127">
        <ele>88</ele>
        <time>2014-11-20T16:05:28Z</time>
      </trkpt>
      <trkpt lat="47.14169" lon="-0.90123">
        <ele>88</ele>
        <time>2014-11-20T16:05:30Z</time>
      </trkpt>
      <trkpt lat="47.14169" lon="-0.9012">
        <ele>88</ele>
        <time>2014-11-20T16:05:32Z</time>
      </trkpt>
      <trkpt lat="47.1417" lon="-0.90116">
        <ele>88</ele>
        <time>2014-11-20T16:05:34Z</time>
      </trkpt>
      <trkpt lat="47.1417" lon="-0.90113">
        <ele>88</ele>
        <time>2014-11-20T16:05:36Z</time>
      </trkpt>
      <trkpt lat="47.14171" lon="-0.9011">
        <ele>88</ele>
        <time>2014-11-20T16:05:38Z</time>
      </trkpt>
      <trkpt lat="47.14171" lon="-0.90106">
        <ele>88</ele>
        <time>2014-11-20T16:05:40Z</time>
      </trkpt>
      <trkpt lat="47.14172" lon="-0.90102">
        <ele>88</ele>
        <time>2014-11-20T16:05:43Z</time>
      </trkpt>
      <trkpt lat="47.14172" lon="-0.90099">
        <ele>88</ele>
        <time>2014-11-20T16:05:45Z</time>
      </trkpt>
      <trkpt lat="47.14172" lon="-0.90096">
        <ele>88</ele>
        <time>2014-11-20T16:05:47Z</time>
      </trkpt>
      <trkpt lat="47.14172" lon="-0.90093">
        <ele>88</ele>
        <time>2014-11-20T16:05:49Z</time>
      </trkpt>
      <trkpt lat="47.14172" lon="-0.90089">
        <ele>88</ele>
        <time>2014-11-20T16:05:51Z</time>
      </trkpt>
      <trkpt lat="47.14173" lon="-0.90085">
        <ele>88</ele>
        <time>2014-11-20T16:05:53Z</time>
      </trkpt>
      <trkpt lat="47.14173" lon="-0.90082">
        <ele>89</ele>
        <time>2014-11-20T16:05:55Z</time>
      </trkpt>
      <trkpt lat="47.14173" lon="-0.90079">
        <ele>89</ele>
        <time>2014-11-20T16:05:57Z</time>
      </trkpt>
      <trkpt lat="47.14173" lon="-0.90075">
        <ele>89</ele>
        <time>2014-11-20T16:05:59Z</time>
      </trkpt>
      <trkpt lat="47.14173" lon="-0.90072">
        <ele>89</ele>
        <time>2014-11-20T16:06:01Z</time>
      </trkpt>
      <trkpt lat="47.14173" lon="-0.90068">
        <ele>89</ele>
        <time>2014-11-20T16:06:03Z</time>
      </trkpt>
      <trkpt lat="47.14173" lon="-0.90065">
        <ele>89</ele>
        <time>2014-11-20T16:06:05Z</time>
      </trkpt>
      <trkpt lat="47.14173" lon="-0.90061">
        <ele>89</ele>
        <time>2014-11-20T16:06:07Z</time>
      </trkpt>
      <trkpt lat="47.14173" lon="-0.90058">
        <ele>89</ele>
        <time>2014-11-20T16:06:09Z</time>
      </trkpt>
      <trkpt lat="47.14173" lon="-0.90054">
        <ele>89</ele>
        <time>2014-11-20T16:06:11Z</time>
      </trkpt>
      <trkpt lat="47.14173" lon="-0.90051">
        <ele>89</ele>
        <time>2014-11-20T16:06:13Z</time>
      </trkpt>
      <trkpt lat="47.14173" lon="-0.90048">
        <ele>89</ele>
        <time>2014-11-20T16:06:15Z</time>
      </trkpt>
      <trkpt lat="47.14173" lon="-0.90044">
        <ele>89</ele>
        <time>2014-11-20T16:06:17Z</time>
      </trkpt>
      <trkpt lat="47.14173" lon="-0.90041">
        <ele>89</ele>
        <time>2014-11-20T16:06:19Z</time>
      </trkpt>
      <trkpt lat="47.14173" lon="-0.90038">
        <ele>89</ele>
        <time>2014-11-20T16:06:21Z</time>
      </trkpt>
      <trkpt lat="47.14172" lon="-0.90034">
        <ele>89</ele>
        <time>2014-11-20T16:06:23Z</time>
      </trkpt>
      <trkpt lat="47.14172" lon="-0.9003">
        <ele>89</ele>
        <time>2014-11-20T16:06:25Z</time>
      </trkpt>
      <trkpt lat="47.14171" lon="-0.90026">
        <ele>89</ele>
        <time>2014-11-20T16:06:27Z</time>
      </trkpt>
      <trkpt lat="47.14171" lon="-0.90023">
        <ele>89</ele>
        <time>2014-11-20T16:06:29Z</time>
      </trkpt>
      <trkpt lat="47.14171" lon="-0.9002">
        <ele>89</ele>
        <time>2014-11-20T16:06:31Z</time>
      </trkpt>
      <trkpt lat="47.14171" lon="-0.90016">
        <ele>89</ele>
        <time>2014-11-20T16:06:33Z</time>
      </trkpt>
      <trkpt lat="47.14171" lon="-0.90012">
        <ele>89</ele>
        <time>2014-11-20T16:06:35Z</time>
      </trkpt>
      <trkpt lat="47.14171" lon="-0.90009">
        <ele>89</ele>
        <time>2014-11-20T16:06:37Z</time>
      </trkpt>
      <trkpt lat="47.14171" lon="-0.90004">
        <ele>89</ele>
        <time>2014-11-20T16:06:40Z</time>
      </trkpt>
      <trkpt lat="47.14172" lon="-0.90001">
        <ele>89</ele>
        <time>2014-11-20T16:06:42Z</time>
      </trkpt>
      <trkpt lat="47.14172" lon="-0.89997">
        <ele>89</ele>
        <time>2014-11-20T16:06:44Z</time>
      </trkpt>
      <trkpt lat="47.14172" lon="-0.89993">
        <ele>89</ele>
        <time>2014-11-20T16:06:46Z</time>
      </trkpt>
      <trkpt lat="47.14174" lon="-0.8999">
        <ele>89</ele>
        <time>2014-11-20T16:06:48Z</time>
      </trkpt>
      <trkpt lat="47.14173" lon="-0.89986">
        <ele>89</ele>
        <time>2014-11-20T16:06:50Z</time>
      </trkpt>
      <trkpt lat="47.14172" lon="-0.89982">
        <ele>89</ele>
        <time>2014-11-20T16:06:52Z</time>
      </trkpt>
      <trkpt lat="47.14172" lon="-0.89978">
        <ele>89</ele>
        <time>2014-11-20T16:06:54Z</time>
      </trkpt>
      <trkpt lat="47.14171" lon="-0.89973">
        <ele>89</ele>
        <time>2014-11-20T16:06:56Z</time>
      </trkpt>
      <trkpt lat="47.1417" lon="-0.89969">
        <ele>89</ele>
        <time>2014-11-20T16:06:58Z</time>
      </trkpt>
      <trkpt lat="47.14169" lon="-0.89966">
        <ele>89</ele>
        <time>2014-11-20T16:07:00Z</time>
      </trkpt>
      <trkpt lat="47.14169" lon="-0.89963">
        <ele>89</ele>
        <time>2014-11-20T16:07:02Z</time>
      </trkpt>
      <trkpt lat="47.14168" lon="-0.89958">
        <ele>89</ele>
        <time>2014-11-20T16:07:04Z</time>
      </trkpt>
      <trkpt lat="47.14167" lon="-0.89955">
        <ele>89</ele>
        <time>2014-11-20T16:07:06Z</time>
      </trkpt>
      <trkpt lat="47.14165" lon="-0.89945">
        <ele>90</ele>
        <time>2014-11-20T16:07:13Z</time>
      </trkpt>
      <trkpt lat="47.14165" lon="-0.89941">
        <ele>90</ele>
        <time>2014-11-20T16:07:15Z</time>
      </trkpt>
      <trkpt lat="47.14164" lon="-0.89937">
        <ele>90</ele>
        <time>2014-11-20T16:07:17Z</time>
      </trkpt>
      <trkpt lat="47.14164" lon="-0.89934">
        <ele>90</ele>
        <time>2014-11-20T16:07:19Z</time>
      </trkpt>
      <trkpt lat="47.14163" lon="-0.89931">
        <ele>90</ele>
        <time>2014-11-20T16:07:21Z</time>
      </trkpt>
      <trkpt lat="47.14162" lon="-0.89928">
        <ele>90</ele>
        <time>2014-11-20T16:07:23Z</time>
      </trkpt>
      <trkpt lat="47.14162" lon="-0.89924">
        <ele>90</ele>
        <time>2014-11-20T16:07:25Z</time>
      </trkpt>
      <trkpt lat="47.14162" lon="-0.8992">
        <ele>90</ele>
        <time>2014-11-20T16:07:27Z</time>
      </trkpt>
      <trkpt lat="47.14161" lon="-0.89916">
        <ele>90</ele>
        <time>2014-11-20T16:07:29Z</time>
      </trkpt>
      <trkpt lat="47.14161" lon="-0.89913">
        <ele>90</ele>
        <time>2014-11-20T16:07:31Z</time>
      </trkpt>
      <trkpt lat="47.1416" lon="-0.89909">
        <ele>90</ele>
        <time>2014-11-20T16:07:33Z</time>
      </trkpt>
      <trkpt lat="47.1416" lon="-0.89905">
        <ele>90</ele>
        <time>2014-11-20T16:07:35Z</time>
      </trkpt>
      <trkpt lat="47.14159" lon="-0.89901">
        <ele>90</ele>
        <time>2014-11-20T16:07:37Z</time>
      </trkpt>
      <trkpt lat="47.14159" lon="-0.89898">
        <ele>90</ele>
        <time>2014-11-20T16:07:39Z</time>
      </trkpt>
      <trkpt lat="47.14158" lon="-0.89894">
        <ele>90</ele>
        <time>2014-11-20T16:07:41Z</time>
      </trkpt>
      <trkpt lat="47.14157" lon="-0.8989">
        <ele>90</ele>
        <time>2014-11-20T16:07:43Z</time>
      </trkpt>
      <trkpt lat="47.14156" lon="-0.89886">
        <ele>90</ele>
        <time>2014-11-20T16:07:45Z</time>
      </trkpt>
      <trkpt lat="47.14156" lon="-0.89882">
        <ele>90</ele>
        <time>2014-11-20T16:07:47Z</time>
      </trkpt>
      <trkpt lat="47.14156" lon="-0.89879">
        <ele>90</ele>
        <time>2014-11-20T16:07:49Z</time>
      </trkpt>
      <trkpt lat="47.14155" lon="-0.89875">
        <ele>90</ele>
        <time>2014-11-20T16:07:51Z</time>
      </trkpt>
      <trkpt lat="47.14154" lon="-0.89872">
        <ele>90</ele>
        <time>2014-11-20T16:07:53Z</time>
      </trkpt>
      <trkpt lat="47.14154" lon="-0.89868">
        <ele>91</ele>
        <time>2014-11-20T16:07:55Z</time>
      </trkpt>
      <trkpt lat="47.14153" lon="-0.89864">
        <ele>91</ele>
        <time>2014-11-20T16:07:57Z</time>
      </trkpt>
      <trkpt lat="47.14153" lon="-0.89861">
        <ele>91</ele>
        <time>2014-11-20T16:07:59Z</time>
      </trkpt>
      <trkpt lat="47.14152" lon="-0.89857">
        <ele>91</ele>
        <time>2014-11-20T16:08:01Z</time>
      </trkpt>
      <trkpt lat="47.14152" lon="-0.89854">
        <ele>91</ele>
        <time>2014-11-20T16:08:03Z</time>
      </trkpt>
      <trkpt lat="47.14151" lon="-0.8985">
        <ele>91</ele>
        <time>2014-11-20T16:08:05Z</time>
      </trkpt>
      <trkpt lat="47.1415" lon="-0.89846">
        <ele>91</ele>
        <time>2014-11-20T16:08:07Z</time>
      </trkpt>
      <trkpt lat="47.1415" lon="-0.89843">
        <ele>91</ele>
        <time>2014-11-20T16:08:09Z</time>
      </trkpt>
      <trkpt lat="47.14149" lon="-0.8984">
        <ele>91</ele>
        <time>2014-11-20T16:08:11Z</time>
      </trkpt>
      <trkpt lat="47.14149" lon="-0.89837">
        <ele>91</ele>
        <time>2014-11-20T16:08:13Z</time>
      </trkpt>
      <trkpt lat="47.14148" lon="-0.89833">
        <ele>91</ele>
        <time>2014-11-20T16:08:15Z</time>
      </trkpt>
      <trkpt lat="47.14148" lon="-0.8983">
        <ele>91</ele>
        <time>2014-11-20T16:08:17Z</time>
      </trkpt>
      <trkpt lat="47.14148" lon="-0.89826">
        <ele>91</ele>
        <time>2014-11-20T16:08:19Z</time>
      </trkpt>
      <trkpt lat="47.14147" lon="-0.89823">
        <ele>91</ele>
        <time>2014-11-20T16:08:21Z</time>
      </trkpt>
      <trkpt lat="47.14147" lon="-0.89819">
        <ele>91</ele>
        <time>2014-11-20T16:08:23Z</time>
      </trkpt>
      <trkpt lat="47.14146" lon="-0.89815">
        <ele>91</ele>
        <time>2014-11-20T16:08:25Z</time>
      </trkpt>
      <trkpt lat="47.14145" lon="-0.89812">
        <ele>91</ele>
        <time>2014-11-20T16:08:27Z</time>
      </trkpt>
      <trkpt lat="47.14145" lon="-0.89809">
        <ele>91</ele>
        <time>2014-11-20T16:08:29Z</time>
      </trkpt>
      <trkpt lat="47.14144" lon="-0.89806">
        <ele>91</ele>
        <time>2014-11-20T16:08:31Z</time>
      </trkpt>
      <trkpt lat="47.14143" lon="-0.89802">
        <ele>91</ele>
        <time>2014-11-20T16:08:33Z</time>
      </trkpt>
      <trkpt lat="47.14143" lon="-0.89798">
        <ele>91</ele>
        <time>2014-11-20T16:08:35Z</time>
      </trkpt>
      <trkpt lat="47.14142" lon="-0.89794">
        <ele>92</ele>
        <time>2014-11-20T16:08:37Z</time>
      </trkpt>
      <trkpt lat="47.14141" lon="-0.89791">
        <ele>92</ele>
        <time>2014-11-20T16:08:39Z</time>
      </trkpt>
      <trkpt lat="47.14141" lon="-0.89788">
        <ele>92</ele>
        <time>2014-11-20T16:08:41Z</time>
      </trkpt>
      <trkpt lat="47.1414" lon="-0.89784">
        <ele>92</ele>
        <time>2014-11-20T16:08:43Z</time>
      </trkpt>
      <trkpt lat="47.1414" lon="-0.8978">
        <ele>92</ele>
        <time>2014-11-20T16:08:45Z</time>
      </trkpt>
      <trkpt lat="47.14139" lon="-0.89777">
        <ele>92</ele>
        <time>2014-11-20T16:08:47Z</time>
      </trkpt>
      <trkpt lat="47.14138" lon="-0.89773">
        <ele>92</ele>
        <time>2014-11-20T16:08:49Z</time>
      </trkpt>
      <trkpt lat="47.14138" lon="-0.8977">
        <ele>92</ele>
        <time>2014-11-20T16:08:51Z</time>
      </trkpt>
      <trkpt lat="47.14138" lon="-0.89767">
        <ele>92</ele>
        <time>2014-11-20T16:08:53Z</time>
      </trkpt>
      <trkpt lat="47.14137" lon="-0.89763">
        <ele>92</ele>
        <time>2014-11-20T16:08:55Z</time>
      </trkpt>
      <trkpt lat="47.14137" lon="-0.89759">
        <ele>92</ele>
        <time>2014-11-20T16:08:57Z</time>
      </trkpt>
      <trkpt lat="47.14137" lon="-0.89756">
        <ele>92</ele>
        <time>2014-11-20T16:08:59Z</time>
      </trkpt>
      <trkpt lat="47.14136" lon="-0.89752">
        <ele>92</ele>
        <time>2014-11-20T16:09:01Z</time>
      </trkpt>
      <trkpt lat="47.14135" lon="-0.89749">
        <ele>92</ele>
        <time>2014-11-20T16:09:03Z</time>
      </trkpt>
      <trkpt lat="47.14135" lon="-0.89745">
        <ele>92</ele>
        <time>2014-11-20T16:09:05Z</time>
      </trkpt>
      <trkpt lat="47.14134" lon="-0.89741">
        <ele>92</ele>
        <time>2014-11-20T16:09:07Z</time>
      </trkpt>
      <trkpt lat="47.14133" lon="-0.89737">
        <ele>92</ele>
        <time>2014-11-20T16:09:09Z</time>
      </trkpt>
      <trkpt lat="47.14132" lon="-0.89734">
        <ele>92</ele>
        <time>2014-11-20T16:09:11Z</time>
      </trkpt>
      <trkpt lat="47.14132" lon="-0.89731">
        <ele>92</ele>
        <time>2014-11-20T16:09:13Z</time>
      </trkpt>
      <trkpt lat="47.14131" lon="-0.89727">
        <ele>92</ele>
        <time>2014-11-20T16:09:15Z</time>
      </trkpt>
      <trkpt lat="47.1413" lon="-0.89724">
        <ele>92</ele>
        <time>2014-11-20T16:09:17Z</time>
      </trkpt>
      <trkpt lat="47.14129" lon="-0.8972">
        <ele>92</ele>
        <time>2014-11-20T16:09:19Z</time>
      </trkpt>
      <trkpt lat="47.14128" lon="-0.89717">
        <ele>92</ele>
        <time>2014-11-20T16:09:21Z</time>
      </trkpt>
      <trkpt lat="47.14127" lon="-0.89714">
        <ele>92</ele>
        <time>2014-11-20T16:09:23Z</time>
      </trkpt>
      <trkpt lat="47.14126" lon="-0.8971">
        <ele>92</ele>
        <time>2014-11-20T16:09:25Z</time>
      </trkpt>
      <trkpt lat="47.14125" lon="-0.89707">
        <ele>92</ele>
        <time>2014-11-20T16:09:27Z</time>
      </trkpt>
      <trkpt lat="47.14124" lon="-0.89704">
        <ele>92</ele>
        <time>2014-11-20T16:09:29Z</time>
      </trkpt>
      <trkpt lat="47.14123" lon="-0.89701">
        <ele>92</ele>
        <time>2014-11-20T16:09:31Z</time>
      </trkpt>
      <trkpt lat="47.14122" lon="-0.89698">
        <ele>92</ele>
        <time>2014-11-20T16:09:33Z</time>
      </trkpt>
      <trkpt lat="47.14121" lon="-0.89694">
        <ele>92</ele>
        <time>2014-11-20T16:09:35Z</time>
      </trkpt>
      <trkpt lat="47.1412" lon="-0.89691">
        <ele>92</ele>
        <time>2014-11-20T16:09:37Z</time>
      </trkpt>
      <trkpt lat="47.14118" lon="-0.89688">
        <ele>92</ele>
        <time>2014-11-20T16:09:39Z</time>
      </trkpt>
      <trkpt lat="47.14117" lon="-0.89684">
        <ele>92</ele>
        <time>2014-11-20T16:09:41Z</time>
      </trkpt>
      <trkpt lat="47.14115" lon="-0.8968">
        <ele>92</ele>
        <time>2014-11-20T16:09:44Z</time>
      </trkpt>
      <trkpt lat="47.14114" lon="-0.89678">
        <ele>92</ele>
        <time>2014-11-20T16:09:46Z</time>
      </trkpt>
      <trkpt lat="47.14112" lon="-0.89675">
        <ele>92</ele>
        <time>2014-11-20T16:09:48Z</time>
      </trkpt>
      <trkpt lat="47.14111" lon="-0.89672">
        <ele>92</ele>
        <time>2014-11-20T16:09:50Z</time>
      </trkpt>
      <trkpt lat="47.14109" lon="-0.89669">
        <ele>92</ele>
        <time>2014-11-20T16:09:52Z</time>
      </trkpt>
      <trkpt lat="47.14108" lon="-0.89665">
        <ele>92</ele>
        <time>2014-11-20T16:09:54Z</time>
      </trkpt>
      <trkpt lat="47.14107" lon="-0.89662">
        <ele>92</ele>
        <time>2014-11-20T16:09:56Z</time>
      </trkpt>
      <trkpt lat="47.14105" lon="-0.89659">
        <ele>92</ele>
        <time>2014-11-20T16:09:58Z</time>
      </trkpt>
      <trkpt lat="47.14104" lon="-0.89654">
        <ele>92</ele>
        <time>2014-11-20T16:10:01Z</time>
      </trkpt>
      <trkpt lat="47.14103" lon="-0.89651">
        <ele>92</ele>
        <time>2014-11-20T16:10:03Z</time>
      </trkpt>
      <trkpt lat="47.14103" lon="-0.89647">
        <ele>92</ele>
        <time>2014-11-20T16:10:05Z</time>
      </trkpt>
      <trkpt lat="47.14103" lon="-0.89644">
        <ele>92</ele>
        <time>2014-11-20T16:10:07Z</time>
      </trkpt>
      <trkpt lat="47.14101" lon="-0.8964">
        <ele>92</ele>
        <time>2014-11-20T16:10:09Z</time>
      </trkpt>
      <trkpt lat="47.14101" lon="-0.89637">
        <ele>92</ele>
        <time>2014-11-20T16:10:11Z</time>
      </trkpt>
      <trkpt lat="47.14099" lon="-0.89633">
        <ele>92</ele>
        <time>2014-11-20T16:10:13Z</time>
      </trkpt>
      <trkpt lat="47.14098" lon="-0.8963">
        <ele>92</ele>
        <time>2014-11-20T16:10:15Z</time>
      </trkpt>
      <trkpt lat="47.14098" lon="-0.89627">
        <ele>93</ele>
        <time>2014-11-20T16:10:17Z</time>
      </trkpt>
      <trkpt lat="47.14097" lon="-0.89624">
        <ele>93</ele>
        <time>2014-11-20T16:10:19Z</time>
      </trkpt>
      <trkpt lat="47.14096" lon="-0.89621">
        <ele>93</ele>
        <time>2014-11-20T16:10:21Z</time>
      </trkpt>
      <trkpt lat="47.14095" lon="-0.89617">
        <ele>93</ele>
        <time>2014-11-20T16:10:23Z</time>
      </trkpt>
      <trkpt lat="47.14094" lon="-0.89614">
        <ele>93</ele>
        <time>2014-11-20T16:10:25Z</time>
      </trkpt>
      <trkpt lat="47.14092" lon="-0.89611">
        <ele>93</ele>
        <time>2014-11-20T16:10:27Z</time>
      </trkpt>
      <trkpt lat="47.14091" lon="-0.89607">
        <ele>93</ele>
        <time>2014-11-20T16:10:29Z</time>
      </trkpt>
      <trkpt lat="47.14089" lon="-0.89604">
        <ele>93</ele>
        <time>2014-11-20T16:10:31Z</time>
      </trkpt>
      <trkpt lat="47.14088" lon="-0.89601">
        <ele>93</ele>
        <time>2014-11-20T16:10:33Z</time>
      </trkpt>
      <trkpt lat="47.14087" lon="-0.89598">
        <ele>93</ele>
        <time>2014-11-20T16:10:35Z</time>
      </trkpt>
      <trkpt lat="47.14085" lon="-0.89594">
        <ele>94</ele>
        <time>2014-11-20T16:10:38Z</time>
      </trkpt>
      <trkpt lat="47.14083" lon="-0.89589">
        <ele>94</ele>
        <time>2014-11-20T16:10:41Z</time>
      </trkpt>
      <trkpt lat="47.14081" lon="-0.89584">
        <ele>94</ele>
        <time>2014-11-20T16:10:44Z</time>
      </trkpt>
      <trkpt lat="47.14079" lon="-0.89581">
        <ele>94</ele>
        <time>2014-11-20T16:10:46Z</time>
      </trkpt>
      <trkpt lat="47.14078" lon="-0.89578">
        <ele>94</ele>
        <time>2014-11-20T16:10:48Z</time>
      </trkpt>
      <trkpt lat="47.14076" lon="-0.89575">
        <ele>94</ele>
        <time>2014-11-20T16:10:50Z</time>
      </trkpt>
      <trkpt lat="47.14075" lon="-0.89572">
        <ele>94</ele>
        <time>2014-11-20T16:10:52Z</time>
      </trkpt>
      <trkpt lat="47.14074" lon="-0.89569">
        <ele>94</ele>
        <time>2014-11-20T16:10:54Z</time>
      </trkpt>
      <trkpt lat="47.14073" lon="-0.89566">
        <ele>94</ele>
        <time>2014-11-20T16:10:56Z</time>
      </trkpt>
      <trkpt lat="47.14071" lon="-0.89562">
        <ele>94</ele>
        <time>2014-11-20T16:10:58Z</time>
      </trkpt>
      <trkpt lat="47.1407" lon="-0.89559">
        <ele>94</ele>
        <time>2014-11-20T16:11:00Z</time>
      </trkpt>
      <trkpt lat="47.14069" lon="-0.89556">
        <ele>94</ele>
        <time>2014-11-20T16:11:02Z</time>
      </trkpt>
      <trkpt lat="47.14067" lon="-0.89552">
        <ele>94</ele>
        <time>2014-11-20T16:11:04Z</time>
      </trkpt>
      <trkpt lat="47.14065" lon="-0.89547">
        <ele>94</ele>
        <time>2014-11-20T16:11:07Z</time>
      </trkpt>
      <trkpt lat="47.14064" lon="-0.89544">
        <ele>94</ele>
        <time>2014-11-20T16:11:09Z</time>
      </trkpt>
      <trkpt lat="47.14063" lon="-0.89542">
        <ele>94</ele>
        <time>2014-11-20T16:11:11Z</time>
      </trkpt>
      <trkpt lat="47.14062" lon="-0.89539">
        <ele>94</ele>
        <time>2014-11-20T16:11:13Z</time>
      </trkpt>
      <trkpt lat="47.14061" lon="-0.89535">
        <ele>94</ele>
        <time>2014-11-20T16:11:15Z</time>
      </trkpt>
      <trkpt lat="47.14059" lon="-0.89532">
        <ele>94</ele>
        <time>2014-11-20T16:11:17Z</time>
      </trkpt>
      <trkpt lat="47.14058" lon="-0.89528">
        <ele>94</ele>
        <time>2014-11-20T16:11:20Z</time>
      </trkpt>
      <trkpt lat="47.14056" lon="-0.89525">
        <ele>94</ele>
        <time>2014-11-20T16:11:22Z</time>
      </trkpt>
      <trkpt lat="47.14056" lon="-0.89521">
        <ele>94</ele>
        <time>2014-11-20T16:11:24Z</time>
      </trkpt>
      <trkpt lat="47.14054" lon="-0.89518">
        <ele>94</ele>
        <time>2014-11-20T16:11:26Z</time>
      </trkpt>
      <trkpt lat="47.14053" lon="-0.89515">
        <ele>94</ele>
        <time>2014-11-20T16:11:28Z</time>
      </trkpt>
      <trkpt lat="47.14052" lon="-0.89512">
        <ele>94</ele>
        <time>2014-11-20T16:11:30Z</time>
      </trkpt>
      <trkpt lat="47.1405" lon="-0.89509">
        <ele>94</ele>
        <time>2014-11-20T16:11:32Z</time>
      </trkpt>
      <trkpt lat="47.14049" lon="-0.89506">
        <ele>94</ele>
        <time>2014-11-20T16:11:34Z</time>
      </trkpt>
      <trkpt lat="47.14048" lon="-0.89504">
        <ele>94</ele>
        <time>2014-11-20T16:11:36Z</time>
      </trkpt>
      <trkpt lat="47.14047" lon="-0.89501">
        <ele>94</ele>
        <time>2014-11-20T16:11:38Z</time>
      </trkpt>
      <trkpt lat="47.14046" lon="-0.89497">
        <ele>94</ele>
        <time>2014-11-20T16:11:40Z</time>
      </trkpt>
      <trkpt lat="47.14044" lon="-0.89494">
        <ele>94</ele>
        <time>2014-11-20T16:11:42Z</time>
      </trkpt>
      <trkpt lat="47.14043" lon="-0.89491">
        <ele>94</ele>
        <time>2014-11-20T16:11:44Z</time>
      </trkpt>
      <trkpt lat="47.14042" lon="-0.89488">
        <ele>94</ele>
        <time>2014-11-20T16:11:46Z</time>
      </trkpt>
      <trkpt lat="47.14041" lon="-0.89484">
        <ele>94</ele>
        <time>2014-11-20T16:11:48Z</time>
      </trkpt>
      <trkpt lat="47.14041" lon="-0.89481">
        <ele>94</ele>
        <time>2014-11-20T16:11:50Z</time>
      </trkpt>
      <trkpt lat="47.14041" lon="-0.89477">
        <ele>94</ele>
        <time>2014-11-20T16:11:52Z</time>
      </trkpt>
      <trkpt lat="47.14042" lon="-0.89473">
        <ele>94</ele>
        <time>2014-11-20T16:11:54Z</time>
      </trkpt>
      <trkpt lat="47.14043" lon="-0.8947">
        <ele>94</ele>
        <time>2014-11-20T16:11:56Z</time>
      </trkpt>
      <trkpt lat="47.14045" lon="-0.89466">
        <ele>94</ele>
        <time>2014-11-20T16:11:59Z</time>
      </trkpt>
      <trkpt lat="47.14047" lon="-0.89464">
        <ele>94</ele>
        <time>2014-11-20T16:12:01Z</time>
      </trkpt>
      <trkpt lat="47.14049" lon="-0.89461">
        <ele>94</ele>
        <time>2014-11-20T16:12:03Z</time>
      </trkpt>
      <trkpt lat="47.1405" lon="-0.8946">
        <ele>94</ele>
        <time>2014-11-20T16:12:05Z</time>
      </trkpt>
      <trkpt lat="47.14052" lon="-0.89457">
        <ele>94</ele>
        <time>2014-11-20T16:12:07Z</time>
      </trkpt>
      <trkpt lat="47.14052" lon="-0.89453">
        <ele>94</ele>
        <time>2014-11-20T16:12:09Z</time>
      </trkpt>
      <trkpt lat="47.14053" lon="-0.89449">
        <ele>94</ele>
        <time>2014-11-20T16:12:11Z</time>
      </trkpt>
      <trkpt lat="47.14054" lon="-0.89446">
        <ele>94</ele>
        <time>2014-11-20T16:12:13Z</time>
      </trkpt>
      <trkpt lat="47.14055" lon="-0.89442">
        <ele>94</ele>
        <time>2014-11-20T16:12:15Z</time>
      </trkpt>
      <trkpt lat="47.14056" lon="-0.89439">
        <ele>94</ele>
        <time>2014-11-20T16:12:17Z</time>
      </trkpt>
      <trkpt lat="47.14058" lon="-0.89435">
        <ele>94</ele>
        <time>2014-11-20T16:12:19Z</time>
      </trkpt>
      <trkpt lat="47.14059" lon="-0.89432">
        <ele>94</ele>
        <time>2014-11-20T16:12:21Z</time>
      </trkpt>
      <trkpt lat="47.14061" lon="-0.89429">
        <ele>94</ele>
        <time>2014-11-20T16:12:23Z</time>
      </trkpt>
      <trkpt lat="47.14063" lon="-0.89427">
        <ele>94</ele>
        <time>2014-11-20T16:12:25Z</time>
      </trkpt>
      <trkpt lat="47.14065" lon="-0.89426">
        <ele>94</ele>
        <time>2014-11-20T16:12:27Z</time>
      </trkpt>
      <trkpt lat="47.14067" lon="-0.89424">
        <ele>94</ele>
        <time>2014-11-20T16:12:29Z</time>
      </trkpt>
      <trkpt lat="47.14069" lon="-0.89423">
        <ele>94</ele>
        <time>2014-11-20T16:12:31Z</time>
      </trkpt>
      <trkpt lat="47.14072" lon="-0.89421">
        <ele>94</ele>
        <time>2014-11-20T16:12:34Z</time>
      </trkpt>
      <trkpt lat="47.14074" lon="-0.8942">
        <ele>94</ele>
        <time>2014-11-20T16:12:36Z</time>
      </trkpt>
      <trkpt lat="47.14077" lon="-0.89418">
        <ele>94</ele>
        <time>2014-11-20T16:12:39Z</time>
      </trkpt>
      <trkpt lat="47.1408" lon="-0.89417">
        <ele>94</ele>
        <time>2014-11-20T16:12:41Z</time>
      </trkpt>
      <trkpt lat="47.14083" lon="-0.89415">
        <ele>94</ele>
        <time>2014-11-20T16:12:44Z</time>
      </trkpt>
      <trkpt lat="47.14086" lon="-0.89415">
        <ele>94</ele>
        <time>2014-11-20T16:12:46Z</time>
      </trkpt>
      <trkpt lat="47.14088" lon="-0.89414">
        <ele>94</ele>
        <time>2014-11-20T16:12:48Z</time>
      </trkpt>
      <trkpt lat="47.1409" lon="-0.89413">
        <ele>94</ele>
        <time>2014-11-20T16:12:50Z</time>
      </trkpt>
      <trkpt lat="47.14093" lon="-0.89413">
        <ele>94</ele>
        <time>2014-11-20T16:12:52Z</time>
      </trkpt>
      <trkpt lat="47.14096" lon="-0.89412">
        <ele>94</ele>
        <time>2014-11-20T16:12:54Z</time>
      </trkpt>
      <trkpt lat="47.14098" lon="-0.89412">
        <ele>94</ele>
        <time>2014-11-20T16:12:56Z</time>
      </trkpt>
      <trkpt lat="47.14101" lon="-0.89412">
        <ele>94</ele>
        <time>2014-11-20T16:12:58Z</time>
      </trkpt>
      <trkpt lat="47.14103" lon="-0.89412">
        <ele>94</ele>
        <time>2014-11-20T16:13:00Z</time>
      </trkpt>
      <trkpt lat="47.14107" lon="-0.89413">
        <ele>94</ele>
        <time>2014-11-20T16:13:03Z</time>
      </trkpt>
      <trkpt lat="47.14109" lon="-0.89413">
        <ele>94</ele>
        <time>2014-11-20T16:13:05Z</time>
      </trkpt>
      <trkpt lat="47.14112" lon="-0.89414">
        <ele>94</ele>
        <time>2014-11-20T16:13:07Z</time>
      </trkpt>
      <trkpt lat="47.14114" lon="-0.89414">
        <ele>94</ele>
        <time>2014-11-20T16:13:09Z</time>
      </trkpt>
      <trkpt lat="47.14116" lon="-0.89415">
        <ele>94</ele>
        <time>2014-11-20T16:13:11Z</time>
      </trkpt>
      <trkpt lat="47.14119" lon="-0.89416">
        <ele>94</ele>
        <time>2014-11-20T16:13:13Z</time>
      </trkpt>
      <trkpt lat="47.14122" lon="-0.89417">
        <ele>94</ele>
        <time>2014-11-20T16:13:16Z</time>
      </trkpt>
      <trkpt lat="47.14125" lon="-0.89417">
        <ele>94</ele>
        <time>2014-11-20T16:13:18Z</time>
      </trkpt>
      <trkpt lat="47.14128" lon="-0.89417">
        <ele>94</ele>
        <time>2014-11-20T16:13:20Z</time>
      </trkpt>
      <trkpt lat="47.1413" lon="-0.89417">
        <ele>94</ele>
        <time>2014-11-20T16:13:22Z</time>
      </trkpt>
      <trkpt lat="47.14133" lon="-0.89417">
        <ele>94</ele>
        <time>2014-11-20T16:13:24Z</time>
      </trkpt>
      <trkpt lat="47.14135" lon="-0.89418">
        <ele>94</ele>
        <time>2014-11-20T16:13:26Z</time>
      </trkpt>
      <trkpt lat="47.14138" lon="-0.89418">
        <ele>94</ele>
        <time>2014-11-20T16:13:28Z</time>
      </trkpt>
      <trkpt lat="47.1414" lon="-0.89418">
        <ele>94</ele>
        <time>2014-11-20T16:13:30Z</time>
      </trkpt>
      <trkpt lat="47.14143" lon="-0.89419">
        <ele>94</ele>
        <time>2014-11-20T16:13:32Z</time>
      </trkpt>
      <trkpt lat="47.14145" lon="-0.89419">
        <ele>94</ele>
        <time>2014-11-20T16:13:34Z</time>
      </trkpt>
      <trkpt lat="47.14148" lon="-0.89419">
        <ele>94</ele>
        <time>2014-11-20T16:13:36Z</time>
      </trkpt>
      <trkpt lat="47.1415" lon="-0.89419">
        <ele>94</ele>
        <time>2014-11-20T16:13:38Z</time>
      </trkpt>
      <trkpt lat="47.14152" lon="-0.89419">
        <ele>94</ele>
        <time>2014-11-20T16:13:40Z</time>
      </trkpt>
      <trkpt lat="47.14154" lon="-0.89419">
        <ele>94</ele>
        <time>2014-11-20T16:13:42Z</time>
      </trkpt>
      <trkpt lat="47.14157" lon="-0.89419">
        <ele>94</ele>
        <time>2014-11-20T16:13:44Z</time>
      </trkpt>
      <trkpt lat="47.14159" lon="-0.8942">
        <ele>94</ele>
        <time>2014-11-20T16:13:46Z</time>
      </trkpt>
      <trkpt lat="47.14162" lon="-0.8942">
        <ele>94</ele>
        <time>2014-11-20T16:13:48Z</time>
      </trkpt>
      <trkpt lat="47.14164" lon="-0.8942">
        <ele>94</ele>
        <time>2014-11-20T16:13:50Z</time>
      </trkpt>
      <trkpt lat="47.14167" lon="-0.8942">
        <ele>94</ele>
        <time>2014-11-20T16:13:52Z</time>
      </trkpt>
      <trkpt lat="47.14169" lon="-0.89421">
        <ele>94</ele>
        <time>2014-11-20T16:13:54Z</time>
      </trkpt>
      <trkpt lat="47.14172" lon="-0.89422">
        <ele>94</ele>
        <time>2014-11-20T16:13:56Z</time>
      </trkpt>
      <trkpt lat="47.14174" lon="-0.89423">
        <ele>94</ele>
        <time>2014-11-20T16:13:58Z</time>
      </trkpt>
      <trkpt lat="47.14176" lon="-0.89423">
        <ele>94</ele>
        <time>2014-11-20T16:14:00Z</time>
      </trkpt>
      <trkpt lat="47.14179" lon="-0.89424">
        <ele>94</ele>
        <time>2014-11-20T16:14:02Z</time>
      </trkpt>
      <trkpt lat="47.14181" lon="-0.89425">
        <ele>94</ele>
        <time>2014-11-20T16:14:04Z</time>
      </trkpt>
      <trkpt lat="47.14185" lon="-0.89427">
        <ele>94</ele>
        <time>2014-11-20T16:14:07Z</time>
      </trkpt>
      <trkpt lat="47.14187" lon="-0.89428">
        <ele>94</ele>
        <time>2014-11-20T16:14:09Z</time>
      </trkpt>
      <trkpt lat="47.1419" lon="-0.89428">
        <ele>94</ele>
        <time>2014-11-20T16:14:11Z</time>
      </trkpt>
      <trkpt lat="47.14192" lon="-0.89429">
        <ele>94</ele>
        <time>2014-11-20T16:14:13Z</time>
      </trkpt>
      <trkpt lat="47.14194" lon="-0.8943">
        <ele>94</ele>
        <time>2014-11-20T16:14:15Z</time>
      </trkpt>
      <trkpt lat="47.14197" lon="-0.89431">
        <ele>94</ele>
        <time>2014-11-20T16:14:17Z</time>
      </trkpt>
      <trkpt lat="47.142" lon="-0.89432">
        <ele>94</ele>
        <time>2014-11-20T16:14:19Z</time>
      </trkpt>
      <trkpt lat="47.14202" lon="-0.89433">
        <ele>94</ele>
        <time>2014-11-20T16:14:21Z</time>
      </trkpt>
      <trkpt lat="47.14205" lon="-0.89435">
        <ele>94</ele>
        <time>2014-11-20T16:14:23Z</time>
      </trkpt>
      <trkpt lat="47.14208" lon="-0.89436">
        <ele>94</ele>
        <time>2014-11-20T16:14:25Z</time>
      </trkpt>
      <trkpt lat="47.14211" lon="-0.89438">
        <ele>94</ele>
        <time>2014-11-20T16:14:28Z</time>
      </trkpt>
      <trkpt lat="47.14214" lon="-0.89439">
        <ele>94</ele>
        <time>2014-11-20T16:14:30Z</time>
      </trkpt>
      <trkpt lat="47.14216" lon="-0.8944">
        <ele>94</ele>
        <time>2014-11-20T16:14:32Z</time>
      </trkpt>
      <trkpt lat="47.14219" lon="-0.89442">
        <ele>94</ele>
        <time>2014-11-20T16:14:34Z</time>
      </trkpt>
      <trkpt lat="47.14222" lon="-0.89443">
        <ele>94</ele>
        <time>2014-11-20T16:14:36Z</time>
      </trkpt>
      <trkpt lat="47.14226" lon="-0.89445">
        <ele>95</ele>
        <time>2014-11-20T16:14:39Z</time>
      </trkpt>
      <trkpt lat="47.14228" lon="-0.89447">
        <ele>96</ele>
        <time>2014-11-20T16:14:41Z</time>
      </trkpt>
      <trkpt lat="47.14232" lon="-0.89449">
        <ele>96</ele>
        <time>2014-11-20T16:14:44Z</time>
      </trkpt>
      <trkpt lat="47.14235" lon="-0.89451">
        <ele>96</ele>
        <time>2014-11-20T16:14:46Z</time>
      </trkpt>
      <trkpt lat="47.14238" lon="-0.89452">
        <ele>96</ele>
        <time>2014-11-20T16:14:49Z</time>
      </trkpt>
      <trkpt lat="47.1424" lon="-0.89454">
        <ele>96</ele>
        <time>2014-11-20T16:14:51Z</time>
      </trkpt>
      <trkpt lat="47.14243" lon="-0.89455">
        <ele>96</ele>
        <time>2014-11-20T16:14:53Z</time>
      </trkpt>
      <trkpt lat="47.14245" lon="-0.89457">
        <ele>96</ele>
        <time>2014-11-20T16:14:55Z</time>
      </trkpt>
      <trkpt lat="47.14248" lon="-0.89458">
        <ele>96</ele>
        <time>2014-11-20T16:14:57Z</time>
      </trkpt>
      <trkpt lat="47.1425" lon="-0.8946">
        <ele>96</ele>
        <time>2014-11-20T16:14:59Z</time>
      </trkpt>
      <trkpt lat="47.14252" lon="-0.89461">
        <ele>96</ele>
        <time>2014-11-20T16:15:01Z</time>
      </trkpt>
      <trkpt lat="47.14256" lon="-0.89463">
        <ele>96</ele>
        <time>2014-11-20T16:15:04Z</time>
      </trkpt>
      <trkpt lat="47.14258" lon="-0.89464">
        <ele>96</ele>
        <time>2014-11-20T16:15:06Z</time>
      </trkpt>
      <trkpt lat="47.14261" lon="-0.89465">
        <ele>96</ele>
        <time>2014-11-20T16:15:08Z</time>
      </trkpt>
      <trkpt lat="47.14263" lon="-0.89467">
        <ele>96</ele>
        <time>2014-11-20T16:15:10Z</time>
      </trkpt>
      <trkpt lat="47.14266" lon="-0.89468">
        <ele>96</ele>
        <time>2014-11-20T16:15:12Z</time>
      </trkpt>
      <trkpt lat="47.14268" lon="-0.89469">
        <ele>96</ele>
        <time>2014-11-20T16:15:14Z</time>
      </trkpt>
      <trkpt lat="47.1427" lon="-0.8947">
        <ele>96</ele>
        <time>2014-11-20T16:15:16Z</time>
      </trkpt>
      <trkpt lat="47.14273" lon="-0.89471">
        <ele>96</ele>
        <time>2014-11-20T16:15:18Z</time>
      </trkpt>
      <trkpt lat="47.14275" lon="-0.89472">
        <ele>96</ele>
        <time>2014-11-20T16:15:20Z</time>
      </trkpt>
      <trkpt lat="47.14278" lon="-0.89473">
        <ele>96</ele>
        <time>2014-11-20T16:15:22Z</time>
      </trkpt>
      <trkpt lat="47.1428" lon="-0.89474">
        <ele>96</ele>
        <time>2014-11-20T16:15:24Z</time>
      </trkpt>
      <trkpt lat="47.14283" lon="-0.89475">
        <ele>96</ele>
        <time>2014-11-20T16:15:26Z</time>
      </trkpt>
      <trkpt lat="47.14285" lon="-0.89476">
        <ele>96</ele>
        <time>2014-11-20T16:15:28Z</time>
      </trkpt>
      <trkpt lat="47.14288" lon="-0.89478">
        <ele>96</ele>
        <time>2014-11-20T16:15:31Z</time>
      </trkpt>
      <trkpt lat="47.1429" lon="-0.89479">
        <ele>96</ele>
        <time>2014-11-20T16:15:33Z</time>
      </trkpt>
      <trkpt lat="47.14293" lon="-0.89481">
        <ele>96</ele>
        <time>2014-11-20T16:15:35Z</time>
      </trkpt>
      <trkpt lat="47.14296" lon="-0.89482">
        <ele>96</ele>
        <time>2014-11-20T16:15:37Z</time>
      </trkpt>
      <trkpt lat="47.14299" lon="-0.89484">
        <ele>96</ele>
        <time>2014-11-20T16:15:40Z</time>
      </trkpt>
      <trkpt lat="47.14301" lon="-0.89485">
        <ele>96</ele>
        <time>2014-11-20T16:15:42Z</time>
      </trkpt>
      <trkpt lat="47.14304" lon="-0.89487">
        <ele>96</ele>
        <time>2014-11-20T16:15:44Z</time>
      </trkpt>
      <trkpt lat="47.14306" lon="-0.89488">
        <ele>96</ele>
        <time>2014-11-20T16:15:46Z</time>
      </trkpt>
      <trkpt lat="47.14308" lon="-0.89489">
        <ele>96</ele>
        <time>2014-11-20T16:15:48Z</time>
      </trkpt>
      <trkpt lat="47.14311" lon="-0.8949">
        <ele>96</ele>
        <time>2014-11-20T16:15:50Z</time>
      </trkpt>
      <trkpt lat="47.14314" lon="-0.89492">
        <ele>96</ele>
        <time>2014-11-20T16:15:52Z</time>
      </trkpt>
      <trkpt lat="47.14316" lon="-0.89493">
        <ele>96</ele>
        <time>2014-11-20T16:15:54Z</time>
      </trkpt>
      <trkpt lat="47.14319" lon="-0.89495">
        <ele>96</ele>
        <time>2014-11-20T16:15:56Z</time>
      </trkpt>
      <trkpt lat="47.14321" lon="-0.89496">
        <ele>96</ele>
        <time>2014-11-20T16:15:58Z</time>
      </trkpt>
      <trkpt lat="47.14324" lon="-0.89497">
        <ele>96</ele>
        <time>2014-11-20T16:16:00Z</time>
      </trkpt>
      <trkpt lat="47.14326" lon="-0.89498">
        <ele>96</ele>
        <time>2014-11-20T16:16:02Z</time>
      </trkpt>
      <trkpt lat="47.14329" lon="-0.89499">
        <ele>96</ele>
        <time>2014-11-20T16:16:04Z</time>
      </trkpt>
      <trkpt lat="47.14331" lon="-0.895">
        <ele>96</ele>
        <time>2014-11-20T16:16:06Z</time>
      </trkpt>
      <trkpt lat="47.14334" lon="-0.89502">
        <ele>96</ele>
        <time>2014-11-20T16:16:08Z</time>
      </trkpt>
      <trkpt lat="47.14336" lon="-0.89503">
        <ele>96</ele>
        <time>2014-11-20T16:16:10Z</time>
      </trkpt>
      <trkpt lat="47.14339" lon="-0.89503">
        <ele>96</ele>
        <time>2014-11-20T16:16:12Z</time>
      </trkpt>
      <trkpt lat="47.14342" lon="-0.89504">
        <ele>96</ele>
        <time>2014-11-20T16:16:14Z</time>
      </trkpt>
      <trkpt lat="47.14344" lon="-0.89506">
        <ele>96</ele>
        <time>2014-11-20T16:16:16Z</time>
      </trkpt>
      <trkpt lat="47.14347" lon="-0.89508">
        <ele>96</ele>
        <time>2014-11-20T16:16:18Z</time>
      </trkpt>
      <trkpt lat="47.14349" lon="-0.89509">
        <ele>96</ele>
        <time>2014-11-20T16:16:20Z</time>
      </trkpt>
      <trkpt lat="47.14352" lon="-0.8951">
        <ele>96</ele>
        <time>2014-11-20T16:16:22Z</time>
      </trkpt>
      <trkpt lat="47.14355" lon="-0.89511">
        <ele>96</ele>
        <time>2014-11-20T16:16:24Z</time>
      </trkpt>
      <trkpt lat="47.14357" lon="-0.89512">
        <ele>96</ele>
        <time>2014-11-20T16:16:26Z</time>
      </trkpt>
      <trkpt lat="47.1436" lon="-0.89513">
        <ele>96</ele>
        <time>2014-11-20T16:16:28Z</time>
      </trkpt>
      <trkpt lat="47.14362" lon="-0.89514">
        <ele>96</ele>
        <time>2014-11-20T16:16:30Z</time>
      </trkpt>
      <trkpt lat="47.14365" lon="-0.89515">
        <ele>96</ele>
        <time>2014-11-20T16:16:32Z</time>
      </trkpt>
      <trkpt lat="47.14368" lon="-0.89515">
        <ele>96</ele>
        <time>2014-11-20T16:16:34Z</time>
      </trkpt>
      <trkpt lat="47.14371" lon="-0.89514">
        <ele>96</ele>
        <time>2014-11-20T16:16:37Z</time>
      </trkpt>
      <trkpt lat="47.14373" lon="-0.89513">
        <ele>96</ele>
        <time>2014-11-20T16:16:39Z</time>
      </trkpt>
      <trkpt lat="47.14376" lon="-0.89514">
        <ele>96</ele>
        <time>2014-11-20T16:16:41Z</time>
      </trkpt>
      <trkpt lat="47.14378" lon="-0.89516">
        <ele>96</ele>
        <time>2014-11-20T16:16:43Z</time>
      </trkpt>
      <trkpt lat="47.14381" lon="-0.89516">
        <ele>96</ele>
        <time>2014-11-20T16:16:45Z</time>
      </trkpt>
      <trkpt lat="47.14383" lon="-0.89517">
        <ele>96</ele>
        <time>2014-11-20T16:16:47Z</time>
      </trkpt>
      <trkpt lat="47.14387" lon="-0.89519">
        <ele>96</ele>
        <time>2014-11-20T16:16:50Z</time>
      </trkpt>
      <trkpt lat="47.14389" lon="-0.8952">
        <ele>96</ele>
        <time>2014-11-20T16:16:52Z</time>
      </trkpt>
      <trkpt lat="47.14392" lon="-0.89522">
        <ele>96</ele>
        <time>2014-11-20T16:16:54Z</time>
      </trkpt>
      <trkpt lat="47.14395" lon="-0.89522">
        <ele>96</ele>
        <time>2014-11-20T16:16:56Z</time>
      </trkpt>
      <trkpt lat="47.14397" lon="-0.89524">
        <ele>96</ele>
        <time>2014-11-20T16:16:58Z</time>
      </trkpt>
      <trkpt lat="47.14399" lon="-0.89524">
        <ele>96</ele>
        <time>2014-11-20T16:17:00Z</time>
      </trkpt>
      <trkpt lat="47.14402" lon="-0.89522">
        <ele>96</ele>
        <time>2014-11-20T16:17:02Z</time>
      </trkpt>
      <trkpt lat="47.14402" lon="-0.89521">
        <ele>96</ele>
        <time>2014-11-20T16:17:04Z</time>
      </trkpt>
    </trkseg>
  </trk>
</gpx>